<?xml version="1.0" encoding="UTF-8" standalone="no" ?>
<gpx xmlns="http://www.topografix.com/GPX/1/1" xmlns:xsi="http://www.w3.org/2001/XMLSchema-instance" xsi:schemaLocation="http://www.topografix.com/GPX/1/1 http://www.topografix.com/GPX/1/1/gpx.xsd" version="1.1" creator="VisuGPX - https://www.visugpx.com">
  <metadata>
    <name>Randonnée à Odile</name>
    <desc><![CDATA[Circuit au départ de Franqueville jusqu'à Bonsecours avec retour le long de la Seine]]></desc>
  </metadata>
  <trk>
    <name><![CDATA[Randonnée à Odile_1]]></name>
    <trkseg>
      <trkpt lat="49.40183" lon="1.17094">
        <ele>147</ele>
        <time>2017-11-07T13:44:11Z</time>
      </trkpt>
      <trkpt lat="49.40185" lon="1.17089">
        <ele>147</ele>
        <time>2017-11-07T13:44:11Z</time>
      </trkpt>
      <trkpt lat="49.40187" lon="1.17083">
        <ele>147</ele>
        <time>2017-11-07T13:44:11Z</time>
      </trkpt>
      <trkpt lat="49.40186" lon="1.17079">
        <ele>147</ele>
        <time>2017-11-07T13:44:11Z</time>
      </trkpt>
      <trkpt lat="49.40188" lon="1.17074">
        <ele>147</ele>
        <time>2017-11-07T13:44:27Z</time>
      </trkpt>
      <trkpt lat="49.4019" lon="1.17068">
        <ele>147</ele>
        <time>2017-11-07T13:44:27Z</time>
      </trkpt>
      <trkpt lat="49.40192" lon="1.17062">
        <ele>147</ele>
        <time>2017-11-07T13:44:27Z</time>
      </trkpt>
      <trkpt lat="49.40195" lon="1.17056">
        <ele>147</ele>
        <time>2017-11-07T13:44:27Z</time>
      </trkpt>
      <trkpt lat="49.40199" lon="1.17049">
        <ele>147</ele>
        <time>2017-11-07T13:44:43Z</time>
      </trkpt>
      <trkpt lat="49.40202" lon="1.17042">
        <ele>147</ele>
        <time>2017-11-07T13:44:43Z</time>
      </trkpt>
      <trkpt lat="49.40205" lon="1.17036">
        <ele>147</ele>
        <time>2017-11-07T13:44:43Z</time>
      </trkpt>
      <trkpt lat="49.40207" lon="1.1703">
        <ele>147</ele>
        <time>2017-11-07T13:44:43Z</time>
      </trkpt>
      <trkpt lat="49.4021" lon="1.17025">
        <ele>149</ele>
        <time>2017-11-07T13:44:59Z</time>
      </trkpt>
      <trkpt lat="49.40214" lon="1.17019">
        <ele>149</ele>
        <time>2017-11-07T13:44:59Z</time>
      </trkpt>
      <trkpt lat="49.40218" lon="1.17013">
        <ele>149</ele>
        <time>2017-11-07T13:44:59Z</time>
      </trkpt>
      <trkpt lat="49.40221" lon="1.17007">
        <ele>149</ele>
        <time>2017-11-07T13:44:59Z</time>
      </trkpt>
      <trkpt lat="49.40222" lon="1.17">
        <ele>149</ele>
        <time>2017-11-07T13:45:15Z</time>
      </trkpt>
      <trkpt lat="49.40221" lon="1.16992">
        <ele>149</ele>
        <time>2017-11-07T13:45:15Z</time>
      </trkpt>
      <trkpt lat="49.4022" lon="1.16985">
        <ele>149</ele>
        <time>2017-11-07T13:45:15Z</time>
      </trkpt>
      <trkpt lat="49.40219" lon="1.16979">
        <ele>149</ele>
        <time>2017-11-07T13:45:15Z</time>
      </trkpt>
      <trkpt lat="49.40218" lon="1.16974">
        <ele>149</ele>
        <time>2017-11-07T13:45:31Z</time>
      </trkpt>
      <trkpt lat="49.40215" lon="1.16968">
        <ele>149</ele>
        <time>2017-11-07T13:45:31Z</time>
      </trkpt>
      <trkpt lat="49.40213" lon="1.16963">
        <ele>149</ele>
        <time>2017-11-07T13:45:31Z</time>
      </trkpt>
      <trkpt lat="49.40208" lon="1.16958">
        <ele>148</ele>
        <time>2017-11-07T13:45:31Z</time>
      </trkpt>
      <trkpt lat="49.40204" lon="1.16953">
        <ele>147</ele>
        <time>2017-11-07T13:45:47Z</time>
      </trkpt>
      <trkpt lat="49.40201" lon="1.16949">
        <ele>147</ele>
        <time>2017-11-07T13:45:47Z</time>
      </trkpt>
      <trkpt lat="49.40196" lon="1.16945">
        <ele>147</ele>
        <time>2017-11-07T13:45:47Z</time>
      </trkpt>
      <trkpt lat="49.40192" lon="1.16941">
        <ele>147</ele>
        <time>2017-11-07T13:45:47Z</time>
      </trkpt>
      <trkpt lat="49.40189" lon="1.16935">
        <ele>147</ele>
        <time>2017-11-07T13:46:03Z</time>
      </trkpt>
      <trkpt lat="49.40188" lon="1.16927">
        <ele>147</ele>
        <time>2017-11-07T13:46:03Z</time>
      </trkpt>
      <trkpt lat="49.40187" lon="1.16919">
        <ele>147</ele>
        <time>2017-11-07T13:46:03Z</time>
      </trkpt>
      <trkpt lat="49.40188" lon="1.16912">
        <ele>147</ele>
        <time>2017-11-07T13:46:03Z</time>
      </trkpt>
      <trkpt lat="49.40191" lon="1.16905">
        <ele>147</ele>
        <time>2017-11-07T13:46:19Z</time>
      </trkpt>
      <trkpt lat="49.40195" lon="1.16899">
        <ele>147</ele>
        <time>2017-11-07T13:46:19Z</time>
      </trkpt>
      <trkpt lat="49.40198" lon="1.16894">
        <ele>147</ele>
        <time>2017-11-07T13:46:19Z</time>
      </trkpt>
      <trkpt lat="49.402" lon="1.16887">
        <ele>147</ele>
        <time>2017-11-07T13:46:19Z</time>
      </trkpt>
      <trkpt lat="49.40203" lon="1.16881">
        <ele>147</ele>
        <time>2017-11-07T13:46:35Z</time>
      </trkpt>
      <trkpt lat="49.40206" lon="1.16875">
        <ele>148</ele>
        <time>2017-11-07T13:46:35Z</time>
      </trkpt>
      <trkpt lat="49.40209" lon="1.16868">
        <ele>149</ele>
        <time>2017-11-07T13:46:35Z</time>
      </trkpt>
      <trkpt lat="49.40212" lon="1.16862">
        <ele>149</ele>
        <time>2017-11-07T13:46:35Z</time>
      </trkpt>
      <trkpt lat="49.40215" lon="1.16856">
        <ele>149</ele>
        <time>2017-11-07T13:46:51Z</time>
      </trkpt>
      <trkpt lat="49.40217" lon="1.1685">
        <ele>149</ele>
        <time>2017-11-07T13:46:51Z</time>
      </trkpt>
      <trkpt lat="49.4022" lon="1.16844">
        <ele>149</ele>
        <time>2017-11-07T13:46:51Z</time>
      </trkpt>
      <trkpt lat="49.40222" lon="1.16838">
        <ele>149</ele>
        <time>2017-11-07T13:46:51Z</time>
      </trkpt>
      <trkpt lat="49.40225" lon="1.16831">
        <ele>149</ele>
        <time>2017-11-07T13:47:07Z</time>
      </trkpt>
      <trkpt lat="49.40227" lon="1.16825">
        <ele>149</ele>
        <time>2017-11-07T13:47:07Z</time>
      </trkpt>
      <trkpt lat="49.40229" lon="1.16818">
        <ele>149</ele>
        <time>2017-11-07T13:47:07Z</time>
      </trkpt>
      <trkpt lat="49.40232" lon="1.16812">
        <ele>149</ele>
        <time>2017-11-07T13:47:07Z</time>
      </trkpt>
      <trkpt lat="49.40234" lon="1.16805">
        <ele>149</ele>
        <time>2017-11-07T13:47:23Z</time>
      </trkpt>
      <trkpt lat="49.40236" lon="1.16798">
        <ele>149</ele>
        <time>2017-11-07T13:47:23Z</time>
      </trkpt>
      <trkpt lat="49.40239" lon="1.16792">
        <ele>149</ele>
        <time>2017-11-07T13:47:23Z</time>
      </trkpt>
      <trkpt lat="49.40241" lon="1.16785">
        <ele>148</ele>
        <time>2017-11-07T13:47:23Z</time>
      </trkpt>
      <trkpt lat="49.40243" lon="1.16779">
        <ele>148</ele>
        <time>2017-11-07T13:47:39Z</time>
      </trkpt>
      <trkpt lat="49.40246" lon="1.16773">
        <ele>148</ele>
        <time>2017-11-07T13:47:39Z</time>
      </trkpt>
      <trkpt lat="49.40248" lon="1.16767">
        <ele>148</ele>
        <time>2017-11-07T13:47:39Z</time>
      </trkpt>
      <trkpt lat="49.4025" lon="1.16761">
        <ele>148</ele>
        <time>2017-11-07T13:47:39Z</time>
      </trkpt>
      <trkpt lat="49.40253" lon="1.16755">
        <ele>148</ele>
        <time>2017-11-07T13:47:55Z</time>
      </trkpt>
      <trkpt lat="49.40255" lon="1.16748">
        <ele>148</ele>
        <time>2017-11-07T13:47:55Z</time>
      </trkpt>
      <trkpt lat="49.40257" lon="1.16742">
        <ele>148</ele>
        <time>2017-11-07T13:47:55Z</time>
      </trkpt>
      <trkpt lat="49.4026" lon="1.16735">
        <ele>148</ele>
        <time>2017-11-07T13:47:55Z</time>
      </trkpt>
      <trkpt lat="49.40263" lon="1.16729">
        <ele>148</ele>
        <time>2017-11-07T13:48:11Z</time>
      </trkpt>
      <trkpt lat="49.40265" lon="1.16723">
        <ele>148</ele>
        <time>2017-11-07T13:48:11Z</time>
      </trkpt>
      <trkpt lat="49.40267" lon="1.16716">
        <ele>148</ele>
        <time>2017-11-07T13:48:11Z</time>
      </trkpt>
      <trkpt lat="49.40269" lon="1.16709">
        <ele>148</ele>
        <time>2017-11-07T13:48:11Z</time>
      </trkpt>
      <trkpt lat="49.40272" lon="1.16703">
        <ele>148</ele>
        <time>2017-11-07T13:48:27Z</time>
      </trkpt>
      <trkpt lat="49.40274" lon="1.16696">
        <ele>148</ele>
        <time>2017-11-07T13:48:27Z</time>
      </trkpt>
      <trkpt lat="49.40277" lon="1.16689">
        <ele>148</ele>
        <time>2017-11-07T13:48:27Z</time>
      </trkpt>
      <trkpt lat="49.4028" lon="1.16683">
        <ele>148</ele>
        <time>2017-11-07T13:48:27Z</time>
      </trkpt>
      <trkpt lat="49.40282" lon="1.16676">
        <ele>148</ele>
        <time>2017-11-07T13:48:43Z</time>
      </trkpt>
      <trkpt lat="49.40284" lon="1.1667">
        <ele>148</ele>
        <time>2017-11-07T13:48:43Z</time>
      </trkpt>
      <trkpt lat="49.40287" lon="1.16663">
        <ele>148</ele>
        <time>2017-11-07T13:48:43Z</time>
      </trkpt>
      <trkpt lat="49.40289" lon="1.16656">
        <ele>148</ele>
        <time>2017-11-07T13:48:43Z</time>
      </trkpt>
      <trkpt lat="49.40291" lon="1.16649">
        <ele>148</ele>
        <time>2017-11-07T13:48:59Z</time>
      </trkpt>
      <trkpt lat="49.40293" lon="1.16643">
        <ele>149</ele>
        <time>2017-11-07T13:48:59Z</time>
      </trkpt>
      <trkpt lat="49.40296" lon="1.16636">
        <ele>149</ele>
        <time>2017-11-07T13:48:59Z</time>
      </trkpt>
      <trkpt lat="49.40299" lon="1.1663">
        <ele>149</ele>
        <time>2017-11-07T13:48:59Z</time>
      </trkpt>
      <trkpt lat="49.40302" lon="1.16623">
        <ele>149</ele>
        <time>2017-11-07T13:49:15Z</time>
      </trkpt>
      <trkpt lat="49.40304" lon="1.16617">
        <ele>149</ele>
        <time>2017-11-07T13:49:15Z</time>
      </trkpt>
      <trkpt lat="49.40307" lon="1.16611">
        <ele>149</ele>
        <time>2017-11-07T13:49:15Z</time>
      </trkpt>
      <trkpt lat="49.40309" lon="1.16606">
        <ele>149</ele>
        <time>2017-11-07T13:49:15Z</time>
      </trkpt>
      <trkpt lat="49.40312" lon="1.16599">
        <ele>149</ele>
        <time>2017-11-07T13:49:31Z</time>
      </trkpt>
      <trkpt lat="49.40314" lon="1.16593">
        <ele>149</ele>
        <time>2017-11-07T13:49:31Z</time>
      </trkpt>
      <trkpt lat="49.40317" lon="1.16587">
        <ele>149</ele>
        <time>2017-11-07T13:49:31Z</time>
      </trkpt>
      <trkpt lat="49.40319" lon="1.1658">
        <ele>149</ele>
        <time>2017-11-07T13:49:31Z</time>
      </trkpt>
      <trkpt lat="49.40322" lon="1.16574">
        <ele>149</ele>
        <time>2017-11-07T13:49:47Z</time>
      </trkpt>
      <trkpt lat="49.40325" lon="1.16568">
        <ele>149</ele>
        <time>2017-11-07T13:49:47Z</time>
      </trkpt>
      <trkpt lat="49.40327" lon="1.16562">
        <ele>149</ele>
        <time>2017-11-07T13:49:47Z</time>
      </trkpt>
      <trkpt lat="49.40329" lon="1.16555">
        <ele>149</ele>
        <time>2017-11-07T13:49:47Z</time>
      </trkpt>
      <trkpt lat="49.40332" lon="1.16549">
        <ele>149</ele>
        <time>2017-11-07T13:50:03Z</time>
      </trkpt>
      <trkpt lat="49.40335" lon="1.16542">
        <ele>149</ele>
        <time>2017-11-07T13:50:03Z</time>
      </trkpt>
      <trkpt lat="49.40338" lon="1.16535">
        <ele>150</ele>
        <time>2017-11-07T13:50:03Z</time>
      </trkpt>
      <trkpt lat="49.4034" lon="1.16529">
        <ele>150</ele>
        <time>2017-11-07T13:50:03Z</time>
      </trkpt>
      <trkpt lat="49.40343" lon="1.16522">
        <ele>150</ele>
        <time>2017-11-07T13:50:19Z</time>
      </trkpt>
      <trkpt lat="49.40346" lon="1.16516">
        <ele>150</ele>
        <time>2017-11-07T13:50:19Z</time>
      </trkpt>
      <trkpt lat="49.40348" lon="1.1651">
        <ele>150</ele>
        <time>2017-11-07T13:50:19Z</time>
      </trkpt>
      <trkpt lat="49.40351" lon="1.16503">
        <ele>150</ele>
        <time>2017-11-07T13:50:19Z</time>
      </trkpt>
      <trkpt lat="49.40353" lon="1.16497">
        <ele>150</ele>
        <time>2017-11-07T13:50:35Z</time>
      </trkpt>
      <trkpt lat="49.40355" lon="1.1649">
        <ele>150</ele>
        <time>2017-11-07T13:50:35Z</time>
      </trkpt>
      <trkpt lat="49.40358" lon="1.16482">
        <ele>150</ele>
        <time>2017-11-07T13:50:35Z</time>
      </trkpt>
      <trkpt lat="49.40361" lon="1.16476">
        <ele>150</ele>
        <time>2017-11-07T13:50:35Z</time>
      </trkpt>
      <trkpt lat="49.40364" lon="1.1647">
        <ele>150</ele>
        <time>2017-11-07T13:50:51Z</time>
      </trkpt>
      <trkpt lat="49.40367" lon="1.16465">
        <ele>150</ele>
        <time>2017-11-07T13:50:51Z</time>
      </trkpt>
      <trkpt lat="49.4037" lon="1.16459">
        <ele>150</ele>
        <time>2017-11-07T13:50:51Z</time>
      </trkpt>
      <trkpt lat="49.40373" lon="1.16452">
        <ele>152</ele>
        <time>2017-11-07T13:50:51Z</time>
      </trkpt>
      <trkpt lat="49.40375" lon="1.16446">
        <ele>151</ele>
        <time>2017-11-07T13:51:07Z</time>
      </trkpt>
      <trkpt lat="49.40378" lon="1.16439">
        <ele>151</ele>
        <time>2017-11-07T13:51:07Z</time>
      </trkpt>
      <trkpt lat="49.40381" lon="1.16433">
        <ele>151</ele>
        <time>2017-11-07T13:51:07Z</time>
      </trkpt>
      <trkpt lat="49.40383" lon="1.16426">
        <ele>151</ele>
        <time>2017-11-07T13:51:07Z</time>
      </trkpt>
      <trkpt lat="49.40385" lon="1.16419">
        <ele>151</ele>
        <time>2017-11-07T13:51:23Z</time>
      </trkpt>
      <trkpt lat="49.40385" lon="1.16412">
        <ele>151</ele>
        <time>2017-11-07T13:51:23Z</time>
      </trkpt>
      <trkpt lat="49.40384" lon="1.16405">
        <ele>151</ele>
        <time>2017-11-07T13:51:23Z</time>
      </trkpt>
      <trkpt lat="49.40386" lon="1.16399">
        <ele>151</ele>
        <time>2017-11-07T13:51:23Z</time>
      </trkpt>
      <trkpt lat="49.4039" lon="1.16395">
        <ele>151</ele>
        <time>2017-11-07T13:51:39Z</time>
      </trkpt>
      <trkpt lat="49.40392" lon="1.1639">
        <ele>151</ele>
        <time>2017-11-07T13:51:39Z</time>
      </trkpt>
      <trkpt lat="49.40395" lon="1.16385">
        <ele>151</ele>
        <time>2017-11-07T13:51:39Z</time>
      </trkpt>
      <trkpt lat="49.40398" lon="1.16379">
        <ele>151</ele>
        <time>2017-11-07T13:51:39Z</time>
      </trkpt>
      <trkpt lat="49.40399" lon="1.16372">
        <ele>151</ele>
        <time>2017-11-07T13:51:55Z</time>
      </trkpt>
      <trkpt lat="49.40402" lon="1.16365">
        <ele>151</ele>
        <time>2017-11-07T13:51:55Z</time>
      </trkpt>
      <trkpt lat="49.40405" lon="1.16359">
        <ele>151</ele>
        <time>2017-11-07T13:51:55Z</time>
      </trkpt>
      <trkpt lat="49.40407" lon="1.16352">
        <ele>151</ele>
        <time>2017-11-07T13:51:55Z</time>
      </trkpt>
      <trkpt lat="49.4041" lon="1.16346">
        <ele>151</ele>
        <time>2017-11-07T13:52:11Z</time>
      </trkpt>
      <trkpt lat="49.40413" lon="1.16338">
        <ele>151</ele>
        <time>2017-11-07T13:52:11Z</time>
      </trkpt>
      <trkpt lat="49.40415" lon="1.16331">
        <ele>151</ele>
        <time>2017-11-07T13:52:11Z</time>
      </trkpt>
      <trkpt lat="49.40418" lon="1.16324">
        <ele>151</ele>
        <time>2017-11-07T13:52:11Z</time>
      </trkpt>
      <trkpt lat="49.4042" lon="1.16318">
        <ele>151</ele>
        <time>2017-11-07T13:52:27Z</time>
      </trkpt>
      <trkpt lat="49.40423" lon="1.16312">
        <ele>151</ele>
        <time>2017-11-07T13:52:27Z</time>
      </trkpt>
      <trkpt lat="49.40426" lon="1.16305">
        <ele>151</ele>
        <time>2017-11-07T13:52:27Z</time>
      </trkpt>
      <trkpt lat="49.40429" lon="1.16298">
        <ele>151</ele>
        <time>2017-11-07T13:52:27Z</time>
      </trkpt>
      <trkpt lat="49.40432" lon="1.16291">
        <ele>153</ele>
        <time>2017-11-07T13:52:43Z</time>
      </trkpt>
      <trkpt lat="49.40435" lon="1.16285">
        <ele>153</ele>
        <time>2017-11-07T13:52:43Z</time>
      </trkpt>
      <trkpt lat="49.40438" lon="1.16279">
        <ele>153</ele>
        <time>2017-11-07T13:52:43Z</time>
      </trkpt>
      <trkpt lat="49.40441" lon="1.16273">
        <ele>153</ele>
        <time>2017-11-07T13:52:43Z</time>
      </trkpt>
      <trkpt lat="49.40444" lon="1.16268">
        <ele>153</ele>
        <time>2017-11-07T13:52:59Z</time>
      </trkpt>
      <trkpt lat="49.40446" lon="1.16261">
        <ele>153</ele>
        <time>2017-11-07T13:52:59Z</time>
      </trkpt>
      <trkpt lat="49.40448" lon="1.16255">
        <ele>153</ele>
        <time>2017-11-07T13:52:59Z</time>
      </trkpt>
      <trkpt lat="49.4045" lon="1.16248">
        <ele>153</ele>
        <time>2017-11-07T13:52:59Z</time>
      </trkpt>
      <trkpt lat="49.40454" lon="1.16242">
        <ele>153</ele>
        <time>2017-11-07T13:53:15Z</time>
      </trkpt>
      <trkpt lat="49.40456" lon="1.16236">
        <ele>153</ele>
        <time>2017-11-07T13:53:15Z</time>
      </trkpt>
      <trkpt lat="49.40459" lon="1.16229">
        <ele>152</ele>
        <time>2017-11-07T13:53:15Z</time>
      </trkpt>
      <trkpt lat="49.40462" lon="1.16223">
        <ele>152</ele>
        <time>2017-11-07T13:53:15Z</time>
      </trkpt>
      <trkpt lat="49.40465" lon="1.16216">
        <ele>152</ele>
        <time>2017-11-07T13:53:31Z</time>
      </trkpt>
      <trkpt lat="49.40468" lon="1.16211">
        <ele>152</ele>
        <time>2017-11-07T13:53:31Z</time>
      </trkpt>
      <trkpt lat="49.40472" lon="1.16206">
        <ele>151</ele>
        <time>2017-11-07T13:53:31Z</time>
      </trkpt>
      <trkpt lat="49.40476" lon="1.16203">
        <ele>151</ele>
        <time>2017-11-07T13:53:31Z</time>
      </trkpt>
      <trkpt lat="49.40479" lon="1.16197">
        <ele>151</ele>
        <time>2017-11-07T13:53:47Z</time>
      </trkpt>
      <trkpt lat="49.40478" lon="1.16189">
        <ele>151</ele>
        <time>2017-11-07T13:53:47Z</time>
      </trkpt>
      <trkpt lat="49.40478" lon="1.1618">
        <ele>151</ele>
        <time>2017-11-07T13:53:47Z</time>
      </trkpt>
      <trkpt lat="49.40479" lon="1.16172">
        <ele>151</ele>
        <time>2017-11-07T13:53:47Z</time>
      </trkpt>
      <trkpt lat="49.4048" lon="1.16165">
        <ele>151</ele>
        <time>2017-11-07T13:54:03Z</time>
      </trkpt>
      <trkpt lat="49.40482" lon="1.16158">
        <ele>151</ele>
        <time>2017-11-07T13:54:03Z</time>
      </trkpt>
      <trkpt lat="49.40483" lon="1.16151">
        <ele>151</ele>
        <time>2017-11-07T13:54:03Z</time>
      </trkpt>
      <trkpt lat="49.40485" lon="1.16144">
        <ele>151</ele>
        <time>2017-11-07T13:54:03Z</time>
      </trkpt>
      <trkpt lat="49.40487" lon="1.16138">
        <ele>151</ele>
        <time>2017-11-07T13:54:19Z</time>
      </trkpt>
      <trkpt lat="49.40488" lon="1.16131">
        <ele>151</ele>
        <time>2017-11-07T13:54:19Z</time>
      </trkpt>
      <trkpt lat="49.40489" lon="1.16126">
        <ele>151</ele>
        <time>2017-11-07T13:54:19Z</time>
      </trkpt>
      <trkpt lat="49.40491" lon="1.16122">
        <ele>151</ele>
        <time>2017-11-07T13:54:19Z</time>
      </trkpt>
      <trkpt lat="49.40495" lon="1.16117">
        <ele>151</ele>
        <time>2017-11-07T13:54:35Z</time>
      </trkpt>
      <trkpt lat="49.40499" lon="1.16111">
        <ele>151</ele>
        <time>2017-11-07T13:54:35Z</time>
      </trkpt>
      <trkpt lat="49.40502" lon="1.16105">
        <ele>151</ele>
        <time>2017-11-07T13:54:35Z</time>
      </trkpt>
      <trkpt lat="49.40504" lon="1.16097">
        <ele>151</ele>
        <time>2017-11-07T13:54:35Z</time>
      </trkpt>
      <trkpt lat="49.40506" lon="1.16089">
        <ele>151</ele>
        <time>2017-11-07T13:54:51Z</time>
      </trkpt>
      <trkpt lat="49.40507" lon="1.16081">
        <ele>151</ele>
        <time>2017-11-07T13:54:51Z</time>
      </trkpt>
      <trkpt lat="49.40509" lon="1.16074">
        <ele>151</ele>
        <time>2017-11-07T13:54:51Z</time>
      </trkpt>
      <trkpt lat="49.4051" lon="1.16066">
        <ele>151</ele>
        <time>2017-11-07T13:54:51Z</time>
      </trkpt>
      <trkpt lat="49.40511" lon="1.16059">
        <ele>151</ele>
        <time>2017-11-07T13:55:07Z</time>
      </trkpt>
      <trkpt lat="49.40513" lon="1.16051">
        <ele>151</ele>
        <time>2017-11-07T13:55:07Z</time>
      </trkpt>
      <trkpt lat="49.40515" lon="1.16043">
        <ele>151</ele>
        <time>2017-11-07T13:55:07Z</time>
      </trkpt>
      <trkpt lat="49.40516" lon="1.16036">
        <ele>154</ele>
        <time>2017-11-07T13:55:07Z</time>
      </trkpt>
      <trkpt lat="49.40516" lon="1.16028">
        <ele>154</ele>
        <time>2017-11-07T13:55:23Z</time>
      </trkpt>
      <trkpt lat="49.40514" lon="1.16021">
        <ele>154</ele>
        <time>2017-11-07T13:55:23Z</time>
      </trkpt>
      <trkpt lat="49.40513" lon="1.16013">
        <ele>154</ele>
        <time>2017-11-07T13:55:23Z</time>
      </trkpt>
      <trkpt lat="49.40511" lon="1.16006">
        <ele>154</ele>
        <time>2017-11-07T13:55:23Z</time>
      </trkpt>
      <trkpt lat="49.40509" lon="1.15999">
        <ele>154</ele>
        <time>2017-11-07T13:55:39Z</time>
      </trkpt>
      <trkpt lat="49.40506" lon="1.15992">
        <ele>154</ele>
        <time>2017-11-07T13:55:39Z</time>
      </trkpt>
      <trkpt lat="49.40504" lon="1.15985">
        <ele>154</ele>
        <time>2017-11-07T13:55:39Z</time>
      </trkpt>
      <trkpt lat="49.40502" lon="1.15977">
        <ele>154</ele>
        <time>2017-11-07T13:55:39Z</time>
      </trkpt>
      <trkpt lat="49.405" lon="1.1597">
        <ele>154</ele>
        <time>2017-11-07T13:55:55Z</time>
      </trkpt>
      <trkpt lat="49.40499" lon="1.15963">
        <ele>154</ele>
        <time>2017-11-07T13:55:55Z</time>
      </trkpt>
      <trkpt lat="49.40497" lon="1.15955">
        <ele>155</ele>
        <time>2017-11-07T13:55:55Z</time>
      </trkpt>
      <trkpt lat="49.40495" lon="1.15948">
        <ele>155</ele>
        <time>2017-11-07T13:55:55Z</time>
      </trkpt>
      <trkpt lat="49.40497" lon="1.15941">
        <ele>155</ele>
        <time>2017-11-07T13:57:15Z</time>
      </trkpt>
      <trkpt lat="49.40494" lon="1.15933">
        <ele>155</ele>
        <time>2017-11-07T13:57:15Z</time>
      </trkpt>
      <trkpt lat="49.40492" lon="1.15925">
        <ele>155</ele>
        <time>2017-11-07T13:57:15Z</time>
      </trkpt>
      <trkpt lat="49.40489" lon="1.15917">
        <ele>155</ele>
        <time>2017-11-07T13:57:15Z</time>
      </trkpt>
      <trkpt lat="49.40488" lon="1.15909">
        <ele>155</ele>
        <time>2017-11-07T13:57:15Z</time>
      </trkpt>
      <trkpt lat="49.40484" lon="1.15909">
        <ele>155</ele>
        <time>2017-11-07T13:57:31Z</time>
      </trkpt>
      <trkpt lat="49.40481" lon="1.15913">
        <ele>155</ele>
        <time>2017-11-07T13:57:31Z</time>
      </trkpt>
      <trkpt lat="49.40477" lon="1.15909">
        <ele>155</ele>
        <time>2017-11-07T13:57:31Z</time>
      </trkpt>
      <trkpt lat="49.40475" lon="1.15903">
        <ele>155</ele>
        <time>2017-11-07T13:57:31Z</time>
      </trkpt>
      <trkpt lat="49.40474" lon="1.15896">
        <ele>155</ele>
        <time>2017-11-07T13:57:47Z</time>
      </trkpt>
      <trkpt lat="49.40473" lon="1.15889">
        <ele>155</ele>
        <time>2017-11-07T13:57:47Z</time>
      </trkpt>
      <trkpt lat="49.40473" lon="1.15881">
        <ele>155</ele>
        <time>2017-11-07T13:57:47Z</time>
      </trkpt>
      <trkpt lat="49.40476" lon="1.15875">
        <ele>155</ele>
        <time>2017-11-07T13:57:47Z</time>
      </trkpt>
      <trkpt lat="49.4048" lon="1.15873">
        <ele>158</ele>
        <time>2017-11-07T13:58:03Z</time>
      </trkpt>
      <trkpt lat="49.40484" lon="1.1587">
        <ele>158</ele>
        <time>2017-11-07T13:58:03Z</time>
      </trkpt>
      <trkpt lat="49.40488" lon="1.15867">
        <ele>158</ele>
        <time>2017-11-07T13:58:03Z</time>
      </trkpt>
      <trkpt lat="49.40492" lon="1.15864">
        <ele>158</ele>
        <time>2017-11-07T13:58:03Z</time>
      </trkpt>
      <trkpt lat="49.40497" lon="1.15861">
        <ele>158</ele>
        <time>2017-11-07T13:58:19Z</time>
      </trkpt>
      <trkpt lat="49.40501" lon="1.15858">
        <ele>158</ele>
        <time>2017-11-07T13:58:19Z</time>
      </trkpt>
      <trkpt lat="49.40505" lon="1.15855">
        <ele>158</ele>
        <time>2017-11-07T13:58:19Z</time>
      </trkpt>
      <trkpt lat="49.40509" lon="1.15851">
        <ele>158</ele>
        <time>2017-11-07T13:58:19Z</time>
      </trkpt>
      <trkpt lat="49.40513" lon="1.15848">
        <ele>158</ele>
        <time>2017-11-07T13:58:35Z</time>
      </trkpt>
      <trkpt lat="49.40516" lon="1.15842">
        <ele>158</ele>
        <time>2017-11-07T13:58:35Z</time>
      </trkpt>
      <trkpt lat="49.4052" lon="1.15838">
        <ele>158</ele>
        <time>2017-11-07T13:58:35Z</time>
      </trkpt>
      <trkpt lat="49.40522" lon="1.1583">
        <ele>158</ele>
        <time>2017-11-07T13:58:35Z</time>
      </trkpt>
      <trkpt lat="49.40521" lon="1.15822">
        <ele>158</ele>
        <time>2017-11-07T13:58:51Z</time>
      </trkpt>
      <trkpt lat="49.4052" lon="1.15815">
        <ele>158</ele>
        <time>2017-11-07T13:58:51Z</time>
      </trkpt>
      <trkpt lat="49.40519" lon="1.15808">
        <ele>158</ele>
        <time>2017-11-07T13:58:51Z</time>
      </trkpt>
      <trkpt lat="49.40517" lon="1.15801">
        <ele>158</ele>
        <time>2017-11-07T13:58:51Z</time>
      </trkpt>
      <trkpt lat="49.40516" lon="1.15794">
        <ele>158</ele>
        <time>2017-11-07T13:59:07Z</time>
      </trkpt>
      <trkpt lat="49.40515" lon="1.15786">
        <ele>160</ele>
        <time>2017-11-07T13:59:07Z</time>
      </trkpt>
      <trkpt lat="49.40515" lon="1.15779">
        <ele>160</ele>
        <time>2017-11-07T13:59:07Z</time>
      </trkpt>
      <trkpt lat="49.40518" lon="1.15772">
        <ele>160</ele>
        <time>2017-11-07T13:59:07Z</time>
      </trkpt>
      <trkpt lat="49.40521" lon="1.15766">
        <ele>160</ele>
        <time>2017-11-07T13:59:23Z</time>
      </trkpt>
      <trkpt lat="49.40524" lon="1.1576">
        <ele>160</ele>
        <time>2017-11-07T13:59:23Z</time>
      </trkpt>
      <trkpt lat="49.40526" lon="1.15753">
        <ele>160</ele>
        <time>2017-11-07T13:59:23Z</time>
      </trkpt>
      <trkpt lat="49.40529" lon="1.15747">
        <ele>160</ele>
        <time>2017-11-07T13:59:23Z</time>
      </trkpt>
      <trkpt lat="49.40532" lon="1.15741">
        <ele>160</ele>
        <time>2017-11-07T13:59:39Z</time>
      </trkpt>
      <trkpt lat="49.40534" lon="1.15735">
        <ele>160</ele>
        <time>2017-11-07T13:59:39Z</time>
      </trkpt>
      <trkpt lat="49.40537" lon="1.15729">
        <ele>160</ele>
        <time>2017-11-07T13:59:39Z</time>
      </trkpt>
      <trkpt lat="49.40539" lon="1.15722">
        <ele>160</ele>
        <time>2017-11-07T13:59:39Z</time>
      </trkpt>
      <trkpt lat="49.40542" lon="1.15716">
        <ele>159</ele>
        <time>2017-11-07T13:59:55Z</time>
      </trkpt>
      <trkpt lat="49.40545" lon="1.1571">
        <ele>159</ele>
        <time>2017-11-07T13:59:55Z</time>
      </trkpt>
      <trkpt lat="49.40547" lon="1.15705">
        <ele>160</ele>
        <time>2017-11-07T13:59:55Z</time>
      </trkpt>
      <trkpt lat="49.4055" lon="1.15699">
        <ele>160</ele>
        <time>2017-11-07T13:59:55Z</time>
      </trkpt>
      <trkpt lat="49.40551" lon="1.15693">
        <ele>160</ele>
        <time>2017-11-07T14:00:11Z</time>
      </trkpt>
      <trkpt lat="49.40551" lon="1.1569">
        <ele>160</ele>
        <time>2017-11-07T14:00:11Z</time>
      </trkpt>
      <trkpt lat="49.40552" lon="1.15686">
        <ele>160</ele>
        <time>2017-11-07T14:00:11Z</time>
      </trkpt>
      <trkpt lat="49.40552" lon="1.15679">
        <ele>160</ele>
        <time>2017-11-07T14:00:11Z</time>
      </trkpt>
      <trkpt lat="49.40551" lon="1.15672">
        <ele>160</ele>
        <time>2017-11-07T14:00:27Z</time>
      </trkpt>
      <trkpt lat="49.4055" lon="1.15665">
        <ele>160</ele>
        <time>2017-11-07T14:00:27Z</time>
      </trkpt>
      <trkpt lat="49.40549" lon="1.15657">
        <ele>160</ele>
        <time>2017-11-07T14:00:27Z</time>
      </trkpt>
      <trkpt lat="49.40548" lon="1.1565">
        <ele>160</ele>
        <time>2017-11-07T14:00:27Z</time>
      </trkpt>
      <trkpt lat="49.40549" lon="1.15642">
        <ele>160</ele>
        <time>2017-11-07T14:00:43Z</time>
      </trkpt>
      <trkpt lat="49.40551" lon="1.15635">
        <ele>160</ele>
        <time>2017-11-07T14:00:43Z</time>
      </trkpt>
      <trkpt lat="49.40554" lon="1.15629">
        <ele>160</ele>
        <time>2017-11-07T14:00:43Z</time>
      </trkpt>
      <trkpt lat="49.40557" lon="1.15624">
        <ele>163</ele>
        <time>2017-11-07T14:00:43Z</time>
      </trkpt>
      <trkpt lat="49.4056" lon="1.15618">
        <ele>163</ele>
        <time>2017-11-07T14:00:59Z</time>
      </trkpt>
      <trkpt lat="49.40562" lon="1.15612">
        <ele>163</ele>
        <time>2017-11-07T14:00:59Z</time>
      </trkpt>
      <trkpt lat="49.40565" lon="1.15606">
        <ele>163</ele>
        <time>2017-11-07T14:00:59Z</time>
      </trkpt>
      <trkpt lat="49.40567" lon="1.156">
        <ele>163</ele>
        <time>2017-11-07T14:00:59Z</time>
      </trkpt>
      <trkpt lat="49.4057" lon="1.15595">
        <ele>163</ele>
        <time>2017-11-07T14:01:15Z</time>
      </trkpt>
      <trkpt lat="49.40573" lon="1.15589">
        <ele>163</ele>
        <time>2017-11-07T14:01:15Z</time>
      </trkpt>
      <trkpt lat="49.40576" lon="1.15584">
        <ele>163</ele>
        <time>2017-11-07T14:01:15Z</time>
      </trkpt>
      <trkpt lat="49.40579" lon="1.15578">
        <ele>163</ele>
        <time>2017-11-07T14:01:15Z</time>
      </trkpt>
      <trkpt lat="49.40581" lon="1.15572">
        <ele>163</ele>
        <time>2017-11-07T14:01:31Z</time>
      </trkpt>
      <trkpt lat="49.40584" lon="1.15566">
        <ele>163</ele>
        <time>2017-11-07T14:01:31Z</time>
      </trkpt>
      <trkpt lat="49.40587" lon="1.1556">
        <ele>163</ele>
        <time>2017-11-07T14:01:31Z</time>
      </trkpt>
      <trkpt lat="49.4059" lon="1.15554">
        <ele>163</ele>
        <time>2017-11-07T14:01:31Z</time>
      </trkpt>
      <trkpt lat="49.40594" lon="1.15549">
        <ele>163</ele>
        <time>2017-11-07T14:01:47Z</time>
      </trkpt>
      <trkpt lat="49.40596" lon="1.15543">
        <ele>163</ele>
        <time>2017-11-07T14:01:47Z</time>
      </trkpt>
      <trkpt lat="49.40599" lon="1.15536">
        <ele>163</ele>
        <time>2017-11-07T14:01:47Z</time>
      </trkpt>
      <trkpt lat="49.40602" lon="1.1553">
        <ele>163</ele>
        <time>2017-11-07T14:01:47Z</time>
      </trkpt>
      <trkpt lat="49.40605" lon="1.15524">
        <ele>163</ele>
        <time>2017-11-07T14:02:03Z</time>
      </trkpt>
      <trkpt lat="49.40608" lon="1.15517">
        <ele>163</ele>
        <time>2017-11-07T14:02:03Z</time>
      </trkpt>
      <trkpt lat="49.4061" lon="1.15511">
        <ele>163</ele>
        <time>2017-11-07T14:02:03Z</time>
      </trkpt>
      <trkpt lat="49.40613" lon="1.15504">
        <ele>163</ele>
        <time>2017-11-07T14:02:03Z</time>
      </trkpt>
      <trkpt lat="49.40615" lon="1.15498">
        <ele>163</ele>
        <time>2017-11-07T14:02:19Z</time>
      </trkpt>
      <trkpt lat="49.40617" lon="1.15491">
        <ele>163</ele>
        <time>2017-11-07T14:02:19Z</time>
      </trkpt>
      <trkpt lat="49.4062" lon="1.15484">
        <ele>163</ele>
        <time>2017-11-07T14:02:19Z</time>
      </trkpt>
      <trkpt lat="49.40622" lon="1.15477">
        <ele>163</ele>
        <time>2017-11-07T14:02:19Z</time>
      </trkpt>
      <trkpt lat="49.40624" lon="1.15471">
        <ele>163</ele>
        <time>2017-11-07T14:02:35Z</time>
      </trkpt>
      <trkpt lat="49.40627" lon="1.15465">
        <ele>163</ele>
        <time>2017-11-07T14:02:35Z</time>
      </trkpt>
      <trkpt lat="49.4063" lon="1.15459">
        <ele>163</ele>
        <time>2017-11-07T14:02:35Z</time>
      </trkpt>
      <trkpt lat="49.40632" lon="1.15453">
        <ele>163</ele>
        <time>2017-11-07T14:02:35Z</time>
      </trkpt>
      <trkpt lat="49.40635" lon="1.15446">
        <ele>163</ele>
        <time>2017-11-07T14:02:51Z</time>
      </trkpt>
      <trkpt lat="49.40639" lon="1.1544">
        <ele>163</ele>
        <time>2017-11-07T14:02:51Z</time>
      </trkpt>
      <trkpt lat="49.40642" lon="1.15434">
        <ele>163</ele>
        <time>2017-11-07T14:02:51Z</time>
      </trkpt>
      <trkpt lat="49.40645" lon="1.15428">
        <ele>163</ele>
        <time>2017-11-07T14:02:51Z</time>
      </trkpt>
      <trkpt lat="49.40648" lon="1.15422">
        <ele>163</ele>
        <time>2017-11-07T14:03:07Z</time>
      </trkpt>
      <trkpt lat="49.40651" lon="1.15416">
        <ele>163</ele>
        <time>2017-11-07T14:03:07Z</time>
      </trkpt>
      <trkpt lat="49.40654" lon="1.1541">
        <ele>163</ele>
        <time>2017-11-07T14:03:07Z</time>
      </trkpt>
      <trkpt lat="49.40656" lon="1.15403">
        <ele>163</ele>
        <time>2017-11-07T14:03:07Z</time>
      </trkpt>
      <trkpt lat="49.40659" lon="1.15397">
        <ele>163</ele>
        <time>2017-11-07T14:03:23Z</time>
      </trkpt>
      <trkpt lat="49.40662" lon="1.15391">
        <ele>163</ele>
        <time>2017-11-07T14:03:23Z</time>
      </trkpt>
      <trkpt lat="49.40666" lon="1.15385">
        <ele>163</ele>
        <time>2017-11-07T14:03:23Z</time>
      </trkpt>
      <trkpt lat="49.40669" lon="1.15379">
        <ele>163</ele>
        <time>2017-11-07T14:03:23Z</time>
      </trkpt>
      <trkpt lat="49.40671" lon="1.15374">
        <ele>163</ele>
        <time>2017-11-07T14:03:39Z</time>
      </trkpt>
      <trkpt lat="49.40674" lon="1.15366">
        <ele>163</ele>
        <time>2017-11-07T14:03:39Z</time>
      </trkpt>
      <trkpt lat="49.40677" lon="1.1536">
        <ele>163</ele>
        <time>2017-11-07T14:03:39Z</time>
      </trkpt>
      <trkpt lat="49.4068" lon="1.15354">
        <ele>163</ele>
        <time>2017-11-07T14:03:39Z</time>
      </trkpt>
      <trkpt lat="49.40682" lon="1.15348">
        <ele>163</ele>
        <time>2017-11-07T14:03:55Z</time>
      </trkpt>
      <trkpt lat="49.40683" lon="1.15341">
        <ele>163</ele>
        <time>2017-11-07T14:03:55Z</time>
      </trkpt>
      <trkpt lat="49.40681" lon="1.15334">
        <ele>163</ele>
        <time>2017-11-07T14:03:55Z</time>
      </trkpt>
      <trkpt lat="49.40679" lon="1.15327">
        <ele>163</ele>
        <time>2017-11-07T14:03:55Z</time>
      </trkpt>
      <trkpt lat="49.40675" lon="1.15321">
        <ele>163</ele>
        <time>2017-11-07T14:04:11Z</time>
      </trkpt>
      <trkpt lat="49.40671" lon="1.15317">
        <ele>163</ele>
        <time>2017-11-07T14:04:11Z</time>
      </trkpt>
      <trkpt lat="49.40667" lon="1.15313">
        <ele>163</ele>
        <time>2017-11-07T14:04:11Z</time>
      </trkpt>
      <trkpt lat="49.40664" lon="1.15309">
        <ele>163</ele>
        <time>2017-11-07T14:04:11Z</time>
      </trkpt>
      <trkpt lat="49.4066" lon="1.15306">
        <ele>163</ele>
        <time>2017-11-07T14:04:27Z</time>
      </trkpt>
      <trkpt lat="49.40656" lon="1.15301">
        <ele>163</ele>
        <time>2017-11-07T14:04:27Z</time>
      </trkpt>
      <trkpt lat="49.40652" lon="1.15297">
        <ele>163</ele>
        <time>2017-11-07T14:04:27Z</time>
      </trkpt>
      <trkpt lat="49.40648" lon="1.15294">
        <ele>163</ele>
        <time>2017-11-07T14:04:27Z</time>
      </trkpt>
      <trkpt lat="49.40644" lon="1.15289">
        <ele>163</ele>
        <time>2017-11-07T14:04:43Z</time>
      </trkpt>
      <trkpt lat="49.4064" lon="1.15285">
        <ele>163</ele>
        <time>2017-11-07T14:04:43Z</time>
      </trkpt>
      <trkpt lat="49.40636" lon="1.1528">
        <ele>163</ele>
        <time>2017-11-07T14:04:43Z</time>
      </trkpt>
      <trkpt lat="49.40632" lon="1.15277">
        <ele>163</ele>
        <time>2017-11-07T14:04:43Z</time>
      </trkpt>
      <trkpt lat="49.40631" lon="1.15272">
        <ele>163</ele>
        <time>2017-11-07T14:04:59Z</time>
      </trkpt>
      <trkpt lat="49.40634" lon="1.15266">
        <ele>163</ele>
        <time>2017-11-07T14:04:59Z</time>
      </trkpt>
      <trkpt lat="49.40633" lon="1.1526">
        <ele>163</ele>
        <time>2017-11-07T14:04:59Z</time>
      </trkpt>
      <trkpt lat="49.40629" lon="1.15254">
        <ele>163</ele>
        <time>2017-11-07T14:04:59Z</time>
      </trkpt>
      <trkpt lat="49.40625" lon="1.15249">
        <ele>163</ele>
        <time>2017-11-07T14:05:15Z</time>
      </trkpt>
      <trkpt lat="49.40621" lon="1.15244">
        <ele>163</ele>
        <time>2017-11-07T14:05:15Z</time>
      </trkpt>
      <trkpt lat="49.40616" lon="1.15241">
        <ele>163</ele>
        <time>2017-11-07T14:05:15Z</time>
      </trkpt>
      <trkpt lat="49.40612" lon="1.15239">
        <ele>163</ele>
        <time>2017-11-07T14:05:15Z</time>
      </trkpt>
      <trkpt lat="49.40608" lon="1.15235">
        <ele>163</ele>
        <time>2017-11-07T14:05:31Z</time>
      </trkpt>
      <trkpt lat="49.40604" lon="1.15231">
        <ele>163</ele>
        <time>2017-11-07T14:05:31Z</time>
      </trkpt>
      <trkpt lat="49.406" lon="1.15226">
        <ele>163</ele>
        <time>2017-11-07T14:05:31Z</time>
      </trkpt>
      <trkpt lat="49.40595" lon="1.15222">
        <ele>163</ele>
        <time>2017-11-07T14:05:31Z</time>
      </trkpt>
      <trkpt lat="49.40592" lon="1.15216">
        <ele>163</ele>
        <time>2017-11-07T14:05:47Z</time>
      </trkpt>
      <trkpt lat="49.40587" lon="1.15211">
        <ele>163</ele>
        <time>2017-11-07T14:05:47Z</time>
      </trkpt>
      <trkpt lat="49.40583" lon="1.15206">
        <ele>162</ele>
        <time>2017-11-07T14:05:47Z</time>
      </trkpt>
      <trkpt lat="49.40579" lon="1.15202">
        <ele>162</ele>
        <time>2017-11-07T14:05:47Z</time>
      </trkpt>
      <trkpt lat="49.40575" lon="1.15197">
        <ele>162</ele>
        <time>2017-11-07T14:06:03Z</time>
      </trkpt>
      <trkpt lat="49.40571" lon="1.15193">
        <ele>162</ele>
        <time>2017-11-07T14:06:03Z</time>
      </trkpt>
      <trkpt lat="49.40567" lon="1.15187">
        <ele>162</ele>
        <time>2017-11-07T14:06:03Z</time>
      </trkpt>
      <trkpt lat="49.40564" lon="1.15181">
        <ele>162</ele>
        <time>2017-11-07T14:06:03Z</time>
      </trkpt>
      <trkpt lat="49.40562" lon="1.15174">
        <ele>162</ele>
        <time>2017-11-07T14:06:19Z</time>
      </trkpt>
      <trkpt lat="49.40563" lon="1.15166">
        <ele>162</ele>
        <time>2017-11-07T14:06:19Z</time>
      </trkpt>
      <trkpt lat="49.40565" lon="1.15159">
        <ele>162</ele>
        <time>2017-11-07T14:06:19Z</time>
      </trkpt>
      <trkpt lat="49.40568" lon="1.15154">
        <ele>162</ele>
        <time>2017-11-07T14:06:19Z</time>
      </trkpt>
      <trkpt lat="49.40568" lon="1.15156">
        <ele>162</ele>
        <time>2017-11-07T14:06:43Z</time>
      </trkpt>
      <trkpt lat="49.40568" lon="1.15154">
        <ele>162</ele>
        <time>2017-11-07T14:06:43Z</time>
      </trkpt>
      <trkpt lat="49.40565" lon="1.15149">
        <ele>162</ele>
        <time>2017-11-07T14:06:43Z</time>
      </trkpt>
      <trkpt lat="49.40563" lon="1.15145">
        <ele>162</ele>
        <time>2017-11-07T14:06:43Z</time>
      </trkpt>
      <trkpt lat="49.40563" lon="1.15139">
        <ele>162</ele>
        <time>2017-11-07T14:06:43Z</time>
      </trkpt>
      <trkpt lat="49.40564" lon="1.15134">
        <ele>162</ele>
        <time>2017-11-07T14:07:03Z</time>
      </trkpt>
      <trkpt lat="49.40563" lon="1.15129">
        <ele>162</ele>
        <time>2017-11-07T14:07:03Z</time>
      </trkpt>
      <trkpt lat="49.40563" lon="1.15127">
        <ele>162</ele>
        <time>2017-11-07T14:07:03Z</time>
      </trkpt>
      <trkpt lat="49.40562" lon="1.15125">
        <ele>162</ele>
        <time>2017-11-07T14:07:03Z</time>
      </trkpt>
      <trkpt lat="49.40559" lon="1.15121">
        <ele>160</ele>
        <time>2017-11-07T14:07:03Z</time>
      </trkpt>
      <trkpt lat="49.40555" lon="1.15117">
        <ele>160</ele>
        <time>2017-11-07T14:07:19Z</time>
      </trkpt>
      <trkpt lat="49.40552" lon="1.15112">
        <ele>160</ele>
        <time>2017-11-07T14:07:19Z</time>
      </trkpt>
      <trkpt lat="49.40549" lon="1.15108">
        <ele>160</ele>
        <time>2017-11-07T14:07:19Z</time>
      </trkpt>
      <trkpt lat="49.40546" lon="1.15103">
        <ele>160</ele>
        <time>2017-11-07T14:07:19Z</time>
      </trkpt>
      <trkpt lat="49.40542" lon="1.15097">
        <ele>160</ele>
        <time>2017-11-07T14:07:35Z</time>
      </trkpt>
      <trkpt lat="49.40539" lon="1.15093">
        <ele>160</ele>
        <time>2017-11-07T14:07:35Z</time>
      </trkpt>
      <trkpt lat="49.40536" lon="1.15087">
        <ele>160</ele>
        <time>2017-11-07T14:07:35Z</time>
      </trkpt>
      <trkpt lat="49.40532" lon="1.15081">
        <ele>160</ele>
        <time>2017-11-07T14:07:35Z</time>
      </trkpt>
      <trkpt lat="49.40529" lon="1.15076">
        <ele>160</ele>
        <time>2017-11-07T14:07:51Z</time>
      </trkpt>
      <trkpt lat="49.40526" lon="1.15071">
        <ele>160</ele>
        <time>2017-11-07T14:07:51Z</time>
      </trkpt>
      <trkpt lat="49.40521" lon="1.15067">
        <ele>160</ele>
        <time>2017-11-07T14:07:51Z</time>
      </trkpt>
      <trkpt lat="49.40517" lon="1.15062">
        <ele>160</ele>
        <time>2017-11-07T14:07:51Z</time>
      </trkpt>
      <trkpt lat="49.40513" lon="1.15057">
        <ele>160</ele>
        <time>2017-11-07T14:08:07Z</time>
      </trkpt>
      <trkpt lat="49.40509" lon="1.15052">
        <ele>160</ele>
        <time>2017-11-07T14:08:07Z</time>
      </trkpt>
      <trkpt lat="49.40506" lon="1.15047">
        <ele>160</ele>
        <time>2017-11-07T14:08:07Z</time>
      </trkpt>
      <trkpt lat="49.40501" lon="1.15043">
        <ele>160</ele>
        <time>2017-11-07T14:08:07Z</time>
      </trkpt>
      <trkpt lat="49.40497" lon="1.15041">
        <ele>159</ele>
        <time>2017-11-07T14:08:23Z</time>
      </trkpt>
      <trkpt lat="49.40492" lon="1.15042">
        <ele>159</ele>
        <time>2017-11-07T14:08:23Z</time>
      </trkpt>
      <trkpt lat="49.40487" lon="1.15042">
        <ele>159</ele>
        <time>2017-11-07T14:08:23Z</time>
      </trkpt>
      <trkpt lat="49.40482" lon="1.15041">
        <ele>159</ele>
        <time>2017-11-07T14:08:23Z</time>
      </trkpt>
      <trkpt lat="49.40478" lon="1.1504">
        <ele>159</ele>
        <time>2017-11-07T14:08:39Z</time>
      </trkpt>
      <trkpt lat="49.40474" lon="1.15039">
        <ele>159</ele>
        <time>2017-11-07T14:08:39Z</time>
      </trkpt>
      <trkpt lat="49.4047" lon="1.15038">
        <ele>159</ele>
        <time>2017-11-07T14:08:39Z</time>
      </trkpt>
      <trkpt lat="49.40471" lon="1.1503">
        <ele>159</ele>
        <time>2017-11-07T14:08:39Z</time>
      </trkpt>
      <trkpt lat="49.40472" lon="1.15023">
        <ele>159</ele>
        <time>2017-11-07T14:08:55Z</time>
      </trkpt>
      <trkpt lat="49.40473" lon="1.15017">
        <ele>159</ele>
        <time>2017-11-07T14:08:55Z</time>
      </trkpt>
      <trkpt lat="49.40474" lon="1.1501">
        <ele>159</ele>
        <time>2017-11-07T14:08:55Z</time>
      </trkpt>
      <trkpt lat="49.40475" lon="1.15003">
        <ele>159</ele>
        <time>2017-11-07T14:08:55Z</time>
      </trkpt>
      <trkpt lat="49.40475" lon="1.14995">
        <ele>159</ele>
        <time>2017-11-07T14:09:11Z</time>
      </trkpt>
      <trkpt lat="49.40475" lon="1.14987">
        <ele>159</ele>
        <time>2017-11-07T14:09:11Z</time>
      </trkpt>
      <trkpt lat="49.40474" lon="1.1498">
        <ele>159</ele>
        <time>2017-11-07T14:09:11Z</time>
      </trkpt>
      <trkpt lat="49.40473" lon="1.14972">
        <ele>159</ele>
        <time>2017-11-07T14:09:11Z</time>
      </trkpt>
      <trkpt lat="49.40472" lon="1.14965">
        <ele>159</ele>
        <time>2017-11-07T14:09:27Z</time>
      </trkpt>
      <trkpt lat="49.4047" lon="1.14958">
        <ele>159</ele>
        <time>2017-11-07T14:09:27Z</time>
      </trkpt>
      <trkpt lat="49.40468" lon="1.14952">
        <ele>159</ele>
        <time>2017-11-07T14:09:27Z</time>
      </trkpt>
      <trkpt lat="49.40466" lon="1.14945">
        <ele>159</ele>
        <time>2017-11-07T14:09:27Z</time>
      </trkpt>
      <trkpt lat="49.40465" lon="1.14937">
        <ele>159</ele>
        <time>2017-11-07T14:09:43Z</time>
      </trkpt>
      <trkpt lat="49.40465" lon="1.14929">
        <ele>159</ele>
        <time>2017-11-07T14:09:43Z</time>
      </trkpt>
      <trkpt lat="49.40465" lon="1.14922">
        <ele>159</ele>
        <time>2017-11-07T14:09:43Z</time>
      </trkpt>
      <trkpt lat="49.40466" lon="1.14914">
        <ele>159</ele>
        <time>2017-11-07T14:09:43Z</time>
      </trkpt>
      <trkpt lat="49.40467" lon="1.14906">
        <ele>159</ele>
        <time>2017-11-07T14:09:59Z</time>
      </trkpt>
      <trkpt lat="49.40468" lon="1.14898">
        <ele>159</ele>
        <time>2017-11-07T14:09:59Z</time>
      </trkpt>
      <trkpt lat="49.40469" lon="1.14891">
        <ele>159</ele>
        <time>2017-11-07T14:09:59Z</time>
      </trkpt>
      <trkpt lat="49.4047" lon="1.14883">
        <ele>159</ele>
        <time>2017-11-07T14:09:59Z</time>
      </trkpt>
      <trkpt lat="49.4047" lon="1.14876">
        <ele>159</ele>
        <time>2017-11-07T14:10:15Z</time>
      </trkpt>
      <trkpt lat="49.4047" lon="1.14868">
        <ele>158</ele>
        <time>2017-11-07T14:10:15Z</time>
      </trkpt>
      <trkpt lat="49.40471" lon="1.14861">
        <ele>158</ele>
        <time>2017-11-07T14:10:15Z</time>
      </trkpt>
      <trkpt lat="49.40471" lon="1.14853">
        <ele>158</ele>
        <time>2017-11-07T14:10:15Z</time>
      </trkpt>
      <trkpt lat="49.40472" lon="1.14845">
        <ele>158</ele>
        <time>2017-11-07T14:10:31Z</time>
      </trkpt>
      <trkpt lat="49.40473" lon="1.14838">
        <ele>158</ele>
        <time>2017-11-07T14:10:31Z</time>
      </trkpt>
      <trkpt lat="49.40474" lon="1.1483">
        <ele>158</ele>
        <time>2017-11-07T14:10:31Z</time>
      </trkpt>
      <trkpt lat="49.40475" lon="1.14823">
        <ele>158</ele>
        <time>2017-11-07T14:10:31Z</time>
      </trkpt>
      <trkpt lat="49.40476" lon="1.14816">
        <ele>158</ele>
        <time>2017-11-07T14:10:47Z</time>
      </trkpt>
      <trkpt lat="49.40477" lon="1.14808">
        <ele>158</ele>
        <time>2017-11-07T14:10:47Z</time>
      </trkpt>
      <trkpt lat="49.40479" lon="1.14801">
        <ele>158</ele>
        <time>2017-11-07T14:10:47Z</time>
      </trkpt>
      <trkpt lat="49.4048" lon="1.14794">
        <ele>158</ele>
        <time>2017-11-07T14:10:47Z</time>
      </trkpt>
      <trkpt lat="49.40482" lon="1.14786">
        <ele>157</ele>
        <time>2017-11-07T14:11:03Z</time>
      </trkpt>
      <trkpt lat="49.40484" lon="1.14779">
        <ele>157</ele>
        <time>2017-11-07T14:11:03Z</time>
      </trkpt>
      <trkpt lat="49.40486" lon="1.14772">
        <ele>157</ele>
        <time>2017-11-07T14:11:03Z</time>
      </trkpt>
      <trkpt lat="49.40488" lon="1.14765">
        <ele>157</ele>
        <time>2017-11-07T14:11:03Z</time>
      </trkpt>
      <trkpt lat="49.4049" lon="1.14758">
        <ele>157</ele>
        <time>2017-11-07T14:11:19Z</time>
      </trkpt>
      <trkpt lat="49.40492" lon="1.1475">
        <ele>157</ele>
        <time>2017-11-07T14:11:19Z</time>
      </trkpt>
      <trkpt lat="49.40495" lon="1.14744">
        <ele>157</ele>
        <time>2017-11-07T14:11:19Z</time>
      </trkpt>
      <trkpt lat="49.40497" lon="1.14738">
        <ele>157</ele>
        <time>2017-11-07T14:11:19Z</time>
      </trkpt>
      <trkpt lat="49.405" lon="1.14731">
        <ele>157</ele>
        <time>2017-11-07T14:11:35Z</time>
      </trkpt>
      <trkpt lat="49.40503" lon="1.14724">
        <ele>157</ele>
        <time>2017-11-07T14:11:35Z</time>
      </trkpt>
      <trkpt lat="49.40506" lon="1.14718">
        <ele>157</ele>
        <time>2017-11-07T14:11:35Z</time>
      </trkpt>
      <trkpt lat="49.40509" lon="1.14711">
        <ele>157</ele>
        <time>2017-11-07T14:11:35Z</time>
      </trkpt>
      <trkpt lat="49.40511" lon="1.14705">
        <ele>156</ele>
        <time>2017-11-07T14:11:51Z</time>
      </trkpt>
      <trkpt lat="49.40514" lon="1.14699">
        <ele>156</ele>
        <time>2017-11-07T14:11:51Z</time>
      </trkpt>
      <trkpt lat="49.40518" lon="1.14694">
        <ele>156</ele>
        <time>2017-11-07T14:11:51Z</time>
      </trkpt>
      <trkpt lat="49.40522" lon="1.1469">
        <ele>156</ele>
        <time>2017-11-07T14:11:51Z</time>
      </trkpt>
      <trkpt lat="49.40525" lon="1.14685">
        <ele>156</ele>
        <time>2017-11-07T14:12:07Z</time>
      </trkpt>
      <trkpt lat="49.40529" lon="1.1468">
        <ele>156</ele>
        <time>2017-11-07T14:12:07Z</time>
      </trkpt>
      <trkpt lat="49.40531" lon="1.14675">
        <ele>156</ele>
        <time>2017-11-07T14:12:07Z</time>
      </trkpt>
      <trkpt lat="49.40535" lon="1.14669">
        <ele>156</ele>
        <time>2017-11-07T14:12:07Z</time>
      </trkpt>
      <trkpt lat="49.40538" lon="1.14664">
        <ele>156</ele>
        <time>2017-11-07T14:12:23Z</time>
      </trkpt>
      <trkpt lat="49.40542" lon="1.14659">
        <ele>156</ele>
        <time>2017-11-07T14:12:23Z</time>
      </trkpt>
      <trkpt lat="49.40546" lon="1.14653">
        <ele>156</ele>
        <time>2017-11-07T14:12:23Z</time>
      </trkpt>
      <trkpt lat="49.40549" lon="1.14648">
        <ele>156</ele>
        <time>2017-11-07T14:12:23Z</time>
      </trkpt>
      <trkpt lat="49.40553" lon="1.14642">
        <ele>156</ele>
        <time>2017-11-07T14:12:39Z</time>
      </trkpt>
      <trkpt lat="49.40556" lon="1.14636">
        <ele>156</ele>
        <time>2017-11-07T14:12:39Z</time>
      </trkpt>
      <trkpt lat="49.40559" lon="1.14629">
        <ele>156</ele>
        <time>2017-11-07T14:12:39Z</time>
      </trkpt>
      <trkpt lat="49.40561" lon="1.14623">
        <ele>155</ele>
        <time>2017-11-07T14:12:39Z</time>
      </trkpt>
      <trkpt lat="49.40564" lon="1.14617">
        <ele>155</ele>
        <time>2017-11-07T14:12:55Z</time>
      </trkpt>
      <trkpt lat="49.40566" lon="1.14611">
        <ele>155</ele>
        <time>2017-11-07T14:12:55Z</time>
      </trkpt>
      <trkpt lat="49.40566" lon="1.14605">
        <ele>155</ele>
        <time>2017-11-07T14:12:55Z</time>
      </trkpt>
      <trkpt lat="49.40568" lon="1.14598">
        <ele>155</ele>
        <time>2017-11-07T14:12:55Z</time>
      </trkpt>
      <trkpt lat="49.40568" lon="1.14591">
        <ele>155</ele>
        <time>2017-11-07T14:13:11Z</time>
      </trkpt>
      <trkpt lat="49.40569" lon="1.14584">
        <ele>155</ele>
        <time>2017-11-07T14:13:11Z</time>
      </trkpt>
      <trkpt lat="49.40568" lon="1.14575">
        <ele>155</ele>
        <time>2017-11-07T14:13:11Z</time>
      </trkpt>
      <trkpt lat="49.40568" lon="1.14567">
        <ele>155</ele>
        <time>2017-11-07T14:13:11Z</time>
      </trkpt>
      <trkpt lat="49.40567" lon="1.1456">
        <ele>155</ele>
        <time>2017-11-07T14:13:27Z</time>
      </trkpt>
      <trkpt lat="49.40566" lon="1.14553">
        <ele>155</ele>
        <time>2017-11-07T14:13:27Z</time>
      </trkpt>
      <trkpt lat="49.40565" lon="1.14546">
        <ele>155</ele>
        <time>2017-11-07T14:13:27Z</time>
      </trkpt>
      <trkpt lat="49.40564" lon="1.14538">
        <ele>154</ele>
        <time>2017-11-07T14:13:27Z</time>
      </trkpt>
      <trkpt lat="49.40563" lon="1.1453">
        <ele>154</ele>
        <time>2017-11-07T14:13:43Z</time>
      </trkpt>
      <trkpt lat="49.4056" lon="1.14524">
        <ele>154</ele>
        <time>2017-11-07T14:13:43Z</time>
      </trkpt>
      <trkpt lat="49.40558" lon="1.14517">
        <ele>154</ele>
        <time>2017-11-07T14:13:43Z</time>
      </trkpt>
      <trkpt lat="49.40556" lon="1.14511">
        <ele>154</ele>
        <time>2017-11-07T14:13:43Z</time>
      </trkpt>
      <trkpt lat="49.40554" lon="1.14505">
        <ele>154</ele>
        <time>2017-11-07T14:13:59Z</time>
      </trkpt>
      <trkpt lat="49.40551" lon="1.14499">
        <ele>154</ele>
        <time>2017-11-07T14:13:59Z</time>
      </trkpt>
      <trkpt lat="49.40549" lon="1.14493">
        <ele>154</ele>
        <time>2017-11-07T14:13:59Z</time>
      </trkpt>
      <trkpt lat="49.40546" lon="1.14486">
        <ele>154</ele>
        <time>2017-11-07T14:13:59Z</time>
      </trkpt>
      <trkpt lat="49.40544" lon="1.14479">
        <ele>154</ele>
        <time>2017-11-07T14:14:15Z</time>
      </trkpt>
      <trkpt lat="49.40541" lon="1.14472">
        <ele>153</ele>
        <time>2017-11-07T14:14:15Z</time>
      </trkpt>
      <trkpt lat="49.40539" lon="1.14466">
        <ele>153</ele>
        <time>2017-11-07T14:14:15Z</time>
      </trkpt>
      <trkpt lat="49.40536" lon="1.14459">
        <ele>153</ele>
        <time>2017-11-07T14:14:15Z</time>
      </trkpt>
      <trkpt lat="49.40534" lon="1.14452">
        <ele>149</ele>
        <time>2017-11-07T14:14:31Z</time>
      </trkpt>
      <trkpt lat="49.40532" lon="1.14446">
        <ele>149</ele>
        <time>2017-11-07T14:14:31Z</time>
      </trkpt>
      <trkpt lat="49.40529" lon="1.14439">
        <ele>149</ele>
        <time>2017-11-07T14:14:31Z</time>
      </trkpt>
      <trkpt lat="49.40527" lon="1.14433">
        <ele>149</ele>
        <time>2017-11-07T14:14:31Z</time>
      </trkpt>
      <trkpt lat="49.40525" lon="1.14426">
        <ele>149</ele>
        <time>2017-11-07T14:14:47Z</time>
      </trkpt>
      <trkpt lat="49.40524" lon="1.14419">
        <ele>149</ele>
        <time>2017-11-07T14:14:47Z</time>
      </trkpt>
      <trkpt lat="49.40528" lon="1.14413">
        <ele>149</ele>
        <time>2017-11-07T14:14:47Z</time>
      </trkpt>
      <trkpt lat="49.40531" lon="1.1441">
        <ele>149</ele>
        <time>2017-11-07T14:14:47Z</time>
      </trkpt>
      <trkpt lat="49.40537" lon="1.14407">
        <ele>149</ele>
        <time>2017-11-07T14:15:03Z</time>
      </trkpt>
      <trkpt lat="49.40541" lon="1.14403">
        <ele>149</ele>
        <time>2017-11-07T14:15:03Z</time>
      </trkpt>
      <trkpt lat="49.40545" lon="1.14398">
        <ele>152</ele>
        <time>2017-11-07T14:15:03Z</time>
      </trkpt>
      <trkpt lat="49.40549" lon="1.14394">
        <ele>152</ele>
        <time>2017-11-07T14:15:03Z</time>
      </trkpt>
      <trkpt lat="49.40553" lon="1.14389">
        <ele>152</ele>
        <time>2017-11-07T14:15:19Z</time>
      </trkpt>
      <trkpt lat="49.40556" lon="1.14385">
        <ele>152</ele>
        <time>2017-11-07T14:15:19Z</time>
      </trkpt>
      <trkpt lat="49.4056" lon="1.1438">
        <ele>152</ele>
        <time>2017-11-07T14:15:19Z</time>
      </trkpt>
      <trkpt lat="49.40565" lon="1.14376">
        <ele>152</ele>
        <time>2017-11-07T14:15:19Z</time>
      </trkpt>
      <trkpt lat="49.40568" lon="1.14372">
        <ele>151</ele>
        <time>2017-11-07T14:15:35Z</time>
      </trkpt>
      <trkpt lat="49.40572" lon="1.14367">
        <ele>151</ele>
        <time>2017-11-07T14:15:35Z</time>
      </trkpt>
      <trkpt lat="49.40576" lon="1.14362">
        <ele>151</ele>
        <time>2017-11-07T14:15:35Z</time>
      </trkpt>
      <trkpt lat="49.4058" lon="1.14357">
        <ele>151</ele>
        <time>2017-11-07T14:15:35Z</time>
      </trkpt>
      <trkpt lat="49.40583" lon="1.14352">
        <ele>151</ele>
        <time>2017-11-07T14:15:51Z</time>
      </trkpt>
      <trkpt lat="49.40587" lon="1.14348">
        <ele>151</ele>
        <time>2017-11-07T14:15:51Z</time>
      </trkpt>
      <trkpt lat="49.4059" lon="1.14342">
        <ele>151</ele>
        <time>2017-11-07T14:15:51Z</time>
      </trkpt>
      <trkpt lat="49.40593" lon="1.14337">
        <ele>151</ele>
        <time>2017-11-07T14:15:51Z</time>
      </trkpt>
      <trkpt lat="49.40596" lon="1.14332">
        <ele>151</ele>
        <time>2017-11-07T14:16:07Z</time>
      </trkpt>
      <trkpt lat="49.40598" lon="1.14326">
        <ele>151</ele>
        <time>2017-11-07T14:16:07Z</time>
      </trkpt>
      <trkpt lat="49.40601" lon="1.1432">
        <ele>151</ele>
        <time>2017-11-07T14:16:07Z</time>
      </trkpt>
      <trkpt lat="49.40604" lon="1.14315">
        <ele>151</ele>
        <time>2017-11-07T14:16:07Z</time>
      </trkpt>
      <trkpt lat="49.40607" lon="1.1431">
        <ele>151</ele>
        <time>2017-11-07T14:16:23Z</time>
      </trkpt>
      <trkpt lat="49.4061" lon="1.14306">
        <ele>151</ele>
        <time>2017-11-07T14:16:23Z</time>
      </trkpt>
      <trkpt lat="49.40613" lon="1.14301">
        <ele>151</ele>
        <time>2017-11-07T14:16:23Z</time>
      </trkpt>
      <trkpt lat="49.40616" lon="1.14295">
        <ele>151</ele>
        <time>2017-11-07T14:16:23Z</time>
      </trkpt>
      <trkpt lat="49.40619" lon="1.14289">
        <ele>152</ele>
        <time>2017-11-07T14:16:39Z</time>
      </trkpt>
      <trkpt lat="49.40623" lon="1.14284">
        <ele>152</ele>
        <time>2017-11-07T14:16:39Z</time>
      </trkpt>
      <trkpt lat="49.40626" lon="1.14279">
        <ele>153</ele>
        <time>2017-11-07T14:16:39Z</time>
      </trkpt>
      <trkpt lat="49.4063" lon="1.14273">
        <ele>153</ele>
        <time>2017-11-07T14:16:39Z</time>
      </trkpt>
      <trkpt lat="49.40633" lon="1.14268">
        <ele>153</ele>
        <time>2017-11-07T14:16:55Z</time>
      </trkpt>
      <trkpt lat="49.40636" lon="1.14263">
        <ele>153</ele>
        <time>2017-11-07T14:16:55Z</time>
      </trkpt>
      <trkpt lat="49.40639" lon="1.14257">
        <ele>153</ele>
        <time>2017-11-07T14:16:55Z</time>
      </trkpt>
      <trkpt lat="49.40642" lon="1.14252">
        <ele>153</ele>
        <time>2017-11-07T14:16:55Z</time>
      </trkpt>
      <trkpt lat="49.40645" lon="1.14247">
        <ele>153</ele>
        <time>2017-11-07T14:17:11Z</time>
      </trkpt>
      <trkpt lat="49.40643" lon="1.14241">
        <ele>153</ele>
        <time>2017-11-07T14:17:11Z</time>
      </trkpt>
      <trkpt lat="49.40642" lon="1.14234">
        <ele>153</ele>
        <time>2017-11-07T14:17:11Z</time>
      </trkpt>
      <trkpt lat="49.40644" lon="1.14229">
        <ele>153</ele>
        <time>2017-11-07T14:17:11Z</time>
      </trkpt>
      <trkpt lat="49.40648" lon="1.14225">
        <ele>153</ele>
        <time>2017-11-07T14:17:27Z</time>
      </trkpt>
      <trkpt lat="49.40649" lon="1.1422">
        <ele>153</ele>
        <time>2017-11-07T14:17:27Z</time>
      </trkpt>
      <trkpt lat="49.4065" lon="1.14214">
        <ele>153</ele>
        <time>2017-11-07T14:17:27Z</time>
      </trkpt>
      <trkpt lat="49.40649" lon="1.14207">
        <ele>153</ele>
        <time>2017-11-07T14:17:27Z</time>
      </trkpt>
      <trkpt lat="49.40648" lon="1.14201">
        <ele>153</ele>
        <time>2017-11-07T14:17:43Z</time>
      </trkpt>
      <trkpt lat="49.4065" lon="1.14195">
        <ele>153</ele>
        <time>2017-11-07T14:17:43Z</time>
      </trkpt>
      <trkpt lat="49.4065" lon="1.14188">
        <ele>153</ele>
        <time>2017-11-07T14:17:43Z</time>
      </trkpt>
      <trkpt lat="49.40648" lon="1.14181">
        <ele>153</ele>
        <time>2017-11-07T14:17:43Z</time>
      </trkpt>
      <trkpt lat="49.40646" lon="1.14174">
        <ele>153</ele>
        <time>2017-11-07T14:17:59Z</time>
      </trkpt>
      <trkpt lat="49.40644" lon="1.14168">
        <ele>153</ele>
        <time>2017-11-07T14:17:59Z</time>
      </trkpt>
      <trkpt lat="49.40643" lon="1.14162">
        <ele>153</ele>
        <time>2017-11-07T14:17:59Z</time>
      </trkpt>
      <trkpt lat="49.4064" lon="1.14156">
        <ele>153</ele>
        <time>2017-11-07T14:17:59Z</time>
      </trkpt>
      <trkpt lat="49.40638" lon="1.1415">
        <ele>153</ele>
        <time>2017-11-07T14:18:15Z</time>
      </trkpt>
      <trkpt lat="49.40636" lon="1.14143">
        <ele>153</ele>
        <time>2017-11-07T14:18:15Z</time>
      </trkpt>
      <trkpt lat="49.40634" lon="1.14137">
        <ele>153</ele>
        <time>2017-11-07T14:18:15Z</time>
      </trkpt>
      <trkpt lat="49.40633" lon="1.14131">
        <ele>153</ele>
        <time>2017-11-07T14:18:15Z</time>
      </trkpt>
      <trkpt lat="49.4063" lon="1.14125">
        <ele>153</ele>
        <time>2017-11-07T14:18:31Z</time>
      </trkpt>
      <trkpt lat="49.40628" lon="1.14119">
        <ele>153</ele>
        <time>2017-11-07T14:18:31Z</time>
      </trkpt>
      <trkpt lat="49.40626" lon="1.14112">
        <ele>153</ele>
        <time>2017-11-07T14:18:31Z</time>
      </trkpt>
      <trkpt lat="49.40624" lon="1.14106">
        <ele>153</ele>
        <time>2017-11-07T14:18:31Z</time>
      </trkpt>
      <trkpt lat="49.40621" lon="1.14101">
        <ele>153</ele>
        <time>2017-11-07T14:18:47Z</time>
      </trkpt>
      <trkpt lat="49.4062" lon="1.14094">
        <ele>153</ele>
        <time>2017-11-07T14:18:47Z</time>
      </trkpt>
      <trkpt lat="49.4062" lon="1.14087">
        <ele>153</ele>
        <time>2017-11-07T14:18:47Z</time>
      </trkpt>
      <trkpt lat="49.40622" lon="1.14081">
        <ele>153</ele>
        <time>2017-11-07T14:18:47Z</time>
      </trkpt>
      <trkpt lat="49.40626" lon="1.14077">
        <ele>153</ele>
        <time>2017-11-07T14:19:03Z</time>
      </trkpt>
      <trkpt lat="49.40629" lon="1.14072">
        <ele>153</ele>
        <time>2017-11-07T14:19:03Z</time>
      </trkpt>
      <trkpt lat="49.40632" lon="1.14067">
        <ele>153</ele>
        <time>2017-11-07T14:19:03Z</time>
      </trkpt>
      <trkpt lat="49.40636" lon="1.14063">
        <ele>153</ele>
        <time>2017-11-07T14:19:03Z</time>
      </trkpt>
      <trkpt lat="49.40639" lon="1.14058">
        <ele>153</ele>
        <time>2017-11-07T14:19:19Z</time>
      </trkpt>
      <trkpt lat="49.40643" lon="1.14054">
        <ele>153</ele>
        <time>2017-11-07T14:19:19Z</time>
      </trkpt>
      <trkpt lat="49.40645" lon="1.14048">
        <ele>153</ele>
        <time>2017-11-07T14:19:19Z</time>
      </trkpt>
      <trkpt lat="49.40647" lon="1.14043">
        <ele>153</ele>
        <time>2017-11-07T14:19:19Z</time>
      </trkpt>
      <trkpt lat="49.40651" lon="1.14037">
        <ele>152</ele>
        <time>2017-11-07T14:19:35Z</time>
      </trkpt>
      <trkpt lat="49.40654" lon="1.14032">
        <ele>152</ele>
        <time>2017-11-07T14:19:35Z</time>
      </trkpt>
      <trkpt lat="49.40657" lon="1.14027">
        <ele>152</ele>
        <time>2017-11-07T14:19:35Z</time>
      </trkpt>
      <trkpt lat="49.4066" lon="1.14022">
        <ele>152</ele>
        <time>2017-11-07T14:19:35Z</time>
      </trkpt>
      <trkpt lat="49.40663" lon="1.14017">
        <ele>152</ele>
        <time>2017-11-07T14:19:51Z</time>
      </trkpt>
      <trkpt lat="49.40666" lon="1.14012">
        <ele>152</ele>
        <time>2017-11-07T14:19:51Z</time>
      </trkpt>
      <trkpt lat="49.40669" lon="1.14006">
        <ele>152</ele>
        <time>2017-11-07T14:19:51Z</time>
      </trkpt>
      <trkpt lat="49.40672" lon="1.14001">
        <ele>152</ele>
        <time>2017-11-07T14:19:51Z</time>
      </trkpt>
      <trkpt lat="49.40675" lon="1.13996">
        <ele>152</ele>
        <time>2017-11-07T14:20:07Z</time>
      </trkpt>
      <trkpt lat="49.40678" lon="1.1399">
        <ele>152</ele>
        <time>2017-11-07T14:20:07Z</time>
      </trkpt>
      <trkpt lat="49.40681" lon="1.13985">
        <ele>152</ele>
        <time>2017-11-07T14:20:07Z</time>
      </trkpt>
      <trkpt lat="49.40684" lon="1.13979">
        <ele>152</ele>
        <time>2017-11-07T14:20:07Z</time>
      </trkpt>
      <trkpt lat="49.40687" lon="1.13974">
        <ele>152</ele>
        <time>2017-11-07T14:20:23Z</time>
      </trkpt>
      <trkpt lat="49.4069" lon="1.13969">
        <ele>152</ele>
        <time>2017-11-07T14:20:23Z</time>
      </trkpt>
      <trkpt lat="49.40692" lon="1.13962">
        <ele>152</ele>
        <time>2017-11-07T14:20:23Z</time>
      </trkpt>
      <trkpt lat="49.40695" lon="1.13956">
        <ele>150</ele>
        <time>2017-11-07T14:20:23Z</time>
      </trkpt>
      <trkpt lat="49.40698" lon="1.1395">
        <ele>150</ele>
        <time>2017-11-07T14:20:39Z</time>
      </trkpt>
      <trkpt lat="49.40701" lon="1.13945">
        <ele>150</ele>
        <time>2017-11-07T14:20:39Z</time>
      </trkpt>
      <trkpt lat="49.40703" lon="1.13939">
        <ele>150</ele>
        <time>2017-11-07T14:20:39Z</time>
      </trkpt>
      <trkpt lat="49.40706" lon="1.13933">
        <ele>150</ele>
        <time>2017-11-07T14:20:39Z</time>
      </trkpt>
      <trkpt lat="49.40709" lon="1.13927">
        <ele>151</ele>
        <time>2017-11-07T14:20:55Z</time>
      </trkpt>
      <trkpt lat="49.40712" lon="1.13921">
        <ele>151</ele>
        <time>2017-11-07T14:20:55Z</time>
      </trkpt>
      <trkpt lat="49.40715" lon="1.13914">
        <ele>151</ele>
        <time>2017-11-07T14:20:55Z</time>
      </trkpt>
      <trkpt lat="49.40719" lon="1.13908">
        <ele>151</ele>
        <time>2017-11-07T14:20:55Z</time>
      </trkpt>
      <trkpt lat="49.40722" lon="1.13901">
        <ele>151</ele>
        <time>2017-11-07T14:21:11Z</time>
      </trkpt>
      <trkpt lat="49.40725" lon="1.13895">
        <ele>151</ele>
        <time>2017-11-07T14:21:11Z</time>
      </trkpt>
      <trkpt lat="49.40728" lon="1.13888">
        <ele>151</ele>
        <time>2017-11-07T14:21:11Z</time>
      </trkpt>
      <trkpt lat="49.40731" lon="1.13881">
        <ele>151</ele>
        <time>2017-11-07T14:21:11Z</time>
      </trkpt>
      <trkpt lat="49.40736" lon="1.13877">
        <ele>151</ele>
        <time>2017-11-07T14:21:27Z</time>
      </trkpt>
      <trkpt lat="49.40741" lon="1.13876">
        <ele>151</ele>
        <time>2017-11-07T14:21:27Z</time>
      </trkpt>
      <trkpt lat="49.40745" lon="1.13874">
        <ele>150</ele>
        <time>2017-11-07T14:21:27Z</time>
      </trkpt>
      <trkpt lat="49.40749" lon="1.1387">
        <ele>150</ele>
        <time>2017-11-07T14:21:27Z</time>
      </trkpt>
      <trkpt lat="49.40752" lon="1.13864">
        <ele>150</ele>
        <time>2017-11-07T14:21:43Z</time>
      </trkpt>
      <trkpt lat="49.40755" lon="1.13858">
        <ele>150</ele>
        <time>2017-11-07T14:21:43Z</time>
      </trkpt>
      <trkpt lat="49.40759" lon="1.13852">
        <ele>150</ele>
        <time>2017-11-07T14:21:43Z</time>
      </trkpt>
      <trkpt lat="49.40762" lon="1.13846">
        <ele>150</ele>
        <time>2017-11-07T14:21:43Z</time>
      </trkpt>
      <trkpt lat="49.40765" lon="1.13842">
        <ele>150</ele>
        <time>2017-11-07T14:21:59Z</time>
      </trkpt>
      <trkpt lat="49.40769" lon="1.13838">
        <ele>150</ele>
        <time>2017-11-07T14:21:59Z</time>
      </trkpt>
      <trkpt lat="49.40773" lon="1.13834">
        <ele>150</ele>
        <time>2017-11-07T14:21:59Z</time>
      </trkpt>
      <trkpt lat="49.40776" lon="1.13829">
        <ele>150</ele>
        <time>2017-11-07T14:21:59Z</time>
      </trkpt>
      <trkpt lat="49.4078" lon="1.13824">
        <ele>150</ele>
        <time>2017-11-07T14:22:15Z</time>
      </trkpt>
      <trkpt lat="49.40783" lon="1.13819">
        <ele>150</ele>
        <time>2017-11-07T14:22:15Z</time>
      </trkpt>
      <trkpt lat="49.40787" lon="1.13814">
        <ele>150</ele>
        <time>2017-11-07T14:22:15Z</time>
      </trkpt>
      <trkpt lat="49.4079" lon="1.13809">
        <ele>150</ele>
        <time>2017-11-07T14:22:15Z</time>
      </trkpt>
      <trkpt lat="49.40793" lon="1.13803">
        <ele>154</ele>
        <time>2017-11-07T14:22:31Z</time>
      </trkpt>
      <trkpt lat="49.40797" lon="1.13798">
        <ele>154</ele>
        <time>2017-11-07T14:22:31Z</time>
      </trkpt>
      <trkpt lat="49.408" lon="1.13793">
        <ele>154</ele>
        <time>2017-11-07T14:22:31Z</time>
      </trkpt>
      <trkpt lat="49.40804" lon="1.13788">
        <ele>153</ele>
        <time>2017-11-07T14:22:31Z</time>
      </trkpt>
      <trkpt lat="49.40808" lon="1.13783">
        <ele>153</ele>
        <time>2017-11-07T14:22:47Z</time>
      </trkpt>
      <trkpt lat="49.40811" lon="1.13779">
        <ele>153</ele>
        <time>2017-11-07T14:22:47Z</time>
      </trkpt>
      <trkpt lat="49.40815" lon="1.13771">
        <ele>153</ele>
        <time>2017-11-07T14:22:47Z</time>
      </trkpt>
      <trkpt lat="49.40819" lon="1.13765">
        <ele>153</ele>
        <time>2017-11-07T14:22:47Z</time>
      </trkpt>
      <trkpt lat="49.40823" lon="1.1376">
        <ele>153</ele>
        <time>2017-11-07T14:23:03Z</time>
      </trkpt>
      <trkpt lat="49.40826" lon="1.13756">
        <ele>153</ele>
        <time>2017-11-07T14:23:03Z</time>
      </trkpt>
      <trkpt lat="49.4083" lon="1.13751">
        <ele>153</ele>
        <time>2017-11-07T14:23:03Z</time>
      </trkpt>
      <trkpt lat="49.40833" lon="1.13746">
        <ele>153</ele>
        <time>2017-11-07T14:23:03Z</time>
      </trkpt>
      <trkpt lat="49.40836" lon="1.13741">
        <ele>153</ele>
        <time>2017-11-07T14:23:19Z</time>
      </trkpt>
      <trkpt lat="49.4084" lon="1.13736">
        <ele>153</ele>
        <time>2017-11-07T14:23:19Z</time>
      </trkpt>
      <trkpt lat="49.40843" lon="1.13731">
        <ele>153</ele>
        <time>2017-11-07T14:23:19Z</time>
      </trkpt>
      <trkpt lat="49.40846" lon="1.13727">
        <ele>153</ele>
        <time>2017-11-07T14:23:19Z</time>
      </trkpt>
      <trkpt lat="49.40849" lon="1.13722">
        <ele>153</ele>
        <time>2017-11-07T14:23:35Z</time>
      </trkpt>
      <trkpt lat="49.40853" lon="1.13717">
        <ele>153</ele>
        <time>2017-11-07T14:23:35Z</time>
      </trkpt>
      <trkpt lat="49.40857" lon="1.13711">
        <ele>153</ele>
        <time>2017-11-07T14:23:35Z</time>
      </trkpt>
      <trkpt lat="49.4086" lon="1.13706">
        <ele>150</ele>
        <time>2017-11-07T14:23:35Z</time>
      </trkpt>
      <trkpt lat="49.40864" lon="1.137">
        <ele>150</ele>
        <time>2017-11-07T14:23:51Z</time>
      </trkpt>
      <trkpt lat="49.40868" lon="1.13697">
        <ele>150</ele>
        <time>2017-11-07T14:23:51Z</time>
      </trkpt>
      <trkpt lat="49.40871" lon="1.13692">
        <ele>150</ele>
        <time>2017-11-07T14:23:51Z</time>
      </trkpt>
      <trkpt lat="49.40875" lon="1.13687">
        <ele>154</ele>
        <time>2017-11-07T14:23:51Z</time>
      </trkpt>
      <trkpt lat="49.40879" lon="1.13682">
        <ele>154</ele>
        <time>2017-11-07T14:24:07Z</time>
      </trkpt>
      <trkpt lat="49.40882" lon="1.13677">
        <ele>154</ele>
        <time>2017-11-07T14:24:07Z</time>
      </trkpt>
      <trkpt lat="49.40886" lon="1.13671">
        <ele>154</ele>
        <time>2017-11-07T14:24:07Z</time>
      </trkpt>
      <trkpt lat="49.40889" lon="1.13666">
        <ele>154</ele>
        <time>2017-11-07T14:24:07Z</time>
      </trkpt>
      <trkpt lat="49.40893" lon="1.13661">
        <ele>154</ele>
        <time>2017-11-07T14:24:23Z</time>
      </trkpt>
      <trkpt lat="49.40896" lon="1.13655">
        <ele>154</ele>
        <time>2017-11-07T14:24:23Z</time>
      </trkpt>
      <trkpt lat="49.40899" lon="1.13649">
        <ele>154</ele>
        <time>2017-11-07T14:24:23Z</time>
      </trkpt>
      <trkpt lat="49.40903" lon="1.13644">
        <ele>154</ele>
        <time>2017-11-07T14:24:23Z</time>
      </trkpt>
      <trkpt lat="49.40907" lon="1.13639">
        <ele>154</ele>
        <time>2017-11-07T14:24:39Z</time>
      </trkpt>
      <trkpt lat="49.4091" lon="1.13634">
        <ele>154</ele>
        <time>2017-11-07T14:24:39Z</time>
      </trkpt>
      <trkpt lat="49.40914" lon="1.1363">
        <ele>154</ele>
        <time>2017-11-07T14:24:39Z</time>
      </trkpt>
      <trkpt lat="49.40918" lon="1.13627">
        <ele>154</ele>
        <time>2017-11-07T14:24:39Z</time>
      </trkpt>
      <trkpt lat="49.40922" lon="1.13621">
        <ele>153</ele>
        <time>2017-11-07T14:24:55Z</time>
      </trkpt>
      <trkpt lat="49.40927" lon="1.13617">
        <ele>153</ele>
        <time>2017-11-07T14:24:55Z</time>
      </trkpt>
      <trkpt lat="49.40931" lon="1.13612">
        <ele>153</ele>
        <time>2017-11-07T14:24:55Z</time>
      </trkpt>
      <trkpt lat="49.40936" lon="1.13608">
        <ele>153</ele>
        <time>2017-11-07T14:24:55Z</time>
      </trkpt>
      <trkpt lat="49.4094" lon="1.13605">
        <ele>153</ele>
        <time>2017-11-07T14:25:11Z</time>
      </trkpt>
      <trkpt lat="49.40943" lon="1.13601">
        <ele>153</ele>
        <time>2017-11-07T14:25:11Z</time>
      </trkpt>
      <trkpt lat="49.40946" lon="1.13598">
        <ele>153</ele>
        <time>2017-11-07T14:25:11Z</time>
      </trkpt>
      <trkpt lat="49.4095" lon="1.13595">
        <ele>153</ele>
        <time>2017-11-07T14:25:11Z</time>
      </trkpt>
      <trkpt lat="49.40955" lon="1.13591">
        <ele>153</ele>
        <time>2017-11-07T14:25:27Z</time>
      </trkpt>
      <trkpt lat="49.40959" lon="1.13588">
        <ele>156</ele>
        <time>2017-11-07T14:25:27Z</time>
      </trkpt>
      <trkpt lat="49.40963" lon="1.13584">
        <ele>156</ele>
        <time>2017-11-07T14:25:27Z</time>
      </trkpt>
      <trkpt lat="49.40967" lon="1.13581">
        <ele>156</ele>
        <time>2017-11-07T14:25:27Z</time>
      </trkpt>
      <trkpt lat="49.40971" lon="1.13578">
        <ele>156</ele>
        <time>2017-11-07T14:25:43Z</time>
      </trkpt>
      <trkpt lat="49.40975" lon="1.13576">
        <ele>156</ele>
        <time>2017-11-07T14:25:43Z</time>
      </trkpt>
      <trkpt lat="49.40978" lon="1.13573">
        <ele>156</ele>
        <time>2017-11-07T14:25:43Z</time>
      </trkpt>
      <trkpt lat="49.40982" lon="1.13569">
        <ele>156</ele>
        <time>2017-11-07T14:25:43Z</time>
      </trkpt>
      <trkpt lat="49.40986" lon="1.13566">
        <ele>156</ele>
        <time>2017-11-07T14:25:59Z</time>
      </trkpt>
      <trkpt lat="49.4099" lon="1.13563">
        <ele>156</ele>
        <time>2017-11-07T14:25:59Z</time>
      </trkpt>
      <trkpt lat="49.40995" lon="1.13559">
        <ele>156</ele>
        <time>2017-11-07T14:25:59Z</time>
      </trkpt>
      <trkpt lat="49.41" lon="1.13555">
        <ele>156</ele>
        <time>2017-11-07T14:25:59Z</time>
      </trkpt>
      <trkpt lat="49.41004" lon="1.13552">
        <ele>156</ele>
        <time>2017-11-07T14:26:15Z</time>
      </trkpt>
      <trkpt lat="49.41008" lon="1.13547">
        <ele>156</ele>
        <time>2017-11-07T14:26:15Z</time>
      </trkpt>
      <trkpt lat="49.41011" lon="1.13543">
        <ele>156</ele>
        <time>2017-11-07T14:26:15Z</time>
      </trkpt>
      <trkpt lat="49.41015" lon="1.13539">
        <ele>157</ele>
        <time>2017-11-07T14:26:15Z</time>
      </trkpt>
      <trkpt lat="49.4102" lon="1.13535">
        <ele>157</ele>
        <time>2017-11-07T14:26:31Z</time>
      </trkpt>
      <trkpt lat="49.41024" lon="1.13531">
        <ele>157</ele>
        <time>2017-11-07T14:26:31Z</time>
      </trkpt>
      <trkpt lat="49.41029" lon="1.13528">
        <ele>157</ele>
        <time>2017-11-07T14:26:31Z</time>
      </trkpt>
      <trkpt lat="49.41033" lon="1.13524">
        <ele>157</ele>
        <time>2017-11-07T14:26:31Z</time>
      </trkpt>
      <trkpt lat="49.41037" lon="1.13519">
        <ele>157</ele>
        <time>2017-11-07T14:26:47Z</time>
      </trkpt>
      <trkpt lat="49.4104" lon="1.13514">
        <ele>157</ele>
        <time>2017-11-07T14:26:47Z</time>
      </trkpt>
      <trkpt lat="49.41045" lon="1.13511">
        <ele>154</ele>
        <time>2017-11-07T14:26:47Z</time>
      </trkpt>
      <trkpt lat="49.41049" lon="1.13506">
        <ele>154</ele>
        <time>2017-11-07T14:26:47Z</time>
      </trkpt>
      <trkpt lat="49.41053" lon="1.13501">
        <ele>154</ele>
        <time>2017-11-07T14:27:03Z</time>
      </trkpt>
      <trkpt lat="49.41058" lon="1.13498">
        <ele>154</ele>
        <time>2017-11-07T14:27:03Z</time>
      </trkpt>
      <trkpt lat="49.41062" lon="1.13494">
        <ele>154</ele>
        <time>2017-11-07T14:27:03Z</time>
      </trkpt>
      <trkpt lat="49.41066" lon="1.13489">
        <ele>154</ele>
        <time>2017-11-07T14:27:03Z</time>
      </trkpt>
      <trkpt lat="49.4107" lon="1.13484">
        <ele>154</ele>
        <time>2017-11-07T14:27:19Z</time>
      </trkpt>
      <trkpt lat="49.41074" lon="1.1348">
        <ele>154</ele>
        <time>2017-11-07T14:27:19Z</time>
      </trkpt>
      <trkpt lat="49.41077" lon="1.13475">
        <ele>154</ele>
        <time>2017-11-07T14:27:19Z</time>
      </trkpt>
      <trkpt lat="49.41081" lon="1.13471">
        <ele>154</ele>
        <time>2017-11-07T14:27:19Z</time>
      </trkpt>
      <trkpt lat="49.41086" lon="1.13468">
        <ele>154</ele>
        <time>2017-11-07T14:27:35Z</time>
      </trkpt>
      <trkpt lat="49.4109" lon="1.13463">
        <ele>154</ele>
        <time>2017-11-07T14:27:35Z</time>
      </trkpt>
      <trkpt lat="49.41093" lon="1.13458">
        <ele>154</ele>
        <time>2017-11-07T14:27:35Z</time>
      </trkpt>
      <trkpt lat="49.41097" lon="1.13453">
        <ele>154</ele>
        <time>2017-11-07T14:27:35Z</time>
      </trkpt>
      <trkpt lat="49.41101" lon="1.1345">
        <ele>154</ele>
        <time>2017-11-07T14:27:51Z</time>
      </trkpt>
      <trkpt lat="49.41105" lon="1.13447">
        <ele>154</ele>
        <time>2017-11-07T14:27:51Z</time>
      </trkpt>
      <trkpt lat="49.41109" lon="1.13446">
        <ele>154</ele>
        <time>2017-11-07T14:27:51Z</time>
      </trkpt>
      <trkpt lat="49.41114" lon="1.13446">
        <ele>154</ele>
        <time>2017-11-07T14:27:51Z</time>
      </trkpt>
      <trkpt lat="49.41118" lon="1.13444">
        <ele>154</ele>
        <time>2017-11-07T14:28:07Z</time>
      </trkpt>
      <trkpt lat="49.41123" lon="1.13441">
        <ele>154</ele>
        <time>2017-11-07T14:28:07Z</time>
      </trkpt>
      <trkpt lat="49.41127" lon="1.13437">
        <ele>154</ele>
        <time>2017-11-07T14:28:07Z</time>
      </trkpt>
      <trkpt lat="49.41132" lon="1.13433">
        <ele>154</ele>
        <time>2017-11-07T14:28:07Z</time>
      </trkpt>
      <trkpt lat="49.41136" lon="1.1343">
        <ele>154</ele>
        <time>2017-11-07T14:28:23Z</time>
      </trkpt>
      <trkpt lat="49.41141" lon="1.13426">
        <ele>154</ele>
        <time>2017-11-07T14:28:23Z</time>
      </trkpt>
      <trkpt lat="49.41146" lon="1.13424">
        <ele>154</ele>
        <time>2017-11-07T14:28:23Z</time>
      </trkpt>
      <trkpt lat="49.4115" lon="1.13421">
        <ele>154</ele>
        <time>2017-11-07T14:28:23Z</time>
      </trkpt>
      <trkpt lat="49.41155" lon="1.13418">
        <ele>154</ele>
        <time>2017-11-07T14:28:39Z</time>
      </trkpt>
      <trkpt lat="49.4116" lon="1.13416">
        <ele>154</ele>
        <time>2017-11-07T14:28:39Z</time>
      </trkpt>
      <trkpt lat="49.41164" lon="1.13413">
        <ele>154</ele>
        <time>2017-11-07T14:28:39Z</time>
      </trkpt>
      <trkpt lat="49.41168" lon="1.1341">
        <ele>154</ele>
        <time>2017-11-07T14:28:39Z</time>
      </trkpt>
      <trkpt lat="49.41171" lon="1.13405">
        <ele>154</ele>
        <time>2017-11-07T14:28:55Z</time>
      </trkpt>
      <trkpt lat="49.41175" lon="1.13401">
        <ele>154</ele>
        <time>2017-11-07T14:28:55Z</time>
      </trkpt>
      <trkpt lat="49.41179" lon="1.13398">
        <ele>154</ele>
        <time>2017-11-07T14:28:55Z</time>
      </trkpt>
      <trkpt lat="49.41183" lon="1.13394">
        <ele>154</ele>
        <time>2017-11-07T14:28:55Z</time>
      </trkpt>
      <trkpt lat="49.41187" lon="1.1339">
        <ele>154</ele>
        <time>2017-11-07T14:29:11Z</time>
      </trkpt>
      <trkpt lat="49.41192" lon="1.13387">
        <ele>154</ele>
        <time>2017-11-07T14:29:11Z</time>
      </trkpt>
      <trkpt lat="49.41196" lon="1.13384">
        <ele>154</ele>
        <time>2017-11-07T14:29:11Z</time>
      </trkpt>
      <trkpt lat="49.41198" lon="1.13382">
        <ele>154</ele>
        <time>2017-11-07T14:29:11Z</time>
      </trkpt>
      <trkpt lat="49.41204" lon="1.13377">
        <ele>154</ele>
        <time>2017-11-07T14:30:19Z</time>
      </trkpt>
      <trkpt lat="49.41204" lon="1.13375">
        <ele>151</ele>
        <time>2017-11-07T14:30:19Z</time>
      </trkpt>
      <trkpt lat="49.41205" lon="1.13374">
        <ele>151</ele>
        <time>2017-11-07T14:30:19Z</time>
      </trkpt>
      <trkpt lat="49.41207" lon="1.13373">
        <ele>151</ele>
        <time>2017-11-07T14:30:19Z</time>
      </trkpt>
      <trkpt lat="49.4121" lon="1.13372">
        <ele>152</ele>
        <time>2017-11-07T14:30:19Z</time>
      </trkpt>
      <trkpt lat="49.41215" lon="1.1337">
        <ele>152</ele>
        <time>2017-11-07T14:30:35Z</time>
      </trkpt>
      <trkpt lat="49.4122" lon="1.13368">
        <ele>152</ele>
        <time>2017-11-07T14:30:35Z</time>
      </trkpt>
      <trkpt lat="49.41225" lon="1.13366">
        <ele>152</ele>
        <time>2017-11-07T14:30:35Z</time>
      </trkpt>
      <trkpt lat="49.4123" lon="1.13363">
        <ele>152</ele>
        <time>2017-11-07T14:30:35Z</time>
      </trkpt>
      <trkpt lat="49.41234" lon="1.1336">
        <ele>152</ele>
        <time>2017-11-07T14:30:51Z</time>
      </trkpt>
      <trkpt lat="49.41238" lon="1.13357">
        <ele>152</ele>
        <time>2017-11-07T14:30:51Z</time>
      </trkpt>
      <trkpt lat="49.41242" lon="1.13353">
        <ele>152</ele>
        <time>2017-11-07T14:30:51Z</time>
      </trkpt>
      <trkpt lat="49.41247" lon="1.13351">
        <ele>152</ele>
        <time>2017-11-07T14:30:51Z</time>
      </trkpt>
      <trkpt lat="49.41252" lon="1.13349">
        <ele>152</ele>
        <time>2017-11-07T14:31:07Z</time>
      </trkpt>
      <trkpt lat="49.41256" lon="1.13348">
        <ele>152</ele>
        <time>2017-11-07T14:31:07Z</time>
      </trkpt>
      <trkpt lat="49.41261" lon="1.13346">
        <ele>152</ele>
        <time>2017-11-07T14:31:07Z</time>
      </trkpt>
      <trkpt lat="49.41265" lon="1.13344">
        <ele>152</ele>
        <time>2017-11-07T14:31:07Z</time>
      </trkpt>
      <trkpt lat="49.4127" lon="1.13341">
        <ele>152</ele>
        <time>2017-11-07T14:31:23Z</time>
      </trkpt>
      <trkpt lat="49.41274" lon="1.1334">
        <ele>152</ele>
        <time>2017-11-07T14:31:23Z</time>
      </trkpt>
      <trkpt lat="49.41278" lon="1.13337">
        <ele>152</ele>
        <time>2017-11-07T14:31:23Z</time>
      </trkpt>
      <trkpt lat="49.41283" lon="1.13334">
        <ele>152</ele>
        <time>2017-11-07T14:31:23Z</time>
      </trkpt>
      <trkpt lat="49.41287" lon="1.13332">
        <ele>152</ele>
        <time>2017-11-07T14:31:39Z</time>
      </trkpt>
      <trkpt lat="49.41292" lon="1.13329">
        <ele>151</ele>
        <time>2017-11-07T14:31:40Z</time>
      </trkpt>
      <trkpt lat="49.41297" lon="1.13327">
        <ele>151</ele>
        <time>2017-11-07T14:31:40Z</time>
      </trkpt>
      <trkpt lat="49.413" lon="1.13325">
        <ele>151</ele>
        <time>2017-11-07T14:31:40Z</time>
      </trkpt>
      <trkpt lat="49.41306" lon="1.13321">
        <ele>151</ele>
        <time>2017-11-07T14:31:55Z</time>
      </trkpt>
      <trkpt lat="49.4131" lon="1.13318">
        <ele>151</ele>
        <time>2017-11-07T14:31:55Z</time>
      </trkpt>
      <trkpt lat="49.41314" lon="1.13315">
        <ele>151</ele>
        <time>2017-11-07T14:31:55Z</time>
      </trkpt>
      <trkpt lat="49.41319" lon="1.13313">
        <ele>151</ele>
        <time>2017-11-07T14:31:55Z</time>
      </trkpt>
      <trkpt lat="49.41324" lon="1.13312">
        <ele>151</ele>
        <time>2017-11-07T14:32:11Z</time>
      </trkpt>
      <trkpt lat="49.41328" lon="1.1331">
        <ele>151</ele>
        <time>2017-11-07T14:32:11Z</time>
      </trkpt>
      <trkpt lat="49.41333" lon="1.13308">
        <ele>151</ele>
        <time>2017-11-07T14:32:11Z</time>
      </trkpt>
      <trkpt lat="49.41338" lon="1.13305">
        <ele>151</ele>
        <time>2017-11-07T14:32:11Z</time>
      </trkpt>
      <trkpt lat="49.41342" lon="1.13302">
        <ele>151</ele>
        <time>2017-11-07T14:32:27Z</time>
      </trkpt>
      <trkpt lat="49.41347" lon="1.133">
        <ele>151</ele>
        <time>2017-11-07T14:32:27Z</time>
      </trkpt>
      <trkpt lat="49.41352" lon="1.13297">
        <ele>151</ele>
        <time>2017-11-07T14:32:27Z</time>
      </trkpt>
      <trkpt lat="49.41357" lon="1.13295">
        <ele>151</ele>
        <time>2017-11-07T14:32:27Z</time>
      </trkpt>
      <trkpt lat="49.41362" lon="1.13293">
        <ele>151</ele>
        <time>2017-11-07T14:32:43Z</time>
      </trkpt>
      <trkpt lat="49.41366" lon="1.13291">
        <ele>151</ele>
        <time>2017-11-07T14:32:43Z</time>
      </trkpt>
      <trkpt lat="49.41371" lon="1.13289">
        <ele>151</ele>
        <time>2017-11-07T14:32:43Z</time>
      </trkpt>
      <trkpt lat="49.41376" lon="1.13288">
        <ele>149</ele>
        <time>2017-11-07T14:32:43Z</time>
      </trkpt>
      <trkpt lat="49.4138" lon="1.13286">
        <ele>149</ele>
        <time>2017-11-07T14:32:59Z</time>
      </trkpt>
      <trkpt lat="49.41384" lon="1.13283">
        <ele>149</ele>
        <time>2017-11-07T14:32:59Z</time>
      </trkpt>
      <trkpt lat="49.41389" lon="1.1328">
        <ele>149</ele>
        <time>2017-11-07T14:32:59Z</time>
      </trkpt>
      <trkpt lat="49.41394" lon="1.13278">
        <ele>149</ele>
        <time>2017-11-07T14:32:59Z</time>
      </trkpt>
      <trkpt lat="49.41398" lon="1.13275">
        <ele>149</ele>
        <time>2017-11-07T14:33:15Z</time>
      </trkpt>
      <trkpt lat="49.41403" lon="1.13273">
        <ele>149</ele>
        <time>2017-11-07T14:33:15Z</time>
      </trkpt>
      <trkpt lat="49.41408" lon="1.13269">
        <ele>149</ele>
        <time>2017-11-07T14:33:15Z</time>
      </trkpt>
      <trkpt lat="49.41412" lon="1.13267">
        <ele>149</ele>
        <time>2017-11-07T14:33:15Z</time>
      </trkpt>
      <trkpt lat="49.41417" lon="1.13265">
        <ele>149</ele>
        <time>2017-11-07T14:33:31Z</time>
      </trkpt>
      <trkpt lat="49.41421" lon="1.13262">
        <ele>149</ele>
        <time>2017-11-07T14:33:31Z</time>
      </trkpt>
      <trkpt lat="49.41426" lon="1.13258">
        <ele>149</ele>
        <time>2017-11-07T14:33:31Z</time>
      </trkpt>
      <trkpt lat="49.4143" lon="1.13255">
        <ele>149</ele>
        <time>2017-11-07T14:33:31Z</time>
      </trkpt>
      <trkpt lat="49.41434" lon="1.13252">
        <ele>149</ele>
        <time>2017-11-07T14:33:47Z</time>
      </trkpt>
      <trkpt lat="49.41439" lon="1.13249">
        <ele>149</ele>
        <time>2017-11-07T14:33:47Z</time>
      </trkpt>
      <trkpt lat="49.41444" lon="1.13247">
        <ele>149</ele>
        <time>2017-11-07T14:33:47Z</time>
      </trkpt>
      <trkpt lat="49.41449" lon="1.13244">
        <ele>149</ele>
        <time>2017-11-07T14:33:47Z</time>
      </trkpt>
      <trkpt lat="49.41454" lon="1.13244">
        <ele>149</ele>
        <time>2017-11-07T14:34:03Z</time>
      </trkpt>
      <trkpt lat="49.41458" lon="1.13242">
        <ele>149</ele>
        <time>2017-11-07T14:34:03Z</time>
      </trkpt>
      <trkpt lat="49.41462" lon="1.13239">
        <ele>149</ele>
        <time>2017-11-07T14:34:03Z</time>
      </trkpt>
      <trkpt lat="49.41466" lon="1.13236">
        <ele>149</ele>
        <time>2017-11-07T14:34:03Z</time>
      </trkpt>
      <trkpt lat="49.4147" lon="1.13233">
        <ele>149</ele>
        <time>2017-11-07T14:34:19Z</time>
      </trkpt>
      <trkpt lat="49.41475" lon="1.13231">
        <ele>149</ele>
        <time>2017-11-07T14:34:19Z</time>
      </trkpt>
      <trkpt lat="49.4148" lon="1.13228">
        <ele>149</ele>
        <time>2017-11-07T14:34:19Z</time>
      </trkpt>
      <trkpt lat="49.41484" lon="1.13226">
        <ele>149</ele>
        <time>2017-11-07T14:34:19Z</time>
      </trkpt>
      <trkpt lat="49.41489" lon="1.13225">
        <ele>149</ele>
        <time>2017-11-07T14:34:35Z</time>
      </trkpt>
      <trkpt lat="49.41494" lon="1.13223">
        <ele>149</ele>
        <time>2017-11-07T14:34:35Z</time>
      </trkpt>
      <trkpt lat="49.41498" lon="1.13222">
        <ele>149</ele>
        <time>2017-11-07T14:34:35Z</time>
      </trkpt>
      <trkpt lat="49.41503" lon="1.1322">
        <ele>149</ele>
        <time>2017-11-07T14:34:35Z</time>
      </trkpt>
      <trkpt lat="49.41508" lon="1.13219">
        <ele>149</ele>
        <time>2017-11-07T14:34:51Z</time>
      </trkpt>
      <trkpt lat="49.41513" lon="1.13217">
        <ele>149</ele>
        <time>2017-11-07T14:34:51Z</time>
      </trkpt>
      <trkpt lat="49.41517" lon="1.13215">
        <ele>149</ele>
        <time>2017-11-07T14:34:51Z</time>
      </trkpt>
      <trkpt lat="49.41522" lon="1.13213">
        <ele>149</ele>
        <time>2017-11-07T14:34:51Z</time>
      </trkpt>
      <trkpt lat="49.41526" lon="1.13212">
        <ele>149</ele>
        <time>2017-11-07T14:35:07Z</time>
      </trkpt>
      <trkpt lat="49.41531" lon="1.1321">
        <ele>149</ele>
        <time>2017-11-07T14:35:07Z</time>
      </trkpt>
      <trkpt lat="49.41536" lon="1.13208">
        <ele>147</ele>
        <time>2017-11-07T14:35:07Z</time>
      </trkpt>
      <trkpt lat="49.41541" lon="1.13206">
        <ele>147</ele>
        <time>2017-11-07T14:35:07Z</time>
      </trkpt>
      <trkpt lat="49.41546" lon="1.13203">
        <ele>147</ele>
        <time>2017-11-07T14:35:23Z</time>
      </trkpt>
      <trkpt lat="49.41551" lon="1.132">
        <ele>147</ele>
        <time>2017-11-07T14:35:23Z</time>
      </trkpt>
      <trkpt lat="49.41555" lon="1.13196">
        <ele>147</ele>
        <time>2017-11-07T14:35:23Z</time>
      </trkpt>
      <trkpt lat="49.4156" lon="1.13194">
        <ele>147</ele>
        <time>2017-11-07T14:35:23Z</time>
      </trkpt>
      <trkpt lat="49.41565" lon="1.13189">
        <ele>147</ele>
        <time>2017-11-07T14:35:39Z</time>
      </trkpt>
      <trkpt lat="49.41569" lon="1.13187">
        <ele>147</ele>
        <time>2017-11-07T14:35:39Z</time>
      </trkpt>
      <trkpt lat="49.41574" lon="1.13184">
        <ele>147</ele>
        <time>2017-11-07T14:35:39Z</time>
      </trkpt>
      <trkpt lat="49.41578" lon="1.1318">
        <ele>147</ele>
        <time>2017-11-07T14:35:39Z</time>
      </trkpt>
      <trkpt lat="49.41583" lon="1.13177">
        <ele>147</ele>
        <time>2017-11-07T14:35:55Z</time>
      </trkpt>
      <trkpt lat="49.41587" lon="1.13176">
        <ele>147</ele>
        <time>2017-11-07T14:35:55Z</time>
      </trkpt>
      <trkpt lat="49.41592" lon="1.13174">
        <ele>147</ele>
        <time>2017-11-07T14:35:55Z</time>
      </trkpt>
      <trkpt lat="49.41596" lon="1.13171">
        <ele>147</ele>
        <time>2017-11-07T14:35:55Z</time>
      </trkpt>
      <trkpt lat="49.41599" lon="1.13169">
        <ele>147</ele>
        <time>2017-11-07T14:36:11Z</time>
      </trkpt>
      <trkpt lat="49.41603" lon="1.13166">
        <ele>147</ele>
        <time>2017-11-07T14:36:11Z</time>
      </trkpt>
      <trkpt lat="49.41607" lon="1.13164">
        <ele>147</ele>
        <time>2017-11-07T14:36:11Z</time>
      </trkpt>
      <trkpt lat="49.41612" lon="1.13161">
        <ele>147</ele>
        <time>2017-11-07T14:36:11Z</time>
      </trkpt>
      <trkpt lat="49.41616" lon="1.13158">
        <ele>147</ele>
        <time>2017-11-07T14:36:27Z</time>
      </trkpt>
      <trkpt lat="49.4162" lon="1.13155">
        <ele>147</ele>
        <time>2017-11-07T14:36:27Z</time>
      </trkpt>
      <trkpt lat="49.41623" lon="1.1315">
        <ele>147</ele>
        <time>2017-11-07T14:36:27Z</time>
      </trkpt>
      <trkpt lat="49.41625" lon="1.13148">
        <ele>147</ele>
        <time>2017-11-07T14:36:27Z</time>
      </trkpt>
      <trkpt lat="49.41627" lon="1.13147">
        <ele>147</ele>
        <time>2017-11-07T14:36:47Z</time>
      </trkpt>
      <trkpt lat="49.41628" lon="1.13145">
        <ele>147</ele>
        <time>2017-11-07T14:36:47Z</time>
      </trkpt>
      <trkpt lat="49.4163" lon="1.13144">
        <ele>147</ele>
        <time>2017-11-07T14:36:47Z</time>
      </trkpt>
      <trkpt lat="49.41633" lon="1.13141">
        <ele>147</ele>
        <time>2017-11-07T14:36:47Z</time>
      </trkpt>
      <trkpt lat="49.41637" lon="1.13137">
        <ele>147</ele>
        <time>2017-11-07T14:36:47Z</time>
      </trkpt>
      <trkpt lat="49.41641" lon="1.13132">
        <ele>147</ele>
        <time>2017-11-07T14:37:03Z</time>
      </trkpt>
      <trkpt lat="49.41644" lon="1.13128">
        <ele>147</ele>
        <time>2017-11-07T14:37:03Z</time>
      </trkpt>
      <trkpt lat="49.41648" lon="1.13124">
        <ele>146</ele>
        <time>2017-11-07T14:37:03Z</time>
      </trkpt>
      <trkpt lat="49.41651" lon="1.13121">
        <ele>146</ele>
        <time>2017-11-07T14:37:03Z</time>
      </trkpt>
      <trkpt lat="49.41653" lon="1.13119">
        <ele>146</ele>
        <time>2017-11-07T14:37:19Z</time>
      </trkpt>
      <trkpt lat="49.41657" lon="1.13114">
        <ele>146</ele>
        <time>2017-11-07T14:37:19Z</time>
      </trkpt>
      <trkpt lat="49.4166" lon="1.13111">
        <ele>146</ele>
        <time>2017-11-07T14:37:19Z</time>
      </trkpt>
      <trkpt lat="49.41663" lon="1.13107">
        <ele>146</ele>
        <time>2017-11-07T14:37:19Z</time>
      </trkpt>
      <trkpt lat="49.41665" lon="1.13103">
        <ele>146</ele>
        <time>2017-11-07T14:37:35Z</time>
      </trkpt>
      <trkpt lat="49.41666" lon="1.13098">
        <ele>146</ele>
        <time>2017-11-07T14:37:35Z</time>
      </trkpt>
      <trkpt lat="49.41666" lon="1.13092">
        <ele>146</ele>
        <time>2017-11-07T14:37:35Z</time>
      </trkpt>
      <trkpt lat="49.41665" lon="1.13086">
        <ele>146</ele>
        <time>2017-11-07T14:37:35Z</time>
      </trkpt>
      <trkpt lat="49.41664" lon="1.1308">
        <ele>146</ele>
        <time>2017-11-07T14:37:51Z</time>
      </trkpt>
      <trkpt lat="49.41663" lon="1.13073">
        <ele>146</ele>
        <time>2017-11-07T14:37:51Z</time>
      </trkpt>
      <trkpt lat="49.41663" lon="1.13065">
        <ele>146</ele>
        <time>2017-11-07T14:37:51Z</time>
      </trkpt>
      <trkpt lat="49.41662" lon="1.13059">
        <ele>146</ele>
        <time>2017-11-07T14:37:51Z</time>
      </trkpt>
      <trkpt lat="49.41661" lon="1.13052">
        <ele>146</ele>
        <time>2017-11-07T14:38:07Z</time>
      </trkpt>
      <trkpt lat="49.4166" lon="1.13045">
        <ele>146</ele>
        <time>2017-11-07T14:38:07Z</time>
      </trkpt>
      <trkpt lat="49.4166" lon="1.13038">
        <ele>143</ele>
        <time>2017-11-07T14:38:07Z</time>
      </trkpt>
      <trkpt lat="49.41659" lon="1.13031">
        <ele>143</ele>
        <time>2017-11-07T14:38:07Z</time>
      </trkpt>
      <trkpt lat="49.41659" lon="1.13024">
        <ele>143</ele>
        <time>2017-11-07T14:38:23Z</time>
      </trkpt>
      <trkpt lat="49.41659" lon="1.13017">
        <ele>143</ele>
        <time>2017-11-07T14:38:23Z</time>
      </trkpt>
      <trkpt lat="49.41659" lon="1.1301">
        <ele>143</ele>
        <time>2017-11-07T14:38:23Z</time>
      </trkpt>
      <trkpt lat="49.41659" lon="1.13005">
        <ele>143</ele>
        <time>2017-11-07T14:38:23Z</time>
      </trkpt>
      <trkpt lat="49.41657" lon="1.12997">
        <ele>143</ele>
        <time>2017-11-07T14:38:39Z</time>
      </trkpt>
      <trkpt lat="49.41656" lon="1.1299">
        <ele>143</ele>
        <time>2017-11-07T14:38:39Z</time>
      </trkpt>
      <trkpt lat="49.41656" lon="1.12983">
        <ele>143</ele>
        <time>2017-11-07T14:38:39Z</time>
      </trkpt>
      <trkpt lat="49.41655" lon="1.12976">
        <ele>143</ele>
        <time>2017-11-07T14:38:39Z</time>
      </trkpt>
      <trkpt lat="49.41655" lon="1.12969">
        <ele>143</ele>
        <time>2017-11-07T14:38:55Z</time>
      </trkpt>
      <trkpt lat="49.41656" lon="1.12962">
        <ele>143</ele>
        <time>2017-11-07T14:38:55Z</time>
      </trkpt>
      <trkpt lat="49.41656" lon="1.12955">
        <ele>135</ele>
        <time>2017-11-07T14:38:55Z</time>
      </trkpt>
      <trkpt lat="49.41656" lon="1.12949">
        <ele>135</ele>
        <time>2017-11-07T14:38:55Z</time>
      </trkpt>
      <trkpt lat="49.41656" lon="1.12942">
        <ele>135</ele>
        <time>2017-11-07T14:39:11Z</time>
      </trkpt>
      <trkpt lat="49.41656" lon="1.12936">
        <ele>135</ele>
        <time>2017-11-07T14:39:11Z</time>
      </trkpt>
      <trkpt lat="49.41656" lon="1.12928">
        <ele>135</ele>
        <time>2017-11-07T14:39:11Z</time>
      </trkpt>
      <trkpt lat="49.41657" lon="1.1292">
        <ele>135</ele>
        <time>2017-11-07T14:39:11Z</time>
      </trkpt>
      <trkpt lat="49.41657" lon="1.12913">
        <ele>135</ele>
        <time>2017-11-07T14:39:27Z</time>
      </trkpt>
      <trkpt lat="49.41658" lon="1.12906">
        <ele>135</ele>
        <time>2017-11-07T14:39:27Z</time>
      </trkpt>
      <trkpt lat="49.41657" lon="1.12899">
        <ele>135</ele>
        <time>2017-11-07T14:39:27Z</time>
      </trkpt>
      <trkpt lat="49.41658" lon="1.12892">
        <ele>135</ele>
        <time>2017-11-07T14:39:27Z</time>
      </trkpt>
      <trkpt lat="49.41659" lon="1.12885">
        <ele>135</ele>
        <time>2017-11-07T14:39:43Z</time>
      </trkpt>
      <trkpt lat="49.41661" lon="1.12878">
        <ele>135</ele>
        <time>2017-11-07T14:39:43Z</time>
      </trkpt>
      <trkpt lat="49.41662" lon="1.12872">
        <ele>131</ele>
        <time>2017-11-07T14:39:43Z</time>
      </trkpt>
      <trkpt lat="49.41663" lon="1.12865">
        <ele>131</ele>
        <time>2017-11-07T14:39:43Z</time>
      </trkpt>
      <trkpt lat="49.41664" lon="1.12857">
        <ele>131</ele>
        <time>2017-11-07T14:39:59Z</time>
      </trkpt>
      <trkpt lat="49.41664" lon="1.1285">
        <ele>131</ele>
        <time>2017-11-07T14:39:59Z</time>
      </trkpt>
      <trkpt lat="49.41665" lon="1.12843">
        <ele>131</ele>
        <time>2017-11-07T14:39:59Z</time>
      </trkpt>
      <trkpt lat="49.41665" lon="1.12836">
        <ele>131</ele>
        <time>2017-11-07T14:39:59Z</time>
      </trkpt>
      <trkpt lat="49.41667" lon="1.1283">
        <ele>131</ele>
        <time>2017-11-07T14:40:15Z</time>
      </trkpt>
      <trkpt lat="49.41667" lon="1.12823">
        <ele>131</ele>
        <time>2017-11-07T14:40:15Z</time>
      </trkpt>
      <trkpt lat="49.41668" lon="1.12817">
        <ele>131</ele>
        <time>2017-11-07T14:40:15Z</time>
      </trkpt>
      <trkpt lat="49.4167" lon="1.1281">
        <ele>131</ele>
        <time>2017-11-07T14:40:15Z</time>
      </trkpt>
      <trkpt lat="49.41672" lon="1.12804">
        <ele>131</ele>
        <time>2017-11-07T14:40:31Z</time>
      </trkpt>
      <trkpt lat="49.41672" lon="1.12797">
        <ele>131</ele>
        <time>2017-11-07T14:40:31Z</time>
      </trkpt>
      <trkpt lat="49.41674" lon="1.12791">
        <ele>125</ele>
        <time>2017-11-07T14:40:31Z</time>
      </trkpt>
      <trkpt lat="49.41677" lon="1.12785">
        <ele>125</ele>
        <time>2017-11-07T14:40:31Z</time>
      </trkpt>
      <trkpt lat="49.41679" lon="1.1278">
        <ele>125</ele>
        <time>2017-11-07T14:40:47Z</time>
      </trkpt>
      <trkpt lat="49.41682" lon="1.12775">
        <ele>125</ele>
        <time>2017-11-07T14:40:47Z</time>
      </trkpt>
      <trkpt lat="49.41685" lon="1.12771">
        <ele>125</ele>
        <time>2017-11-07T14:40:47Z</time>
      </trkpt>
      <trkpt lat="49.41687" lon="1.12765">
        <ele>125</ele>
        <time>2017-11-07T14:40:47Z</time>
      </trkpt>
      <trkpt lat="49.4169" lon="1.1276">
        <ele>125</ele>
        <time>2017-11-07T14:41:03Z</time>
      </trkpt>
      <trkpt lat="49.41693" lon="1.12754">
        <ele>125</ele>
        <time>2017-11-07T14:41:03Z</time>
      </trkpt>
      <trkpt lat="49.41696" lon="1.12749">
        <ele>125</ele>
        <time>2017-11-07T14:41:03Z</time>
      </trkpt>
      <trkpt lat="49.41698" lon="1.12743">
        <ele>125</ele>
        <time>2017-11-07T14:41:03Z</time>
      </trkpt>
      <trkpt lat="49.417" lon="1.12738">
        <ele>125</ele>
        <time>2017-11-07T14:41:19Z</time>
      </trkpt>
      <trkpt lat="49.41702" lon="1.12734">
        <ele>125</ele>
        <time>2017-11-07T14:41:19Z</time>
      </trkpt>
      <trkpt lat="49.41705" lon="1.12729">
        <ele>125</ele>
        <time>2017-11-07T14:41:19Z</time>
      </trkpt>
      <trkpt lat="49.41706" lon="1.12724">
        <ele>125</ele>
        <time>2017-11-07T14:41:19Z</time>
      </trkpt>
      <trkpt lat="49.41707" lon="1.12718">
        <ele>125</ele>
        <time>2017-11-07T14:41:35Z</time>
      </trkpt>
      <trkpt lat="49.41709" lon="1.12712">
        <ele>146</ele>
        <time>2017-11-07T14:41:35Z</time>
      </trkpt>
      <trkpt lat="49.4171" lon="1.12706">
        <ele>145</ele>
        <time>2017-11-07T14:41:35Z</time>
      </trkpt>
      <trkpt lat="49.41711" lon="1.127">
        <ele>145</ele>
        <time>2017-11-07T14:41:35Z</time>
      </trkpt>
      <trkpt lat="49.41712" lon="1.12692">
        <ele>145</ele>
        <time>2017-11-07T14:41:51Z</time>
      </trkpt>
      <trkpt lat="49.41712" lon="1.12685">
        <ele>145</ele>
        <time>2017-11-07T14:41:51Z</time>
      </trkpt>
      <trkpt lat="49.41711" lon="1.12679">
        <ele>145</ele>
        <time>2017-11-07T14:41:51Z</time>
      </trkpt>
      <trkpt lat="49.4171" lon="1.12673">
        <ele>145</ele>
        <time>2017-11-07T14:41:51Z</time>
      </trkpt>
      <trkpt lat="49.41707" lon="1.12669">
        <ele>119</ele>
        <time>2017-11-07T14:42:11Z</time>
      </trkpt>
      <trkpt lat="49.41705" lon="1.12665">
        <ele>119</ele>
        <time>2017-11-07T14:42:11Z</time>
      </trkpt>
      <trkpt lat="49.41704" lon="1.12663">
        <ele>119</ele>
        <time>2017-11-07T14:42:11Z</time>
      </trkpt>
      <trkpt lat="49.41702" lon="1.12662">
        <ele>119</ele>
        <time>2017-11-07T14:42:11Z</time>
      </trkpt>
      <trkpt lat="49.417" lon="1.12659">
        <ele>119</ele>
        <time>2017-11-07T14:42:11Z</time>
      </trkpt>
      <trkpt lat="49.41698" lon="1.12657">
        <ele>119</ele>
        <time>2017-11-07T14:42:27Z</time>
      </trkpt>
      <trkpt lat="49.41695" lon="1.12656">
        <ele>119</ele>
        <time>2017-11-07T14:42:27Z</time>
      </trkpt>
      <trkpt lat="49.41692" lon="1.12653">
        <ele>119</ele>
        <time>2017-11-07T14:42:27Z</time>
      </trkpt>
      <trkpt lat="49.4169" lon="1.1265">
        <ele>119</ele>
        <time>2017-11-07T14:42:27Z</time>
      </trkpt>
      <trkpt lat="49.41688" lon="1.12646">
        <ele>119</ele>
        <time>2017-11-07T14:42:43Z</time>
      </trkpt>
      <trkpt lat="49.41685" lon="1.12645">
        <ele>119</ele>
        <time>2017-11-07T14:42:43Z</time>
      </trkpt>
      <trkpt lat="49.41682" lon="1.12643">
        <ele>119</ele>
        <time>2017-11-07T14:42:43Z</time>
      </trkpt>
      <trkpt lat="49.41679" lon="1.12641">
        <ele>119</ele>
        <time>2017-11-07T14:42:43Z</time>
      </trkpt>
      <trkpt lat="49.41675" lon="1.12639">
        <ele>119</ele>
        <time>2017-11-07T14:42:59Z</time>
      </trkpt>
      <trkpt lat="49.41673" lon="1.12636">
        <ele>119</ele>
        <time>2017-11-07T14:42:59Z</time>
      </trkpt>
      <trkpt lat="49.4167" lon="1.12632">
        <ele>119</ele>
        <time>2017-11-07T14:42:59Z</time>
      </trkpt>
      <trkpt lat="49.41667" lon="1.12628">
        <ele>119</ele>
        <time>2017-11-07T14:42:59Z</time>
      </trkpt>
      <trkpt lat="49.41664" lon="1.12623">
        <ele>128</ele>
        <time>2017-11-07T14:43:15Z</time>
      </trkpt>
      <trkpt lat="49.41661" lon="1.12621">
        <ele>128</ele>
        <time>2017-11-07T14:43:15Z</time>
      </trkpt>
      <trkpt lat="49.41659" lon="1.12618">
        <ele>128</ele>
        <time>2017-11-07T14:43:15Z</time>
      </trkpt>
      <trkpt lat="49.41656" lon="1.12614">
        <ele>128</ele>
        <time>2017-11-07T14:43:15Z</time>
      </trkpt>
      <trkpt lat="49.41652" lon="1.12612">
        <ele>128</ele>
        <time>2017-11-07T14:43:31Z</time>
      </trkpt>
      <trkpt lat="49.41649" lon="1.1261">
        <ele>128</ele>
        <time>2017-11-07T14:43:31Z</time>
      </trkpt>
      <trkpt lat="49.41646" lon="1.12605">
        <ele>128</ele>
        <time>2017-11-07T14:43:31Z</time>
      </trkpt>
      <trkpt lat="49.41644" lon="1.12601">
        <ele>128</ele>
        <time>2017-11-07T14:43:31Z</time>
      </trkpt>
      <trkpt lat="49.41642" lon="1.12595">
        <ele>128</ele>
        <time>2017-11-07T14:43:47Z</time>
      </trkpt>
      <trkpt lat="49.41641" lon="1.12589">
        <ele>128</ele>
        <time>2017-11-07T14:43:47Z</time>
      </trkpt>
      <trkpt lat="49.4164" lon="1.12585">
        <ele>128</ele>
        <time>2017-11-07T14:43:47Z</time>
      </trkpt>
      <trkpt lat="49.41638" lon="1.12578">
        <ele>128</ele>
        <time>2017-11-07T14:43:47Z</time>
      </trkpt>
      <trkpt lat="49.41636" lon="1.12573">
        <ele>128</ele>
        <time>2017-11-07T14:44:03Z</time>
      </trkpt>
      <trkpt lat="49.41636" lon="1.12567">
        <ele>128</ele>
        <time>2017-11-07T14:44:03Z</time>
      </trkpt>
      <trkpt lat="49.41635" lon="1.12562">
        <ele>128</ele>
        <time>2017-11-07T14:44:03Z</time>
      </trkpt>
      <trkpt lat="49.41634" lon="1.12558">
        <ele>128</ele>
        <time>2017-11-07T14:44:03Z</time>
      </trkpt>
      <trkpt lat="49.41634" lon="1.12554">
        <ele>128</ele>
        <time>2017-11-07T14:44:19Z</time>
      </trkpt>
      <trkpt lat="49.41633" lon="1.12548">
        <ele>128</ele>
        <time>2017-11-07T14:44:19Z</time>
      </trkpt>
      <trkpt lat="49.41632" lon="1.12541">
        <ele>131</ele>
        <time>2017-11-07T14:44:19Z</time>
      </trkpt>
      <trkpt lat="49.41632" lon="1.12534">
        <ele>131</ele>
        <time>2017-11-07T14:44:19Z</time>
      </trkpt>
      <trkpt lat="49.41631" lon="1.12528">
        <ele>131</ele>
        <time>2017-11-07T14:44:35Z</time>
      </trkpt>
      <trkpt lat="49.41632" lon="1.12524">
        <ele>131</ele>
        <time>2017-11-07T14:44:35Z</time>
      </trkpt>
      <trkpt lat="49.41631" lon="1.12519">
        <ele>131</ele>
        <time>2017-11-07T14:44:35Z</time>
      </trkpt>
      <trkpt lat="49.4163" lon="1.12514">
        <ele>131</ele>
        <time>2017-11-07T14:44:35Z</time>
      </trkpt>
      <trkpt lat="49.41631" lon="1.12511">
        <ele>131</ele>
        <time>2017-11-07T14:44:55Z</time>
      </trkpt>
      <trkpt lat="49.41632" lon="1.12507">
        <ele>131</ele>
        <time>2017-11-07T14:44:55Z</time>
      </trkpt>
      <trkpt lat="49.41632" lon="1.12503">
        <ele>131</ele>
        <time>2017-11-07T14:44:55Z</time>
      </trkpt>
      <trkpt lat="49.41631" lon="1.12498">
        <ele>131</ele>
        <time>2017-11-07T14:44:55Z</time>
      </trkpt>
      <trkpt lat="49.41631" lon="1.12493">
        <ele>131</ele>
        <time>2017-11-07T14:44:55Z</time>
      </trkpt>
      <trkpt lat="49.41631" lon="1.12489">
        <ele>131</ele>
        <time>2017-11-07T14:45:11Z</time>
      </trkpt>
      <trkpt lat="49.41632" lon="1.12484">
        <ele>131</ele>
        <time>2017-11-07T14:45:11Z</time>
      </trkpt>
      <trkpt lat="49.41631" lon="1.12479">
        <ele>131</ele>
        <time>2017-11-07T14:45:11Z</time>
      </trkpt>
      <trkpt lat="49.41631" lon="1.12474">
        <ele>131</ele>
        <time>2017-11-07T14:45:11Z</time>
      </trkpt>
      <trkpt lat="49.41631" lon="1.12468">
        <ele>131</ele>
        <time>2017-11-07T14:45:27Z</time>
      </trkpt>
      <trkpt lat="49.41631" lon="1.12464">
        <ele>131</ele>
        <time>2017-11-07T14:45:27Z</time>
      </trkpt>
      <trkpt lat="49.41631" lon="1.12457">
        <ele>129</ele>
        <time>2017-11-07T14:45:27Z</time>
      </trkpt>
      <trkpt lat="49.41631" lon="1.12452">
        <ele>129</ele>
        <time>2017-11-07T14:45:27Z</time>
      </trkpt>
      <trkpt lat="49.41631" lon="1.12446">
        <ele>129</ele>
        <time>2017-11-07T14:45:43Z</time>
      </trkpt>
      <trkpt lat="49.41631" lon="1.1244">
        <ele>129</ele>
        <time>2017-11-07T14:45:43Z</time>
      </trkpt>
      <trkpt lat="49.41631" lon="1.12435">
        <ele>129</ele>
        <time>2017-11-07T14:45:43Z</time>
      </trkpt>
      <trkpt lat="49.41631" lon="1.12431">
        <ele>129</ele>
        <time>2017-11-07T14:45:43Z</time>
      </trkpt>
      <trkpt lat="49.4163" lon="1.12425">
        <ele>129</ele>
        <time>2017-11-07T14:45:59Z</time>
      </trkpt>
      <trkpt lat="49.41629" lon="1.12421">
        <ele>129</ele>
        <time>2017-11-07T14:45:59Z</time>
      </trkpt>
      <trkpt lat="49.41629" lon="1.12415">
        <ele>129</ele>
        <time>2017-11-07T14:45:59Z</time>
      </trkpt>
      <trkpt lat="49.41629" lon="1.1241">
        <ele>129</ele>
        <time>2017-11-07T14:45:59Z</time>
      </trkpt>
      <trkpt lat="49.41628" lon="1.12404">
        <ele>129</ele>
        <time>2017-11-07T14:46:15Z</time>
      </trkpt>
      <trkpt lat="49.41629" lon="1.12398">
        <ele>129</ele>
        <time>2017-11-07T14:46:15Z</time>
      </trkpt>
      <trkpt lat="49.41629" lon="1.12391">
        <ele>129</ele>
        <time>2017-11-07T14:46:15Z</time>
      </trkpt>
      <trkpt lat="49.41629" lon="1.12384">
        <ele>129</ele>
        <time>2017-11-07T14:46:15Z</time>
      </trkpt>
      <trkpt lat="49.41629" lon="1.12378">
        <ele>129</ele>
        <time>2017-11-07T14:46:31Z</time>
      </trkpt>
      <trkpt lat="49.41629" lon="1.12371">
        <ele>124</ele>
        <time>2017-11-07T14:46:31Z</time>
      </trkpt>
      <trkpt lat="49.41628" lon="1.12366">
        <ele>124</ele>
        <time>2017-11-07T14:46:31Z</time>
      </trkpt>
      <trkpt lat="49.41628" lon="1.12361">
        <ele>124</ele>
        <time>2017-11-07T14:46:31Z</time>
      </trkpt>
      <trkpt lat="49.4163" lon="1.12356">
        <ele>124</ele>
        <time>2017-11-07T14:46:47Z</time>
      </trkpt>
      <trkpt lat="49.4163" lon="1.12351">
        <ele>124</ele>
        <time>2017-11-07T14:46:47Z</time>
      </trkpt>
      <trkpt lat="49.4163" lon="1.12346">
        <ele>124</ele>
        <time>2017-11-07T14:46:47Z</time>
      </trkpt>
      <trkpt lat="49.41628" lon="1.1234">
        <ele>124</ele>
        <time>2017-11-07T14:46:47Z</time>
      </trkpt>
      <trkpt lat="49.41628" lon="1.12335">
        <ele>124</ele>
        <time>2017-11-07T14:47:03Z</time>
      </trkpt>
      <trkpt lat="49.41629" lon="1.1233">
        <ele>124</ele>
        <time>2017-11-07T14:47:03Z</time>
      </trkpt>
      <trkpt lat="49.41629" lon="1.12324">
        <ele>124</ele>
        <time>2017-11-07T14:47:03Z</time>
      </trkpt>
      <trkpt lat="49.41628" lon="1.12318">
        <ele>124</ele>
        <time>2017-11-07T14:47:03Z</time>
      </trkpt>
      <trkpt lat="49.41628" lon="1.12312">
        <ele>124</ele>
        <time>2017-11-07T14:47:19Z</time>
      </trkpt>
      <trkpt lat="49.41629" lon="1.12306">
        <ele>124</ele>
        <time>2017-11-07T14:47:19Z</time>
      </trkpt>
      <trkpt lat="49.41629" lon="1.12301">
        <ele>124</ele>
        <time>2017-11-07T14:47:19Z</time>
      </trkpt>
      <trkpt lat="49.4163" lon="1.12296">
        <ele>124</ele>
        <time>2017-11-07T14:47:19Z</time>
      </trkpt>
      <trkpt lat="49.41629" lon="1.12291">
        <ele>117</ele>
        <time>2017-11-07T14:47:35Z</time>
      </trkpt>
      <trkpt lat="49.41629" lon="1.12286">
        <ele>117</ele>
        <time>2017-11-07T14:47:35Z</time>
      </trkpt>
      <trkpt lat="49.41629" lon="1.12281">
        <ele>117</ele>
        <time>2017-11-07T14:47:35Z</time>
      </trkpt>
      <trkpt lat="49.41628" lon="1.12275">
        <ele>117</ele>
        <time>2017-11-07T14:47:35Z</time>
      </trkpt>
      <trkpt lat="49.41627" lon="1.12264">
        <ele>117</ele>
        <time>2017-11-07T14:47:59Z</time>
      </trkpt>
      <trkpt lat="49.41628" lon="1.12258">
        <ele>117</ele>
        <time>2017-11-07T14:47:59Z</time>
      </trkpt>
      <trkpt lat="49.41629" lon="1.12258">
        <ele>117</ele>
        <time>2017-11-07T14:47:59Z</time>
      </trkpt>
      <trkpt lat="49.41628" lon="1.12257">
        <ele>117</ele>
        <time>2017-11-07T14:47:59Z</time>
      </trkpt>
      <trkpt lat="49.41628" lon="1.12257">
        <ele>117</ele>
        <time>2017-11-07T14:47:59Z</time>
      </trkpt>
      <trkpt lat="49.4163" lon="1.12254">
        <ele>117</ele>
        <time>2017-11-07T14:50:27Z</time>
      </trkpt>
      <trkpt lat="49.41629" lon="1.1225">
        <ele>117</ele>
        <time>2017-11-07T14:50:27Z</time>
      </trkpt>
      <trkpt lat="49.41629" lon="1.12245">
        <ele>117</ele>
        <time>2017-11-07T14:50:27Z</time>
      </trkpt>
      <trkpt lat="49.41629" lon="1.1224">
        <ele>117</ele>
        <time>2017-11-07T14:50:27Z</time>
      </trkpt>
      <trkpt lat="49.41629" lon="1.12234">
        <ele>117</ele>
        <time>2017-11-07T14:50:27Z</time>
      </trkpt>
      <trkpt lat="49.41629" lon="1.12228">
        <ele>117</ele>
        <time>2017-11-07T14:50:43Z</time>
      </trkpt>
      <trkpt lat="49.41628" lon="1.12223">
        <ele>117</ele>
        <time>2017-11-07T14:50:43Z</time>
      </trkpt>
      <trkpt lat="49.41629" lon="1.12217">
        <ele>117</ele>
        <time>2017-11-07T14:50:43Z</time>
      </trkpt>
      <trkpt lat="49.41631" lon="1.12212">
        <ele>117</ele>
        <time>2017-11-07T14:50:43Z</time>
      </trkpt>
      <trkpt lat="49.41631" lon="1.12207">
        <ele>100</ele>
        <time>2017-11-07T14:50:59Z</time>
      </trkpt>
      <trkpt lat="49.41633" lon="1.12202">
        <ele>100</ele>
        <time>2017-11-07T14:50:59Z</time>
      </trkpt>
      <trkpt lat="49.41636" lon="1.12198">
        <ele>100</ele>
        <time>2017-11-07T14:50:59Z</time>
      </trkpt>
      <trkpt lat="49.41638" lon="1.12194">
        <ele>100</ele>
        <time>2017-11-07T14:50:59Z</time>
      </trkpt>
      <trkpt lat="49.4164" lon="1.1219">
        <ele>100</ele>
        <time>2017-11-07T14:51:15Z</time>
      </trkpt>
      <trkpt lat="49.41643" lon="1.12186">
        <ele>100</ele>
        <time>2017-11-07T14:51:15Z</time>
      </trkpt>
      <trkpt lat="49.41645" lon="1.12181">
        <ele>100</ele>
        <time>2017-11-07T14:51:15Z</time>
      </trkpt>
      <trkpt lat="49.41648" lon="1.12176">
        <ele>100</ele>
        <time>2017-11-07T14:51:15Z</time>
      </trkpt>
      <trkpt lat="49.4165" lon="1.12171">
        <ele>100</ele>
        <time>2017-11-07T14:51:31Z</time>
      </trkpt>
      <trkpt lat="49.41653" lon="1.12165">
        <ele>100</ele>
        <time>2017-11-07T14:51:31Z</time>
      </trkpt>
      <trkpt lat="49.41656" lon="1.12159">
        <ele>100</ele>
        <time>2017-11-07T14:51:31Z</time>
      </trkpt>
      <trkpt lat="49.41659" lon="1.12154">
        <ele>100</ele>
        <time>2017-11-07T14:51:31Z</time>
      </trkpt>
      <trkpt lat="49.41661" lon="1.1215">
        <ele>100</ele>
        <time>2017-11-07T14:51:47Z</time>
      </trkpt>
      <trkpt lat="49.41663" lon="1.12144">
        <ele>100</ele>
        <time>2017-11-07T14:51:47Z</time>
      </trkpt>
      <trkpt lat="49.41665" lon="1.12141">
        <ele>100</ele>
        <time>2017-11-07T14:51:47Z</time>
      </trkpt>
      <trkpt lat="49.41668" lon="1.12135">
        <ele>100</ele>
        <time>2017-11-07T14:51:47Z</time>
      </trkpt>
      <trkpt lat="49.4167" lon="1.1213">
        <ele>100</ele>
        <time>2017-11-07T14:52:03Z</time>
      </trkpt>
      <trkpt lat="49.41673" lon="1.12124">
        <ele>69</ele>
        <time>2017-11-07T14:52:03Z</time>
      </trkpt>
      <trkpt lat="49.41676" lon="1.12119">
        <ele>69</ele>
        <time>2017-11-07T14:52:03Z</time>
      </trkpt>
      <trkpt lat="49.41678" lon="1.12114">
        <ele>69</ele>
        <time>2017-11-07T14:52:03Z</time>
      </trkpt>
      <trkpt lat="49.41681" lon="1.12109">
        <ele>69</ele>
        <time>2017-11-07T14:52:19Z</time>
      </trkpt>
      <trkpt lat="49.41684" lon="1.12104">
        <ele>69</ele>
        <time>2017-11-07T14:52:19Z</time>
      </trkpt>
      <trkpt lat="49.41686" lon="1.12101">
        <ele>69</ele>
        <time>2017-11-07T14:52:19Z</time>
      </trkpt>
      <trkpt lat="49.41689" lon="1.12098">
        <ele>69</ele>
        <time>2017-11-07T14:52:19Z</time>
      </trkpt>
      <trkpt lat="49.41692" lon="1.12095">
        <ele>69</ele>
        <time>2017-11-07T14:52:35Z</time>
      </trkpt>
      <trkpt lat="49.41696" lon="1.12092">
        <ele>69</ele>
        <time>2017-11-07T14:52:35Z</time>
      </trkpt>
      <trkpt lat="49.41699" lon="1.12089">
        <ele>69</ele>
        <time>2017-11-07T14:52:35Z</time>
      </trkpt>
      <trkpt lat="49.41703" lon="1.12085">
        <ele>69</ele>
        <time>2017-11-07T14:52:35Z</time>
      </trkpt>
      <trkpt lat="49.41707" lon="1.12082">
        <ele>69</ele>
        <time>2017-11-07T14:52:51Z</time>
      </trkpt>
      <trkpt lat="49.4171" lon="1.12078">
        <ele>101</ele>
        <time>2017-11-07T14:52:51Z</time>
      </trkpt>
      <trkpt lat="49.41713" lon="1.12074">
        <ele>101</ele>
        <time>2017-11-07T14:52:51Z</time>
      </trkpt>
      <trkpt lat="49.41717" lon="1.12071">
        <ele>101</ele>
        <time>2017-11-07T14:52:51Z</time>
      </trkpt>
      <trkpt lat="49.4172" lon="1.12067">
        <ele>101</ele>
        <time>2017-11-07T14:53:07Z</time>
      </trkpt>
      <trkpt lat="49.41723" lon="1.12063">
        <ele>101</ele>
        <time>2017-11-07T14:53:07Z</time>
      </trkpt>
      <trkpt lat="49.41726" lon="1.12061">
        <ele>101</ele>
        <time>2017-11-07T14:53:07Z</time>
      </trkpt>
      <trkpt lat="49.41729" lon="1.1206">
        <ele>101</ele>
        <time>2017-11-07T14:53:07Z</time>
      </trkpt>
      <trkpt lat="49.41732" lon="1.12057">
        <ele>101</ele>
        <time>2017-11-07T14:53:23Z</time>
      </trkpt>
      <trkpt lat="49.41735" lon="1.12053">
        <ele>101</ele>
        <time>2017-11-07T14:53:23Z</time>
      </trkpt>
      <trkpt lat="49.41739" lon="1.12049">
        <ele>101</ele>
        <time>2017-11-07T14:53:23Z</time>
      </trkpt>
      <trkpt lat="49.41743" lon="1.12046">
        <ele>101</ele>
        <time>2017-11-07T14:53:23Z</time>
      </trkpt>
      <trkpt lat="49.41747" lon="1.12043">
        <ele>101</ele>
        <time>2017-11-07T14:53:39Z</time>
      </trkpt>
      <trkpt lat="49.41751" lon="1.1204">
        <ele>65</ele>
        <time>2017-11-07T14:53:39Z</time>
      </trkpt>
      <trkpt lat="49.41754" lon="1.12037">
        <ele>65</ele>
        <time>2017-11-07T14:53:39Z</time>
      </trkpt>
      <trkpt lat="49.41757" lon="1.12035">
        <ele>65</ele>
        <time>2017-11-07T14:53:39Z</time>
      </trkpt>
      <trkpt lat="49.41761" lon="1.12032">
        <ele>65</ele>
        <time>2017-11-07T14:53:55Z</time>
      </trkpt>
      <trkpt lat="49.41764" lon="1.12031">
        <ele>65</ele>
        <time>2017-11-07T14:53:55Z</time>
      </trkpt>
      <trkpt lat="49.41767" lon="1.12029">
        <ele>65</ele>
        <time>2017-11-07T14:53:55Z</time>
      </trkpt>
      <trkpt lat="49.41771" lon="1.12027">
        <ele>65</ele>
        <time>2017-11-07T14:53:55Z</time>
      </trkpt>
      <trkpt lat="49.41775" lon="1.12025">
        <ele>65</ele>
        <time>2017-11-07T14:54:11Z</time>
      </trkpt>
      <trkpt lat="49.41779" lon="1.12023">
        <ele>65</ele>
        <time>2017-11-07T14:54:11Z</time>
      </trkpt>
      <trkpt lat="49.41783" lon="1.12021">
        <ele>65</ele>
        <time>2017-11-07T14:54:11Z</time>
      </trkpt>
      <trkpt lat="49.41787" lon="1.12017">
        <ele>65</ele>
        <time>2017-11-07T14:54:11Z</time>
      </trkpt>
      <trkpt lat="49.41791" lon="1.12016">
        <ele>65</ele>
        <time>2017-11-07T14:54:27Z</time>
      </trkpt>
      <trkpt lat="49.41794" lon="1.12015">
        <ele>75</ele>
        <time>2017-11-07T14:54:27Z</time>
      </trkpt>
      <trkpt lat="49.41798" lon="1.12012">
        <ele>75</ele>
        <time>2017-11-07T14:54:27Z</time>
      </trkpt>
      <trkpt lat="49.41802" lon="1.12011">
        <ele>75</ele>
        <time>2017-11-07T14:54:27Z</time>
      </trkpt>
      <trkpt lat="49.41805" lon="1.12009">
        <ele>75</ele>
        <time>2017-11-07T14:54:43Z</time>
      </trkpt>
      <trkpt lat="49.41809" lon="1.12007">
        <ele>75</ele>
        <time>2017-11-07T14:54:43Z</time>
      </trkpt>
      <trkpt lat="49.41813" lon="1.12005">
        <ele>75</ele>
        <time>2017-11-07T14:54:43Z</time>
      </trkpt>
      <trkpt lat="49.41816" lon="1.12004">
        <ele>75</ele>
        <time>2017-11-07T14:54:43Z</time>
      </trkpt>
      <trkpt lat="49.4182" lon="1.12002">
        <ele>75</ele>
        <time>2017-11-07T14:54:59Z</time>
      </trkpt>
      <trkpt lat="49.41824" lon="1.12">
        <ele>75</ele>
        <time>2017-11-07T14:54:59Z</time>
      </trkpt>
      <trkpt lat="49.41826" lon="1.11999">
        <ele>75</ele>
        <time>2017-11-07T14:54:59Z</time>
      </trkpt>
      <trkpt lat="49.41831" lon="1.12">
        <ele>75</ele>
        <time>2017-11-07T14:54:59Z</time>
      </trkpt>
      <trkpt lat="49.41835" lon="1.11998">
        <ele>75</ele>
        <time>2017-11-07T14:55:15Z</time>
      </trkpt>
      <trkpt lat="49.41838" lon="1.12">
        <ele>75</ele>
        <time>2017-11-07T14:55:15Z</time>
      </trkpt>
      <trkpt lat="49.41842" lon="1.12002">
        <ele>75</ele>
        <time>2017-11-07T14:55:15Z</time>
      </trkpt>
      <trkpt lat="49.41845" lon="1.12006">
        <ele>75</ele>
        <time>2017-11-07T14:55:15Z</time>
      </trkpt>
      <trkpt lat="49.41848" lon="1.12011">
        <ele>75</ele>
        <time>2017-11-07T14:55:31Z</time>
      </trkpt>
      <trkpt lat="49.41851" lon="1.12015">
        <ele>75</ele>
        <time>2017-11-07T14:55:31Z</time>
      </trkpt>
      <trkpt lat="49.41854" lon="1.12019">
        <ele>75</ele>
        <time>2017-11-07T14:55:31Z</time>
      </trkpt>
      <trkpt lat="49.41857" lon="1.12024">
        <ele>75</ele>
        <time>2017-11-07T14:55:31Z</time>
      </trkpt>
      <trkpt lat="49.4186" lon="1.12028">
        <ele>75</ele>
        <time>2017-11-07T14:55:47Z</time>
      </trkpt>
      <trkpt lat="49.41864" lon="1.12032">
        <ele>75</ele>
        <time>2017-11-07T14:55:47Z</time>
      </trkpt>
      <trkpt lat="49.41866" lon="1.12036">
        <ele>75</ele>
        <time>2017-11-07T14:55:47Z</time>
      </trkpt>
      <trkpt lat="49.41868" lon="1.1204">
        <ele>75</ele>
        <time>2017-11-07T14:55:47Z</time>
      </trkpt>
      <trkpt lat="49.4187" lon="1.12042">
        <ele>105</ele>
        <time>2017-11-07T14:56:03Z</time>
      </trkpt>
      <trkpt lat="49.4187" lon="1.12047">
        <ele>105</ele>
        <time>2017-11-07T14:56:03Z</time>
      </trkpt>
      <trkpt lat="49.41873" lon="1.12051">
        <ele>105</ele>
        <time>2017-11-07T14:56:03Z</time>
      </trkpt>
      <trkpt lat="49.41878" lon="1.12055">
        <ele>89</ele>
        <time>2017-11-07T14:56:03Z</time>
      </trkpt>
      <trkpt lat="49.41882" lon="1.12059">
        <ele>89</ele>
        <time>2017-11-07T14:56:19Z</time>
      </trkpt>
      <trkpt lat="49.41888" lon="1.12061">
        <ele>89</ele>
        <time>2017-11-07T14:56:19Z</time>
      </trkpt>
      <trkpt lat="49.41893" lon="1.12061">
        <ele>89</ele>
        <time>2017-11-07T14:56:19Z</time>
      </trkpt>
      <trkpt lat="49.41898" lon="1.12061">
        <ele>89</ele>
        <time>2017-11-07T14:56:19Z</time>
      </trkpt>
      <trkpt lat="49.41903" lon="1.12058">
        <ele>89</ele>
        <time>2017-11-07T14:56:35Z</time>
      </trkpt>
      <trkpt lat="49.41906" lon="1.12057">
        <ele>89</ele>
        <time>2017-11-07T14:56:35Z</time>
      </trkpt>
      <trkpt lat="49.41912" lon="1.12057">
        <ele>89</ele>
        <time>2017-11-07T14:56:35Z</time>
      </trkpt>
      <trkpt lat="49.41916" lon="1.12055">
        <ele>89</ele>
        <time>2017-11-07T14:56:35Z</time>
      </trkpt>
      <trkpt lat="49.4192" lon="1.12053">
        <ele>89</ele>
        <time>2017-11-07T14:56:51Z</time>
      </trkpt>
      <trkpt lat="49.41925" lon="1.12052">
        <ele>89</ele>
        <time>2017-11-07T14:56:51Z</time>
      </trkpt>
      <trkpt lat="49.41929" lon="1.12051">
        <ele>89</ele>
        <time>2017-11-07T14:56:51Z</time>
      </trkpt>
      <trkpt lat="49.41933" lon="1.1205">
        <ele>89</ele>
        <time>2017-11-07T14:56:51Z</time>
      </trkpt>
      <trkpt lat="49.41937" lon="1.1205">
        <ele>89</ele>
        <time>2017-11-07T14:57:07Z</time>
      </trkpt>
      <trkpt lat="49.4194" lon="1.12049">
        <ele>89</ele>
        <time>2017-11-07T14:57:07Z</time>
      </trkpt>
      <trkpt lat="49.41943" lon="1.12045">
        <ele>89</ele>
        <time>2017-11-07T14:57:07Z</time>
      </trkpt>
      <trkpt lat="49.41945" lon="1.12039">
        <ele>61</ele>
        <time>2017-11-07T14:57:07Z</time>
      </trkpt>
      <trkpt lat="49.41946" lon="1.12033">
        <ele>61</ele>
        <time>2017-11-07T14:57:23Z</time>
      </trkpt>
      <trkpt lat="49.41947" lon="1.12027">
        <ele>61</ele>
        <time>2017-11-07T14:57:23Z</time>
      </trkpt>
      <trkpt lat="49.41948" lon="1.12021">
        <ele>61</ele>
        <time>2017-11-07T14:57:23Z</time>
      </trkpt>
      <trkpt lat="49.41949" lon="1.12015">
        <ele>61</ele>
        <time>2017-11-07T14:57:23Z</time>
      </trkpt>
      <trkpt lat="49.41951" lon="1.12009">
        <ele>61</ele>
        <time>2017-11-07T14:57:39Z</time>
      </trkpt>
      <trkpt lat="49.41952" lon="1.12003">
        <ele>61</ele>
        <time>2017-11-07T14:57:39Z</time>
      </trkpt>
      <trkpt lat="49.41953" lon="1.11997">
        <ele>61</ele>
        <time>2017-11-07T14:57:39Z</time>
      </trkpt>
      <trkpt lat="49.41953" lon="1.11992">
        <ele>61</ele>
        <time>2017-11-07T14:57:39Z</time>
      </trkpt>
      <trkpt lat="49.41953" lon="1.11986">
        <ele>61</ele>
        <time>2017-11-07T14:57:55Z</time>
      </trkpt>
      <trkpt lat="49.41953" lon="1.1198">
        <ele>61</ele>
        <time>2017-11-07T14:57:55Z</time>
      </trkpt>
      <trkpt lat="49.41954" lon="1.11974">
        <ele>61</ele>
        <time>2017-11-07T14:57:55Z</time>
      </trkpt>
      <trkpt lat="49.41954" lon="1.11968">
        <ele>61</ele>
        <time>2017-11-07T14:57:55Z</time>
      </trkpt>
      <trkpt lat="49.41955" lon="1.11961">
        <ele>61</ele>
        <time>2017-11-07T14:58:11Z</time>
      </trkpt>
      <trkpt lat="49.41955" lon="1.11954">
        <ele>44</ele>
        <time>2017-11-07T14:58:11Z</time>
      </trkpt>
      <trkpt lat="49.41956" lon="1.11947">
        <ele>44</ele>
        <time>2017-11-07T14:58:11Z</time>
      </trkpt>
      <trkpt lat="49.41956" lon="1.11941">
        <ele>44</ele>
        <time>2017-11-07T14:58:11Z</time>
      </trkpt>
      <trkpt lat="49.41957" lon="1.11934">
        <ele>44</ele>
        <time>2017-11-07T14:58:27Z</time>
      </trkpt>
      <trkpt lat="49.41957" lon="1.11928">
        <ele>44</ele>
        <time>2017-11-07T14:58:27Z</time>
      </trkpt>
      <trkpt lat="49.41958" lon="1.11921">
        <ele>44</ele>
        <time>2017-11-07T14:58:27Z</time>
      </trkpt>
      <trkpt lat="49.41959" lon="1.11915">
        <ele>79</ele>
        <time>2017-11-07T14:58:27Z</time>
      </trkpt>
      <trkpt lat="49.41961" lon="1.11909">
        <ele>79</ele>
        <time>2017-11-07T14:58:43Z</time>
      </trkpt>
      <trkpt lat="49.41964" lon="1.11904">
        <ele>79</ele>
        <time>2017-11-07T14:58:43Z</time>
      </trkpt>
      <trkpt lat="49.41967" lon="1.11899">
        <ele>79</ele>
        <time>2017-11-07T14:58:43Z</time>
      </trkpt>
      <trkpt lat="49.4197" lon="1.11894">
        <ele>79</ele>
        <time>2017-11-07T14:58:43Z</time>
      </trkpt>
      <trkpt lat="49.41973" lon="1.1189">
        <ele>79</ele>
        <time>2017-11-07T14:58:59Z</time>
      </trkpt>
      <trkpt lat="49.41976" lon="1.11886">
        <ele>79</ele>
        <time>2017-11-07T14:58:59Z</time>
      </trkpt>
      <trkpt lat="49.41979" lon="1.11881">
        <ele>79</ele>
        <time>2017-11-07T14:58:59Z</time>
      </trkpt>
      <trkpt lat="49.41983" lon="1.11877">
        <ele>79</ele>
        <time>2017-11-07T14:58:59Z</time>
      </trkpt>
      <trkpt lat="49.41986" lon="1.11873">
        <ele>49</ele>
        <time>2017-11-07T14:59:15Z</time>
      </trkpt>
      <trkpt lat="49.4199" lon="1.11868">
        <ele>49</ele>
        <time>2017-11-07T14:59:15Z</time>
      </trkpt>
      <trkpt lat="49.41993" lon="1.11864">
        <ele>49</ele>
        <time>2017-11-07T14:59:15Z</time>
      </trkpt>
      <trkpt lat="49.41997" lon="1.11861">
        <ele>49</ele>
        <time>2017-11-07T14:59:15Z</time>
      </trkpt>
      <trkpt lat="49.42001" lon="1.11857">
        <ele>49</ele>
        <time>2017-11-07T14:59:31Z</time>
      </trkpt>
      <trkpt lat="49.42005" lon="1.11854">
        <ele>49</ele>
        <time>2017-11-07T14:59:31Z</time>
      </trkpt>
      <trkpt lat="49.42008" lon="1.11852">
        <ele>49</ele>
        <time>2017-11-07T14:59:31Z</time>
      </trkpt>
      <trkpt lat="49.42011" lon="1.11849">
        <ele>49</ele>
        <time>2017-11-07T14:59:31Z</time>
      </trkpt>
      <trkpt lat="49.42015" lon="1.11846">
        <ele>49</ele>
        <time>2017-11-07T14:59:47Z</time>
      </trkpt>
      <trkpt lat="49.42018" lon="1.11843">
        <ele>49</ele>
        <time>2017-11-07T14:59:47Z</time>
      </trkpt>
      <trkpt lat="49.42021" lon="1.1184">
        <ele>49</ele>
        <time>2017-11-07T14:59:47Z</time>
      </trkpt>
      <trkpt lat="49.42024" lon="1.11836">
        <ele>49</ele>
        <time>2017-11-07T14:59:47Z</time>
      </trkpt>
      <trkpt lat="49.42028" lon="1.11834">
        <ele>49</ele>
        <time>2017-11-07T15:00:03Z</time>
      </trkpt>
      <trkpt lat="49.42031" lon="1.11831">
        <ele>49</ele>
        <time>2017-11-07T15:00:03Z</time>
      </trkpt>
      <trkpt lat="49.42034" lon="1.11828">
        <ele>49</ele>
        <time>2017-11-07T15:00:03Z</time>
      </trkpt>
      <trkpt lat="49.42037" lon="1.11826">
        <ele>49</ele>
        <time>2017-11-07T15:00:03Z</time>
      </trkpt>
      <trkpt lat="49.4204" lon="1.11825">
        <ele>49</ele>
        <time>2017-11-07T15:00:19Z</time>
      </trkpt>
      <trkpt lat="49.42044" lon="1.11822">
        <ele>67</ele>
        <time>2017-11-07T15:00:19Z</time>
      </trkpt>
      <trkpt lat="49.42047" lon="1.11819">
        <ele>67</ele>
        <time>2017-11-07T15:00:19Z</time>
      </trkpt>
      <trkpt lat="49.42051" lon="1.11816">
        <ele>67</ele>
        <time>2017-11-07T15:00:19Z</time>
      </trkpt>
      <trkpt lat="49.42055" lon="1.11813">
        <ele>67</ele>
        <time>2017-11-07T15:00:35Z</time>
      </trkpt>
      <trkpt lat="49.4206" lon="1.1181">
        <ele>67</ele>
        <time>2017-11-07T15:00:35Z</time>
      </trkpt>
      <trkpt lat="49.42064" lon="1.11808">
        <ele>67</ele>
        <time>2017-11-07T15:00:35Z</time>
      </trkpt>
      <trkpt lat="49.42068" lon="1.11806">
        <ele>67</ele>
        <time>2017-11-07T15:00:35Z</time>
      </trkpt>
      <trkpt lat="49.42072" lon="1.11802">
        <ele>67</ele>
        <time>2017-11-07T15:00:51Z</time>
      </trkpt>
      <trkpt lat="49.42076" lon="1.118">
        <ele>67</ele>
        <time>2017-11-07T15:00:51Z</time>
      </trkpt>
      <trkpt lat="49.4208" lon="1.118">
        <ele>67</ele>
        <time>2017-11-07T15:00:51Z</time>
      </trkpt>
      <trkpt lat="49.42084" lon="1.11797">
        <ele>67</ele>
        <time>2017-11-07T15:00:51Z</time>
      </trkpt>
      <trkpt lat="49.42089" lon="1.11794">
        <ele>67</ele>
        <time>2017-11-07T15:01:07Z</time>
      </trkpt>
      <trkpt lat="49.42093" lon="1.11793">
        <ele>67</ele>
        <time>2017-11-07T15:01:07Z</time>
      </trkpt>
      <trkpt lat="49.42097" lon="1.1179">
        <ele>36</ele>
        <time>2017-11-07T15:01:07Z</time>
      </trkpt>
      <trkpt lat="49.42101" lon="1.11786">
        <ele>36</ele>
        <time>2017-11-07T15:01:07Z</time>
      </trkpt>
      <trkpt lat="49.42105" lon="1.11785">
        <ele>36</ele>
        <time>2017-11-07T15:01:23Z</time>
      </trkpt>
      <trkpt lat="49.4211" lon="1.11785">
        <ele>36</ele>
        <time>2017-11-07T15:01:23Z</time>
      </trkpt>
      <trkpt lat="49.42114" lon="1.11785">
        <ele>36</ele>
        <time>2017-11-07T15:01:23Z</time>
      </trkpt>
      <trkpt lat="49.42116" lon="1.11786">
        <ele>36</ele>
        <time>2017-11-07T15:01:23Z</time>
      </trkpt>
      <trkpt lat="49.4212" lon="1.11788">
        <ele>36</ele>
        <time>2017-11-07T15:01:39Z</time>
      </trkpt>
      <trkpt lat="49.42123" lon="1.11791">
        <ele>36</ele>
        <time>2017-11-07T15:01:39Z</time>
      </trkpt>
      <trkpt lat="49.42127" lon="1.11792">
        <ele>60</ele>
        <time>2017-11-07T15:01:39Z</time>
      </trkpt>
      <trkpt lat="49.42131" lon="1.11794">
        <ele>60</ele>
        <time>2017-11-07T15:01:39Z</time>
      </trkpt>
      <trkpt lat="49.42136" lon="1.11794">
        <ele>60</ele>
        <time>2017-11-07T15:02:31Z</time>
      </trkpt>
      <trkpt lat="49.42137" lon="1.11793">
        <ele>60</ele>
        <time>2017-11-07T15:02:31Z</time>
      </trkpt>
      <trkpt lat="49.42138" lon="1.11792">
        <ele>60</ele>
        <time>2017-11-07T15:02:31Z</time>
      </trkpt>
      <trkpt lat="49.42141" lon="1.11791">
        <ele>41</ele>
        <time>2017-11-07T15:02:31Z</time>
      </trkpt>
      <trkpt lat="49.42144" lon="1.11788">
        <ele>41</ele>
        <time>2017-11-07T15:02:31Z</time>
      </trkpt>
      <trkpt lat="49.42147" lon="1.11786">
        <ele>41</ele>
        <time>2017-11-07T15:02:47Z</time>
      </trkpt>
      <trkpt lat="49.4215" lon="1.11783">
        <ele>41</ele>
        <time>2017-11-07T15:02:47Z</time>
      </trkpt>
      <trkpt lat="49.42153" lon="1.11781">
        <ele>41</ele>
        <time>2017-11-07T15:02:47Z</time>
      </trkpt>
      <trkpt lat="49.42158" lon="1.11779">
        <ele>41</ele>
        <time>2017-11-07T15:02:47Z</time>
      </trkpt>
      <trkpt lat="49.42162" lon="1.11776">
        <ele>41</ele>
        <time>2017-11-07T15:03:03Z</time>
      </trkpt>
      <trkpt lat="49.42166" lon="1.11774">
        <ele>41</ele>
        <time>2017-11-07T15:03:03Z</time>
      </trkpt>
      <trkpt lat="49.42169" lon="1.1177">
        <ele>41</ele>
        <time>2017-11-07T15:03:03Z</time>
      </trkpt>
      <trkpt lat="49.42172" lon="1.11766">
        <ele>41</ele>
        <time>2017-11-07T15:03:03Z</time>
      </trkpt>
      <trkpt lat="49.42175" lon="1.11764">
        <ele>41</ele>
        <time>2017-11-07T15:03:19Z</time>
      </trkpt>
      <trkpt lat="49.42177" lon="1.11761">
        <ele>41</ele>
        <time>2017-11-07T15:03:19Z</time>
      </trkpt>
      <trkpt lat="49.42181" lon="1.11757">
        <ele>41</ele>
        <time>2017-11-07T15:03:19Z</time>
      </trkpt>
      <trkpt lat="49.42184" lon="1.11753">
        <ele>41</ele>
        <time>2017-11-07T15:03:19Z</time>
      </trkpt>
      <trkpt lat="49.42188" lon="1.11752">
        <ele>41</ele>
        <time>2017-11-07T15:03:35Z</time>
      </trkpt>
      <trkpt lat="49.42192" lon="1.11749">
        <ele>41</ele>
        <time>2017-11-07T15:03:35Z</time>
      </trkpt>
      <trkpt lat="49.42196" lon="1.11746">
        <ele>41</ele>
        <time>2017-11-07T15:03:35Z</time>
      </trkpt>
      <trkpt lat="49.422" lon="1.11743">
        <ele>41</ele>
        <time>2017-11-07T15:03:35Z</time>
      </trkpt>
      <trkpt lat="49.42203" lon="1.11739">
        <ele>41</ele>
        <time>2017-11-07T15:03:51Z</time>
      </trkpt>
      <trkpt lat="49.42206" lon="1.11735">
        <ele>41</ele>
        <time>2017-11-07T15:03:51Z</time>
      </trkpt>
      <trkpt lat="49.42209" lon="1.11731">
        <ele>61</ele>
        <time>2017-11-07T15:03:51Z</time>
      </trkpt>
      <trkpt lat="49.42211" lon="1.11727">
        <ele>61</ele>
        <time>2017-11-07T15:03:51Z</time>
      </trkpt>
      <trkpt lat="49.42214" lon="1.11724">
        <ele>61</ele>
        <time>2017-11-07T15:04:07Z</time>
      </trkpt>
      <trkpt lat="49.42218" lon="1.1172">
        <ele>61</ele>
        <time>2017-11-07T15:04:07Z</time>
      </trkpt>
      <trkpt lat="49.42221" lon="1.11717">
        <ele>61</ele>
        <time>2017-11-07T15:04:07Z</time>
      </trkpt>
      <trkpt lat="49.42225" lon="1.11714">
        <ele>61</ele>
        <time>2017-11-07T15:04:07Z</time>
      </trkpt>
      <trkpt lat="49.42227" lon="1.1171">
        <ele>61</ele>
        <time>2017-11-07T15:04:23Z</time>
      </trkpt>
      <trkpt lat="49.42231" lon="1.11705">
        <ele>37</ele>
        <time>2017-11-07T15:04:23Z</time>
      </trkpt>
      <trkpt lat="49.42233" lon="1.11699">
        <ele>37</ele>
        <time>2017-11-07T15:04:23Z</time>
      </trkpt>
      <trkpt lat="49.42232" lon="1.11695">
        <ele>37</ele>
        <time>2017-11-07T15:04:23Z</time>
      </trkpt>
      <trkpt lat="49.4223" lon="1.11692">
        <ele>37</ele>
        <time>2017-11-07T15:04:39Z</time>
      </trkpt>
      <trkpt lat="49.42227" lon="1.11693">
        <ele>37</ele>
        <time>2017-11-07T15:04:39Z</time>
      </trkpt>
      <trkpt lat="49.42223" lon="1.11692">
        <ele>37</ele>
        <time>2017-11-07T15:04:39Z</time>
      </trkpt>
      <trkpt lat="49.4222" lon="1.11692">
        <ele>37</ele>
        <time>2017-11-07T15:04:39Z</time>
      </trkpt>
      <trkpt lat="49.42216" lon="1.11694">
        <ele>37</ele>
        <time>2017-11-07T15:04:55Z</time>
      </trkpt>
      <trkpt lat="49.42212" lon="1.11695">
        <ele>37</ele>
        <time>2017-11-07T15:04:55Z</time>
      </trkpt>
      <trkpt lat="49.42207" lon="1.11695">
        <ele>22</ele>
        <time>2017-11-07T15:04:55Z</time>
      </trkpt>
      <trkpt lat="49.42202" lon="1.11695">
        <ele>22</ele>
        <time>2017-11-07T15:04:55Z</time>
      </trkpt>
      <trkpt lat="49.42197" lon="1.11697">
        <ele>22</ele>
        <time>2017-11-07T15:05:11Z</time>
      </trkpt>
      <trkpt lat="49.42192" lon="1.11699">
        <ele>22</ele>
        <time>2017-11-07T15:05:11Z</time>
      </trkpt>
      <trkpt lat="49.42188" lon="1.11702">
        <ele>22</ele>
        <time>2017-11-07T15:05:11Z</time>
      </trkpt>
      <trkpt lat="49.42183" lon="1.11702">
        <ele>22</ele>
        <time>2017-11-07T15:05:11Z</time>
      </trkpt>
      <trkpt lat="49.4218" lon="1.11704">
        <ele>22</ele>
        <time>2017-11-07T15:05:27Z</time>
      </trkpt>
      <trkpt lat="49.42176" lon="1.11706">
        <ele>22</ele>
        <time>2017-11-07T15:05:27Z</time>
      </trkpt>
      <trkpt lat="49.42172" lon="1.11707">
        <ele>22</ele>
        <time>2017-11-07T15:05:27Z</time>
      </trkpt>
      <trkpt lat="49.42167" lon="1.11707">
        <ele>22</ele>
        <time>2017-11-07T15:05:27Z</time>
      </trkpt>
      <trkpt lat="49.42163" lon="1.11707">
        <ele>22</ele>
        <time>2017-11-07T15:05:43Z</time>
      </trkpt>
      <trkpt lat="49.42161" lon="1.11704">
        <ele>22</ele>
        <time>2017-11-07T15:05:43Z</time>
      </trkpt>
      <trkpt lat="49.42159" lon="1.117">
        <ele>22</ele>
        <time>2017-11-07T15:05:43Z</time>
      </trkpt>
      <trkpt lat="49.42158" lon="1.11696">
        <ele>22</ele>
        <time>2017-11-07T15:05:43Z</time>
      </trkpt>
      <trkpt lat="49.42156" lon="1.11692">
        <ele>22</ele>
        <time>2017-11-07T15:06:03Z</time>
      </trkpt>
      <trkpt lat="49.42156" lon="1.11688">
        <ele>22</ele>
        <time>2017-11-07T15:06:03Z</time>
      </trkpt>
      <trkpt lat="49.42155" lon="1.11684">
        <ele>22</ele>
        <time>2017-11-07T15:06:03Z</time>
      </trkpt>
      <trkpt lat="49.42155" lon="1.11679">
        <ele>22</ele>
        <time>2017-11-07T15:06:03Z</time>
      </trkpt>
      <trkpt lat="49.42155" lon="1.11674">
        <ele>22</ele>
        <time>2017-11-07T15:06:03Z</time>
      </trkpt>
      <trkpt lat="49.42155" lon="1.11669">
        <ele>22</ele>
        <time>2017-11-07T15:06:19Z</time>
      </trkpt>
      <trkpt lat="49.42155" lon="1.11663">
        <ele>22</ele>
        <time>2017-11-07T15:06:19Z</time>
      </trkpt>
      <trkpt lat="49.42154" lon="1.11658">
        <ele>22</ele>
        <time>2017-11-07T15:06:19Z</time>
      </trkpt>
      <trkpt lat="49.42153" lon="1.11654">
        <ele>22</ele>
        <time>2017-11-07T15:06:19Z</time>
      </trkpt>
      <trkpt lat="49.42153" lon="1.11649">
        <ele>22</ele>
        <time>2017-11-07T15:06:35Z</time>
      </trkpt>
      <trkpt lat="49.42153" lon="1.11643">
        <ele>22</ele>
        <time>2017-11-07T15:06:35Z</time>
      </trkpt>
      <trkpt lat="49.42153" lon="1.11638">
        <ele>22</ele>
        <time>2017-11-07T15:06:35Z</time>
      </trkpt>
      <trkpt lat="49.42152" lon="1.11633">
        <ele>22</ele>
        <time>2017-11-07T15:06:35Z</time>
      </trkpt>
      <trkpt lat="49.42151" lon="1.11628">
        <ele>22</ele>
        <time>2017-11-07T15:06:51Z</time>
      </trkpt>
      <trkpt lat="49.42151" lon="1.11623">
        <ele>10</ele>
        <time>2017-11-07T15:06:51Z</time>
      </trkpt>
      <trkpt lat="49.42151" lon="1.11616">
        <ele>10</ele>
        <time>2017-11-07T15:06:51Z</time>
      </trkpt>
      <trkpt lat="49.42155" lon="1.11613">
        <ele>10</ele>
        <time>2017-11-07T15:06:51Z</time>
      </trkpt>
      <trkpt lat="49.42159" lon="1.1161">
        <ele>10</ele>
        <time>2017-11-07T15:07:07Z</time>
      </trkpt>
      <trkpt lat="49.42163" lon="1.11607">
        <ele>10</ele>
        <time>2017-11-07T15:07:07Z</time>
      </trkpt>
      <trkpt lat="49.42167" lon="1.11604">
        <ele>10</ele>
        <time>2017-11-07T15:07:07Z</time>
      </trkpt>
      <trkpt lat="49.42171" lon="1.11602">
        <ele>10</ele>
        <time>2017-11-07T15:07:07Z</time>
      </trkpt>
      <trkpt lat="49.42176" lon="1.116">
        <ele>10</ele>
        <time>2017-11-07T15:07:23Z</time>
      </trkpt>
      <trkpt lat="49.4218" lon="1.11597">
        <ele>10</ele>
        <time>2017-11-07T15:07:23Z</time>
      </trkpt>
      <trkpt lat="49.42183" lon="1.11593">
        <ele>10</ele>
        <time>2017-11-07T15:07:23Z</time>
      </trkpt>
      <trkpt lat="49.42185" lon="1.11587">
        <ele>10</ele>
        <time>2017-11-07T15:07:23Z</time>
      </trkpt>
      <trkpt lat="49.42186" lon="1.11583">
        <ele>10</ele>
        <time>2017-11-07T15:07:39Z</time>
      </trkpt>
      <trkpt lat="49.42189" lon="1.11577">
        <ele>10</ele>
        <time>2017-11-07T15:07:39Z</time>
      </trkpt>
      <trkpt lat="49.42193" lon="1.11574">
        <ele>10</ele>
        <time>2017-11-07T15:07:39Z</time>
      </trkpt>
      <trkpt lat="49.42197" lon="1.11571">
        <ele>10</ele>
        <time>2017-11-07T15:07:39Z</time>
      </trkpt>
      <trkpt lat="49.42202" lon="1.11569">
        <ele>10</ele>
        <time>2017-11-07T15:07:55Z</time>
      </trkpt>
      <trkpt lat="49.42206" lon="1.11567">
        <ele>10</ele>
        <time>2017-11-07T15:07:55Z</time>
      </trkpt>
      <trkpt lat="49.4221" lon="1.11564">
        <ele>18</ele>
        <time>2017-11-07T15:07:55Z</time>
      </trkpt>
      <trkpt lat="49.42215" lon="1.11562">
        <ele>18</ele>
        <time>2017-11-07T15:07:55Z</time>
      </trkpt>
      <trkpt lat="49.42219" lon="1.11559">
        <ele>18</ele>
        <time>2017-11-07T15:08:11Z</time>
      </trkpt>
      <trkpt lat="49.42223" lon="1.11556">
        <ele>18</ele>
        <time>2017-11-07T15:08:11Z</time>
      </trkpt>
      <trkpt lat="49.42228" lon="1.11554">
        <ele>18</ele>
        <time>2017-11-07T15:08:11Z</time>
      </trkpt>
      <trkpt lat="49.42232" lon="1.11551">
        <ele>18</ele>
        <time>2017-11-07T15:08:11Z</time>
      </trkpt>
      <trkpt lat="49.42237" lon="1.11548">
        <ele>18</ele>
        <time>2017-11-07T15:08:27Z</time>
      </trkpt>
      <trkpt lat="49.42241" lon="1.11545">
        <ele>18</ele>
        <time>2017-11-07T15:08:27Z</time>
      </trkpt>
      <trkpt lat="49.42245" lon="1.11541">
        <ele>11</ele>
        <time>2017-11-07T15:08:27Z</time>
      </trkpt>
      <trkpt lat="49.42249" lon="1.11539">
        <ele>11</ele>
        <time>2017-11-07T15:08:27Z</time>
      </trkpt>
      <trkpt lat="49.42253" lon="1.11536">
        <ele>11</ele>
        <time>2017-11-07T15:08:43Z</time>
      </trkpt>
      <trkpt lat="49.42258" lon="1.11533">
        <ele>11</ele>
        <time>2017-11-07T15:08:43Z</time>
      </trkpt>
      <trkpt lat="49.42262" lon="1.11531">
        <ele>11</ele>
        <time>2017-11-07T15:08:43Z</time>
      </trkpt>
      <trkpt lat="49.42267" lon="1.11528">
        <ele>11</ele>
        <time>2017-11-07T15:08:43Z</time>
      </trkpt>
      <trkpt lat="49.42271" lon="1.11525">
        <ele>11</ele>
        <time>2017-11-07T15:08:59Z</time>
      </trkpt>
      <trkpt lat="49.42275" lon="1.11522">
        <ele>11</ele>
        <time>2017-11-07T15:08:59Z</time>
      </trkpt>
      <trkpt lat="49.42279" lon="1.11519">
        <ele>11</ele>
        <time>2017-11-07T15:08:59Z</time>
      </trkpt>
      <trkpt lat="49.42284" lon="1.11516">
        <ele>11</ele>
        <time>2017-11-07T15:08:59Z</time>
      </trkpt>
      <trkpt lat="49.42288" lon="1.11514">
        <ele>11</ele>
        <time>2017-11-07T15:09:15Z</time>
      </trkpt>
      <trkpt lat="49.42292" lon="1.11511">
        <ele>15</ele>
        <time>2017-11-07T15:09:15Z</time>
      </trkpt>
      <trkpt lat="49.42296" lon="1.11509">
        <ele>15</ele>
        <time>2017-11-07T15:09:15Z</time>
      </trkpt>
      <trkpt lat="49.42301" lon="1.11506">
        <ele>15</ele>
        <time>2017-11-07T15:09:15Z</time>
      </trkpt>
      <trkpt lat="49.42304" lon="1.11504">
        <ele>15</ele>
        <time>2017-11-07T15:09:31Z</time>
      </trkpt>
      <trkpt lat="49.42308" lon="1.115">
        <ele>15</ele>
        <time>2017-11-07T15:09:31Z</time>
      </trkpt>
      <trkpt lat="49.42313" lon="1.11497">
        <ele>15</ele>
        <time>2017-11-07T15:09:31Z</time>
      </trkpt>
      <trkpt lat="49.42317" lon="1.11495">
        <ele>15</ele>
        <time>2017-11-07T15:09:31Z</time>
      </trkpt>
      <trkpt lat="49.42321" lon="1.11493">
        <ele>15</ele>
        <time>2017-11-07T15:09:47Z</time>
      </trkpt>
      <trkpt lat="49.42325" lon="1.11492">
        <ele>15</ele>
        <time>2017-11-07T15:09:47Z</time>
      </trkpt>
      <trkpt lat="49.42329" lon="1.11493">
        <ele>15</ele>
        <time>2017-11-07T15:09:47Z</time>
      </trkpt>
      <trkpt lat="49.42332" lon="1.1149">
        <ele>15</ele>
        <time>2017-11-07T15:09:47Z</time>
      </trkpt>
      <trkpt lat="49.42333" lon="1.11485">
        <ele>15</ele>
        <time>2017-11-07T15:10:03Z</time>
      </trkpt>
      <trkpt lat="49.42331" lon="1.1148">
        <ele>15</ele>
        <time>2017-11-07T15:10:03Z</time>
      </trkpt>
      <trkpt lat="49.42329" lon="1.11475">
        <ele>15</ele>
        <time>2017-11-07T15:10:03Z</time>
      </trkpt>
      <trkpt lat="49.42325" lon="1.11475">
        <ele>15</ele>
        <time>2017-11-07T15:10:03Z</time>
      </trkpt>
      <trkpt lat="49.42321" lon="1.11476">
        <ele>15</ele>
        <time>2017-11-07T15:10:19Z</time>
      </trkpt>
      <trkpt lat="49.42316" lon="1.11476">
        <ele>15</ele>
        <time>2017-11-07T15:10:19Z</time>
      </trkpt>
      <trkpt lat="49.42312" lon="1.11472">
        <ele>15</ele>
        <time>2017-11-07T15:10:19Z</time>
      </trkpt>
      <trkpt lat="49.4231" lon="1.11468">
        <ele>15</ele>
        <time>2017-11-07T15:10:19Z</time>
      </trkpt>
      <trkpt lat="49.42307" lon="1.11463">
        <ele>15</ele>
        <time>2017-11-07T15:10:35Z</time>
      </trkpt>
      <trkpt lat="49.42304" lon="1.11457">
        <ele>12</ele>
        <time>2017-11-07T15:10:35Z</time>
      </trkpt>
      <trkpt lat="49.42301" lon="1.11451">
        <ele>12</ele>
        <time>2017-11-07T15:10:35Z</time>
      </trkpt>
      <trkpt lat="49.42299" lon="1.11445">
        <ele>12</ele>
        <time>2017-11-07T15:10:35Z</time>
      </trkpt>
      <trkpt lat="49.42296" lon="1.11439">
        <ele>12</ele>
        <time>2017-11-07T15:10:51Z</time>
      </trkpt>
      <trkpt lat="49.42294" lon="1.11432">
        <ele>12</ele>
        <time>2017-11-07T15:10:51Z</time>
      </trkpt>
      <trkpt lat="49.42291" lon="1.11426">
        <ele>7</ele>
        <time>2017-11-07T15:10:51Z</time>
      </trkpt>
      <trkpt lat="49.42289" lon="1.1142">
        <ele>7</ele>
        <time>2017-11-07T15:10:51Z</time>
      </trkpt>
      <trkpt lat="49.42287" lon="1.11415">
        <ele>7</ele>
        <time>2017-11-07T15:11:07Z</time>
      </trkpt>
      <trkpt lat="49.42284" lon="1.11408">
        <ele>7</ele>
        <time>2017-11-07T15:11:07Z</time>
      </trkpt>
      <trkpt lat="49.42281" lon="1.11402">
        <ele>7</ele>
        <time>2017-11-07T15:11:07Z</time>
      </trkpt>
      <trkpt lat="49.42278" lon="1.11395">
        <ele>7</ele>
        <time>2017-11-07T15:11:07Z</time>
      </trkpt>
      <trkpt lat="49.42275" lon="1.11389">
        <ele>7</ele>
        <time>2017-11-07T15:11:23Z</time>
      </trkpt>
      <trkpt lat="49.42272" lon="1.11382">
        <ele>7</ele>
        <time>2017-11-07T15:11:23Z</time>
      </trkpt>
      <trkpt lat="49.42269" lon="1.11376">
        <ele>7</ele>
        <time>2017-11-07T15:11:23Z</time>
      </trkpt>
      <trkpt lat="49.42267" lon="1.11373">
        <ele>1</ele>
        <time>2017-11-07T15:11:23Z</time>
      </trkpt>
      <trkpt lat="49.42262" lon="1.11367">
        <ele>1</ele>
        <time>2017-11-07T15:11:39Z</time>
      </trkpt>
      <trkpt lat="49.42258" lon="1.11365">
        <ele>1</ele>
        <time>2017-11-07T15:11:39Z</time>
      </trkpt>
      <trkpt lat="49.42255" lon="1.11366">
        <ele>1</ele>
        <time>2017-11-07T15:11:39Z</time>
      </trkpt>
      <trkpt lat="49.42252" lon="1.1137">
        <ele>1</ele>
        <time>2017-11-07T15:11:39Z</time>
      </trkpt>
      <trkpt lat="49.42248" lon="1.11373">
        <ele>1</ele>
        <time>2017-11-07T15:11:55Z</time>
      </trkpt>
      <trkpt lat="49.42244" lon="1.11375">
        <ele>7</ele>
        <time>2017-11-07T15:11:55Z</time>
      </trkpt>
      <trkpt lat="49.42241" lon="1.11378">
        <ele>7</ele>
        <time>2017-11-07T15:11:55Z</time>
      </trkpt>
      <trkpt lat="49.42236" lon="1.11382">
        <ele>7</ele>
        <time>2017-11-07T15:11:55Z</time>
      </trkpt>
      <trkpt lat="49.42225" lon="1.11391">
        <ele>7</ele>
        <time>2017-11-07T15:12:31Z</time>
      </trkpt>
      <trkpt lat="49.42225" lon="1.11391">
        <ele>7</ele>
        <time>2017-11-07T15:12:31Z</time>
      </trkpt>
      <trkpt lat="49.42223" lon="1.11392">
        <ele>7</ele>
        <time>2017-11-07T15:12:31Z</time>
      </trkpt>
      <trkpt lat="49.42218" lon="1.11395">
        <ele>7</ele>
        <time>2017-11-07T15:12:31Z</time>
      </trkpt>
      <trkpt lat="49.42213" lon="1.11398">
        <ele>7</ele>
        <time>2017-11-07T15:12:31Z</time>
      </trkpt>
      <trkpt lat="49.42209" lon="1.11401">
        <ele>7</ele>
        <time>2017-11-07T15:12:47Z</time>
      </trkpt>
      <trkpt lat="49.42204" lon="1.11404">
        <ele>3</ele>
        <time>2017-11-07T15:12:47Z</time>
      </trkpt>
      <trkpt lat="49.422" lon="1.11408">
        <ele>3</ele>
        <time>2017-11-07T15:12:47Z</time>
      </trkpt>
      <trkpt lat="49.42196" lon="1.1141">
        <ele>3</ele>
        <time>2017-11-07T15:12:47Z</time>
      </trkpt>
      <trkpt lat="49.42191" lon="1.11414">
        <ele>3</ele>
        <time>2017-11-07T15:13:03Z</time>
      </trkpt>
      <trkpt lat="49.42187" lon="1.11417">
        <ele>3</ele>
        <time>2017-11-07T15:13:03Z</time>
      </trkpt>
      <trkpt lat="49.42182" lon="1.1142">
        <ele>3</ele>
        <time>2017-11-07T15:13:03Z</time>
      </trkpt>
      <trkpt lat="49.42178" lon="1.11423">
        <ele>3</ele>
        <time>2017-11-07T15:13:03Z</time>
      </trkpt>
      <trkpt lat="49.42174" lon="1.11425">
        <ele>3</ele>
        <time>2017-11-07T15:13:19Z</time>
      </trkpt>
      <trkpt lat="49.4217" lon="1.11428">
        <ele>3</ele>
        <time>2017-11-07T15:13:19Z</time>
      </trkpt>
      <trkpt lat="49.42166" lon="1.11431">
        <ele>3</ele>
        <time>2017-11-07T15:13:19Z</time>
      </trkpt>
      <trkpt lat="49.42162" lon="1.11434">
        <ele>3</ele>
        <time>2017-11-07T15:13:19Z</time>
      </trkpt>
      <trkpt lat="49.42157" lon="1.11436">
        <ele>3</ele>
        <time>2017-11-07T15:13:35Z</time>
      </trkpt>
      <trkpt lat="49.42154" lon="1.11438">
        <ele>3</ele>
        <time>2017-11-07T15:13:35Z</time>
      </trkpt>
      <trkpt lat="49.4215" lon="1.11441">
        <ele>3</ele>
        <time>2017-11-07T15:13:35Z</time>
      </trkpt>
      <trkpt lat="49.42145" lon="1.11445">
        <ele>3</ele>
        <time>2017-11-07T15:13:35Z</time>
      </trkpt>
      <trkpt lat="49.4214" lon="1.11449">
        <ele>3</ele>
        <time>2017-11-07T15:13:51Z</time>
      </trkpt>
      <trkpt lat="49.42136" lon="1.11453">
        <ele>3</ele>
        <time>2017-11-07T15:13:51Z</time>
      </trkpt>
      <trkpt lat="49.42131" lon="1.11456">
        <ele>3</ele>
        <time>2017-11-07T15:13:51Z</time>
      </trkpt>
      <trkpt lat="49.42127" lon="1.11459">
        <ele>6</ele>
        <time>2017-11-07T15:13:51Z</time>
      </trkpt>
      <trkpt lat="49.42123" lon="1.11462">
        <ele>7</ele>
        <time>2017-11-07T15:14:07Z</time>
      </trkpt>
      <trkpt lat="49.42118" lon="1.11466">
        <ele>7</ele>
        <time>2017-11-07T15:14:07Z</time>
      </trkpt>
      <trkpt lat="49.42115" lon="1.11468">
        <ele>7</ele>
        <time>2017-11-07T15:14:07Z</time>
      </trkpt>
      <trkpt lat="49.4211" lon="1.11471">
        <ele>7</ele>
        <time>2017-11-07T15:14:07Z</time>
      </trkpt>
      <trkpt lat="49.42106" lon="1.11474">
        <ele>7</ele>
        <time>2017-11-07T15:14:23Z</time>
      </trkpt>
      <trkpt lat="49.42102" lon="1.11476">
        <ele>7</ele>
        <time>2017-11-07T15:14:23Z</time>
      </trkpt>
      <trkpt lat="49.42097" lon="1.11479">
        <ele>7</ele>
        <time>2017-11-07T15:14:23Z</time>
      </trkpt>
      <trkpt lat="49.42094" lon="1.1148">
        <ele>7</ele>
        <time>2017-11-07T15:14:23Z</time>
      </trkpt>
      <trkpt lat="49.42088" lon="1.11483">
        <ele>7</ele>
        <time>2017-11-07T15:14:39Z</time>
      </trkpt>
      <trkpt lat="49.42085" lon="1.11485">
        <ele>7</ele>
        <time>2017-11-07T15:14:39Z</time>
      </trkpt>
      <trkpt lat="49.42079" lon="1.11488">
        <ele>7</ele>
        <time>2017-11-07T15:14:39Z</time>
      </trkpt>
      <trkpt lat="49.42074" lon="1.11491">
        <ele>7</ele>
        <time>2017-11-07T15:14:39Z</time>
      </trkpt>
      <trkpt lat="49.42069" lon="1.11493">
        <ele>7</ele>
        <time>2017-11-07T15:14:55Z</time>
      </trkpt>
      <trkpt lat="49.42064" lon="1.11496">
        <ele>7</ele>
        <time>2017-11-07T15:14:55Z</time>
      </trkpt>
      <trkpt lat="49.4206" lon="1.11499">
        <ele>7</ele>
        <time>2017-11-07T15:14:55Z</time>
      </trkpt>
      <trkpt lat="49.42057" lon="1.11501">
        <ele>7</ele>
        <time>2017-11-07T15:14:55Z</time>
      </trkpt>
      <trkpt lat="49.42052" lon="1.11505">
        <ele>7</ele>
        <time>2017-11-07T15:15:11Z</time>
      </trkpt>
      <trkpt lat="49.42047" lon="1.11507">
        <ele>7</ele>
        <time>2017-11-07T15:15:11Z</time>
      </trkpt>
      <trkpt lat="49.42043" lon="1.11509">
        <ele>7</ele>
        <time>2017-11-07T15:15:11Z</time>
      </trkpt>
      <trkpt lat="49.42039" lon="1.11512">
        <ele>11</ele>
        <time>2017-11-07T15:15:11Z</time>
      </trkpt>
      <trkpt lat="49.42034" lon="1.11515">
        <ele>11</ele>
        <time>2017-11-07T15:15:27Z</time>
      </trkpt>
      <trkpt lat="49.42031" lon="1.11516">
        <ele>11</ele>
        <time>2017-11-07T15:15:27Z</time>
      </trkpt>
      <trkpt lat="49.42027" lon="1.11519">
        <ele>11</ele>
        <time>2017-11-07T15:15:27Z</time>
      </trkpt>
      <trkpt lat="49.42022" lon="1.11522">
        <ele>11</ele>
        <time>2017-11-07T15:15:27Z</time>
      </trkpt>
      <trkpt lat="49.42017" lon="1.11524">
        <ele>11</ele>
        <time>2017-11-07T15:15:43Z</time>
      </trkpt>
      <trkpt lat="49.42013" lon="1.11527">
        <ele>11</ele>
        <time>2017-11-07T15:15:43Z</time>
      </trkpt>
      <trkpt lat="49.4201" lon="1.11529">
        <ele>11</ele>
        <time>2017-11-07T15:15:43Z</time>
      </trkpt>
      <trkpt lat="49.42004" lon="1.11532">
        <ele>11</ele>
        <time>2017-11-07T15:15:43Z</time>
      </trkpt>
      <trkpt lat="49.42" lon="1.11535">
        <ele>11</ele>
        <time>2017-11-07T15:15:59Z</time>
      </trkpt>
      <trkpt lat="49.41995" lon="1.11537">
        <ele>11</ele>
        <time>2017-11-07T15:15:59Z</time>
      </trkpt>
      <trkpt lat="49.4199" lon="1.1154">
        <ele>11</ele>
        <time>2017-11-07T15:15:59Z</time>
      </trkpt>
      <trkpt lat="49.41986" lon="1.11542">
        <ele>11</ele>
        <time>2017-11-07T15:15:59Z</time>
      </trkpt>
      <trkpt lat="49.41981" lon="1.11544">
        <ele>9</ele>
        <time>2017-11-07T15:16:15Z</time>
      </trkpt>
      <trkpt lat="49.41976" lon="1.11547">
        <ele>9</ele>
        <time>2017-11-07T15:16:15Z</time>
      </trkpt>
      <trkpt lat="49.41972" lon="1.1155">
        <ele>9</ele>
        <time>2017-11-07T15:16:15Z</time>
      </trkpt>
      <trkpt lat="49.41967" lon="1.11552">
        <ele>9</ele>
        <time>2017-11-07T15:16:15Z</time>
      </trkpt>
      <trkpt lat="49.41962" lon="1.11555">
        <ele>9</ele>
        <time>2017-11-07T15:16:31Z</time>
      </trkpt>
      <trkpt lat="49.41958" lon="1.11557">
        <ele>7</ele>
        <time>2017-11-07T15:16:31Z</time>
      </trkpt>
      <trkpt lat="49.41954" lon="1.11559">
        <ele>7</ele>
        <time>2017-11-07T15:16:31Z</time>
      </trkpt>
      <trkpt lat="49.41949" lon="1.11562">
        <ele>7</ele>
        <time>2017-11-07T15:16:31Z</time>
      </trkpt>
      <trkpt lat="49.41944" lon="1.11564">
        <ele>7</ele>
        <time>2017-11-07T15:16:47Z</time>
      </trkpt>
      <trkpt lat="49.41941" lon="1.11566">
        <ele>7</ele>
        <time>2017-11-07T15:16:47Z</time>
      </trkpt>
      <trkpt lat="49.41936" lon="1.1157">
        <ele>7</ele>
        <time>2017-11-07T15:16:47Z</time>
      </trkpt>
      <trkpt lat="49.4193" lon="1.11572">
        <ele>7</ele>
        <time>2017-11-07T15:16:47Z</time>
      </trkpt>
      <trkpt lat="49.41926" lon="1.11575">
        <ele>7</ele>
        <time>2017-11-07T15:17:03Z</time>
      </trkpt>
      <trkpt lat="49.41922" lon="1.11577">
        <ele>7</ele>
        <time>2017-11-07T15:17:03Z</time>
      </trkpt>
      <trkpt lat="49.41918" lon="1.1158">
        <ele>7</ele>
        <time>2017-11-07T15:17:03Z</time>
      </trkpt>
      <trkpt lat="49.41912" lon="1.11584">
        <ele>7</ele>
        <time>2017-11-07T15:17:03Z</time>
      </trkpt>
      <trkpt lat="49.41908" lon="1.11587">
        <ele>7</ele>
        <time>2017-11-07T15:17:19Z</time>
      </trkpt>
      <trkpt lat="49.41904" lon="1.11589">
        <ele>7</ele>
        <time>2017-11-07T15:17:19Z</time>
      </trkpt>
      <trkpt lat="49.41899" lon="1.1159">
        <ele>7</ele>
        <time>2017-11-07T15:17:19Z</time>
      </trkpt>
      <trkpt lat="49.41894" lon="1.11592">
        <ele>7</ele>
        <time>2017-11-07T15:17:19Z</time>
      </trkpt>
      <trkpt lat="49.41888" lon="1.11595">
        <ele>7</ele>
        <time>2017-11-07T15:17:35Z</time>
      </trkpt>
      <trkpt lat="49.41883" lon="1.11597">
        <ele>7</ele>
        <time>2017-11-07T15:17:35Z</time>
      </trkpt>
      <trkpt lat="49.41879" lon="1.116">
        <ele>7</ele>
        <time>2017-11-07T15:17:35Z</time>
      </trkpt>
      <trkpt lat="49.41876" lon="1.11602">
        <ele>7</ele>
        <time>2017-11-07T15:17:35Z</time>
      </trkpt>
      <trkpt lat="49.4187" lon="1.11606">
        <ele>3</ele>
        <time>2017-11-07T15:17:51Z</time>
      </trkpt>
      <trkpt lat="49.41866" lon="1.11609">
        <ele>3</ele>
        <time>2017-11-07T15:17:51Z</time>
      </trkpt>
      <trkpt lat="49.41861" lon="1.11611">
        <ele>3</ele>
        <time>2017-11-07T15:17:51Z</time>
      </trkpt>
      <trkpt lat="49.41857" lon="1.11613">
        <ele>3</ele>
        <time>2017-11-07T15:17:51Z</time>
      </trkpt>
      <trkpt lat="49.41852" lon="1.11615">
        <ele>3</ele>
        <time>2017-11-07T15:18:07Z</time>
      </trkpt>
      <trkpt lat="49.41847" lon="1.11617">
        <ele>3</ele>
        <time>2017-11-07T15:18:07Z</time>
      </trkpt>
      <trkpt lat="49.41844" lon="1.11619">
        <ele>3</ele>
        <time>2017-11-07T15:18:07Z</time>
      </trkpt>
      <trkpt lat="49.41838" lon="1.11622">
        <ele>3</ele>
        <time>2017-11-07T15:18:07Z</time>
      </trkpt>
      <trkpt lat="49.41835" lon="1.11625">
        <ele>3</ele>
        <time>2017-11-07T15:18:27Z</time>
      </trkpt>
      <trkpt lat="49.41832" lon="1.11624">
        <ele>3</ele>
        <time>2017-11-07T15:18:27Z</time>
      </trkpt>
      <trkpt lat="49.4183" lon="1.11626">
        <ele>5</ele>
        <time>2017-11-07T15:18:27Z</time>
      </trkpt>
      <trkpt lat="49.41826" lon="1.11628">
        <ele>5</ele>
        <time>2017-11-07T15:18:27Z</time>
      </trkpt>
      <trkpt lat="49.41823" lon="1.11631">
        <ele>5</ele>
        <time>2017-11-07T15:18:27Z</time>
      </trkpt>
      <trkpt lat="49.41818" lon="1.11634">
        <ele>5</ele>
        <time>2017-11-07T15:18:43Z</time>
      </trkpt>
      <trkpt lat="49.41815" lon="1.11635">
        <ele>5</ele>
        <time>2017-11-07T15:18:43Z</time>
      </trkpt>
      <trkpt lat="49.41811" lon="1.11637">
        <ele>5</ele>
        <time>2017-11-07T15:18:43Z</time>
      </trkpt>
      <trkpt lat="49.41806" lon="1.1164">
        <ele>5</ele>
        <time>2017-11-07T15:18:43Z</time>
      </trkpt>
      <trkpt lat="49.41802" lon="1.11643">
        <ele>5</ele>
        <time>2017-11-07T15:18:59Z</time>
      </trkpt>
      <trkpt lat="49.41798" lon="1.11645">
        <ele>5</ele>
        <time>2017-11-07T15:18:59Z</time>
      </trkpt>
      <trkpt lat="49.41794" lon="1.11648">
        <ele>5</ele>
        <time>2017-11-07T15:18:59Z</time>
      </trkpt>
      <trkpt lat="49.41788" lon="1.11651">
        <ele>7</ele>
        <time>2017-11-07T15:18:59Z</time>
      </trkpt>
      <trkpt lat="49.41785" lon="1.11652">
        <ele>7</ele>
        <time>2017-11-07T15:19:15Z</time>
      </trkpt>
      <trkpt lat="49.4178" lon="1.11654">
        <ele>7</ele>
        <time>2017-11-07T15:19:15Z</time>
      </trkpt>
      <trkpt lat="49.41774" lon="1.11657">
        <ele>7</ele>
        <time>2017-11-07T15:19:15Z</time>
      </trkpt>
      <trkpt lat="49.4177" lon="1.1166">
        <ele>7</ele>
        <time>2017-11-07T15:19:15Z</time>
      </trkpt>
      <trkpt lat="49.41765" lon="1.11663">
        <ele>7</ele>
        <time>2017-11-07T15:19:31Z</time>
      </trkpt>
      <trkpt lat="49.4176" lon="1.11665">
        <ele>7</ele>
        <time>2017-11-07T15:19:31Z</time>
      </trkpt>
      <trkpt lat="49.41756" lon="1.11668">
        <ele>7</ele>
        <time>2017-11-07T15:19:31Z</time>
      </trkpt>
      <trkpt lat="49.41752" lon="1.1167">
        <ele>7</ele>
        <time>2017-11-07T15:19:31Z</time>
      </trkpt>
      <trkpt lat="49.41748" lon="1.11672">
        <ele>7</ele>
        <time>2017-11-07T15:19:47Z</time>
      </trkpt>
      <trkpt lat="49.41744" lon="1.11674">
        <ele>7</ele>
        <time>2017-11-07T15:19:47Z</time>
      </trkpt>
      <trkpt lat="49.4174" lon="1.11676">
        <ele>7</ele>
        <time>2017-11-07T15:19:47Z</time>
      </trkpt>
      <trkpt lat="49.41734" lon="1.11679">
        <ele>7</ele>
        <time>2017-11-07T15:19:47Z</time>
      </trkpt>
      <trkpt lat="49.41731" lon="1.11681">
        <ele>7</ele>
        <time>2017-11-07T15:20:03Z</time>
      </trkpt>
      <trkpt lat="49.41727" lon="1.11683">
        <ele>7</ele>
        <time>2017-11-07T15:20:03Z</time>
      </trkpt>
      <trkpt lat="49.41721" lon="1.11686">
        <ele>7</ele>
        <time>2017-11-07T15:20:03Z</time>
      </trkpt>
      <trkpt lat="49.41717" lon="1.11688">
        <ele>7</ele>
        <time>2017-11-07T15:20:03Z</time>
      </trkpt>
      <trkpt lat="49.41712" lon="1.1169">
        <ele>7</ele>
        <time>2017-11-07T15:20:19Z</time>
      </trkpt>
      <trkpt lat="49.41709" lon="1.11692">
        <ele>7</ele>
        <time>2017-11-07T15:20:19Z</time>
      </trkpt>
      <trkpt lat="49.41704" lon="1.11696">
        <ele>2</ele>
        <time>2017-11-07T15:20:19Z</time>
      </trkpt>
      <trkpt lat="49.417" lon="1.11698">
        <ele>2</ele>
        <time>2017-11-07T15:20:19Z</time>
      </trkpt>
      <trkpt lat="49.41697" lon="1.117">
        <ele>2</ele>
        <time>2017-11-07T15:20:35Z</time>
      </trkpt>
      <trkpt lat="49.41693" lon="1.11702">
        <ele>2</ele>
        <time>2017-11-07T15:20:35Z</time>
      </trkpt>
      <trkpt lat="49.41689" lon="1.11705">
        <ele>2</ele>
        <time>2017-11-07T15:20:35Z</time>
      </trkpt>
      <trkpt lat="49.41683" lon="1.11708">
        <ele>2</ele>
        <time>2017-11-07T15:20:35Z</time>
      </trkpt>
      <trkpt lat="49.41679" lon="1.11711">
        <ele>6</ele>
        <time>2017-11-07T15:20:51Z</time>
      </trkpt>
      <trkpt lat="49.41676" lon="1.11713">
        <ele>6</ele>
        <time>2017-11-07T15:20:51Z</time>
      </trkpt>
      <trkpt lat="49.41671" lon="1.11716">
        <ele>6</ele>
        <time>2017-11-07T15:20:51Z</time>
      </trkpt>
      <trkpt lat="49.41665" lon="1.11719">
        <ele>6</ele>
        <time>2017-11-07T15:20:51Z</time>
      </trkpt>
      <trkpt lat="49.41661" lon="1.11721">
        <ele>6</ele>
        <time>2017-11-07T15:21:07Z</time>
      </trkpt>
      <trkpt lat="49.41657" lon="1.11724">
        <ele>6</ele>
        <time>2017-11-07T15:21:07Z</time>
      </trkpt>
      <trkpt lat="49.41652" lon="1.11725">
        <ele>6</ele>
        <time>2017-11-07T15:21:07Z</time>
      </trkpt>
      <trkpt lat="49.41647" lon="1.11728">
        <ele>6</ele>
        <time>2017-11-07T15:21:07Z</time>
      </trkpt>
      <trkpt lat="49.41644" lon="1.1173">
        <ele>6</ele>
        <time>2017-11-07T15:21:23Z</time>
      </trkpt>
      <trkpt lat="49.4164" lon="1.11732">
        <ele>6</ele>
        <time>2017-11-07T15:21:23Z</time>
      </trkpt>
      <trkpt lat="49.41634" lon="1.11735">
        <ele>6</ele>
        <time>2017-11-07T15:21:23Z</time>
      </trkpt>
      <trkpt lat="49.4163" lon="1.11738">
        <ele>6</ele>
        <time>2017-11-07T15:21:23Z</time>
      </trkpt>
      <trkpt lat="49.41626" lon="1.1174">
        <ele>6</ele>
        <time>2017-11-07T15:21:39Z</time>
      </trkpt>
      <trkpt lat="49.41623" lon="1.11742">
        <ele>4</ele>
        <time>2017-11-07T15:21:39Z</time>
      </trkpt>
      <trkpt lat="49.41619" lon="1.11744">
        <ele>4</ele>
        <time>2017-11-07T15:21:39Z</time>
      </trkpt>
      <trkpt lat="49.41614" lon="1.11747">
        <ele>4</ele>
        <time>2017-11-07T15:21:39Z</time>
      </trkpt>
      <trkpt lat="49.4161" lon="1.11748">
        <ele>4</ele>
        <time>2017-11-07T15:21:55Z</time>
      </trkpt>
      <trkpt lat="49.41606" lon="1.1175">
        <ele>4</ele>
        <time>2017-11-07T15:21:55Z</time>
      </trkpt>
      <trkpt lat="49.416" lon="1.11753">
        <ele>4</ele>
        <time>2017-11-07T15:21:55Z</time>
      </trkpt>
      <trkpt lat="49.41596" lon="1.11756">
        <ele>4</ele>
        <time>2017-11-07T15:21:55Z</time>
      </trkpt>
      <trkpt lat="49.41592" lon="1.11757">
        <ele>4</ele>
        <time>2017-11-07T15:22:11Z</time>
      </trkpt>
      <trkpt lat="49.41588" lon="1.1176">
        <ele>4</ele>
        <time>2017-11-07T15:22:11Z</time>
      </trkpt>
      <trkpt lat="49.41583" lon="1.11763">
        <ele>4</ele>
        <time>2017-11-07T15:22:11Z</time>
      </trkpt>
      <trkpt lat="49.41578" lon="1.11766">
        <ele>4</ele>
        <time>2017-11-07T15:22:11Z</time>
      </trkpt>
      <trkpt lat="49.41574" lon="1.11768">
        <ele>4</ele>
        <time>2017-11-07T15:22:27Z</time>
      </trkpt>
      <trkpt lat="49.41568" lon="1.11771">
        <ele>4</ele>
        <time>2017-11-07T15:22:27Z</time>
      </trkpt>
      <trkpt lat="49.41565" lon="1.11773">
        <ele>4</ele>
        <time>2017-11-07T15:22:27Z</time>
      </trkpt>
      <trkpt lat="49.41559" lon="1.11776">
        <ele>4</ele>
        <time>2017-11-07T15:22:27Z</time>
      </trkpt>
      <trkpt lat="49.41555" lon="1.11779">
        <ele>4</ele>
        <time>2017-11-07T15:22:43Z</time>
      </trkpt>
      <trkpt lat="49.41551" lon="1.11781">
        <ele>4</ele>
        <time>2017-11-07T15:22:43Z</time>
      </trkpt>
      <trkpt lat="49.41548" lon="1.11783">
        <ele>4</ele>
        <time>2017-11-07T15:22:43Z</time>
      </trkpt>
      <trkpt lat="49.41543" lon="1.11786">
        <ele>4</ele>
        <time>2017-11-07T15:22:43Z</time>
      </trkpt>
      <trkpt lat="49.41539" lon="1.11788">
        <ele>4</ele>
        <time>2017-11-07T15:22:59Z</time>
      </trkpt>
      <trkpt lat="49.41535" lon="1.11791">
        <ele>4</ele>
        <time>2017-11-07T15:22:59Z</time>
      </trkpt>
      <trkpt lat="49.41531" lon="1.11793">
        <ele>5</ele>
        <time>2017-11-07T15:22:59Z</time>
      </trkpt>
      <trkpt lat="49.41525" lon="1.11796">
        <ele>5</ele>
        <time>2017-11-07T15:22:59Z</time>
      </trkpt>
      <trkpt lat="49.41522" lon="1.11798">
        <ele>5</ele>
        <time>2017-11-07T15:23:15Z</time>
      </trkpt>
      <trkpt lat="49.41517" lon="1.11801">
        <ele>5</ele>
        <time>2017-11-07T15:23:15Z</time>
      </trkpt>
      <trkpt lat="49.41513" lon="1.11803">
        <ele>5</ele>
        <time>2017-11-07T15:23:15Z</time>
      </trkpt>
      <trkpt lat="49.41507" lon="1.11807">
        <ele>5</ele>
        <time>2017-11-07T15:23:15Z</time>
      </trkpt>
      <trkpt lat="49.41504" lon="1.11809">
        <ele>5</ele>
        <time>2017-11-07T15:23:31Z</time>
      </trkpt>
      <trkpt lat="49.41499" lon="1.11812">
        <ele>5</ele>
        <time>2017-11-07T15:23:31Z</time>
      </trkpt>
      <trkpt lat="49.41495" lon="1.11814">
        <ele>5</ele>
        <time>2017-11-07T15:23:31Z</time>
      </trkpt>
      <trkpt lat="49.4149" lon="1.11817">
        <ele>5</ele>
        <time>2017-11-07T15:23:31Z</time>
      </trkpt>
      <trkpt lat="49.41487" lon="1.11818">
        <ele>5</ele>
        <time>2017-11-07T15:23:47Z</time>
      </trkpt>
      <trkpt lat="49.41483" lon="1.11821">
        <ele>5</ele>
        <time>2017-11-07T15:23:47Z</time>
      </trkpt>
      <trkpt lat="49.41478" lon="1.11823">
        <ele>5</ele>
        <time>2017-11-07T15:23:47Z</time>
      </trkpt>
      <trkpt lat="49.41473" lon="1.11825">
        <ele>5</ele>
        <time>2017-11-07T15:23:47Z</time>
      </trkpt>
      <trkpt lat="49.41469" lon="1.11827">
        <ele>5</ele>
        <time>2017-11-07T15:24:03Z</time>
      </trkpt>
      <trkpt lat="49.41465" lon="1.11829">
        <ele>5</ele>
        <time>2017-11-07T15:24:03Z</time>
      </trkpt>
      <trkpt lat="49.4146" lon="1.11832">
        <ele>5</ele>
        <time>2017-11-07T15:24:03Z</time>
      </trkpt>
      <trkpt lat="49.41455" lon="1.11834">
        <ele>2</ele>
        <time>2017-11-07T15:24:03Z</time>
      </trkpt>
      <trkpt lat="49.41451" lon="1.11837">
        <ele>2</ele>
        <time>2017-11-07T15:24:19Z</time>
      </trkpt>
      <trkpt lat="49.41447" lon="1.11839">
        <ele>2</ele>
        <time>2017-11-07T15:24:19Z</time>
      </trkpt>
      <trkpt lat="49.41444" lon="1.11841">
        <ele>2</ele>
        <time>2017-11-07T15:24:19Z</time>
      </trkpt>
      <trkpt lat="49.41439" lon="1.11844">
        <ele>2</ele>
        <time>2017-11-07T15:24:19Z</time>
      </trkpt>
      <trkpt lat="49.41435" lon="1.11846">
        <ele>2</ele>
        <time>2017-11-07T15:24:35Z</time>
      </trkpt>
      <trkpt lat="49.41431" lon="1.11849">
        <ele>2</ele>
        <time>2017-11-07T15:24:35Z</time>
      </trkpt>
      <trkpt lat="49.41427" lon="1.11852">
        <ele>2</ele>
        <time>2017-11-07T15:24:35Z</time>
      </trkpt>
      <trkpt lat="49.41422" lon="1.11855">
        <ele>2</ele>
        <time>2017-11-07T15:24:35Z</time>
      </trkpt>
      <trkpt lat="49.41418" lon="1.11857">
        <ele>2</ele>
        <time>2017-11-07T15:24:51Z</time>
      </trkpt>
      <trkpt lat="49.41414" lon="1.11859">
        <ele>2</ele>
        <time>2017-11-07T15:24:51Z</time>
      </trkpt>
      <trkpt lat="49.4141" lon="1.11861">
        <ele>2</ele>
        <time>2017-11-07T15:24:51Z</time>
      </trkpt>
      <trkpt lat="49.41404" lon="1.11864">
        <ele>2</ele>
        <time>2017-11-07T15:24:51Z</time>
      </trkpt>
      <trkpt lat="49.41401" lon="1.11866">
        <ele>2</ele>
        <time>2017-11-07T15:25:07Z</time>
      </trkpt>
      <trkpt lat="49.41396" lon="1.11868">
        <ele>2</ele>
        <time>2017-11-07T15:25:07Z</time>
      </trkpt>
      <trkpt lat="49.41391" lon="1.1187">
        <ele>2</ele>
        <time>2017-11-07T15:25:07Z</time>
      </trkpt>
      <trkpt lat="49.41385" lon="1.11873">
        <ele>2</ele>
        <time>2017-11-07T15:25:07Z</time>
      </trkpt>
      <trkpt lat="49.4138" lon="1.11875">
        <ele>7</ele>
        <time>2017-11-07T15:25:23Z</time>
      </trkpt>
      <trkpt lat="49.41377" lon="1.11878">
        <ele>7</ele>
        <time>2017-11-07T15:25:23Z</time>
      </trkpt>
      <trkpt lat="49.41372" lon="1.1188">
        <ele>6</ele>
        <time>2017-11-07T15:25:23Z</time>
      </trkpt>
      <trkpt lat="49.41366" lon="1.11883">
        <ele>6</ele>
        <time>2017-11-07T15:25:23Z</time>
      </trkpt>
      <trkpt lat="49.41362" lon="1.11886">
        <ele>6</ele>
        <time>2017-11-07T15:25:39Z</time>
      </trkpt>
      <trkpt lat="49.41358" lon="1.11887">
        <ele>6</ele>
        <time>2017-11-07T15:25:39Z</time>
      </trkpt>
      <trkpt lat="49.41353" lon="1.11891">
        <ele>6</ele>
        <time>2017-11-07T15:25:39Z</time>
      </trkpt>
      <trkpt lat="49.41349" lon="1.11893">
        <ele>6</ele>
        <time>2017-11-07T15:25:39Z</time>
      </trkpt>
      <trkpt lat="49.41345" lon="1.11895">
        <ele>6</ele>
        <time>2017-11-07T15:25:55Z</time>
      </trkpt>
      <trkpt lat="49.41341" lon="1.11896">
        <ele>6</ele>
        <time>2017-11-07T15:25:55Z</time>
      </trkpt>
      <trkpt lat="49.41337" lon="1.11899">
        <ele>6</ele>
        <time>2017-11-07T15:25:55Z</time>
      </trkpt>
      <trkpt lat="49.41331" lon="1.11901">
        <ele>6</ele>
        <time>2017-11-07T15:25:55Z</time>
      </trkpt>
      <trkpt lat="49.41327" lon="1.11903">
        <ele>6</ele>
        <time>2017-11-07T15:26:11Z</time>
      </trkpt>
      <trkpt lat="49.41325" lon="1.11904">
        <ele>6</ele>
        <time>2017-11-07T15:26:11Z</time>
      </trkpt>
      <trkpt lat="49.41323" lon="1.11909">
        <ele>6</ele>
        <time>2017-11-07T15:26:11Z</time>
      </trkpt>
      <trkpt lat="49.41324" lon="1.11915">
        <ele>6</ele>
        <time>2017-11-07T15:26:11Z</time>
      </trkpt>
      <trkpt lat="49.41323" lon="1.11919">
        <ele>6</ele>
        <time>2017-11-07T15:26:27Z</time>
      </trkpt>
      <trkpt lat="49.41322" lon="1.11922">
        <ele>6</ele>
        <time>2017-11-07T15:26:27Z</time>
      </trkpt>
      <trkpt lat="49.41319" lon="1.11924">
        <ele>6</ele>
        <time>2017-11-07T15:26:27Z</time>
      </trkpt>
      <trkpt lat="49.41315" lon="1.11926">
        <ele>6</ele>
        <time>2017-11-07T15:26:27Z</time>
      </trkpt>
      <trkpt lat="49.41312" lon="1.11929">
        <ele>6</ele>
        <time>2017-11-07T15:29:47Z</time>
      </trkpt>
      <trkpt lat="49.4131" lon="1.1193">
        <ele>6</ele>
        <time>2017-11-07T15:29:47Z</time>
      </trkpt>
      <trkpt lat="49.41309" lon="1.11931">
        <ele>6</ele>
        <time>2017-11-07T15:29:47Z</time>
      </trkpt>
      <trkpt lat="49.41306" lon="1.11932">
        <ele>6</ele>
        <time>2017-11-07T15:29:47Z</time>
      </trkpt>
      <trkpt lat="49.41304" lon="1.11933">
        <ele>6</ele>
        <time>2017-11-07T15:29:47Z</time>
      </trkpt>
      <trkpt lat="49.413" lon="1.11935">
        <ele>6</ele>
        <time>2017-11-07T15:30:03Z</time>
      </trkpt>
      <trkpt lat="49.41295" lon="1.11937">
        <ele>6</ele>
        <time>2017-11-07T15:30:03Z</time>
      </trkpt>
      <trkpt lat="49.41292" lon="1.11938">
        <ele>6</ele>
        <time>2017-11-07T15:30:03Z</time>
      </trkpt>
      <trkpt lat="49.41288" lon="1.1194">
        <ele>4</ele>
        <time>2017-11-07T15:30:03Z</time>
      </trkpt>
      <trkpt lat="49.41284" lon="1.11942">
        <ele>4</ele>
        <time>2017-11-07T15:30:19Z</time>
      </trkpt>
      <trkpt lat="49.41279" lon="1.11945">
        <ele>4</ele>
        <time>2017-11-07T15:30:19Z</time>
      </trkpt>
      <trkpt lat="49.41275" lon="1.11947">
        <ele>4</ele>
        <time>2017-11-07T15:30:19Z</time>
      </trkpt>
      <trkpt lat="49.41271" lon="1.1195">
        <ele>4</ele>
        <time>2017-11-07T15:30:19Z</time>
      </trkpt>
      <trkpt lat="49.41267" lon="1.11953">
        <ele>4</ele>
        <time>2017-11-07T15:30:35Z</time>
      </trkpt>
      <trkpt lat="49.41263" lon="1.11954">
        <ele>4</ele>
        <time>2017-11-07T15:30:35Z</time>
      </trkpt>
      <trkpt lat="49.4126" lon="1.11956">
        <ele>4</ele>
        <time>2017-11-07T15:30:35Z</time>
      </trkpt>
      <trkpt lat="49.41255" lon="1.11958">
        <ele>4</ele>
        <time>2017-11-07T15:30:35Z</time>
      </trkpt>
      <trkpt lat="49.41252" lon="1.11961">
        <ele>9</ele>
        <time>2017-11-07T15:30:51Z</time>
      </trkpt>
      <trkpt lat="49.41247" lon="1.11963">
        <ele>9</ele>
        <time>2017-11-07T15:30:51Z</time>
      </trkpt>
      <trkpt lat="49.41243" lon="1.11965">
        <ele>9</ele>
        <time>2017-11-07T15:30:51Z</time>
      </trkpt>
      <trkpt lat="49.41238" lon="1.11966">
        <ele>9</ele>
        <time>2017-11-07T15:30:51Z</time>
      </trkpt>
      <trkpt lat="49.41234" lon="1.11967">
        <ele>9</ele>
        <time>2017-11-07T15:31:07Z</time>
      </trkpt>
      <trkpt lat="49.41229" lon="1.11969">
        <ele>9</ele>
        <time>2017-11-07T15:31:07Z</time>
      </trkpt>
      <trkpt lat="49.41225" lon="1.1197">
        <ele>9</ele>
        <time>2017-11-07T15:31:07Z</time>
      </trkpt>
      <trkpt lat="49.41221" lon="1.11972">
        <ele>9</ele>
        <time>2017-11-07T15:31:07Z</time>
      </trkpt>
      <trkpt lat="49.41217" lon="1.11974">
        <ele>9</ele>
        <time>2017-11-07T15:31:23Z</time>
      </trkpt>
      <trkpt lat="49.41213" lon="1.11975">
        <ele>9</ele>
        <time>2017-11-07T15:31:23Z</time>
      </trkpt>
      <trkpt lat="49.41209" lon="1.11977">
        <ele>9</ele>
        <time>2017-11-07T15:31:23Z</time>
      </trkpt>
      <trkpt lat="49.41205" lon="1.11979">
        <ele>7</ele>
        <time>2017-11-07T15:31:23Z</time>
      </trkpt>
      <trkpt lat="49.412" lon="1.11981">
        <ele>7</ele>
        <time>2017-11-07T15:31:39Z</time>
      </trkpt>
      <trkpt lat="49.41195" lon="1.11981">
        <ele>7</ele>
        <time>2017-11-07T15:31:39Z</time>
      </trkpt>
      <trkpt lat="49.41189" lon="1.11981">
        <ele>7</ele>
        <time>2017-11-07T15:31:39Z</time>
      </trkpt>
      <trkpt lat="49.41184" lon="1.11983">
        <ele>7</ele>
        <time>2017-11-07T15:31:39Z</time>
      </trkpt>
      <trkpt lat="49.4118" lon="1.11985">
        <ele>7</ele>
        <time>2017-11-07T15:31:55Z</time>
      </trkpt>
      <trkpt lat="49.41176" lon="1.11986">
        <ele>7</ele>
        <time>2017-11-07T15:31:55Z</time>
      </trkpt>
      <trkpt lat="49.41172" lon="1.11988">
        <ele>7</ele>
        <time>2017-11-07T15:31:55Z</time>
      </trkpt>
      <trkpt lat="49.41167" lon="1.11989">
        <ele>7</ele>
        <time>2017-11-07T15:31:55Z</time>
      </trkpt>
      <trkpt lat="49.41163" lon="1.11991">
        <ele>7</ele>
        <time>2017-11-07T15:32:11Z</time>
      </trkpt>
      <trkpt lat="49.41159" lon="1.11993">
        <ele>7</ele>
        <time>2017-11-07T15:32:11Z</time>
      </trkpt>
      <trkpt lat="49.41156" lon="1.11994">
        <ele>7</ele>
        <time>2017-11-07T15:32:11Z</time>
      </trkpt>
      <trkpt lat="49.41151" lon="1.11996">
        <ele>7</ele>
        <time>2017-11-07T15:32:11Z</time>
      </trkpt>
      <trkpt lat="49.41147" lon="1.11997">
        <ele>7</ele>
        <time>2017-11-07T15:32:27Z</time>
      </trkpt>
      <trkpt lat="49.41142" lon="1.12">
        <ele>7</ele>
        <time>2017-11-07T15:32:27Z</time>
      </trkpt>
      <trkpt lat="49.41138" lon="1.12003">
        <ele>7</ele>
        <time>2017-11-07T15:32:27Z</time>
      </trkpt>
      <trkpt lat="49.41134" lon="1.12004">
        <ele>7</ele>
        <time>2017-11-07T15:32:27Z</time>
      </trkpt>
      <trkpt lat="49.4113" lon="1.12006">
        <ele>7</ele>
        <time>2017-11-07T15:32:43Z</time>
      </trkpt>
      <trkpt lat="49.41124" lon="1.12008">
        <ele>7</ele>
        <time>2017-11-07T15:32:43Z</time>
      </trkpt>
      <trkpt lat="49.4112" lon="1.1201">
        <ele>7</ele>
        <time>2017-11-07T15:32:43Z</time>
      </trkpt>
      <trkpt lat="49.41114" lon="1.12013">
        <ele>7</ele>
        <time>2017-11-07T15:32:43Z</time>
      </trkpt>
      <trkpt lat="49.41111" lon="1.12015">
        <ele>7</ele>
        <time>2017-11-07T15:32:59Z</time>
      </trkpt>
      <trkpt lat="49.41105" lon="1.12017">
        <ele>7</ele>
        <time>2017-11-07T15:32:59Z</time>
      </trkpt>
      <trkpt lat="49.41102" lon="1.12018">
        <ele>7</ele>
        <time>2017-11-07T15:32:59Z</time>
      </trkpt>
      <trkpt lat="49.41098" lon="1.12019">
        <ele>7</ele>
        <time>2017-11-07T15:32:59Z</time>
      </trkpt>
      <trkpt lat="49.41094" lon="1.12018">
        <ele>7</ele>
        <time>2017-11-07T15:33:15Z</time>
      </trkpt>
      <trkpt lat="49.41088" lon="1.12018">
        <ele>7</ele>
        <time>2017-11-07T15:33:15Z</time>
      </trkpt>
      <trkpt lat="49.41084" lon="1.12018">
        <ele>7</ele>
        <time>2017-11-07T15:33:15Z</time>
      </trkpt>
      <trkpt lat="49.41079" lon="1.12018">
        <ele>7</ele>
        <time>2017-11-07T15:33:15Z</time>
      </trkpt>
      <trkpt lat="49.41073" lon="1.1202">
        <ele>7</ele>
        <time>2017-11-07T15:33:31Z</time>
      </trkpt>
      <trkpt lat="49.41069" lon="1.12022">
        <ele>7</ele>
        <time>2017-11-07T15:33:31Z</time>
      </trkpt>
      <trkpt lat="49.41064" lon="1.12024">
        <ele>7</ele>
        <time>2017-11-07T15:33:31Z</time>
      </trkpt>
      <trkpt lat="49.41061" lon="1.12025">
        <ele>7</ele>
        <time>2017-11-07T15:33:31Z</time>
      </trkpt>
      <trkpt lat="49.41057" lon="1.12026">
        <ele>7</ele>
        <time>2017-11-07T15:33:47Z</time>
      </trkpt>
      <trkpt lat="49.41051" lon="1.12028">
        <ele>7</ele>
        <time>2017-11-07T15:33:47Z</time>
      </trkpt>
      <trkpt lat="49.41047" lon="1.1203">
        <ele>7</ele>
        <time>2017-11-07T15:33:47Z</time>
      </trkpt>
      <trkpt lat="49.41042" lon="1.12032">
        <ele>7</ele>
        <time>2017-11-07T15:33:47Z</time>
      </trkpt>
      <trkpt lat="49.41039" lon="1.12033">
        <ele>2</ele>
        <time>2017-11-07T15:34:03Z</time>
      </trkpt>
      <trkpt lat="49.41033" lon="1.12034">
        <ele>2</ele>
        <time>2017-11-07T15:34:03Z</time>
      </trkpt>
      <trkpt lat="49.4103" lon="1.12036">
        <ele>2</ele>
        <time>2017-11-07T15:34:03Z</time>
      </trkpt>
      <trkpt lat="49.41026" lon="1.12036">
        <ele>2</ele>
        <time>2017-11-07T15:34:03Z</time>
      </trkpt>
      <trkpt lat="49.41022" lon="1.12037">
        <ele>2</ele>
        <time>2017-11-07T15:34:19Z</time>
      </trkpt>
      <trkpt lat="49.41018" lon="1.12038">
        <ele>2</ele>
        <time>2017-11-07T15:34:19Z</time>
      </trkpt>
      <trkpt lat="49.41013" lon="1.1204">
        <ele>2</ele>
        <time>2017-11-07T15:34:19Z</time>
      </trkpt>
      <trkpt lat="49.41008" lon="1.12042">
        <ele>2</ele>
        <time>2017-11-07T15:34:19Z</time>
      </trkpt>
      <trkpt lat="49.41005" lon="1.12043">
        <ele>7</ele>
        <time>2017-11-07T15:34:35Z</time>
      </trkpt>
      <trkpt lat="49.40999" lon="1.12044">
        <ele>7</ele>
        <time>2017-11-07T15:34:35Z</time>
      </trkpt>
      <trkpt lat="49.40995" lon="1.12044">
        <ele>7</ele>
        <time>2017-11-07T15:34:35Z</time>
      </trkpt>
      <trkpt lat="49.40992" lon="1.12046">
        <ele>7</ele>
        <time>2017-11-07T15:34:35Z</time>
      </trkpt>
      <trkpt lat="49.40987" lon="1.12048">
        <ele>7</ele>
        <time>2017-11-07T15:34:51Z</time>
      </trkpt>
      <trkpt lat="49.40982" lon="1.1205">
        <ele>7</ele>
        <time>2017-11-07T15:34:51Z</time>
      </trkpt>
      <trkpt lat="49.40977" lon="1.12052">
        <ele>7</ele>
        <time>2017-11-07T15:34:51Z</time>
      </trkpt>
      <trkpt lat="49.40974" lon="1.12053">
        <ele>7</ele>
        <time>2017-11-07T15:34:51Z</time>
      </trkpt>
      <trkpt lat="49.40969" lon="1.12055">
        <ele>7</ele>
        <time>2017-11-07T15:35:07Z</time>
      </trkpt>
      <trkpt lat="49.40965" lon="1.12057">
        <ele>7</ele>
        <time>2017-11-07T15:35:07Z</time>
      </trkpt>
      <trkpt lat="49.40961" lon="1.12061">
        <ele>7</ele>
        <time>2017-11-07T15:35:07Z</time>
      </trkpt>
      <trkpt lat="49.40959" lon="1.12065">
        <ele>7</ele>
        <time>2017-11-07T15:35:07Z</time>
      </trkpt>
      <trkpt lat="49.40959" lon="1.12064">
        <ele>7</ele>
        <time>2017-11-07T15:38:03Z</time>
      </trkpt>
      <trkpt lat="49.40959" lon="1.12068">
        <ele>7</ele>
        <time>2017-11-07T15:38:03Z</time>
      </trkpt>
      <trkpt lat="49.40959" lon="1.12075">
        <ele>7</ele>
        <time>2017-11-07T15:38:03Z</time>
      </trkpt>
      <trkpt lat="49.40957" lon="1.1208">
        <ele>5</ele>
        <time>2017-11-07T15:38:03Z</time>
      </trkpt>
      <trkpt lat="49.40954" lon="1.12085">
        <ele>5</ele>
        <time>2017-11-07T15:38:03Z</time>
      </trkpt>
      <trkpt lat="49.4095" lon="1.12087">
        <ele>5</ele>
        <time>2017-11-07T15:38:19Z</time>
      </trkpt>
      <trkpt lat="49.40947" lon="1.12089">
        <ele>5</ele>
        <time>2017-11-07T15:38:19Z</time>
      </trkpt>
      <trkpt lat="49.40943" lon="1.12092">
        <ele>5</ele>
        <time>2017-11-07T15:38:19Z</time>
      </trkpt>
      <trkpt lat="49.4094" lon="1.12094">
        <ele>5</ele>
        <time>2017-11-07T15:38:19Z</time>
      </trkpt>
      <trkpt lat="49.40936" lon="1.12096">
        <ele>5</ele>
        <time>2017-11-07T15:38:35Z</time>
      </trkpt>
      <trkpt lat="49.40931" lon="1.12098">
        <ele>5</ele>
        <time>2017-11-07T15:38:35Z</time>
      </trkpt>
      <trkpt lat="49.40929" lon="1.12102">
        <ele>5</ele>
        <time>2017-11-07T15:38:35Z</time>
      </trkpt>
      <trkpt lat="49.40927" lon="1.12104">
        <ele>5</ele>
        <time>2017-11-07T15:38:35Z</time>
      </trkpt>
      <trkpt lat="49.40926" lon="1.12109">
        <ele>5</ele>
        <time>2017-11-07T15:38:51Z</time>
      </trkpt>
      <trkpt lat="49.40925" lon="1.12117">
        <ele>5</ele>
        <time>2017-11-07T15:38:51Z</time>
      </trkpt>
      <trkpt lat="49.40926" lon="1.12123">
        <ele>5</ele>
        <time>2017-11-07T15:38:51Z</time>
      </trkpt>
      <trkpt lat="49.40927" lon="1.12127">
        <ele>11</ele>
        <time>2017-11-07T15:38:51Z</time>
      </trkpt>
      <trkpt lat="49.4093" lon="1.12131">
        <ele>11</ele>
        <time>2017-11-07T15:39:07Z</time>
      </trkpt>
      <trkpt lat="49.40933" lon="1.12133">
        <ele>11</ele>
        <time>2017-11-07T15:39:07Z</time>
      </trkpt>
      <trkpt lat="49.40938" lon="1.12134">
        <ele>11</ele>
        <time>2017-11-07T15:39:07Z</time>
      </trkpt>
      <trkpt lat="49.40942" lon="1.12138">
        <ele>11</ele>
        <time>2017-11-07T15:39:07Z</time>
      </trkpt>
      <trkpt lat="49.40943" lon="1.12144">
        <ele>11</ele>
        <time>2017-11-07T15:39:23Z</time>
      </trkpt>
      <trkpt lat="49.40943" lon="1.12151">
        <ele>11</ele>
        <time>2017-11-07T15:39:23Z</time>
      </trkpt>
      <trkpt lat="49.40943" lon="1.12158">
        <ele>11</ele>
        <time>2017-11-07T15:39:23Z</time>
      </trkpt>
      <trkpt lat="49.40943" lon="1.12167">
        <ele>11</ele>
        <time>2017-11-07T15:39:23Z</time>
      </trkpt>
      <trkpt lat="49.40944" lon="1.12174">
        <ele>11</ele>
        <time>2017-11-07T15:39:39Z</time>
      </trkpt>
      <trkpt lat="49.40943" lon="1.12179">
        <ele>11</ele>
        <time>2017-11-07T15:39:39Z</time>
      </trkpt>
      <trkpt lat="49.40941" lon="1.12184">
        <ele>11</ele>
        <time>2017-11-07T15:39:39Z</time>
      </trkpt>
      <trkpt lat="49.40936" lon="1.12185">
        <ele>11</ele>
        <time>2017-11-07T15:39:39Z</time>
      </trkpt>
      <trkpt lat="49.40932" lon="1.12186">
        <ele>11</ele>
        <time>2017-11-07T15:39:55Z</time>
      </trkpt>
      <trkpt lat="49.40929" lon="1.12187">
        <ele>11</ele>
        <time>2017-11-07T15:39:55Z</time>
      </trkpt>
      <trkpt lat="49.40925" lon="1.12188">
        <ele>11</ele>
        <time>2017-11-07T15:39:55Z</time>
      </trkpt>
      <trkpt lat="49.4092" lon="1.12191">
        <ele>11</ele>
        <time>2017-11-07T15:39:55Z</time>
      </trkpt>
      <trkpt lat="49.40916" lon="1.12194">
        <ele>11</ele>
        <time>2017-11-07T15:40:11Z</time>
      </trkpt>
      <trkpt lat="49.40912" lon="1.12198">
        <ele>11</ele>
        <time>2017-11-07T15:40:11Z</time>
      </trkpt>
      <trkpt lat="49.40908" lon="1.122">
        <ele>11</ele>
        <time>2017-11-07T15:40:11Z</time>
      </trkpt>
      <trkpt lat="49.40905" lon="1.12202">
        <ele>11</ele>
        <time>2017-11-07T15:40:11Z</time>
      </trkpt>
      <trkpt lat="49.40906" lon="1.12209">
        <ele>21</ele>
        <time>2017-11-07T15:40:55Z</time>
      </trkpt>
      <trkpt lat="49.40907" lon="1.1221">
        <ele>21</ele>
        <time>2017-11-07T15:40:55Z</time>
      </trkpt>
      <trkpt lat="49.40908" lon="1.12212">
        <ele>21</ele>
        <time>2017-11-07T15:40:55Z</time>
      </trkpt>
      <trkpt lat="49.40907" lon="1.12215">
        <ele>21</ele>
        <time>2017-11-07T15:40:55Z</time>
      </trkpt>
      <trkpt lat="49.40907" lon="1.12217">
        <ele>21</ele>
        <time>2017-11-07T15:40:55Z</time>
      </trkpt>
      <trkpt lat="49.40905" lon="1.12223">
        <ele>21</ele>
        <time>2017-11-07T15:41:11Z</time>
      </trkpt>
      <trkpt lat="49.40903" lon="1.12227">
        <ele>21</ele>
        <time>2017-11-07T15:41:11Z</time>
      </trkpt>
      <trkpt lat="49.40901" lon="1.12234">
        <ele>21</ele>
        <time>2017-11-07T15:41:11Z</time>
      </trkpt>
      <trkpt lat="49.409" lon="1.1224">
        <ele>21</ele>
        <time>2017-11-07T15:41:11Z</time>
      </trkpt>
      <trkpt lat="49.409" lon="1.12246">
        <ele>21</ele>
        <time>2017-11-07T15:41:27Z</time>
      </trkpt>
      <trkpt lat="49.409" lon="1.1225">
        <ele>21</ele>
        <time>2017-11-07T15:41:27Z</time>
      </trkpt>
      <trkpt lat="49.40899" lon="1.12257">
        <ele>21</ele>
        <time>2017-11-07T15:41:27Z</time>
      </trkpt>
      <trkpt lat="49.40898" lon="1.12262">
        <ele>21</ele>
        <time>2017-11-07T15:41:27Z</time>
      </trkpt>
      <trkpt lat="49.40896" lon="1.12265">
        <ele>21</ele>
        <time>2017-11-07T15:41:43Z</time>
      </trkpt>
      <trkpt lat="49.40892" lon="1.12268">
        <ele>21</ele>
        <time>2017-11-07T15:41:43Z</time>
      </trkpt>
      <trkpt lat="49.40888" lon="1.12272">
        <ele>21</ele>
        <time>2017-11-07T15:41:43Z</time>
      </trkpt>
      <trkpt lat="49.40886" lon="1.12274">
        <ele>21</ele>
        <time>2017-11-07T15:41:43Z</time>
      </trkpt>
      <trkpt lat="49.40882" lon="1.12278">
        <ele>21</ele>
        <time>2017-11-07T15:41:59Z</time>
      </trkpt>
      <trkpt lat="49.40879" lon="1.12281">
        <ele>21</ele>
        <time>2017-11-07T15:41:59Z</time>
      </trkpt>
      <trkpt lat="49.40875" lon="1.12284">
        <ele>14</ele>
        <time>2017-11-07T15:41:59Z</time>
      </trkpt>
      <trkpt lat="49.40873" lon="1.12287">
        <ele>14</ele>
        <time>2017-11-07T15:41:59Z</time>
      </trkpt>
      <trkpt lat="49.40869" lon="1.12291">
        <ele>14</ele>
        <time>2017-11-07T15:42:15Z</time>
      </trkpt>
      <trkpt lat="49.40866" lon="1.12293">
        <ele>26</ele>
        <time>2017-11-07T15:42:15Z</time>
      </trkpt>
      <trkpt lat="49.40862" lon="1.12297">
        <ele>26</ele>
        <time>2017-11-07T15:42:15Z</time>
      </trkpt>
      <trkpt lat="49.40859" lon="1.12301">
        <ele>26</ele>
        <time>2017-11-07T15:42:15Z</time>
      </trkpt>
      <trkpt lat="49.40856" lon="1.12305">
        <ele>26</ele>
        <time>2017-11-07T15:42:31Z</time>
      </trkpt>
      <trkpt lat="49.40854" lon="1.12308">
        <ele>26</ele>
        <time>2017-11-07T15:42:31Z</time>
      </trkpt>
      <trkpt lat="49.40852" lon="1.12313">
        <ele>26</ele>
        <time>2017-11-07T15:42:31Z</time>
      </trkpt>
      <trkpt lat="49.4085" lon="1.12316">
        <ele>26</ele>
        <time>2017-11-07T15:42:31Z</time>
      </trkpt>
      <trkpt lat="49.4085" lon="1.12332">
        <ele>26</ele>
        <time>2017-11-07T15:44:31Z</time>
      </trkpt>
      <trkpt lat="49.40851" lon="1.12332">
        <ele>26</ele>
        <time>2017-11-07T15:44:31Z</time>
      </trkpt>
      <trkpt lat="49.40852" lon="1.12334">
        <ele>26</ele>
        <time>2017-11-07T15:44:31Z</time>
      </trkpt>
      <trkpt lat="49.40855" lon="1.12337">
        <ele>26</ele>
        <time>2017-11-07T15:44:31Z</time>
      </trkpt>
      <trkpt lat="49.40857" lon="1.1234">
        <ele>26</ele>
        <time>2017-11-07T15:44:31Z</time>
      </trkpt>
      <trkpt lat="49.40859" lon="1.12341">
        <ele>26</ele>
        <time>2017-11-07T15:44:51Z</time>
      </trkpt>
      <trkpt lat="49.40861" lon="1.12342">
        <ele>26</ele>
        <time>2017-11-07T15:44:51Z</time>
      </trkpt>
      <trkpt lat="49.40863" lon="1.12343">
        <ele>26</ele>
        <time>2017-11-07T15:44:51Z</time>
      </trkpt>
      <trkpt lat="49.40866" lon="1.12346">
        <ele>26</ele>
        <time>2017-11-07T15:44:51Z</time>
      </trkpt>
      <trkpt lat="49.40869" lon="1.12347">
        <ele>26</ele>
        <time>2017-11-07T15:44:51Z</time>
      </trkpt>
      <trkpt lat="49.40871" lon="1.12347">
        <ele>26</ele>
        <time>2017-11-07T15:45:07Z</time>
      </trkpt>
      <trkpt lat="49.40872" lon="1.12348">
        <ele>26</ele>
        <time>2017-11-07T15:45:07Z</time>
      </trkpt>
      <trkpt lat="49.40875" lon="1.12349">
        <ele>26</ele>
        <time>2017-11-07T15:45:07Z</time>
      </trkpt>
      <trkpt lat="49.4088" lon="1.12349">
        <ele>37</ele>
        <time>2017-11-07T15:45:07Z</time>
      </trkpt>
      <trkpt lat="49.40884" lon="1.12349">
        <ele>37</ele>
        <time>2017-11-07T15:45:23Z</time>
      </trkpt>
      <trkpt lat="49.40887" lon="1.12349">
        <ele>37</ele>
        <time>2017-11-07T15:45:23Z</time>
      </trkpt>
      <trkpt lat="49.40891" lon="1.12348">
        <ele>37</ele>
        <time>2017-11-07T15:45:23Z</time>
      </trkpt>
      <trkpt lat="49.40896" lon="1.12346">
        <ele>37</ele>
        <time>2017-11-07T15:45:23Z</time>
      </trkpt>
      <trkpt lat="49.40901" lon="1.12351">
        <ele>37</ele>
        <time>2017-11-07T15:45:51Z</time>
      </trkpt>
      <trkpt lat="49.40902" lon="1.12354">
        <ele>37</ele>
        <time>2017-11-07T15:45:51Z</time>
      </trkpt>
      <trkpt lat="49.40903" lon="1.12355">
        <ele>37</ele>
        <time>2017-11-07T15:45:51Z</time>
      </trkpt>
      <trkpt lat="49.40903" lon="1.12357">
        <ele>37</ele>
        <time>2017-11-07T15:45:51Z</time>
      </trkpt>
      <trkpt lat="49.40902" lon="1.12361">
        <ele>37</ele>
        <time>2017-11-07T15:45:51Z</time>
      </trkpt>
      <trkpt lat="49.40902" lon="1.12367">
        <ele>37</ele>
        <time>2017-11-07T15:46:15Z</time>
      </trkpt>
      <trkpt lat="49.40902" lon="1.1237">
        <ele>37</ele>
        <time>2017-11-07T15:46:15Z</time>
      </trkpt>
      <trkpt lat="49.40902" lon="1.12372">
        <ele>37</ele>
        <time>2017-11-07T15:46:15Z</time>
      </trkpt>
      <trkpt lat="49.40901" lon="1.12376">
        <ele>58</ele>
        <time>2017-11-07T15:46:15Z</time>
      </trkpt>
      <trkpt lat="49.409" lon="1.12379">
        <ele>58</ele>
        <time>2017-11-07T15:46:15Z</time>
      </trkpt>
      <trkpt lat="49.40898" lon="1.12386">
        <ele>58</ele>
        <time>2017-11-07T15:46:43Z</time>
      </trkpt>
      <trkpt lat="49.40898" lon="1.12388">
        <ele>58</ele>
        <time>2017-11-07T15:46:43Z</time>
      </trkpt>
      <trkpt lat="49.40897" lon="1.12389">
        <ele>58</ele>
        <time>2017-11-07T15:46:43Z</time>
      </trkpt>
      <trkpt lat="49.40896" lon="1.12392">
        <ele>58</ele>
        <time>2017-11-07T15:46:43Z</time>
      </trkpt>
      <trkpt lat="49.40894" lon="1.12398">
        <ele>58</ele>
        <time>2017-11-07T15:46:43Z</time>
      </trkpt>
      <trkpt lat="49.40892" lon="1.1241">
        <ele>58</ele>
        <time>2017-11-07T15:47:11Z</time>
      </trkpt>
      <trkpt lat="49.40892" lon="1.12411">
        <ele>58</ele>
        <time>2017-11-07T15:47:11Z</time>
      </trkpt>
      <trkpt lat="49.40892" lon="1.12413">
        <ele>58</ele>
        <time>2017-11-07T15:47:11Z</time>
      </trkpt>
      <trkpt lat="49.40893" lon="1.12415">
        <ele>58</ele>
        <time>2017-11-07T15:47:11Z</time>
      </trkpt>
      <trkpt lat="49.40893" lon="1.12419">
        <ele>58</ele>
        <time>2017-11-07T15:47:11Z</time>
      </trkpt>
      <trkpt lat="49.40893" lon="1.12424">
        <ele>58</ele>
        <time>2017-11-07T15:47:35Z</time>
      </trkpt>
      <trkpt lat="49.40893" lon="1.12427">
        <ele>58</ele>
        <time>2017-11-07T15:47:35Z</time>
      </trkpt>
      <trkpt lat="49.40892" lon="1.12431">
        <ele>58</ele>
        <time>2017-11-07T15:47:35Z</time>
      </trkpt>
      <trkpt lat="49.4089" lon="1.12433">
        <ele>58</ele>
        <time>2017-11-07T15:47:35Z</time>
      </trkpt>
      <trkpt lat="49.40887" lon="1.12435">
        <ele>58</ele>
        <time>2017-11-07T15:47:35Z</time>
      </trkpt>
      <trkpt lat="49.40884" lon="1.12435">
        <ele>58</ele>
        <time>2017-11-07T15:47:51Z</time>
      </trkpt>
      <trkpt lat="49.4088" lon="1.12436">
        <ele>58</ele>
        <time>2017-11-07T15:47:51Z</time>
      </trkpt>
      <trkpt lat="49.40875" lon="1.12437">
        <ele>48</ele>
        <time>2017-11-07T15:47:51Z</time>
      </trkpt>
      <trkpt lat="49.40872" lon="1.12435">
        <ele>48</ele>
        <time>2017-11-07T15:47:51Z</time>
      </trkpt>
      <trkpt lat="49.40869" lon="1.12436">
        <ele>48</ele>
        <time>2017-11-07T15:48:07Z</time>
      </trkpt>
      <trkpt lat="49.40865" lon="1.12434">
        <ele>48</ele>
        <time>2017-11-07T15:48:07Z</time>
      </trkpt>
      <trkpt lat="49.40861" lon="1.12432">
        <ele>48</ele>
        <time>2017-11-07T15:48:07Z</time>
      </trkpt>
      <trkpt lat="49.40857" lon="1.12431">
        <ele>48</ele>
        <time>2017-11-07T15:48:07Z</time>
      </trkpt>
      <trkpt lat="49.40853" lon="1.12431">
        <ele>48</ele>
        <time>2017-11-07T15:48:23Z</time>
      </trkpt>
      <trkpt lat="49.40848" lon="1.12432">
        <ele>48</ele>
        <time>2017-11-07T15:48:23Z</time>
      </trkpt>
      <trkpt lat="49.40843" lon="1.12434">
        <ele>48</ele>
        <time>2017-11-07T15:48:23Z</time>
      </trkpt>
      <trkpt lat="49.40839" lon="1.12435">
        <ele>48</ele>
        <time>2017-11-07T15:48:23Z</time>
      </trkpt>
      <trkpt lat="49.40834" lon="1.12436">
        <ele>48</ele>
        <time>2017-11-07T15:48:39Z</time>
      </trkpt>
      <trkpt lat="49.40831" lon="1.12437">
        <ele>48</ele>
        <time>2017-11-07T15:48:39Z</time>
      </trkpt>
      <trkpt lat="49.40827" lon="1.12438">
        <ele>48</ele>
        <time>2017-11-07T15:48:39Z</time>
      </trkpt>
      <trkpt lat="49.40823" lon="1.12438">
        <ele>48</ele>
        <time>2017-11-07T15:48:39Z</time>
      </trkpt>
      <trkpt lat="49.4082" lon="1.12439">
        <ele>48</ele>
        <time>2017-11-07T15:48:55Z</time>
      </trkpt>
      <trkpt lat="49.40817" lon="1.1244">
        <ele>48</ele>
        <time>2017-11-07T15:48:55Z</time>
      </trkpt>
      <trkpt lat="49.40814" lon="1.12441">
        <ele>48</ele>
        <time>2017-11-07T15:48:55Z</time>
      </trkpt>
      <trkpt lat="49.40811" lon="1.12443">
        <ele>48</ele>
        <time>2017-11-07T15:48:55Z</time>
      </trkpt>
      <trkpt lat="49.40808" lon="1.12443">
        <ele>48</ele>
        <time>2017-11-07T15:49:11Z</time>
      </trkpt>
      <trkpt lat="49.40804" lon="1.12445">
        <ele>48</ele>
        <time>2017-11-07T15:49:11Z</time>
      </trkpt>
      <trkpt lat="49.40801" lon="1.12445">
        <ele>48</ele>
        <time>2017-11-07T15:49:11Z</time>
      </trkpt>
      <trkpt lat="49.40797" lon="1.12448">
        <ele>48</ele>
        <time>2017-11-07T15:49:11Z</time>
      </trkpt>
      <trkpt lat="49.40795" lon="1.12449">
        <ele>48</ele>
        <time>2017-11-07T15:49:27Z</time>
      </trkpt>
      <trkpt lat="49.40791" lon="1.12451">
        <ele>40</ele>
        <time>2017-11-07T15:49:27Z</time>
      </trkpt>
      <trkpt lat="49.40788" lon="1.12453">
        <ele>40</ele>
        <time>2017-11-07T15:49:27Z</time>
      </trkpt>
      <trkpt lat="49.40785" lon="1.12454">
        <ele>40</ele>
        <time>2017-11-07T15:49:27Z</time>
      </trkpt>
      <trkpt lat="49.40782" lon="1.12456">
        <ele>40</ele>
        <time>2017-11-07T15:49:43Z</time>
      </trkpt>
      <trkpt lat="49.40779" lon="1.12458">
        <ele>40</ele>
        <time>2017-11-07T15:49:43Z</time>
      </trkpt>
      <trkpt lat="49.40775" lon="1.12461">
        <ele>68</ele>
        <time>2017-11-07T15:49:43Z</time>
      </trkpt>
      <trkpt lat="49.40771" lon="1.12464">
        <ele>68</ele>
        <time>2017-11-07T15:49:43Z</time>
      </trkpt>
      <trkpt lat="49.40767" lon="1.12465">
        <ele>68</ele>
        <time>2017-11-07T15:49:59Z</time>
      </trkpt>
      <trkpt lat="49.40761" lon="1.12467">
        <ele>68</ele>
        <time>2017-11-07T15:49:59Z</time>
      </trkpt>
      <trkpt lat="49.40758" lon="1.12468">
        <ele>68</ele>
        <time>2017-11-07T15:49:59Z</time>
      </trkpt>
      <trkpt lat="49.40754" lon="1.12467">
        <ele>68</ele>
        <time>2017-11-07T15:49:59Z</time>
      </trkpt>
      <trkpt lat="49.4075" lon="1.1247">
        <ele>68</ele>
        <time>2017-11-07T15:50:15Z</time>
      </trkpt>
      <trkpt lat="49.40744" lon="1.12473">
        <ele>68</ele>
        <time>2017-11-07T15:50:15Z</time>
      </trkpt>
      <trkpt lat="49.40739" lon="1.12474">
        <ele>68</ele>
        <time>2017-11-07T15:50:15Z</time>
      </trkpt>
      <trkpt lat="49.40734" lon="1.12475">
        <ele>68</ele>
        <time>2017-11-07T15:50:15Z</time>
      </trkpt>
      <trkpt lat="49.40728" lon="1.12476">
        <ele>68</ele>
        <time>2017-11-07T15:50:31Z</time>
      </trkpt>
      <trkpt lat="49.40723" lon="1.12477">
        <ele>68</ele>
        <time>2017-11-07T15:50:31Z</time>
      </trkpt>
      <trkpt lat="49.40719" lon="1.12479">
        <ele>68</ele>
        <time>2017-11-07T15:50:31Z</time>
      </trkpt>
      <trkpt lat="49.40713" lon="1.12479">
        <ele>68</ele>
        <time>2017-11-07T15:50:31Z</time>
      </trkpt>
      <trkpt lat="49.40707" lon="1.1248">
        <ele>61</ele>
        <time>2017-11-07T15:50:47Z</time>
      </trkpt>
      <trkpt lat="49.40702" lon="1.12481">
        <ele>61</ele>
        <time>2017-11-07T15:50:47Z</time>
      </trkpt>
      <trkpt lat="49.40699" lon="1.12482">
        <ele>61</ele>
        <time>2017-11-07T15:50:47Z</time>
      </trkpt>
      <trkpt lat="49.40694" lon="1.12482">
        <ele>61</ele>
        <time>2017-11-07T15:50:47Z</time>
      </trkpt>
      <trkpt lat="49.4069" lon="1.12482">
        <ele>61</ele>
        <time>2017-11-07T15:51:03Z</time>
      </trkpt>
      <trkpt lat="49.40686" lon="1.12483">
        <ele>61</ele>
        <time>2017-11-07T15:51:03Z</time>
      </trkpt>
      <trkpt lat="49.4068" lon="1.12484">
        <ele>61</ele>
        <time>2017-11-07T15:51:03Z</time>
      </trkpt>
      <trkpt lat="49.40677" lon="1.12485">
        <ele>61</ele>
        <time>2017-11-07T15:51:03Z</time>
      </trkpt>
      <trkpt lat="49.40673" lon="1.12487">
        <ele>61</ele>
        <time>2017-11-07T15:51:19Z</time>
      </trkpt>
      <trkpt lat="49.40668" lon="1.12489">
        <ele>61</ele>
        <time>2017-11-07T15:51:19Z</time>
      </trkpt>
      <trkpt lat="49.40665" lon="1.1249">
        <ele>61</ele>
        <time>2017-11-07T15:51:19Z</time>
      </trkpt>
      <trkpt lat="49.40661" lon="1.12492">
        <ele>61</ele>
        <time>2017-11-07T15:51:19Z</time>
      </trkpt>
      <trkpt lat="49.40658" lon="1.12493">
        <ele>61</ele>
        <time>2017-11-07T15:51:35Z</time>
      </trkpt>
      <trkpt lat="49.40654" lon="1.12494">
        <ele>61</ele>
        <time>2017-11-07T15:51:35Z</time>
      </trkpt>
      <trkpt lat="49.4065" lon="1.12496">
        <ele>61</ele>
        <time>2017-11-07T15:51:35Z</time>
      </trkpt>
      <trkpt lat="49.40648" lon="1.12496">
        <ele>61</ele>
        <time>2017-11-07T15:51:35Z</time>
      </trkpt>
      <trkpt lat="49.40645" lon="1.12497">
        <ele>61</ele>
        <time>2017-11-07T15:51:51Z</time>
      </trkpt>
      <trkpt lat="49.40641" lon="1.12498">
        <ele>61</ele>
        <time>2017-11-07T15:51:51Z</time>
      </trkpt>
      <trkpt lat="49.40637" lon="1.12496">
        <ele>61</ele>
        <time>2017-11-07T15:51:51Z</time>
      </trkpt>
      <trkpt lat="49.40633" lon="1.12496">
        <ele>61</ele>
        <time>2017-11-07T15:51:51Z</time>
      </trkpt>
      <trkpt lat="49.40629" lon="1.12499">
        <ele>61</ele>
        <time>2017-11-07T15:52:07Z</time>
      </trkpt>
      <trkpt lat="49.40625" lon="1.12502">
        <ele>61</ele>
        <time>2017-11-07T15:52:07Z</time>
      </trkpt>
      <trkpt lat="49.40621" lon="1.12504">
        <ele>59</ele>
        <time>2017-11-07T15:52:07Z</time>
      </trkpt>
      <trkpt lat="49.40617" lon="1.12506">
        <ele>59</ele>
        <time>2017-11-07T15:52:07Z</time>
      </trkpt>
      <trkpt lat="49.40614" lon="1.12507">
        <ele>59</ele>
        <time>2017-11-07T15:52:23Z</time>
      </trkpt>
      <trkpt lat="49.40611" lon="1.12509">
        <ele>59</ele>
        <time>2017-11-07T15:52:23Z</time>
      </trkpt>
      <trkpt lat="49.40607" lon="1.12509">
        <ele>59</ele>
        <time>2017-11-07T15:52:23Z</time>
      </trkpt>
      <trkpt lat="49.40605" lon="1.12509">
        <ele>59</ele>
        <time>2017-11-07T15:52:23Z</time>
      </trkpt>
      <trkpt lat="49.40601" lon="1.1251">
        <ele>59</ele>
        <time>2017-11-07T15:52:43Z</time>
      </trkpt>
      <trkpt lat="49.40598" lon="1.1251">
        <ele>59</ele>
        <time>2017-11-07T15:52:43Z</time>
      </trkpt>
      <trkpt lat="49.40595" lon="1.12512">
        <ele>59</ele>
        <time>2017-11-07T15:52:43Z</time>
      </trkpt>
      <trkpt lat="49.40592" lon="1.12513">
        <ele>59</ele>
        <time>2017-11-07T15:52:43Z</time>
      </trkpt>
      <trkpt lat="49.40587" lon="1.12514">
        <ele>59</ele>
        <time>2017-11-07T15:52:43Z</time>
      </trkpt>
      <trkpt lat="49.40584" lon="1.12514">
        <ele>59</ele>
        <time>2017-11-07T15:52:59Z</time>
      </trkpt>
      <trkpt lat="49.40578" lon="1.12514">
        <ele>59</ele>
        <time>2017-11-07T15:52:59Z</time>
      </trkpt>
      <trkpt lat="49.40573" lon="1.12514">
        <ele>59</ele>
        <time>2017-11-07T15:52:59Z</time>
      </trkpt>
      <trkpt lat="49.40569" lon="1.12514">
        <ele>59</ele>
        <time>2017-11-07T15:52:59Z</time>
      </trkpt>
      <trkpt lat="49.40565" lon="1.12515">
        <ele>59</ele>
        <time>2017-11-07T15:53:15Z</time>
      </trkpt>
      <trkpt lat="49.40562" lon="1.12515">
        <ele>59</ele>
        <time>2017-11-07T15:53:15Z</time>
      </trkpt>
      <trkpt lat="49.40557" lon="1.12515">
        <ele>59</ele>
        <time>2017-11-07T15:53:15Z</time>
      </trkpt>
      <trkpt lat="49.40551" lon="1.12516">
        <ele>59</ele>
        <time>2017-11-07T15:53:15Z</time>
      </trkpt>
      <trkpt lat="49.40547" lon="1.12518">
        <ele>59</ele>
        <time>2017-11-07T15:53:31Z</time>
      </trkpt>
      <trkpt lat="49.40542" lon="1.12519">
        <ele>50</ele>
        <time>2017-11-07T15:53:31Z</time>
      </trkpt>
      <trkpt lat="49.40538" lon="1.1252">
        <ele>50</ele>
        <time>2017-11-07T15:53:31Z</time>
      </trkpt>
      <trkpt lat="49.40534" lon="1.12523">
        <ele>50</ele>
        <time>2017-11-07T15:53:31Z</time>
      </trkpt>
      <trkpt lat="49.40531" lon="1.12527">
        <ele>50</ele>
        <time>2017-11-07T15:53:51Z</time>
      </trkpt>
      <trkpt lat="49.40528" lon="1.12531">
        <ele>50</ele>
        <time>2017-11-07T15:53:51Z</time>
      </trkpt>
      <trkpt lat="49.40527" lon="1.12534">
        <ele>50</ele>
        <time>2017-11-07T15:53:51Z</time>
      </trkpt>
      <trkpt lat="49.40526" lon="1.12536">
        <ele>50</ele>
        <time>2017-11-07T15:53:51Z</time>
      </trkpt>
      <trkpt lat="49.40525" lon="1.12537">
        <ele>50</ele>
        <time>2017-11-07T15:53:51Z</time>
      </trkpt>
      <trkpt lat="49.40521" lon="1.12544">
        <ele>84</ele>
        <time>2017-11-07T15:54:31Z</time>
      </trkpt>
      <trkpt lat="49.40519" lon="1.12545">
        <ele>84</ele>
        <time>2017-11-07T15:54:31Z</time>
      </trkpt>
      <trkpt lat="49.40519" lon="1.12546">
        <ele>84</ele>
        <time>2017-11-07T15:54:31Z</time>
      </trkpt>
      <trkpt lat="49.40518" lon="1.12548">
        <ele>84</ele>
        <time>2017-11-07T15:54:31Z</time>
      </trkpt>
      <trkpt lat="49.40517" lon="1.12549">
        <ele>84</ele>
        <time>2017-11-07T15:54:31Z</time>
      </trkpt>
      <trkpt lat="49.40517" lon="1.12551">
        <ele>84</ele>
        <time>2017-11-07T15:54:51Z</time>
      </trkpt>
      <trkpt lat="49.40515" lon="1.12553">
        <ele>84</ele>
        <time>2017-11-07T15:54:51Z</time>
      </trkpt>
      <trkpt lat="49.40513" lon="1.12554">
        <ele>84</ele>
        <time>2017-11-07T15:54:51Z</time>
      </trkpt>
      <trkpt lat="49.40511" lon="1.12556">
        <ele>84</ele>
        <time>2017-11-07T15:54:51Z</time>
      </trkpt>
      <trkpt lat="49.40509" lon="1.1256">
        <ele>84</ele>
        <time>2017-11-07T15:54:51Z</time>
      </trkpt>
      <trkpt lat="49.40501" lon="1.12566">
        <ele>84</ele>
        <time>2017-11-07T15:55:23Z</time>
      </trkpt>
      <trkpt lat="49.405" lon="1.12567">
        <ele>84</ele>
        <time>2017-11-07T15:55:23Z</time>
      </trkpt>
      <trkpt lat="49.405" lon="1.12568">
        <ele>84</ele>
        <time>2017-11-07T15:55:23Z</time>
      </trkpt>
      <trkpt lat="49.40499" lon="1.1257">
        <ele>84</ele>
        <time>2017-11-07T15:55:23Z</time>
      </trkpt>
      <trkpt lat="49.40497" lon="1.12573">
        <ele>84</ele>
        <time>2017-11-07T15:55:23Z</time>
      </trkpt>
      <trkpt lat="49.40494" lon="1.12573">
        <ele>84</ele>
        <time>2017-11-07T15:55:39Z</time>
      </trkpt>
      <trkpt lat="49.40491" lon="1.12573">
        <ele>84</ele>
        <time>2017-11-07T15:55:39Z</time>
      </trkpt>
      <trkpt lat="49.40488" lon="1.12574">
        <ele>84</ele>
        <time>2017-11-07T15:55:39Z</time>
      </trkpt>
      <trkpt lat="49.40484" lon="1.12575">
        <ele>84</ele>
        <time>2017-11-07T15:55:39Z</time>
      </trkpt>
      <trkpt lat="49.40479" lon="1.12575">
        <ele>84</ele>
        <time>2017-11-07T15:55:55Z</time>
      </trkpt>
      <trkpt lat="49.40476" lon="1.12576">
        <ele>84</ele>
        <time>2017-11-07T15:55:55Z</time>
      </trkpt>
      <trkpt lat="49.40471" lon="1.12576">
        <ele>84</ele>
        <time>2017-11-07T15:55:55Z</time>
      </trkpt>
      <trkpt lat="49.40468" lon="1.12576">
        <ele>84</ele>
        <time>2017-11-07T15:55:55Z</time>
      </trkpt>
      <trkpt lat="49.40462" lon="1.12576">
        <ele>84</ele>
        <time>2017-11-07T15:56:11Z</time>
      </trkpt>
      <trkpt lat="49.40458" lon="1.12576">
        <ele>66</ele>
        <time>2017-11-07T15:56:11Z</time>
      </trkpt>
      <trkpt lat="49.40454" lon="1.12578">
        <ele>66</ele>
        <time>2017-11-07T15:56:11Z</time>
      </trkpt>
      <trkpt lat="49.40449" lon="1.12581">
        <ele>66</ele>
        <time>2017-11-07T15:56:11Z</time>
      </trkpt>
      <trkpt lat="49.40443" lon="1.12584">
        <ele>66</ele>
        <time>2017-11-07T15:56:27Z</time>
      </trkpt>
      <trkpt lat="49.4044" lon="1.12587">
        <ele>66</ele>
        <time>2017-11-07T15:56:27Z</time>
      </trkpt>
      <trkpt lat="49.40434" lon="1.1259">
        <ele>66</ele>
        <time>2017-11-07T15:56:27Z</time>
      </trkpt>
      <trkpt lat="49.4043" lon="1.12592">
        <ele>66</ele>
        <time>2017-11-07T15:56:27Z</time>
      </trkpt>
      <trkpt lat="49.40425" lon="1.12595">
        <ele>66</ele>
        <time>2017-11-07T15:56:43Z</time>
      </trkpt>
      <trkpt lat="49.40422" lon="1.12598">
        <ele>66</ele>
        <time>2017-11-07T15:56:43Z</time>
      </trkpt>
      <trkpt lat="49.40418" lon="1.126">
        <ele>66</ele>
        <time>2017-11-07T15:56:43Z</time>
      </trkpt>
      <trkpt lat="49.40415" lon="1.12603">
        <ele>66</ele>
        <time>2017-11-07T15:56:43Z</time>
      </trkpt>
      <trkpt lat="49.40411" lon="1.12607">
        <ele>66</ele>
        <time>2017-11-07T15:56:59Z</time>
      </trkpt>
      <trkpt lat="49.40409" lon="1.1261">
        <ele>66</ele>
        <time>2017-11-07T15:56:59Z</time>
      </trkpt>
      <trkpt lat="49.40406" lon="1.12613">
        <ele>66</ele>
        <time>2017-11-07T15:56:59Z</time>
      </trkpt>
      <trkpt lat="49.40403" lon="1.12617">
        <ele>66</ele>
        <time>2017-11-07T15:56:59Z</time>
      </trkpt>
      <trkpt lat="49.404" lon="1.1262">
        <ele>66</ele>
        <time>2017-11-07T15:57:19Z</time>
      </trkpt>
      <trkpt lat="49.404" lon="1.12625">
        <ele>66</ele>
        <time>2017-11-07T15:57:19Z</time>
      </trkpt>
      <trkpt lat="49.40401" lon="1.12628">
        <ele>83</ele>
        <time>2017-11-07T15:57:19Z</time>
      </trkpt>
      <trkpt lat="49.40402" lon="1.1263">
        <ele>83</ele>
        <time>2017-11-07T15:57:19Z</time>
      </trkpt>
      <trkpt lat="49.40403" lon="1.12636">
        <ele>83</ele>
        <time>2017-11-07T15:57:19Z</time>
      </trkpt>
      <trkpt lat="49.40404" lon="1.12639">
        <ele>83</ele>
        <time>2017-11-07T15:57:35Z</time>
      </trkpt>
      <trkpt lat="49.40405" lon="1.12645">
        <ele>83</ele>
        <time>2017-11-07T15:57:35Z</time>
      </trkpt>
      <trkpt lat="49.40406" lon="1.12648">
        <ele>83</ele>
        <time>2017-11-07T15:57:35Z</time>
      </trkpt>
      <trkpt lat="49.40407" lon="1.12654">
        <ele>83</ele>
        <time>2017-11-07T15:57:35Z</time>
      </trkpt>
      <trkpt lat="49.40408" lon="1.12657">
        <ele>83</ele>
        <time>2017-11-07T15:57:51Z</time>
      </trkpt>
      <trkpt lat="49.40409" lon="1.12661">
        <ele>83</ele>
        <time>2017-11-07T15:57:51Z</time>
      </trkpt>
      <trkpt lat="49.4041" lon="1.12667">
        <ele>83</ele>
        <time>2017-11-07T15:57:51Z</time>
      </trkpt>
      <trkpt lat="49.40412" lon="1.1267">
        <ele>83</ele>
        <time>2017-11-07T15:57:51Z</time>
      </trkpt>
      <trkpt lat="49.40413" lon="1.12678">
        <ele>83</ele>
        <time>2017-11-07T16:09:39Z</time>
      </trkpt>
      <trkpt lat="49.40414" lon="1.1268">
        <ele>83</ele>
        <time>2017-11-07T16:09:39Z</time>
      </trkpt>
      <trkpt lat="49.40415" lon="1.12681">
        <ele>83</ele>
        <time>2017-11-07T16:09:39Z</time>
      </trkpt>
      <trkpt lat="49.40416" lon="1.12683">
        <ele>83</ele>
        <time>2017-11-07T16:09:39Z</time>
      </trkpt>
      <trkpt lat="49.40417" lon="1.12684">
        <ele>83</ele>
        <time>2017-11-07T16:09:39Z</time>
      </trkpt>
      <trkpt lat="49.40419" lon="1.12687">
        <ele>83</ele>
        <time>2017-11-07T16:09:59Z</time>
      </trkpt>
      <trkpt lat="49.4042" lon="1.1269">
        <ele>83</ele>
        <time>2017-11-07T16:09:59Z</time>
      </trkpt>
      <trkpt lat="49.40421" lon="1.12692">
        <ele>83</ele>
        <time>2017-11-07T16:09:59Z</time>
      </trkpt>
      <trkpt lat="49.40423" lon="1.12697">
        <ele>83</ele>
        <time>2017-11-07T16:09:59Z</time>
      </trkpt>
      <trkpt lat="49.40425" lon="1.12701">
        <ele>83</ele>
        <time>2017-11-07T16:09:59Z</time>
      </trkpt>
      <trkpt lat="49.40427" lon="1.12705">
        <ele>83</ele>
        <time>2017-11-07T16:10:19Z</time>
      </trkpt>
      <trkpt lat="49.40428" lon="1.12709">
        <ele>82</ele>
        <time>2017-11-07T16:10:19Z</time>
      </trkpt>
      <trkpt lat="49.4043" lon="1.12713">
        <ele>82</ele>
        <time>2017-11-07T16:10:19Z</time>
      </trkpt>
      <trkpt lat="49.40431" lon="1.12716">
        <ele>82</ele>
        <time>2017-11-07T16:10:19Z</time>
      </trkpt>
      <trkpt lat="49.40433" lon="1.12719">
        <ele>82</ele>
        <time>2017-11-07T16:10:19Z</time>
      </trkpt>
      <trkpt lat="49.40435" lon="1.12722">
        <ele>82</ele>
        <time>2017-11-07T16:10:39Z</time>
      </trkpt>
      <trkpt lat="49.40437" lon="1.12725">
        <ele>82</ele>
        <time>2017-11-07T16:10:39Z</time>
      </trkpt>
      <trkpt lat="49.40438" lon="1.12728">
        <ele>82</ele>
        <time>2017-11-07T16:10:39Z</time>
      </trkpt>
      <trkpt lat="49.40439" lon="1.12731">
        <ele>82</ele>
        <time>2017-11-07T16:10:39Z</time>
      </trkpt>
      <trkpt lat="49.40442" lon="1.12736">
        <ele>82</ele>
        <time>2017-11-07T16:10:39Z</time>
      </trkpt>
      <trkpt lat="49.40445" lon="1.12739">
        <ele>82</ele>
        <time>2017-11-07T16:10:59Z</time>
      </trkpt>
      <trkpt lat="49.40447" lon="1.12742">
        <ele>82</ele>
        <time>2017-11-07T16:10:59Z</time>
      </trkpt>
      <trkpt lat="49.40449" lon="1.12744">
        <ele>82</ele>
        <time>2017-11-07T16:10:59Z</time>
      </trkpt>
      <trkpt lat="49.40451" lon="1.12747">
        <ele>82</ele>
        <time>2017-11-07T16:10:59Z</time>
      </trkpt>
      <trkpt lat="49.40453" lon="1.1275">
        <ele>82</ele>
        <time>2017-11-07T16:10:59Z</time>
      </trkpt>
      <trkpt lat="49.40455" lon="1.12752">
        <ele>82</ele>
        <time>2017-11-07T16:11:19Z</time>
      </trkpt>
      <trkpt lat="49.40457" lon="1.12752">
        <ele>82</ele>
        <time>2017-11-07T16:11:19Z</time>
      </trkpt>
      <trkpt lat="49.40459" lon="1.12754">
        <ele>119</ele>
        <time>2017-11-07T16:11:19Z</time>
      </trkpt>
      <trkpt lat="49.40462" lon="1.12756">
        <ele>119</ele>
        <time>2017-11-07T16:11:19Z</time>
      </trkpt>
      <trkpt lat="49.40465" lon="1.12757">
        <ele>119</ele>
        <time>2017-11-07T16:11:19Z</time>
      </trkpt>
      <trkpt lat="49.40467" lon="1.12759">
        <ele>119</ele>
        <time>2017-11-07T16:11:39Z</time>
      </trkpt>
      <trkpt lat="49.40469" lon="1.12762">
        <ele>119</ele>
        <time>2017-11-07T16:11:39Z</time>
      </trkpt>
      <trkpt lat="49.40472" lon="1.12765">
        <ele>119</ele>
        <time>2017-11-07T16:11:39Z</time>
      </trkpt>
      <trkpt lat="49.40473" lon="1.12768">
        <ele>119</ele>
        <time>2017-11-07T16:11:39Z</time>
      </trkpt>
      <trkpt lat="49.40474" lon="1.12772">
        <ele>119</ele>
        <time>2017-11-07T16:11:39Z</time>
      </trkpt>
      <trkpt lat="49.40476" lon="1.12775">
        <ele>119</ele>
        <time>2017-11-07T16:11:59Z</time>
      </trkpt>
      <trkpt lat="49.40479" lon="1.12778">
        <ele>119</ele>
        <time>2017-11-07T16:11:59Z</time>
      </trkpt>
      <trkpt lat="49.40481" lon="1.12781">
        <ele>119</ele>
        <time>2017-11-07T16:11:59Z</time>
      </trkpt>
      <trkpt lat="49.40483" lon="1.1278">
        <ele>119</ele>
        <time>2017-11-07T16:11:59Z</time>
      </trkpt>
      <trkpt lat="49.40485" lon="1.12781">
        <ele>119</ele>
        <time>2017-11-07T16:11:59Z</time>
      </trkpt>
      <trkpt lat="49.40487" lon="1.12783">
        <ele>119</ele>
        <time>2017-11-07T16:12:15Z</time>
      </trkpt>
      <trkpt lat="49.4049" lon="1.12785">
        <ele>119</ele>
        <time>2017-11-07T16:12:15Z</time>
      </trkpt>
      <trkpt lat="49.40492" lon="1.12789">
        <ele>119</ele>
        <time>2017-11-07T16:12:15Z</time>
      </trkpt>
      <trkpt lat="49.40495" lon="1.12792">
        <ele>119</ele>
        <time>2017-11-07T16:12:15Z</time>
      </trkpt>
      <trkpt lat="49.40497" lon="1.12795">
        <ele>108</ele>
        <time>2017-11-07T16:12:35Z</time>
      </trkpt>
      <trkpt lat="49.40499" lon="1.128">
        <ele>108</ele>
        <time>2017-11-07T16:12:35Z</time>
      </trkpt>
      <trkpt lat="49.40502" lon="1.12801">
        <ele>108</ele>
        <time>2017-11-07T16:12:35Z</time>
      </trkpt>
      <trkpt lat="49.40503" lon="1.12804">
        <ele>108</ele>
        <time>2017-11-07T16:12:35Z</time>
      </trkpt>
      <trkpt lat="49.40506" lon="1.12808">
        <ele>108</ele>
        <time>2017-11-07T16:12:35Z</time>
      </trkpt>
      <trkpt lat="49.40509" lon="1.12812">
        <ele>108</ele>
        <time>2017-11-07T16:12:51Z</time>
      </trkpt>
      <trkpt lat="49.40512" lon="1.12816">
        <ele>108</ele>
        <time>2017-11-07T16:12:51Z</time>
      </trkpt>
      <trkpt lat="49.40514" lon="1.12818">
        <ele>108</ele>
        <time>2017-11-07T16:12:51Z</time>
      </trkpt>
      <trkpt lat="49.40515" lon="1.12823">
        <ele>108</ele>
        <time>2017-11-07T16:12:51Z</time>
      </trkpt>
      <trkpt lat="49.40516" lon="1.12828">
        <ele>108</ele>
        <time>2017-11-07T16:13:11Z</time>
      </trkpt>
      <trkpt lat="49.40518" lon="1.12832">
        <ele>108</ele>
        <time>2017-11-07T16:13:11Z</time>
      </trkpt>
      <trkpt lat="49.4052" lon="1.12834">
        <ele>108</ele>
        <time>2017-11-07T16:13:11Z</time>
      </trkpt>
      <trkpt lat="49.40524" lon="1.12834">
        <ele>108</ele>
        <time>2017-11-07T16:13:11Z</time>
      </trkpt>
      <trkpt lat="49.40525" lon="1.12834">
        <ele>108</ele>
        <time>2017-11-07T16:13:11Z</time>
      </trkpt>
      <trkpt lat="49.40527" lon="1.12836">
        <ele>108</ele>
        <time>2017-11-07T16:13:27Z</time>
      </trkpt>
      <trkpt lat="49.40529" lon="1.1284">
        <ele>108</ele>
        <time>2017-11-07T16:13:27Z</time>
      </trkpt>
      <trkpt lat="49.40532" lon="1.12842">
        <ele>108</ele>
        <time>2017-11-07T16:13:27Z</time>
      </trkpt>
      <trkpt lat="49.40534" lon="1.12846">
        <ele>108</ele>
        <time>2017-11-07T16:13:27Z</time>
      </trkpt>
      <trkpt lat="49.40537" lon="1.12849">
        <ele>108</ele>
        <time>2017-11-07T16:13:43Z</time>
      </trkpt>
      <trkpt lat="49.40539" lon="1.12852">
        <ele>108</ele>
        <time>2017-11-07T16:13:43Z</time>
      </trkpt>
      <trkpt lat="49.40541" lon="1.12857">
        <ele>108</ele>
        <time>2017-11-07T16:13:43Z</time>
      </trkpt>
      <trkpt lat="49.40542" lon="1.12862">
        <ele>137</ele>
        <time>2017-11-07T16:13:43Z</time>
      </trkpt>
      <trkpt lat="49.40544" lon="1.12866">
        <ele>137</ele>
        <time>2017-11-07T16:14:03Z</time>
      </trkpt>
      <trkpt lat="49.40546" lon="1.12868">
        <ele>137</ele>
        <time>2017-11-07T16:14:03Z</time>
      </trkpt>
      <trkpt lat="49.40548" lon="1.12871">
        <ele>137</ele>
        <time>2017-11-07T16:14:03Z</time>
      </trkpt>
      <trkpt lat="49.4055" lon="1.12873">
        <ele>137</ele>
        <time>2017-11-07T16:14:03Z</time>
      </trkpt>
      <trkpt lat="49.40552" lon="1.12875">
        <ele>137</ele>
        <time>2017-11-07T16:14:03Z</time>
      </trkpt>
      <trkpt lat="49.40554" lon="1.12877">
        <ele>129</ele>
        <time>2017-11-07T16:14:19Z</time>
      </trkpt>
      <trkpt lat="49.40556" lon="1.12881">
        <ele>129</ele>
        <time>2017-11-07T16:14:19Z</time>
      </trkpt>
      <trkpt lat="49.4056" lon="1.12884">
        <ele>129</ele>
        <time>2017-11-07T16:14:19Z</time>
      </trkpt>
      <trkpt lat="49.40562" lon="1.12886">
        <ele>129</ele>
        <time>2017-11-07T16:14:19Z</time>
      </trkpt>
      <trkpt lat="49.40564" lon="1.12887">
        <ele>129</ele>
        <time>2017-11-07T16:14:39Z</time>
      </trkpt>
      <trkpt lat="49.40566" lon="1.12891">
        <ele>129</ele>
        <time>2017-11-07T16:14:39Z</time>
      </trkpt>
      <trkpt lat="49.40569" lon="1.12894">
        <ele>129</ele>
        <time>2017-11-07T16:14:39Z</time>
      </trkpt>
      <trkpt lat="49.4057" lon="1.12896">
        <ele>129</ele>
        <time>2017-11-07T16:14:39Z</time>
      </trkpt>
      <trkpt lat="49.40573" lon="1.12899">
        <ele>129</ele>
        <time>2017-11-07T16:14:39Z</time>
      </trkpt>
      <trkpt lat="49.40577" lon="1.12902">
        <ele>129</ele>
        <time>2017-11-07T16:14:55Z</time>
      </trkpt>
      <trkpt lat="49.40581" lon="1.12906">
        <ele>129</ele>
        <time>2017-11-07T16:14:55Z</time>
      </trkpt>
      <trkpt lat="49.40583" lon="1.12908">
        <ele>129</ele>
        <time>2017-11-07T16:14:55Z</time>
      </trkpt>
      <trkpt lat="49.40587" lon="1.12911">
        <ele>129</ele>
        <time>2017-11-07T16:14:55Z</time>
      </trkpt>
      <trkpt lat="49.40591" lon="1.12914">
        <ele>129</ele>
        <time>2017-11-07T16:15:11Z</time>
      </trkpt>
      <trkpt lat="49.40594" lon="1.12918">
        <ele>129</ele>
        <time>2017-11-07T16:15:11Z</time>
      </trkpt>
      <trkpt lat="49.40595" lon="1.12921">
        <ele>129</ele>
        <time>2017-11-07T16:15:11Z</time>
      </trkpt>
      <trkpt lat="49.40599" lon="1.12926">
        <ele>129</ele>
        <time>2017-11-07T16:15:11Z</time>
      </trkpt>
      <trkpt lat="49.40601" lon="1.12929">
        <ele>129</ele>
        <time>2017-11-07T16:15:31Z</time>
      </trkpt>
      <trkpt lat="49.40605" lon="1.1293">
        <ele>129</ele>
        <time>2017-11-07T16:15:31Z</time>
      </trkpt>
      <trkpt lat="49.40606" lon="1.12933">
        <ele>129</ele>
        <time>2017-11-07T16:15:31Z</time>
      </trkpt>
      <trkpt lat="49.40608" lon="1.12935">
        <ele>129</ele>
        <time>2017-11-07T16:15:31Z</time>
      </trkpt>
      <trkpt lat="49.40612" lon="1.12938">
        <ele>129</ele>
        <time>2017-11-07T16:15:31Z</time>
      </trkpt>
      <trkpt lat="49.40614" lon="1.12942">
        <ele>129</ele>
        <time>2017-11-07T16:15:47Z</time>
      </trkpt>
      <trkpt lat="49.40616" lon="1.12946">
        <ele>129</ele>
        <time>2017-11-07T16:15:47Z</time>
      </trkpt>
      <trkpt lat="49.40617" lon="1.12949">
        <ele>129</ele>
        <time>2017-11-07T16:15:47Z</time>
      </trkpt>
      <trkpt lat="49.4062" lon="1.12953">
        <ele>129</ele>
        <time>2017-11-07T16:15:47Z</time>
      </trkpt>
      <trkpt lat="49.40623" lon="1.12958">
        <ele>129</ele>
        <time>2017-11-07T16:16:03Z</time>
      </trkpt>
      <trkpt lat="49.40624" lon="1.12963">
        <ele>119</ele>
        <time>2017-11-07T16:16:03Z</time>
      </trkpt>
      <trkpt lat="49.40627" lon="1.12967">
        <ele>142</ele>
        <time>2017-11-07T16:16:03Z</time>
      </trkpt>
      <trkpt lat="49.4063" lon="1.12971">
        <ele>142</ele>
        <time>2017-11-07T16:16:03Z</time>
      </trkpt>
      <trkpt lat="49.40632" lon="1.12976">
        <ele>142</ele>
        <time>2017-11-07T16:16:19Z</time>
      </trkpt>
      <trkpt lat="49.40634" lon="1.12979">
        <ele>142</ele>
        <time>2017-11-07T16:16:19Z</time>
      </trkpt>
      <trkpt lat="49.40637" lon="1.12985">
        <ele>142</ele>
        <time>2017-11-07T16:16:19Z</time>
      </trkpt>
      <trkpt lat="49.4064" lon="1.12987">
        <ele>142</ele>
        <time>2017-11-07T16:16:19Z</time>
      </trkpt>
      <trkpt lat="49.40644" lon="1.1299">
        <ele>142</ele>
        <time>2017-11-07T16:16:35Z</time>
      </trkpt>
      <trkpt lat="49.40645" lon="1.12993">
        <ele>142</ele>
        <time>2017-11-07T16:16:35Z</time>
      </trkpt>
      <trkpt lat="49.4065" lon="1.12997">
        <ele>142</ele>
        <time>2017-11-07T16:16:35Z</time>
      </trkpt>
      <trkpt lat="49.40653" lon="1.13">
        <ele>142</ele>
        <time>2017-11-07T16:16:35Z</time>
      </trkpt>
      <trkpt lat="49.40656" lon="1.13002">
        <ele>142</ele>
        <time>2017-11-07T16:16:51Z</time>
      </trkpt>
      <trkpt lat="49.40657" lon="1.13006">
        <ele>142</ele>
        <time>2017-11-07T16:16:51Z</time>
      </trkpt>
      <trkpt lat="49.40659" lon="1.13009">
        <ele>142</ele>
        <time>2017-11-07T16:16:51Z</time>
      </trkpt>
      <trkpt lat="49.40661" lon="1.13016">
        <ele>142</ele>
        <time>2017-11-07T16:16:51Z</time>
      </trkpt>
      <trkpt lat="49.40663" lon="1.13021">
        <ele>142</ele>
        <time>2017-11-07T16:17:07Z</time>
      </trkpt>
      <trkpt lat="49.40665" lon="1.13025">
        <ele>142</ele>
        <time>2017-11-07T16:17:07Z</time>
      </trkpt>
      <trkpt lat="49.40666" lon="1.1303">
        <ele>142</ele>
        <time>2017-11-07T16:17:07Z</time>
      </trkpt>
      <trkpt lat="49.40667" lon="1.13034">
        <ele>142</ele>
        <time>2017-11-07T16:17:07Z</time>
      </trkpt>
      <trkpt lat="49.4067" lon="1.13035">
        <ele>142</ele>
        <time>2017-11-07T16:17:23Z</time>
      </trkpt>
      <trkpt lat="49.40671" lon="1.13039">
        <ele>142</ele>
        <time>2017-11-07T16:17:23Z</time>
      </trkpt>
      <trkpt lat="49.40673" lon="1.13041">
        <ele>142</ele>
        <time>2017-11-07T16:17:23Z</time>
      </trkpt>
      <trkpt lat="49.40677" lon="1.13044">
        <ele>137</ele>
        <time>2017-11-07T16:17:23Z</time>
      </trkpt>
      <trkpt lat="49.40679" lon="1.13049">
        <ele>137</ele>
        <time>2017-11-07T16:17:39Z</time>
      </trkpt>
      <trkpt lat="49.40682" lon="1.13053">
        <ele>137</ele>
        <time>2017-11-07T16:17:39Z</time>
      </trkpt>
      <trkpt lat="49.40683" lon="1.13057">
        <ele>137</ele>
        <time>2017-11-07T16:17:39Z</time>
      </trkpt>
      <trkpt lat="49.40685" lon="1.1306">
        <ele>137</ele>
        <time>2017-11-07T16:17:39Z</time>
      </trkpt>
      <trkpt lat="49.40687" lon="1.13065">
        <ele>137</ele>
        <time>2017-11-07T16:17:55Z</time>
      </trkpt>
      <trkpt lat="49.40689" lon="1.13068">
        <ele>137</ele>
        <time>2017-11-07T16:17:55Z</time>
      </trkpt>
      <trkpt lat="49.4069" lon="1.13072">
        <ele>137</ele>
        <time>2017-11-07T16:17:55Z</time>
      </trkpt>
      <trkpt lat="49.40693" lon="1.13078">
        <ele>137</ele>
        <time>2017-11-07T16:17:55Z</time>
      </trkpt>
      <trkpt lat="49.40695" lon="1.13083">
        <ele>137</ele>
        <time>2017-11-07T16:18:15Z</time>
      </trkpt>
      <trkpt lat="49.40696" lon="1.13086">
        <ele>137</ele>
        <time>2017-11-07T16:18:15Z</time>
      </trkpt>
      <trkpt lat="49.40698" lon="1.13091">
        <ele>137</ele>
        <time>2017-11-07T16:18:15Z</time>
      </trkpt>
      <trkpt lat="49.40699" lon="1.13094">
        <ele>137</ele>
        <time>2017-11-07T16:18:15Z</time>
      </trkpt>
      <trkpt lat="49.40701" lon="1.13098">
        <ele>137</ele>
        <time>2017-11-07T16:18:15Z</time>
      </trkpt>
      <trkpt lat="49.40703" lon="1.13101">
        <ele>137</ele>
        <time>2017-11-07T16:18:35Z</time>
      </trkpt>
      <trkpt lat="49.40704" lon="1.13104">
        <ele>137</ele>
        <time>2017-11-07T16:18:35Z</time>
      </trkpt>
      <trkpt lat="49.40707" lon="1.13107">
        <ele>137</ele>
        <time>2017-11-07T16:18:35Z</time>
      </trkpt>
      <trkpt lat="49.40709" lon="1.13109">
        <ele>149</ele>
        <time>2017-11-07T16:18:35Z</time>
      </trkpt>
      <trkpt lat="49.40711" lon="1.13112">
        <ele>149</ele>
        <time>2017-11-07T16:18:35Z</time>
      </trkpt>
      <trkpt lat="49.40718" lon="1.13118">
        <ele>149</ele>
        <time>2017-11-07T16:20:55Z</time>
      </trkpt>
      <trkpt lat="49.40719" lon="1.13119">
        <ele>149</ele>
        <time>2017-11-07T16:20:55Z</time>
      </trkpt>
      <trkpt lat="49.40722" lon="1.13119">
        <ele>149</ele>
        <time>2017-11-07T16:20:55Z</time>
      </trkpt>
      <trkpt lat="49.40725" lon="1.13117">
        <ele>149</ele>
        <time>2017-11-07T16:20:55Z</time>
      </trkpt>
      <trkpt lat="49.40728" lon="1.13115">
        <ele>149</ele>
        <time>2017-11-07T16:20:55Z</time>
      </trkpt>
      <trkpt lat="49.40731" lon="1.13113">
        <ele>149</ele>
        <time>2017-11-07T16:21:11Z</time>
      </trkpt>
      <trkpt lat="49.40734" lon="1.13112">
        <ele>149</ele>
        <time>2017-11-07T16:21:11Z</time>
      </trkpt>
      <trkpt lat="49.40738" lon="1.13111">
        <ele>149</ele>
        <time>2017-11-07T16:21:11Z</time>
      </trkpt>
      <trkpt lat="49.40742" lon="1.13109">
        <ele>149</ele>
        <time>2017-11-07T16:21:11Z</time>
      </trkpt>
      <trkpt lat="49.40746" lon="1.13108">
        <ele>149</ele>
        <time>2017-11-07T16:21:27Z</time>
      </trkpt>
      <trkpt lat="49.4075" lon="1.13106">
        <ele>149</ele>
        <time>2017-11-07T16:21:27Z</time>
      </trkpt>
      <trkpt lat="49.40754" lon="1.13105">
        <ele>149</ele>
        <time>2017-11-07T16:21:27Z</time>
      </trkpt>
      <trkpt lat="49.40758" lon="1.13104">
        <ele>149</ele>
        <time>2017-11-07T16:21:27Z</time>
      </trkpt>
      <trkpt lat="49.40762" lon="1.13103">
        <ele>149</ele>
        <time>2017-11-07T16:21:43Z</time>
      </trkpt>
      <trkpt lat="49.40766" lon="1.13103">
        <ele>149</ele>
        <time>2017-11-07T16:21:43Z</time>
      </trkpt>
      <trkpt lat="49.4077" lon="1.13102">
        <ele>149</ele>
        <time>2017-11-07T16:21:43Z</time>
      </trkpt>
      <trkpt lat="49.40774" lon="1.13104">
        <ele>149</ele>
        <time>2017-11-07T16:21:43Z</time>
      </trkpt>
      <trkpt lat="49.40778" lon="1.13104">
        <ele>149</ele>
        <time>2017-11-07T16:21:59Z</time>
      </trkpt>
      <trkpt lat="49.40782" lon="1.13106">
        <ele>149</ele>
        <time>2017-11-07T16:21:59Z</time>
      </trkpt>
      <trkpt lat="49.40786" lon="1.13106">
        <ele>149</ele>
        <time>2017-11-07T16:21:59Z</time>
      </trkpt>
      <trkpt lat="49.4079" lon="1.13107">
        <ele>149</ele>
        <time>2017-11-07T16:21:59Z</time>
      </trkpt>
      <trkpt lat="49.40795" lon="1.13107">
        <ele>149</ele>
        <time>2017-11-07T16:22:15Z</time>
      </trkpt>
      <trkpt lat="49.40799" lon="1.13107">
        <ele>149</ele>
        <time>2017-11-07T16:22:15Z</time>
      </trkpt>
      <trkpt lat="49.40803" lon="1.13107">
        <ele>149</ele>
        <time>2017-11-07T16:22:15Z</time>
      </trkpt>
      <trkpt lat="49.40807" lon="1.13107">
        <ele>149</ele>
        <time>2017-11-07T16:22:15Z</time>
      </trkpt>
      <trkpt lat="49.40811" lon="1.13106">
        <ele>149</ele>
        <time>2017-11-07T16:22:31Z</time>
      </trkpt>
      <trkpt lat="49.40815" lon="1.13108">
        <ele>149</ele>
        <time>2017-11-07T16:22:31Z</time>
      </trkpt>
      <trkpt lat="49.40819" lon="1.1311">
        <ele>149</ele>
        <time>2017-11-07T16:22:31Z</time>
      </trkpt>
      <trkpt lat="49.40824" lon="1.13111">
        <ele>149</ele>
        <time>2017-11-07T16:22:31Z</time>
      </trkpt>
      <trkpt lat="49.40828" lon="1.13111">
        <ele>149</ele>
        <time>2017-11-07T16:22:47Z</time>
      </trkpt>
      <trkpt lat="49.40832" lon="1.13112">
        <ele>149</ele>
        <time>2017-11-07T16:22:47Z</time>
      </trkpt>
      <trkpt lat="49.40836" lon="1.13112">
        <ele>149</ele>
        <time>2017-11-07T16:22:47Z</time>
      </trkpt>
      <trkpt lat="49.40841" lon="1.13113">
        <ele>149</ele>
        <time>2017-11-07T16:22:47Z</time>
      </trkpt>
      <trkpt lat="49.40848" lon="1.13111">
        <ele>149</ele>
        <time>2017-11-07T16:23:51Z</time>
      </trkpt>
      <trkpt lat="49.40846" lon="1.13105">
        <ele>149</ele>
        <time>2017-11-07T16:23:51Z</time>
      </trkpt>
      <trkpt lat="49.40845" lon="1.131">
        <ele>149</ele>
        <time>2017-11-07T16:23:51Z</time>
      </trkpt>
      <trkpt lat="49.40845" lon="1.13095">
        <ele>149</ele>
        <time>2017-11-07T16:23:51Z</time>
      </trkpt>
      <trkpt lat="49.40845" lon="1.1309">
        <ele>149</ele>
        <time>2017-11-07T16:23:51Z</time>
      </trkpt>
      <trkpt lat="49.40849" lon="1.13088">
        <ele>149</ele>
        <time>2017-11-07T16:24:07Z</time>
      </trkpt>
      <trkpt lat="49.40853" lon="1.13086">
        <ele>149</ele>
        <time>2017-11-07T16:24:07Z</time>
      </trkpt>
      <trkpt lat="49.40856" lon="1.13085">
        <ele>149</ele>
        <time>2017-11-07T16:24:07Z</time>
      </trkpt>
      <trkpt lat="49.40861" lon="1.13084">
        <ele>149</ele>
        <time>2017-11-07T16:24:07Z</time>
      </trkpt>
      <trkpt lat="49.40866" lon="1.13083">
        <ele>149</ele>
        <time>2017-11-07T16:24:23Z</time>
      </trkpt>
      <trkpt lat="49.40869" lon="1.1308">
        <ele>149</ele>
        <time>2017-11-07T16:24:23Z</time>
      </trkpt>
      <trkpt lat="49.40872" lon="1.13076">
        <ele>149</ele>
        <time>2017-11-07T16:24:23Z</time>
      </trkpt>
      <trkpt lat="49.40876" lon="1.13072">
        <ele>151</ele>
        <time>2017-11-07T16:24:23Z</time>
      </trkpt>
      <trkpt lat="49.4088" lon="1.1307">
        <ele>151</ele>
        <time>2017-11-07T16:24:39Z</time>
      </trkpt>
      <trkpt lat="49.40884" lon="1.13067">
        <ele>151</ele>
        <time>2017-11-07T16:24:39Z</time>
      </trkpt>
      <trkpt lat="49.40888" lon="1.13065">
        <ele>151</ele>
        <time>2017-11-07T16:24:39Z</time>
      </trkpt>
      <trkpt lat="49.40891" lon="1.13062">
        <ele>151</ele>
        <time>2017-11-07T16:24:39Z</time>
      </trkpt>
      <trkpt lat="49.40895" lon="1.13061">
        <ele>151</ele>
        <time>2017-11-07T16:24:55Z</time>
      </trkpt>
      <trkpt lat="49.409" lon="1.13058">
        <ele>151</ele>
        <time>2017-11-07T16:24:55Z</time>
      </trkpt>
      <trkpt lat="49.40904" lon="1.13055">
        <ele>151</ele>
        <time>2017-11-07T16:24:55Z</time>
      </trkpt>
      <trkpt lat="49.40907" lon="1.13051">
        <ele>151</ele>
        <time>2017-11-07T16:24:55Z</time>
      </trkpt>
      <trkpt lat="49.40911" lon="1.13049">
        <ele>151</ele>
        <time>2017-11-07T16:25:11Z</time>
      </trkpt>
      <trkpt lat="49.40914" lon="1.13046">
        <ele>151</ele>
        <time>2017-11-07T16:25:11Z</time>
      </trkpt>
      <trkpt lat="49.40918" lon="1.13044">
        <ele>151</ele>
        <time>2017-11-07T16:25:11Z</time>
      </trkpt>
      <trkpt lat="49.40921" lon="1.13043">
        <ele>151</ele>
        <time>2017-11-07T16:25:11Z</time>
      </trkpt>
      <trkpt lat="49.40925" lon="1.13041">
        <ele>147</ele>
        <time>2017-11-07T16:25:27Z</time>
      </trkpt>
      <trkpt lat="49.40929" lon="1.1304">
        <ele>147</ele>
        <time>2017-11-07T16:25:27Z</time>
      </trkpt>
      <trkpt lat="49.40933" lon="1.13039">
        <ele>147</ele>
        <time>2017-11-07T16:25:27Z</time>
      </trkpt>
      <trkpt lat="49.40937" lon="1.13038">
        <ele>147</ele>
        <time>2017-11-07T16:25:27Z</time>
      </trkpt>
      <trkpt lat="49.40941" lon="1.13035">
        <ele>147</ele>
        <time>2017-11-07T16:25:43Z</time>
      </trkpt>
      <trkpt lat="49.40945" lon="1.13033">
        <ele>147</ele>
        <time>2017-11-07T16:25:43Z</time>
      </trkpt>
      <trkpt lat="49.40949" lon="1.13031">
        <ele>147</ele>
        <time>2017-11-07T16:25:43Z</time>
      </trkpt>
      <trkpt lat="49.40953" lon="1.13029">
        <ele>147</ele>
        <time>2017-11-07T16:25:43Z</time>
      </trkpt>
      <trkpt lat="49.40956" lon="1.13027">
        <ele>147</ele>
        <time>2017-11-07T16:25:59Z</time>
      </trkpt>
      <trkpt lat="49.4096" lon="1.13025">
        <ele>147</ele>
        <time>2017-11-07T16:25:59Z</time>
      </trkpt>
      <trkpt lat="49.40964" lon="1.13023">
        <ele>147</ele>
        <time>2017-11-07T16:25:59Z</time>
      </trkpt>
      <trkpt lat="49.40967" lon="1.13021">
        <ele>147</ele>
        <time>2017-11-07T16:25:59Z</time>
      </trkpt>
      <trkpt lat="49.4097" lon="1.13026">
        <ele>147</ele>
        <time>2017-11-07T16:26:15Z</time>
      </trkpt>
      <trkpt lat="49.40973" lon="1.13032">
        <ele>147</ele>
        <time>2017-11-07T16:26:15Z</time>
      </trkpt>
      <trkpt lat="49.40974" lon="1.13039">
        <ele>147</ele>
        <time>2017-11-07T16:26:15Z</time>
      </trkpt>
      <trkpt lat="49.40976" lon="1.13046">
        <ele>151</ele>
        <time>2017-11-07T16:26:15Z</time>
      </trkpt>
      <trkpt lat="49.40978" lon="1.13053">
        <ele>151</ele>
        <time>2017-11-07T16:26:31Z</time>
      </trkpt>
      <trkpt lat="49.40979" lon="1.13059">
        <ele>151</ele>
        <time>2017-11-07T16:26:31Z</time>
      </trkpt>
      <trkpt lat="49.40981" lon="1.13065">
        <ele>151</ele>
        <time>2017-11-07T16:26:31Z</time>
      </trkpt>
      <trkpt lat="49.40981" lon="1.13072">
        <ele>151</ele>
        <time>2017-11-07T16:26:31Z</time>
      </trkpt>
      <trkpt lat="49.40983" lon="1.13078">
        <ele>151</ele>
        <time>2017-11-07T16:26:47Z</time>
      </trkpt>
      <trkpt lat="49.40985" lon="1.13084">
        <ele>151</ele>
        <time>2017-11-07T16:26:47Z</time>
      </trkpt>
      <trkpt lat="49.40987" lon="1.13091">
        <ele>151</ele>
        <time>2017-11-07T16:26:47Z</time>
      </trkpt>
      <trkpt lat="49.40989" lon="1.13097">
        <ele>151</ele>
        <time>2017-11-07T16:26:47Z</time>
      </trkpt>
      <trkpt lat="49.40991" lon="1.13103">
        <ele>151</ele>
        <time>2017-11-07T16:27:03Z</time>
      </trkpt>
      <trkpt lat="49.40992" lon="1.13109">
        <ele>151</ele>
        <time>2017-11-07T16:27:03Z</time>
      </trkpt>
      <trkpt lat="49.40993" lon="1.13115">
        <ele>151</ele>
        <time>2017-11-07T16:27:03Z</time>
      </trkpt>
      <trkpt lat="49.40993" lon="1.1312">
        <ele>151</ele>
        <time>2017-11-07T16:27:03Z</time>
      </trkpt>
      <trkpt lat="49.40994" lon="1.13122">
        <ele>151</ele>
        <time>2017-11-07T16:27:39Z</time>
      </trkpt>
      <trkpt lat="49.40995" lon="1.13121">
        <ele>151</ele>
        <time>2017-11-07T16:27:39Z</time>
      </trkpt>
      <trkpt lat="49.40995" lon="1.13124">
        <ele>151</ele>
        <time>2017-11-07T16:27:39Z</time>
      </trkpt>
      <trkpt lat="49.40996" lon="1.1313">
        <ele>151</ele>
        <time>2017-11-07T16:27:39Z</time>
      </trkpt>
      <trkpt lat="49.40997" lon="1.13137">
        <ele>151</ele>
        <time>2017-11-07T16:27:39Z</time>
      </trkpt>
      <trkpt lat="49.40998" lon="1.13144">
        <ele>151</ele>
        <time>2017-11-07T16:27:55Z</time>
      </trkpt>
      <trkpt lat="49.40999" lon="1.13151">
        <ele>151</ele>
        <time>2017-11-07T16:27:55Z</time>
      </trkpt>
      <trkpt lat="49.41001" lon="1.13158">
        <ele>151</ele>
        <time>2017-11-07T16:27:55Z</time>
      </trkpt>
      <trkpt lat="49.41003" lon="1.13166">
        <ele>151</ele>
        <time>2017-11-07T16:27:55Z</time>
      </trkpt>
      <trkpt lat="49.41005" lon="1.13172">
        <ele>151</ele>
        <time>2017-11-07T16:28:11Z</time>
      </trkpt>
      <trkpt lat="49.41008" lon="1.13179">
        <ele>151</ele>
        <time>2017-11-07T16:28:11Z</time>
      </trkpt>
      <trkpt lat="49.4101" lon="1.13185">
        <ele>151</ele>
        <time>2017-11-07T16:28:11Z</time>
      </trkpt>
      <trkpt lat="49.41013" lon="1.13191">
        <ele>151</ele>
        <time>2017-11-07T16:28:11Z</time>
      </trkpt>
      <trkpt lat="49.41016" lon="1.13196">
        <ele>151</ele>
        <time>2017-11-07T16:28:27Z</time>
      </trkpt>
      <trkpt lat="49.41018" lon="1.13202">
        <ele>151</ele>
        <time>2017-11-07T16:28:27Z</time>
      </trkpt>
      <trkpt lat="49.41021" lon="1.13208">
        <ele>151</ele>
        <time>2017-11-07T16:28:27Z</time>
      </trkpt>
      <trkpt lat="49.41024" lon="1.13214">
        <ele>152</ele>
        <time>2017-11-07T16:28:27Z</time>
      </trkpt>
      <trkpt lat="49.41026" lon="1.1322">
        <ele>152</ele>
        <time>2017-11-07T16:28:43Z</time>
      </trkpt>
      <trkpt lat="49.41029" lon="1.13226">
        <ele>152</ele>
        <time>2017-11-07T16:28:43Z</time>
      </trkpt>
      <trkpt lat="49.41032" lon="1.13231">
        <ele>152</ele>
        <time>2017-11-07T16:28:43Z</time>
      </trkpt>
      <trkpt lat="49.41034" lon="1.13237">
        <ele>152</ele>
        <time>2017-11-07T16:28:43Z</time>
      </trkpt>
      <trkpt lat="49.41037" lon="1.13244">
        <ele>152</ele>
        <time>2017-11-07T16:28:59Z</time>
      </trkpt>
      <trkpt lat="49.41038" lon="1.1325">
        <ele>152</ele>
        <time>2017-11-07T16:28:59Z</time>
      </trkpt>
      <trkpt lat="49.41041" lon="1.13255">
        <ele>152</ele>
        <time>2017-11-07T16:28:59Z</time>
      </trkpt>
      <trkpt lat="49.41042" lon="1.13261">
        <ele>150</ele>
        <time>2017-11-07T16:28:59Z</time>
      </trkpt>
      <trkpt lat="49.41044" lon="1.13266">
        <ele>150</ele>
        <time>2017-11-07T16:29:15Z</time>
      </trkpt>
      <trkpt lat="49.41047" lon="1.13272">
        <ele>150</ele>
        <time>2017-11-07T16:29:15Z</time>
      </trkpt>
      <trkpt lat="49.41049" lon="1.13277">
        <ele>150</ele>
        <time>2017-11-07T16:29:15Z</time>
      </trkpt>
      <trkpt lat="49.41051" lon="1.13281">
        <ele>150</ele>
        <time>2017-11-07T16:29:15Z</time>
      </trkpt>
      <trkpt lat="49.41055" lon="1.13288">
        <ele>150</ele>
        <time>2017-11-07T16:29:31Z</time>
      </trkpt>
      <trkpt lat="49.41057" lon="1.13294">
        <ele>153</ele>
        <time>2017-11-07T16:29:31Z</time>
      </trkpt>
      <trkpt lat="49.41059" lon="1.13301">
        <ele>153</ele>
        <time>2017-11-07T16:29:31Z</time>
      </trkpt>
      <trkpt lat="49.41061" lon="1.13306">
        <ele>153</ele>
        <time>2017-11-07T16:29:31Z</time>
      </trkpt>
      <trkpt lat="49.41063" lon="1.13312">
        <ele>153</ele>
        <time>2017-11-07T16:29:47Z</time>
      </trkpt>
      <trkpt lat="49.41065" lon="1.13319">
        <ele>153</ele>
        <time>2017-11-07T16:29:47Z</time>
      </trkpt>
      <trkpt lat="49.41067" lon="1.13325">
        <ele>153</ele>
        <time>2017-11-07T16:29:47Z</time>
      </trkpt>
      <trkpt lat="49.4107" lon="1.13331">
        <ele>153</ele>
        <time>2017-11-07T16:29:47Z</time>
      </trkpt>
      <trkpt lat="49.41072" lon="1.13337">
        <ele>153</ele>
        <time>2017-11-07T16:30:03Z</time>
      </trkpt>
      <trkpt lat="49.41073" lon="1.13344">
        <ele>153</ele>
        <time>2017-11-07T16:30:03Z</time>
      </trkpt>
      <trkpt lat="49.41074" lon="1.13351">
        <ele>153</ele>
        <time>2017-11-07T16:30:03Z</time>
      </trkpt>
      <trkpt lat="49.41076" lon="1.13356">
        <ele>153</ele>
        <time>2017-11-07T16:30:03Z</time>
      </trkpt>
      <trkpt lat="49.41078" lon="1.13362">
        <ele>153</ele>
        <time>2017-11-07T16:30:19Z</time>
      </trkpt>
      <trkpt lat="49.4108" lon="1.13369">
        <ele>153</ele>
        <time>2017-11-07T16:30:19Z</time>
      </trkpt>
      <trkpt lat="49.41081" lon="1.13375">
        <ele>153</ele>
        <time>2017-11-07T16:30:19Z</time>
      </trkpt>
      <trkpt lat="49.41082" lon="1.13381">
        <ele>154</ele>
        <time>2017-11-07T16:30:19Z</time>
      </trkpt>
      <trkpt lat="49.41085" lon="1.13386">
        <ele>154</ele>
        <time>2017-11-07T16:30:35Z</time>
      </trkpt>
      <trkpt lat="49.41087" lon="1.13392">
        <ele>154</ele>
        <time>2017-11-07T16:30:35Z</time>
      </trkpt>
      <trkpt lat="49.41089" lon="1.13398">
        <ele>154</ele>
        <time>2017-11-07T16:30:35Z</time>
      </trkpt>
      <trkpt lat="49.41091" lon="1.13405">
        <ele>154</ele>
        <time>2017-11-07T16:30:35Z</time>
      </trkpt>
      <trkpt lat="49.41093" lon="1.13411">
        <ele>154</ele>
        <time>2017-11-07T16:30:51Z</time>
      </trkpt>
      <trkpt lat="49.41095" lon="1.13418">
        <ele>154</ele>
        <time>2017-11-07T16:30:51Z</time>
      </trkpt>
      <trkpt lat="49.41098" lon="1.13425">
        <ele>154</ele>
        <time>2017-11-07T16:30:51Z</time>
      </trkpt>
      <trkpt lat="49.411" lon="1.13431">
        <ele>154</ele>
        <time>2017-11-07T16:30:51Z</time>
      </trkpt>
      <trkpt lat="49.41101" lon="1.13438">
        <ele>154</ele>
        <time>2017-11-07T16:31:07Z</time>
      </trkpt>
      <trkpt lat="49.41104" lon="1.13445">
        <ele>154</ele>
        <time>2017-11-07T16:31:07Z</time>
      </trkpt>
      <trkpt lat="49.41106" lon="1.13451">
        <ele>154</ele>
        <time>2017-11-07T16:31:07Z</time>
      </trkpt>
      <trkpt lat="49.41108" lon="1.13457">
        <ele>154</ele>
        <time>2017-11-07T16:31:07Z</time>
      </trkpt>
      <trkpt lat="49.41115" lon="1.13471">
        <ele>154</ele>
        <time>2017-11-07T16:32:47Z</time>
      </trkpt>
      <trkpt lat="49.41115" lon="1.13471">
        <ele>154</ele>
        <time>2017-11-07T16:32:47Z</time>
      </trkpt>
      <trkpt lat="49.41115" lon="1.13471">
        <ele>154</ele>
        <time>2017-11-07T16:32:47Z</time>
      </trkpt>
      <trkpt lat="49.41115" lon="1.13472">
        <ele>154</ele>
        <time>2017-11-07T16:32:47Z</time>
      </trkpt>
      <trkpt lat="49.41116" lon="1.13475">
        <ele>154</ele>
        <time>2017-11-07T16:32:47Z</time>
      </trkpt>
      <trkpt lat="49.41117" lon="1.13481">
        <ele>154</ele>
        <time>2017-11-07T16:33:03Z</time>
      </trkpt>
      <trkpt lat="49.41119" lon="1.13487">
        <ele>154</ele>
        <time>2017-11-07T16:33:03Z</time>
      </trkpt>
      <trkpt lat="49.41121" lon="1.13493">
        <ele>154</ele>
        <time>2017-11-07T16:33:03Z</time>
      </trkpt>
      <trkpt lat="49.41122" lon="1.13499">
        <ele>154</ele>
        <time>2017-11-07T16:33:03Z</time>
      </trkpt>
      <trkpt lat="49.41124" lon="1.13506">
        <ele>154</ele>
        <time>2017-11-07T16:33:19Z</time>
      </trkpt>
      <trkpt lat="49.41125" lon="1.13512">
        <ele>156</ele>
        <time>2017-11-07T16:33:19Z</time>
      </trkpt>
      <trkpt lat="49.41127" lon="1.13519">
        <ele>156</ele>
        <time>2017-11-07T16:33:19Z</time>
      </trkpt>
      <trkpt lat="49.41128" lon="1.13526">
        <ele>156</ele>
        <time>2017-11-07T16:33:19Z</time>
      </trkpt>
      <trkpt lat="49.4113" lon="1.13532">
        <ele>156</ele>
        <time>2017-11-07T16:33:35Z</time>
      </trkpt>
      <trkpt lat="49.41132" lon="1.13538">
        <ele>156</ele>
        <time>2017-11-07T16:33:35Z</time>
      </trkpt>
      <trkpt lat="49.41133" lon="1.13544">
        <ele>156</ele>
        <time>2017-11-07T16:33:35Z</time>
      </trkpt>
      <trkpt lat="49.41135" lon="1.1355">
        <ele>156</ele>
        <time>2017-11-07T16:33:35Z</time>
      </trkpt>
      <trkpt lat="49.41138" lon="1.13555">
        <ele>156</ele>
        <time>2017-11-07T16:33:51Z</time>
      </trkpt>
      <trkpt lat="49.4114" lon="1.13561">
        <ele>156</ele>
        <time>2017-11-07T16:33:51Z</time>
      </trkpt>
      <trkpt lat="49.41141" lon="1.13568">
        <ele>156</ele>
        <time>2017-11-07T16:33:51Z</time>
      </trkpt>
      <trkpt lat="49.41143" lon="1.13574">
        <ele>156</ele>
        <time>2017-11-07T16:33:51Z</time>
      </trkpt>
      <trkpt lat="49.41145" lon="1.13581">
        <ele>156</ele>
        <time>2017-11-07T16:34:07Z</time>
      </trkpt>
      <trkpt lat="49.41147" lon="1.13587">
        <ele>156</ele>
        <time>2017-11-07T16:34:07Z</time>
      </trkpt>
      <trkpt lat="49.41148" lon="1.13592">
        <ele>156</ele>
        <time>2017-11-07T16:34:07Z</time>
      </trkpt>
      <trkpt lat="49.41149" lon="1.136">
        <ele>156</ele>
        <time>2017-11-07T16:34:07Z</time>
      </trkpt>
      <trkpt lat="49.41151" lon="1.13606">
        <ele>156</ele>
        <time>2017-11-07T16:34:23Z</time>
      </trkpt>
      <trkpt lat="49.41153" lon="1.13612">
        <ele>156</ele>
        <time>2017-11-07T16:34:23Z</time>
      </trkpt>
      <trkpt lat="49.41155" lon="1.13619">
        <ele>156</ele>
        <time>2017-11-07T16:34:23Z</time>
      </trkpt>
      <trkpt lat="49.41157" lon="1.13625">
        <ele>157</ele>
        <time>2017-11-07T16:34:23Z</time>
      </trkpt>
      <trkpt lat="49.4116" lon="1.13631">
        <ele>157</ele>
        <time>2017-11-07T16:34:39Z</time>
      </trkpt>
      <trkpt lat="49.41162" lon="1.13637">
        <ele>157</ele>
        <time>2017-11-07T16:34:39Z</time>
      </trkpt>
      <trkpt lat="49.41165" lon="1.13644">
        <ele>157</ele>
        <time>2017-11-07T16:34:39Z</time>
      </trkpt>
      <trkpt lat="49.41167" lon="1.1365">
        <ele>157</ele>
        <time>2017-11-07T16:34:39Z</time>
      </trkpt>
      <trkpt lat="49.41168" lon="1.13655">
        <ele>157</ele>
        <time>2017-11-07T16:34:55Z</time>
      </trkpt>
      <trkpt lat="49.41166" lon="1.1366">
        <ele>157</ele>
        <time>2017-11-07T16:34:55Z</time>
      </trkpt>
      <trkpt lat="49.41164" lon="1.13666">
        <ele>157</ele>
        <time>2017-11-07T16:34:55Z</time>
      </trkpt>
      <trkpt lat="49.41163" lon="1.13672">
        <ele>157</ele>
        <time>2017-11-07T16:34:55Z</time>
      </trkpt>
      <trkpt lat="49.41163" lon="1.13679">
        <ele>157</ele>
        <time>2017-11-07T16:35:11Z</time>
      </trkpt>
      <trkpt lat="49.41163" lon="1.13686">
        <ele>157</ele>
        <time>2017-11-07T16:35:11Z</time>
      </trkpt>
      <trkpt lat="49.41164" lon="1.13691">
        <ele>157</ele>
        <time>2017-11-07T16:35:11Z</time>
      </trkpt>
      <trkpt lat="49.41167" lon="1.13699">
        <ele>157</ele>
        <time>2017-11-07T16:35:11Z</time>
      </trkpt>
      <trkpt lat="49.4117" lon="1.13704">
        <ele>157</ele>
        <time>2017-11-07T16:35:27Z</time>
      </trkpt>
      <trkpt lat="49.41171" lon="1.13707">
        <ele>157</ele>
        <time>2017-11-07T16:35:27Z</time>
      </trkpt>
      <trkpt lat="49.41175" lon="1.1371">
        <ele>158</ele>
        <time>2017-11-07T16:35:27Z</time>
      </trkpt>
      <trkpt lat="49.41179" lon="1.13712">
        <ele>158</ele>
        <time>2017-11-07T16:35:27Z</time>
      </trkpt>
      <trkpt lat="49.41182" lon="1.13713">
        <ele>158</ele>
        <time>2017-11-07T16:35:43Z</time>
      </trkpt>
      <trkpt lat="49.41188" lon="1.13713">
        <ele>158</ele>
        <time>2017-11-07T16:35:43Z</time>
      </trkpt>
      <trkpt lat="49.41192" lon="1.13713">
        <ele>158</ele>
        <time>2017-11-07T16:35:43Z</time>
      </trkpt>
      <trkpt lat="49.41196" lon="1.13714">
        <ele>158</ele>
        <time>2017-11-07T16:35:43Z</time>
      </trkpt>
      <trkpt lat="49.41197" lon="1.13721">
        <ele>158</ele>
        <time>2017-11-07T16:35:59Z</time>
      </trkpt>
      <trkpt lat="49.41199" lon="1.13726">
        <ele>158</ele>
        <time>2017-11-07T16:35:59Z</time>
      </trkpt>
      <trkpt lat="49.41201" lon="1.13732">
        <ele>158</ele>
        <time>2017-11-07T16:35:59Z</time>
      </trkpt>
      <trkpt lat="49.41204" lon="1.13737">
        <ele>158</ele>
        <time>2017-11-07T16:35:59Z</time>
      </trkpt>
      <trkpt lat="49.41207" lon="1.13743">
        <ele>158</ele>
        <time>2017-11-07T16:36:15Z</time>
      </trkpt>
      <trkpt lat="49.41209" lon="1.13749">
        <ele>158</ele>
        <time>2017-11-07T16:36:15Z</time>
      </trkpt>
      <trkpt lat="49.41211" lon="1.13753">
        <ele>158</ele>
        <time>2017-11-07T16:36:15Z</time>
      </trkpt>
      <trkpt lat="49.41217" lon="1.13758">
        <ele>158</ele>
        <time>2017-11-07T16:36:15Z</time>
      </trkpt>
      <trkpt lat="49.41221" lon="1.13764">
        <ele>158</ele>
        <time>2017-11-07T16:36:31Z</time>
      </trkpt>
      <trkpt lat="49.41224" lon="1.13769">
        <ele>158</ele>
        <time>2017-11-07T16:36:31Z</time>
      </trkpt>
      <trkpt lat="49.41228" lon="1.13774">
        <ele>158</ele>
        <time>2017-11-07T16:36:31Z</time>
      </trkpt>
      <trkpt lat="49.41231" lon="1.1378">
        <ele>158</ele>
        <time>2017-11-07T16:36:31Z</time>
      </trkpt>
      <trkpt lat="49.41233" lon="1.13786">
        <ele>158</ele>
        <time>2017-11-07T16:36:51Z</time>
      </trkpt>
      <trkpt lat="49.41235" lon="1.13785">
        <ele>158</ele>
        <time>2017-11-07T16:36:51Z</time>
      </trkpt>
      <trkpt lat="49.41239" lon="1.13787">
        <ele>158</ele>
        <time>2017-11-07T16:36:51Z</time>
      </trkpt>
      <trkpt lat="49.41242" lon="1.13789">
        <ele>158</ele>
        <time>2017-11-07T16:36:51Z</time>
      </trkpt>
      <trkpt lat="49.41247" lon="1.13789">
        <ele>158</ele>
        <time>2017-11-07T16:36:51Z</time>
      </trkpt>
      <trkpt lat="49.4125" lon="1.13789">
        <ele>158</ele>
        <time>2017-11-07T16:37:07Z</time>
      </trkpt>
      <trkpt lat="49.41253" lon="1.13787">
        <ele>158</ele>
        <time>2017-11-07T16:37:07Z</time>
      </trkpt>
      <trkpt lat="49.41257" lon="1.13784">
        <ele>158</ele>
        <time>2017-11-07T16:37:07Z</time>
      </trkpt>
      <trkpt lat="49.41261" lon="1.1378">
        <ele>158</ele>
        <time>2017-11-07T16:37:07Z</time>
      </trkpt>
      <trkpt lat="49.41264" lon="1.13773">
        <ele>158</ele>
        <time>2017-11-07T16:37:23Z</time>
      </trkpt>
      <trkpt lat="49.41267" lon="1.13769">
        <ele>158</ele>
        <time>2017-11-07T16:37:23Z</time>
      </trkpt>
      <trkpt lat="49.41272" lon="1.1377">
        <ele>158</ele>
        <time>2017-11-07T16:37:23Z</time>
      </trkpt>
      <trkpt lat="49.41276" lon="1.13773">
        <ele>158</ele>
        <time>2017-11-07T16:37:23Z</time>
      </trkpt>
      <trkpt lat="49.4128" lon="1.13776">
        <ele>158</ele>
        <time>2017-11-07T16:37:39Z</time>
      </trkpt>
      <trkpt lat="49.41284" lon="1.1378">
        <ele>158</ele>
        <time>2017-11-07T16:37:39Z</time>
      </trkpt>
      <trkpt lat="49.41287" lon="1.13784">
        <ele>158</ele>
        <time>2017-11-07T16:37:39Z</time>
      </trkpt>
      <trkpt lat="49.4129" lon="1.13787">
        <ele>158</ele>
        <time>2017-11-07T16:37:39Z</time>
      </trkpt>
      <trkpt lat="49.41298" lon="1.138">
        <ele>158</ele>
        <time>2017-11-07T16:38:55Z</time>
      </trkpt>
      <trkpt lat="49.41298" lon="1.138">
        <ele>158</ele>
        <time>2017-11-07T16:38:55Z</time>
      </trkpt>
      <trkpt lat="49.41298" lon="1.138">
        <ele>158</ele>
        <time>2017-11-07T16:38:55Z</time>
      </trkpt>
      <trkpt lat="49.41299" lon="1.13801">
        <ele>158</ele>
        <time>2017-11-07T16:38:55Z</time>
      </trkpt>
      <trkpt lat="49.41301" lon="1.13804">
        <ele>158</ele>
        <time>2017-11-07T16:38:55Z</time>
      </trkpt>
      <trkpt lat="49.41304" lon="1.13807">
        <ele>158</ele>
        <time>2017-11-07T16:39:11Z</time>
      </trkpt>
      <trkpt lat="49.41309" lon="1.13807">
        <ele>158</ele>
        <time>2017-11-07T16:39:11Z</time>
      </trkpt>
      <trkpt lat="49.41312" lon="1.13812">
        <ele>158</ele>
        <time>2017-11-07T16:39:11Z</time>
      </trkpt>
      <trkpt lat="49.41314" lon="1.13819">
        <ele>158</ele>
        <time>2017-11-07T16:39:11Z</time>
      </trkpt>
      <trkpt lat="49.41316" lon="1.13825">
        <ele>158</ele>
        <time>2017-11-07T16:39:27Z</time>
      </trkpt>
      <trkpt lat="49.41319" lon="1.13832">
        <ele>158</ele>
        <time>2017-11-07T16:39:27Z</time>
      </trkpt>
      <trkpt lat="49.41321" lon="1.13838">
        <ele>158</ele>
        <time>2017-11-07T16:39:27Z</time>
      </trkpt>
      <trkpt lat="49.41325" lon="1.13843">
        <ele>158</ele>
        <time>2017-11-07T16:39:27Z</time>
      </trkpt>
      <trkpt lat="49.41327" lon="1.13848">
        <ele>158</ele>
        <time>2017-11-07T16:39:43Z</time>
      </trkpt>
      <trkpt lat="49.41329" lon="1.13854">
        <ele>158</ele>
        <time>2017-11-07T16:39:43Z</time>
      </trkpt>
      <trkpt lat="49.41331" lon="1.13858">
        <ele>158</ele>
        <time>2017-11-07T16:39:43Z</time>
      </trkpt>
      <trkpt lat="49.41334" lon="1.13863">
        <ele>158</ele>
        <time>2017-11-07T16:39:43Z</time>
      </trkpt>
      <trkpt lat="49.41335" lon="1.13868">
        <ele>158</ele>
        <time>2017-11-07T16:39:59Z</time>
      </trkpt>
      <trkpt lat="49.41337" lon="1.13874">
        <ele>158</ele>
        <time>2017-11-07T16:39:59Z</time>
      </trkpt>
      <trkpt lat="49.41337" lon="1.13881">
        <ele>160</ele>
        <time>2017-11-07T16:39:59Z</time>
      </trkpt>
      <trkpt lat="49.41339" lon="1.13887">
        <ele>160</ele>
        <time>2017-11-07T16:39:59Z</time>
      </trkpt>
      <trkpt lat="49.41342" lon="1.13894">
        <ele>160</ele>
        <time>2017-11-07T16:40:15Z</time>
      </trkpt>
      <trkpt lat="49.41344" lon="1.13899">
        <ele>160</ele>
        <time>2017-11-07T16:40:15Z</time>
      </trkpt>
      <trkpt lat="49.41347" lon="1.13906">
        <ele>160</ele>
        <time>2017-11-07T16:40:15Z</time>
      </trkpt>
      <trkpt lat="49.41349" lon="1.13913">
        <ele>160</ele>
        <time>2017-11-07T16:40:15Z</time>
      </trkpt>
      <trkpt lat="49.41351" lon="1.13919">
        <ele>160</ele>
        <time>2017-11-07T16:40:31Z</time>
      </trkpt>
      <trkpt lat="49.41354" lon="1.13925">
        <ele>160</ele>
        <time>2017-11-07T16:40:31Z</time>
      </trkpt>
      <trkpt lat="49.41356" lon="1.13931">
        <ele>160</ele>
        <time>2017-11-07T16:40:31Z</time>
      </trkpt>
      <trkpt lat="49.41358" lon="1.13937">
        <ele>160</ele>
        <time>2017-11-07T16:40:31Z</time>
      </trkpt>
      <trkpt lat="49.4136" lon="1.13943">
        <ele>160</ele>
        <time>2017-11-07T16:40:47Z</time>
      </trkpt>
      <trkpt lat="49.41361" lon="1.13948">
        <ele>160</ele>
        <time>2017-11-07T16:40:47Z</time>
      </trkpt>
      <trkpt lat="49.41364" lon="1.13955">
        <ele>160</ele>
        <time>2017-11-07T16:40:47Z</time>
      </trkpt>
      <trkpt lat="49.41367" lon="1.13961">
        <ele>159</ele>
        <time>2017-11-07T16:40:47Z</time>
      </trkpt>
      <trkpt lat="49.41369" lon="1.13967">
        <ele>159</ele>
        <time>2017-11-07T16:41:03Z</time>
      </trkpt>
      <trkpt lat="49.41372" lon="1.13973">
        <ele>159</ele>
        <time>2017-11-07T16:41:03Z</time>
      </trkpt>
      <trkpt lat="49.41375" lon="1.13979">
        <ele>159</ele>
        <time>2017-11-07T16:41:03Z</time>
      </trkpt>
      <trkpt lat="49.41378" lon="1.13985">
        <ele>159</ele>
        <time>2017-11-07T16:41:03Z</time>
      </trkpt>
      <trkpt lat="49.4138" lon="1.13991">
        <ele>159</ele>
        <time>2017-11-07T16:41:19Z</time>
      </trkpt>
      <trkpt lat="49.41382" lon="1.13996">
        <ele>159</ele>
        <time>2017-11-07T16:41:19Z</time>
      </trkpt>
      <trkpt lat="49.41381" lon="1.14004">
        <ele>159</ele>
        <time>2017-11-07T16:41:19Z</time>
      </trkpt>
      <trkpt lat="49.41379" lon="1.14008">
        <ele>159</ele>
        <time>2017-11-07T16:41:19Z</time>
      </trkpt>
      <trkpt lat="49.41376" lon="1.14011">
        <ele>159</ele>
        <time>2017-11-07T16:41:35Z</time>
      </trkpt>
      <trkpt lat="49.41373" lon="1.14013">
        <ele>159</ele>
        <time>2017-11-07T16:41:35Z</time>
      </trkpt>
      <trkpt lat="49.41369" lon="1.14017">
        <ele>159</ele>
        <time>2017-11-07T16:41:35Z</time>
      </trkpt>
      <trkpt lat="49.41365" lon="1.14018">
        <ele>159</ele>
        <time>2017-11-07T16:41:35Z</time>
      </trkpt>
      <trkpt lat="49.41361" lon="1.14021">
        <ele>159</ele>
        <time>2017-11-07T16:41:51Z</time>
      </trkpt>
      <trkpt lat="49.41357" lon="1.14026">
        <ele>159</ele>
        <time>2017-11-07T16:41:51Z</time>
      </trkpt>
      <trkpt lat="49.41353" lon="1.1403">
        <ele>159</ele>
        <time>2017-11-07T16:41:51Z</time>
      </trkpt>
      <trkpt lat="49.41348" lon="1.14035">
        <ele>159</ele>
        <time>2017-11-07T16:41:51Z</time>
      </trkpt>
      <trkpt lat="49.41343" lon="1.1404">
        <ele>159</ele>
        <time>2017-11-07T16:42:07Z</time>
      </trkpt>
      <trkpt lat="49.41339" lon="1.14043">
        <ele>157</ele>
        <time>2017-11-07T16:42:07Z</time>
      </trkpt>
      <trkpt lat="49.41335" lon="1.14046">
        <ele>157</ele>
        <time>2017-11-07T16:42:07Z</time>
      </trkpt>
      <trkpt lat="49.41331" lon="1.14049">
        <ele>157</ele>
        <time>2017-11-07T16:42:07Z</time>
      </trkpt>
      <trkpt lat="49.41326" lon="1.14051">
        <ele>157</ele>
        <time>2017-11-07T16:42:23Z</time>
      </trkpt>
      <trkpt lat="49.41322" lon="1.14053">
        <ele>157</ele>
        <time>2017-11-07T16:42:23Z</time>
      </trkpt>
      <trkpt lat="49.41318" lon="1.14057">
        <ele>157</ele>
        <time>2017-11-07T16:42:23Z</time>
      </trkpt>
      <trkpt lat="49.41314" lon="1.14059">
        <ele>157</ele>
        <time>2017-11-07T16:42:23Z</time>
      </trkpt>
      <trkpt lat="49.4131" lon="1.14063">
        <ele>157</ele>
        <time>2017-11-07T16:42:39Z</time>
      </trkpt>
      <trkpt lat="49.41306" lon="1.14065">
        <ele>157</ele>
        <time>2017-11-07T16:42:39Z</time>
      </trkpt>
      <trkpt lat="49.41302" lon="1.14068">
        <ele>157</ele>
        <time>2017-11-07T16:42:39Z</time>
      </trkpt>
      <trkpt lat="49.41298" lon="1.1407">
        <ele>157</ele>
        <time>2017-11-07T16:42:39Z</time>
      </trkpt>
      <trkpt lat="49.41294" lon="1.14074">
        <ele>157</ele>
        <time>2017-11-07T16:42:55Z</time>
      </trkpt>
      <trkpt lat="49.4129" lon="1.14076">
        <ele>158</ele>
        <time>2017-11-07T16:42:55Z</time>
      </trkpt>
      <trkpt lat="49.41286" lon="1.14079">
        <ele>158</ele>
        <time>2017-11-07T16:42:55Z</time>
      </trkpt>
      <trkpt lat="49.41283" lon="1.14081">
        <ele>158</ele>
        <time>2017-11-07T16:42:55Z</time>
      </trkpt>
      <trkpt lat="49.41278" lon="1.14086">
        <ele>158</ele>
        <time>2017-11-07T16:43:11Z</time>
      </trkpt>
      <trkpt lat="49.41275" lon="1.14088">
        <ele>158</ele>
        <time>2017-11-07T16:43:11Z</time>
      </trkpt>
      <trkpt lat="49.4127" lon="1.1409">
        <ele>158</ele>
        <time>2017-11-07T16:43:11Z</time>
      </trkpt>
      <trkpt lat="49.41266" lon="1.14094">
        <ele>158</ele>
        <time>2017-11-07T16:43:11Z</time>
      </trkpt>
      <trkpt lat="49.41262" lon="1.14097">
        <ele>158</ele>
        <time>2017-11-07T16:43:27Z</time>
      </trkpt>
      <trkpt lat="49.41259" lon="1.141">
        <ele>158</ele>
        <time>2017-11-07T16:43:27Z</time>
      </trkpt>
      <trkpt lat="49.41253" lon="1.14106">
        <ele>158</ele>
        <time>2017-11-07T16:43:27Z</time>
      </trkpt>
      <trkpt lat="49.41249" lon="1.14111">
        <ele>158</ele>
        <time>2017-11-07T16:43:27Z</time>
      </trkpt>
      <trkpt lat="49.41244" lon="1.14114">
        <ele>158</ele>
        <time>2017-11-07T16:43:43Z</time>
      </trkpt>
      <trkpt lat="49.4124" lon="1.14118">
        <ele>158</ele>
        <time>2017-11-07T16:43:43Z</time>
      </trkpt>
      <trkpt lat="49.41236" lon="1.14123">
        <ele>158</ele>
        <time>2017-11-07T16:43:43Z</time>
      </trkpt>
      <trkpt lat="49.41232" lon="1.14127">
        <ele>157</ele>
        <time>2017-11-07T16:43:43Z</time>
      </trkpt>
      <trkpt lat="49.41225" lon="1.14138">
        <ele>157</ele>
        <time>2017-11-07T16:44:15Z</time>
      </trkpt>
      <trkpt lat="49.41229" lon="1.14139">
        <ele>157</ele>
        <time>2017-11-07T16:44:15Z</time>
      </trkpt>
      <trkpt lat="49.41232" lon="1.14139">
        <ele>157</ele>
        <time>2017-11-07T16:44:15Z</time>
      </trkpt>
      <trkpt lat="49.41236" lon="1.14138">
        <ele>157</ele>
        <time>2017-11-07T16:44:15Z</time>
      </trkpt>
      <trkpt lat="49.4124" lon="1.14141">
        <ele>157</ele>
        <time>2017-11-07T16:44:15Z</time>
      </trkpt>
      <trkpt lat="49.41242" lon="1.14147">
        <ele>157</ele>
        <time>2017-11-07T16:44:31Z</time>
      </trkpt>
      <trkpt lat="49.41244" lon="1.14153">
        <ele>157</ele>
        <time>2017-11-07T16:44:31Z</time>
      </trkpt>
      <trkpt lat="49.41247" lon="1.14157">
        <ele>157</ele>
        <time>2017-11-07T16:44:31Z</time>
      </trkpt>
      <trkpt lat="49.4125" lon="1.14165">
        <ele>157</ele>
        <time>2017-11-07T16:44:31Z</time>
      </trkpt>
      <trkpt lat="49.41253" lon="1.14171">
        <ele>157</ele>
        <time>2017-11-07T16:44:47Z</time>
      </trkpt>
      <trkpt lat="49.41255" lon="1.14175">
        <ele>157</ele>
        <time>2017-11-07T16:44:47Z</time>
      </trkpt>
      <trkpt lat="49.41258" lon="1.14183">
        <ele>157</ele>
        <time>2017-11-07T16:44:47Z</time>
      </trkpt>
      <trkpt lat="49.4126" lon="1.14188">
        <ele>157</ele>
        <time>2017-11-07T16:44:47Z</time>
      </trkpt>
      <trkpt lat="49.41263" lon="1.14194">
        <ele>157</ele>
        <time>2017-11-07T16:45:03Z</time>
      </trkpt>
      <trkpt lat="49.41266" lon="1.14199">
        <ele>157</ele>
        <time>2017-11-07T16:45:03Z</time>
      </trkpt>
      <trkpt lat="49.41269" lon="1.14203">
        <ele>157</ele>
        <time>2017-11-07T16:45:03Z</time>
      </trkpt>
      <trkpt lat="49.41273" lon="1.14208">
        <ele>157</ele>
        <time>2017-11-07T16:45:03Z</time>
      </trkpt>
      <trkpt lat="49.41276" lon="1.14211">
        <ele>157</ele>
        <time>2017-11-07T16:45:19Z</time>
      </trkpt>
      <trkpt lat="49.4128" lon="1.14214">
        <ele>157</ele>
        <time>2017-11-07T16:45:19Z</time>
      </trkpt>
      <trkpt lat="49.41284" lon="1.14217">
        <ele>157</ele>
        <time>2017-11-07T16:45:19Z</time>
      </trkpt>
      <trkpt lat="49.41288" lon="1.14219">
        <ele>157</ele>
        <time>2017-11-07T16:45:19Z</time>
      </trkpt>
      <trkpt lat="49.41292" lon="1.14223">
        <ele>154</ele>
        <time>2017-11-07T16:45:35Z</time>
      </trkpt>
      <trkpt lat="49.41296" lon="1.14225">
        <ele>154</ele>
        <time>2017-11-07T16:45:35Z</time>
      </trkpt>
      <trkpt lat="49.413" lon="1.14228">
        <ele>154</ele>
        <time>2017-11-07T16:45:35Z</time>
      </trkpt>
      <trkpt lat="49.41304" lon="1.1423">
        <ele>154</ele>
        <time>2017-11-07T16:45:35Z</time>
      </trkpt>
      <trkpt lat="49.41308" lon="1.14232">
        <ele>154</ele>
        <time>2017-11-07T16:45:51Z</time>
      </trkpt>
      <trkpt lat="49.41312" lon="1.14233">
        <ele>154</ele>
        <time>2017-11-07T16:45:51Z</time>
      </trkpt>
      <trkpt lat="49.41316" lon="1.14236">
        <ele>154</ele>
        <time>2017-11-07T16:45:51Z</time>
      </trkpt>
      <trkpt lat="49.41319" lon="1.14239">
        <ele>154</ele>
        <time>2017-11-07T16:45:51Z</time>
      </trkpt>
      <trkpt lat="49.41323" lon="1.14243">
        <ele>154</ele>
        <time>2017-11-07T16:46:07Z</time>
      </trkpt>
      <trkpt lat="49.41326" lon="1.14245">
        <ele>154</ele>
        <time>2017-11-07T16:46:07Z</time>
      </trkpt>
      <trkpt lat="49.4133" lon="1.14248">
        <ele>154</ele>
        <time>2017-11-07T16:46:07Z</time>
      </trkpt>
      <trkpt lat="49.41334" lon="1.1425">
        <ele>154</ele>
        <time>2017-11-07T16:46:07Z</time>
      </trkpt>
      <trkpt lat="49.41337" lon="1.14252">
        <ele>154</ele>
        <time>2017-11-07T16:46:23Z</time>
      </trkpt>
      <trkpt lat="49.41342" lon="1.14257">
        <ele>154</ele>
        <time>2017-11-07T16:46:23Z</time>
      </trkpt>
      <trkpt lat="49.41346" lon="1.1426">
        <ele>154</ele>
        <time>2017-11-07T16:46:23Z</time>
      </trkpt>
      <trkpt lat="49.4135" lon="1.14263">
        <ele>154</ele>
        <time>2017-11-07T16:46:23Z</time>
      </trkpt>
      <trkpt lat="49.41354" lon="1.14265">
        <ele>154</ele>
        <time>2017-11-07T16:46:39Z</time>
      </trkpt>
      <trkpt lat="49.41357" lon="1.14268">
        <ele>154</ele>
        <time>2017-11-07T16:46:39Z</time>
      </trkpt>
      <trkpt lat="49.41361" lon="1.1427">
        <ele>154</ele>
        <time>2017-11-07T16:46:39Z</time>
      </trkpt>
      <trkpt lat="49.41365" lon="1.14271">
        <ele>154</ele>
        <time>2017-11-07T16:46:39Z</time>
      </trkpt>
      <trkpt lat="49.41369" lon="1.14273">
        <ele>154</ele>
        <time>2017-11-07T16:46:55Z</time>
      </trkpt>
      <trkpt lat="49.41373" lon="1.14275">
        <ele>154</ele>
        <time>2017-11-07T16:46:55Z</time>
      </trkpt>
      <trkpt lat="49.41377" lon="1.14277">
        <ele>155</ele>
        <time>2017-11-07T16:46:55Z</time>
      </trkpt>
      <trkpt lat="49.41381" lon="1.1428">
        <ele>155</ele>
        <time>2017-11-07T16:46:55Z</time>
      </trkpt>
      <trkpt lat="49.41385" lon="1.14283">
        <ele>155</ele>
        <time>2017-11-07T16:47:11Z</time>
      </trkpt>
      <trkpt lat="49.41389" lon="1.14286">
        <ele>155</ele>
        <time>2017-11-07T16:47:11Z</time>
      </trkpt>
      <trkpt lat="49.41393" lon="1.14289">
        <ele>155</ele>
        <time>2017-11-07T16:47:11Z</time>
      </trkpt>
      <trkpt lat="49.41397" lon="1.14292">
        <ele>153</ele>
        <time>2017-11-07T16:47:11Z</time>
      </trkpt>
      <trkpt lat="49.41402" lon="1.14295">
        <ele>153</ele>
        <time>2017-11-07T16:47:27Z</time>
      </trkpt>
      <trkpt lat="49.41406" lon="1.14298">
        <ele>153</ele>
        <time>2017-11-07T16:47:27Z</time>
      </trkpt>
      <trkpt lat="49.4141" lon="1.14299">
        <ele>153</ele>
        <time>2017-11-07T16:47:27Z</time>
      </trkpt>
      <trkpt lat="49.41415" lon="1.143">
        <ele>153</ele>
        <time>2017-11-07T16:47:27Z</time>
      </trkpt>
      <trkpt lat="49.41419" lon="1.14301">
        <ele>153</ele>
        <time>2017-11-07T16:47:43Z</time>
      </trkpt>
      <trkpt lat="49.41423" lon="1.143">
        <ele>153</ele>
        <time>2017-11-07T16:47:43Z</time>
      </trkpt>
      <trkpt lat="49.41428" lon="1.143">
        <ele>153</ele>
        <time>2017-11-07T16:47:43Z</time>
      </trkpt>
      <trkpt lat="49.41432" lon="1.14299">
        <ele>153</ele>
        <time>2017-11-07T16:47:43Z</time>
      </trkpt>
      <trkpt lat="49.41437" lon="1.14298">
        <ele>153</ele>
        <time>2017-11-07T16:47:59Z</time>
      </trkpt>
      <trkpt lat="49.41441" lon="1.14298">
        <ele>153</ele>
        <time>2017-11-07T16:47:59Z</time>
      </trkpt>
      <trkpt lat="49.41445" lon="1.14297">
        <ele>153</ele>
        <time>2017-11-07T16:47:59Z</time>
      </trkpt>
      <trkpt lat="49.41449" lon="1.14297">
        <ele>153</ele>
        <time>2017-11-07T16:47:59Z</time>
      </trkpt>
      <trkpt lat="49.41453" lon="1.14296">
        <ele>153</ele>
        <time>2017-11-07T16:48:15Z</time>
      </trkpt>
      <trkpt lat="49.41457" lon="1.14295">
        <ele>153</ele>
        <time>2017-11-07T16:48:15Z</time>
      </trkpt>
      <trkpt lat="49.41461" lon="1.14294">
        <ele>152</ele>
        <time>2017-11-07T16:48:15Z</time>
      </trkpt>
      <trkpt lat="49.41466" lon="1.14293">
        <ele>152</ele>
        <time>2017-11-07T16:48:15Z</time>
      </trkpt>
      <trkpt lat="49.4147" lon="1.14293">
        <ele>152</ele>
        <time>2017-11-07T16:48:31Z</time>
      </trkpt>
      <trkpt lat="49.41475" lon="1.14294">
        <ele>152</ele>
        <time>2017-11-07T16:48:31Z</time>
      </trkpt>
      <trkpt lat="49.41479" lon="1.14295">
        <ele>152</ele>
        <time>2017-11-07T16:48:31Z</time>
      </trkpt>
      <trkpt lat="49.41483" lon="1.14295">
        <ele>152</ele>
        <time>2017-11-07T16:48:31Z</time>
      </trkpt>
      <trkpt lat="49.41488" lon="1.14296">
        <ele>152</ele>
        <time>2017-11-07T16:48:47Z</time>
      </trkpt>
      <trkpt lat="49.41492" lon="1.14297">
        <ele>152</ele>
        <time>2017-11-07T16:48:47Z</time>
      </trkpt>
      <trkpt lat="49.41496" lon="1.14301">
        <ele>152</ele>
        <time>2017-11-07T16:48:47Z</time>
      </trkpt>
      <trkpt lat="49.41499" lon="1.14307">
        <ele>152</ele>
        <time>2017-11-07T16:48:47Z</time>
      </trkpt>
      <trkpt lat="49.415" lon="1.14313">
        <ele>152</ele>
        <time>2017-11-07T16:49:03Z</time>
      </trkpt>
      <trkpt lat="49.415" lon="1.14319">
        <ele>152</ele>
        <time>2017-11-07T16:49:03Z</time>
      </trkpt>
      <trkpt lat="49.41499" lon="1.14324">
        <ele>152</ele>
        <time>2017-11-07T16:49:03Z</time>
      </trkpt>
      <trkpt lat="49.41497" lon="1.1433">
        <ele>152</ele>
        <time>2017-11-07T16:49:03Z</time>
      </trkpt>
      <trkpt lat="49.41495" lon="1.14336">
        <ele>152</ele>
        <time>2017-11-07T16:49:19Z</time>
      </trkpt>
      <trkpt lat="49.41494" lon="1.14342">
        <ele>152</ele>
        <time>2017-11-07T16:49:19Z</time>
      </trkpt>
      <trkpt lat="49.41492" lon="1.14349">
        <ele>152</ele>
        <time>2017-11-07T16:49:19Z</time>
      </trkpt>
      <trkpt lat="49.41491" lon="1.14356">
        <ele>152</ele>
        <time>2017-11-07T16:49:19Z</time>
      </trkpt>
      <trkpt lat="49.41489" lon="1.14362">
        <ele>152</ele>
        <time>2017-11-07T16:49:35Z</time>
      </trkpt>
      <trkpt lat="49.41487" lon="1.14369">
        <ele>152</ele>
        <time>2017-11-07T16:49:35Z</time>
      </trkpt>
      <trkpt lat="49.41486" lon="1.14375">
        <ele>149</ele>
        <time>2017-11-07T16:49:35Z</time>
      </trkpt>
      <trkpt lat="49.41484" lon="1.14382">
        <ele>149</ele>
        <time>2017-11-07T16:49:35Z</time>
      </trkpt>
      <trkpt lat="49.41482" lon="1.14388">
        <ele>149</ele>
        <time>2017-11-07T16:49:51Z</time>
      </trkpt>
      <trkpt lat="49.4148" lon="1.14394">
        <ele>149</ele>
        <time>2017-11-07T16:49:51Z</time>
      </trkpt>
      <trkpt lat="49.41479" lon="1.14401">
        <ele>149</ele>
        <time>2017-11-07T16:49:51Z</time>
      </trkpt>
      <trkpt lat="49.41477" lon="1.14407">
        <ele>149</ele>
        <time>2017-11-07T16:49:51Z</time>
      </trkpt>
      <trkpt lat="49.41475" lon="1.14413">
        <ele>149</ele>
        <time>2017-11-07T16:50:07Z</time>
      </trkpt>
      <trkpt lat="49.41474" lon="1.14419">
        <ele>149</ele>
        <time>2017-11-07T16:50:07Z</time>
      </trkpt>
      <trkpt lat="49.41471" lon="1.14425">
        <ele>149</ele>
        <time>2017-11-07T16:50:07Z</time>
      </trkpt>
      <trkpt lat="49.41469" lon="1.14431">
        <ele>149</ele>
        <time>2017-11-07T16:50:07Z</time>
      </trkpt>
      <trkpt lat="49.41467" lon="1.14437">
        <ele>149</ele>
        <time>2017-11-07T16:50:23Z</time>
      </trkpt>
      <trkpt lat="49.41464" lon="1.14443">
        <ele>149</ele>
        <time>2017-11-07T16:50:23Z</time>
      </trkpt>
      <trkpt lat="49.41461" lon="1.14448">
        <ele>149</ele>
        <time>2017-11-07T16:50:23Z</time>
      </trkpt>
      <trkpt lat="49.41458" lon="1.14453">
        <ele>152</ele>
        <time>2017-11-07T16:50:23Z</time>
      </trkpt>
      <trkpt lat="49.41454" lon="1.14458">
        <ele>152</ele>
        <time>2017-11-07T16:50:39Z</time>
      </trkpt>
      <trkpt lat="49.41451" lon="1.14462">
        <ele>151</ele>
        <time>2017-11-07T16:50:39Z</time>
      </trkpt>
      <trkpt lat="49.41447" lon="1.14467">
        <ele>151</ele>
        <time>2017-11-07T16:50:39Z</time>
      </trkpt>
      <trkpt lat="49.41444" lon="1.14471">
        <ele>151</ele>
        <time>2017-11-07T16:50:39Z</time>
      </trkpt>
      <trkpt lat="49.4144" lon="1.14474">
        <ele>151</ele>
        <time>2017-11-07T16:50:55Z</time>
      </trkpt>
      <trkpt lat="49.41436" lon="1.14477">
        <ele>151</ele>
        <time>2017-11-07T16:50:55Z</time>
      </trkpt>
      <trkpt lat="49.41433" lon="1.1448">
        <ele>151</ele>
        <time>2017-11-07T16:50:55Z</time>
      </trkpt>
      <trkpt lat="49.41429" lon="1.14484">
        <ele>151</ele>
        <time>2017-11-07T16:50:55Z</time>
      </trkpt>
      <trkpt lat="49.41425" lon="1.14487">
        <ele>151</ele>
        <time>2017-11-07T16:51:11Z</time>
      </trkpt>
      <trkpt lat="49.41421" lon="1.1449">
        <ele>151</ele>
        <time>2017-11-07T16:51:11Z</time>
      </trkpt>
      <trkpt lat="49.41417" lon="1.14494">
        <ele>151</ele>
        <time>2017-11-07T16:51:11Z</time>
      </trkpt>
      <trkpt lat="49.41413" lon="1.14495">
        <ele>151</ele>
        <time>2017-11-07T16:51:11Z</time>
      </trkpt>
      <trkpt lat="49.41409" lon="1.14496">
        <ele>151</ele>
        <time>2017-11-07T16:51:27Z</time>
      </trkpt>
      <trkpt lat="49.41405" lon="1.14499">
        <ele>151</ele>
        <time>2017-11-07T16:51:27Z</time>
      </trkpt>
      <trkpt lat="49.41402" lon="1.14502">
        <ele>151</ele>
        <time>2017-11-07T16:51:27Z</time>
      </trkpt>
      <trkpt lat="49.41398" lon="1.14506">
        <ele>151</ele>
        <time>2017-11-07T16:51:27Z</time>
      </trkpt>
      <trkpt lat="49.41394" lon="1.14511">
        <ele>151</ele>
        <time>2017-11-07T16:51:43Z</time>
      </trkpt>
      <trkpt lat="49.4139" lon="1.14517">
        <ele>151</ele>
        <time>2017-11-07T16:51:43Z</time>
      </trkpt>
      <trkpt lat="49.41386" lon="1.14522">
        <ele>151</ele>
        <time>2017-11-07T16:51:43Z</time>
      </trkpt>
      <trkpt lat="49.41384" lon="1.14526">
        <ele>151</ele>
        <time>2017-11-07T16:51:43Z</time>
      </trkpt>
      <trkpt lat="49.41382" lon="1.14529">
        <ele>151</ele>
        <time>2017-11-07T16:51:59Z</time>
      </trkpt>
      <trkpt lat="49.41378" lon="1.14533">
        <ele>151</ele>
        <time>2017-11-07T16:51:59Z</time>
      </trkpt>
      <trkpt lat="49.41376" lon="1.14537">
        <ele>151</ele>
        <time>2017-11-07T16:51:59Z</time>
      </trkpt>
      <trkpt lat="49.41373" lon="1.14542">
        <ele>153</ele>
        <time>2017-11-07T16:51:59Z</time>
      </trkpt>
      <trkpt lat="49.41371" lon="1.14545">
        <ele>153</ele>
        <time>2017-11-07T16:52:15Z</time>
      </trkpt>
      <trkpt lat="49.41368" lon="1.1455">
        <ele>153</ele>
        <time>2017-11-07T16:52:15Z</time>
      </trkpt>
      <trkpt lat="49.41365" lon="1.14555">
        <ele>153</ele>
        <time>2017-11-07T16:52:15Z</time>
      </trkpt>
      <trkpt lat="49.41363" lon="1.1456">
        <ele>153</ele>
        <time>2017-11-07T16:52:15Z</time>
      </trkpt>
      <trkpt lat="49.4136" lon="1.14565">
        <ele>153</ele>
        <time>2017-11-07T16:52:31Z</time>
      </trkpt>
      <trkpt lat="49.41357" lon="1.1457">
        <ele>153</ele>
        <time>2017-11-07T16:52:31Z</time>
      </trkpt>
      <trkpt lat="49.41355" lon="1.14574">
        <ele>153</ele>
        <time>2017-11-07T16:52:31Z</time>
      </trkpt>
      <trkpt lat="49.41353" lon="1.14579">
        <ele>153</ele>
        <time>2017-11-07T16:52:31Z</time>
      </trkpt>
      <trkpt lat="49.4135" lon="1.14584">
        <ele>153</ele>
        <time>2017-11-07T16:52:47Z</time>
      </trkpt>
      <trkpt lat="49.41348" lon="1.14591">
        <ele>153</ele>
        <time>2017-11-07T16:52:47Z</time>
      </trkpt>
      <trkpt lat="49.41346" lon="1.14597">
        <ele>153</ele>
        <time>2017-11-07T16:52:47Z</time>
      </trkpt>
      <trkpt lat="49.41345" lon="1.14604">
        <ele>153</ele>
        <time>2017-11-07T16:52:47Z</time>
      </trkpt>
      <trkpt lat="49.41343" lon="1.14611">
        <ele>153</ele>
        <time>2017-11-07T16:53:03Z</time>
      </trkpt>
      <trkpt lat="49.41342" lon="1.14618">
        <ele>153</ele>
        <time>2017-11-07T16:53:03Z</time>
      </trkpt>
      <trkpt lat="49.41341" lon="1.14625">
        <ele>153</ele>
        <time>2017-11-07T16:53:03Z</time>
      </trkpt>
      <trkpt lat="49.41341" lon="1.14631">
        <ele>154</ele>
        <time>2017-11-07T16:53:03Z</time>
      </trkpt>
      <trkpt lat="49.41342" lon="1.14638">
        <ele>154</ele>
        <time>2017-11-07T16:53:19Z</time>
      </trkpt>
      <trkpt lat="49.41344" lon="1.14644">
        <ele>154</ele>
        <time>2017-11-07T16:53:19Z</time>
      </trkpt>
      <trkpt lat="49.41344" lon="1.1465">
        <ele>154</ele>
        <time>2017-11-07T16:53:19Z</time>
      </trkpt>
      <trkpt lat="49.41343" lon="1.14656">
        <ele>154</ele>
        <time>2017-11-07T16:53:19Z</time>
      </trkpt>
      <trkpt lat="49.41344" lon="1.14662">
        <ele>154</ele>
        <time>2017-11-07T16:53:35Z</time>
      </trkpt>
      <trkpt lat="49.41346" lon="1.14668">
        <ele>154</ele>
        <time>2017-11-07T16:53:35Z</time>
      </trkpt>
      <trkpt lat="49.41348" lon="1.14673">
        <ele>154</ele>
        <time>2017-11-07T16:53:35Z</time>
      </trkpt>
      <trkpt lat="49.4135" lon="1.14679">
        <ele>154</ele>
        <time>2017-11-07T16:53:35Z</time>
      </trkpt>
      <trkpt lat="49.4135" lon="1.14685">
        <ele>154</ele>
        <time>2017-11-07T16:53:51Z</time>
      </trkpt>
      <trkpt lat="49.41353" lon="1.14691">
        <ele>154</ele>
        <time>2017-11-07T16:53:51Z</time>
      </trkpt>
      <trkpt lat="49.41355" lon="1.14696">
        <ele>154</ele>
        <time>2017-11-07T16:53:51Z</time>
      </trkpt>
      <trkpt lat="49.41358" lon="1.14701">
        <ele>154</ele>
        <time>2017-11-07T16:53:51Z</time>
      </trkpt>
      <trkpt lat="49.41362" lon="1.14707">
        <ele>154</ele>
        <time>2017-11-07T16:54:07Z</time>
      </trkpt>
      <trkpt lat="49.41364" lon="1.14713">
        <ele>152</ele>
        <time>2017-11-07T16:54:07Z</time>
      </trkpt>
      <trkpt lat="49.41367" lon="1.14719">
        <ele>152</ele>
        <time>2017-11-07T16:54:07Z</time>
      </trkpt>
      <trkpt lat="49.4137" lon="1.14724">
        <ele>152</ele>
        <time>2017-11-07T16:54:07Z</time>
      </trkpt>
      <trkpt lat="49.41373" lon="1.1473">
        <ele>152</ele>
        <time>2017-11-07T16:54:23Z</time>
      </trkpt>
      <trkpt lat="49.41376" lon="1.14736">
        <ele>149</ele>
        <time>2017-11-07T16:54:23Z</time>
      </trkpt>
      <trkpt lat="49.41379" lon="1.14741">
        <ele>149</ele>
        <time>2017-11-07T16:54:23Z</time>
      </trkpt>
      <trkpt lat="49.41381" lon="1.14747">
        <ele>149</ele>
        <time>2017-11-07T16:54:23Z</time>
      </trkpt>
      <trkpt lat="49.41384" lon="1.14752">
        <ele>149</ele>
        <time>2017-11-07T16:54:39Z</time>
      </trkpt>
      <trkpt lat="49.41387" lon="1.14757">
        <ele>149</ele>
        <time>2017-11-07T16:54:39Z</time>
      </trkpt>
      <trkpt lat="49.4139" lon="1.14763">
        <ele>149</ele>
        <time>2017-11-07T16:54:39Z</time>
      </trkpt>
      <trkpt lat="49.41391" lon="1.14769">
        <ele>149</ele>
        <time>2017-11-07T16:54:39Z</time>
      </trkpt>
      <trkpt lat="49.4139" lon="1.14771">
        <ele>149</ele>
        <time>2017-11-07T16:55:11Z</time>
      </trkpt>
      <trkpt lat="49.4139" lon="1.14771">
        <ele>149</ele>
        <time>2017-11-07T16:55:11Z</time>
      </trkpt>
      <trkpt lat="49.41388" lon="1.14774">
        <ele>149</ele>
        <time>2017-11-07T16:55:11Z</time>
      </trkpt>
      <trkpt lat="49.41385" lon="1.14779">
        <ele>149</ele>
        <time>2017-11-07T16:55:11Z</time>
      </trkpt>
      <trkpt lat="49.41381" lon="1.14784">
        <ele>149</ele>
        <time>2017-11-07T16:55:11Z</time>
      </trkpt>
      <trkpt lat="49.41377" lon="1.14789">
        <ele>149</ele>
        <time>2017-11-07T16:55:27Z</time>
      </trkpt>
      <trkpt lat="49.41373" lon="1.14793">
        <ele>149</ele>
        <time>2017-11-07T16:55:27Z</time>
      </trkpt>
      <trkpt lat="49.4137" lon="1.14799">
        <ele>149</ele>
        <time>2017-11-07T16:55:27Z</time>
      </trkpt>
      <trkpt lat="49.41366" lon="1.14803">
        <ele>149</ele>
        <time>2017-11-07T16:55:27Z</time>
      </trkpt>
      <trkpt lat="49.41363" lon="1.14808">
        <ele>149</ele>
        <time>2017-11-07T16:55:43Z</time>
      </trkpt>
      <trkpt lat="49.41361" lon="1.14813">
        <ele>149</ele>
        <time>2017-11-07T16:55:43Z</time>
      </trkpt>
      <trkpt lat="49.41357" lon="1.14817">
        <ele>149</ele>
        <time>2017-11-07T16:55:43Z</time>
      </trkpt>
      <trkpt lat="49.41354" lon="1.14822">
        <ele>149</ele>
        <time>2017-11-07T16:55:43Z</time>
      </trkpt>
      <trkpt lat="49.41351" lon="1.14827">
        <ele>149</ele>
        <time>2017-11-07T16:55:59Z</time>
      </trkpt>
      <trkpt lat="49.41347" lon="1.14832">
        <ele>149</ele>
        <time>2017-11-07T16:55:59Z</time>
      </trkpt>
      <trkpt lat="49.41343" lon="1.14836">
        <ele>149</ele>
        <time>2017-11-07T16:55:59Z</time>
      </trkpt>
      <trkpt lat="49.4134" lon="1.14842">
        <ele>149</ele>
        <time>2017-11-07T16:55:59Z</time>
      </trkpt>
      <trkpt lat="49.41337" lon="1.14846">
        <ele>149</ele>
        <time>2017-11-07T16:56:15Z</time>
      </trkpt>
      <trkpt lat="49.41333" lon="1.14851">
        <ele>149</ele>
        <time>2017-11-07T16:56:15Z</time>
      </trkpt>
      <trkpt lat="49.41329" lon="1.14856">
        <ele>149</ele>
        <time>2017-11-07T16:56:15Z</time>
      </trkpt>
      <trkpt lat="49.41326" lon="1.14861">
        <ele>149</ele>
        <time>2017-11-07T16:56:15Z</time>
      </trkpt>
      <trkpt lat="49.41322" lon="1.14865">
        <ele>149</ele>
        <time>2017-11-07T16:56:31Z</time>
      </trkpt>
      <trkpt lat="49.41318" lon="1.14869">
        <ele>149</ele>
        <time>2017-11-07T16:56:31Z</time>
      </trkpt>
      <trkpt lat="49.41315" lon="1.14872">
        <ele>149</ele>
        <time>2017-11-07T16:56:31Z</time>
      </trkpt>
      <trkpt lat="49.4131" lon="1.14875">
        <ele>148</ele>
        <time>2017-11-07T16:56:31Z</time>
      </trkpt>
      <trkpt lat="49.41307" lon="1.14877">
        <ele>148</ele>
        <time>2017-11-07T16:56:47Z</time>
      </trkpt>
      <trkpt lat="49.41303" lon="1.1488">
        <ele>148</ele>
        <time>2017-11-07T16:56:47Z</time>
      </trkpt>
      <trkpt lat="49.41299" lon="1.14883">
        <ele>148</ele>
        <time>2017-11-07T16:56:47Z</time>
      </trkpt>
      <trkpt lat="49.41295" lon="1.14889">
        <ele>148</ele>
        <time>2017-11-07T16:56:47Z</time>
      </trkpt>
      <trkpt lat="49.41291" lon="1.14893">
        <ele>151</ele>
        <time>2017-11-07T16:57:03Z</time>
      </trkpt>
      <trkpt lat="49.41288" lon="1.14897">
        <ele>151</ele>
        <time>2017-11-07T16:57:03Z</time>
      </trkpt>
      <trkpt lat="49.41285" lon="1.14903">
        <ele>151</ele>
        <time>2017-11-07T16:57:03Z</time>
      </trkpt>
      <trkpt lat="49.41282" lon="1.14908">
        <ele>151</ele>
        <time>2017-11-07T16:57:03Z</time>
      </trkpt>
      <trkpt lat="49.41278" lon="1.14913">
        <ele>151</ele>
        <time>2017-11-07T16:57:19Z</time>
      </trkpt>
      <trkpt lat="49.41275" lon="1.14918">
        <ele>151</ele>
        <time>2017-11-07T16:57:19Z</time>
      </trkpt>
      <trkpt lat="49.41272" lon="1.14923">
        <ele>151</ele>
        <time>2017-11-07T16:57:19Z</time>
      </trkpt>
      <trkpt lat="49.41269" lon="1.14929">
        <ele>151</ele>
        <time>2017-11-07T16:57:19Z</time>
      </trkpt>
      <trkpt lat="49.41266" lon="1.14934">
        <ele>151</ele>
        <time>2017-11-07T16:57:35Z</time>
      </trkpt>
      <trkpt lat="49.41262" lon="1.14939">
        <ele>151</ele>
        <time>2017-11-07T16:57:35Z</time>
      </trkpt>
      <trkpt lat="49.41258" lon="1.14943">
        <ele>151</ele>
        <time>2017-11-07T16:57:35Z</time>
      </trkpt>
      <trkpt lat="49.41255" lon="1.14947">
        <ele>151</ele>
        <time>2017-11-07T16:57:35Z</time>
      </trkpt>
      <trkpt lat="49.41253" lon="1.14953">
        <ele>151</ele>
        <time>2017-11-07T16:57:51Z</time>
      </trkpt>
      <trkpt lat="49.41251" lon="1.14957">
        <ele>151</ele>
        <time>2017-11-07T16:57:51Z</time>
      </trkpt>
      <trkpt lat="49.41248" lon="1.14961">
        <ele>148</ele>
        <time>2017-11-07T16:57:51Z</time>
      </trkpt>
      <trkpt lat="49.41245" lon="1.14966">
        <ele>148</ele>
        <time>2017-11-07T16:57:51Z</time>
      </trkpt>
      <trkpt lat="49.41242" lon="1.1497">
        <ele>148</ele>
        <time>2017-11-07T16:58:07Z</time>
      </trkpt>
      <trkpt lat="49.41239" lon="1.14976">
        <ele>148</ele>
        <time>2017-11-07T16:58:07Z</time>
      </trkpt>
      <trkpt lat="49.41235" lon="1.14981">
        <ele>148</ele>
        <time>2017-11-07T16:58:07Z</time>
      </trkpt>
      <trkpt lat="49.41231" lon="1.14986">
        <ele>148</ele>
        <time>2017-11-07T16:58:07Z</time>
      </trkpt>
      <trkpt lat="49.41229" lon="1.14987">
        <ele>148</ele>
        <time>2017-11-07T16:58:23Z</time>
      </trkpt>
      <trkpt lat="49.41226" lon="1.1499">
        <ele>148</ele>
        <time>2017-11-07T16:58:23Z</time>
      </trkpt>
      <trkpt lat="49.41222" lon="1.14991">
        <ele>148</ele>
        <time>2017-11-07T16:58:23Z</time>
      </trkpt>
      <trkpt lat="49.41218" lon="1.14992">
        <ele>148</ele>
        <time>2017-11-07T16:58:23Z</time>
      </trkpt>
      <trkpt lat="49.41214" lon="1.14992">
        <ele>148</ele>
        <time>2017-11-07T16:58:39Z</time>
      </trkpt>
      <trkpt lat="49.41209" lon="1.14991">
        <ele>148</ele>
        <time>2017-11-07T16:58:39Z</time>
      </trkpt>
      <trkpt lat="49.41205" lon="1.14995">
        <ele>150</ele>
        <time>2017-11-07T16:58:39Z</time>
      </trkpt>
      <trkpt lat="49.41201" lon="1.15">
        <ele>150</ele>
        <time>2017-11-07T16:58:39Z</time>
      </trkpt>
      <trkpt lat="49.41199" lon="1.15007">
        <ele>150</ele>
        <time>2017-11-07T16:58:55Z</time>
      </trkpt>
      <trkpt lat="49.41198" lon="1.15014">
        <ele>150</ele>
        <time>2017-11-07T16:58:55Z</time>
      </trkpt>
      <trkpt lat="49.41196" lon="1.15022">
        <ele>150</ele>
        <time>2017-11-07T16:58:55Z</time>
      </trkpt>
      <trkpt lat="49.41195" lon="1.15028">
        <ele>150</ele>
        <time>2017-11-07T16:58:55Z</time>
      </trkpt>
      <trkpt lat="49.41194" lon="1.15034">
        <ele>150</ele>
        <time>2017-11-07T16:59:11Z</time>
      </trkpt>
      <trkpt lat="49.41192" lon="1.15041">
        <ele>150</ele>
        <time>2017-11-07T16:59:11Z</time>
      </trkpt>
      <trkpt lat="49.4119" lon="1.15047">
        <ele>148</ele>
        <time>2017-11-07T16:59:11Z</time>
      </trkpt>
      <trkpt lat="49.41189" lon="1.15053">
        <ele>148</ele>
        <time>2017-11-07T16:59:11Z</time>
      </trkpt>
      <trkpt lat="49.41187" lon="1.15059">
        <ele>148</ele>
        <time>2017-11-07T16:59:27Z</time>
      </trkpt>
      <trkpt lat="49.41185" lon="1.15066">
        <ele>148</ele>
        <time>2017-11-07T16:59:27Z</time>
      </trkpt>
      <trkpt lat="49.41183" lon="1.15072">
        <ele>148</ele>
        <time>2017-11-07T16:59:27Z</time>
      </trkpt>
      <trkpt lat="49.41181" lon="1.15078">
        <ele>148</ele>
        <time>2017-11-07T16:59:27Z</time>
      </trkpt>
      <trkpt lat="49.41179" lon="1.15085">
        <ele>148</ele>
        <time>2017-11-07T16:59:43Z</time>
      </trkpt>
      <trkpt lat="49.41177" lon="1.15091">
        <ele>148</ele>
        <time>2017-11-07T16:59:43Z</time>
      </trkpt>
      <trkpt lat="49.41175" lon="1.15097">
        <ele>148</ele>
        <time>2017-11-07T16:59:43Z</time>
      </trkpt>
      <trkpt lat="49.41172" lon="1.15104">
        <ele>148</ele>
        <time>2017-11-07T16:59:43Z</time>
      </trkpt>
      <trkpt lat="49.4117" lon="1.1511">
        <ele>148</ele>
        <time>2017-11-07T16:59:59Z</time>
      </trkpt>
      <trkpt lat="49.41167" lon="1.15117">
        <ele>148</ele>
        <time>2017-11-07T16:59:59Z</time>
      </trkpt>
      <trkpt lat="49.41165" lon="1.15123">
        <ele>148</ele>
        <time>2017-11-07T16:59:59Z</time>
      </trkpt>
      <trkpt lat="49.41162" lon="1.15129">
        <ele>147</ele>
        <time>2017-11-07T16:59:59Z</time>
      </trkpt>
      <trkpt lat="49.4116" lon="1.15136">
        <ele>147</ele>
        <time>2017-11-07T17:00:15Z</time>
      </trkpt>
      <trkpt lat="49.41158" lon="1.15142">
        <ele>147</ele>
        <time>2017-11-07T17:00:15Z</time>
      </trkpt>
      <trkpt lat="49.41156" lon="1.15148">
        <ele>147</ele>
        <time>2017-11-07T17:00:15Z</time>
      </trkpt>
      <trkpt lat="49.41154" lon="1.15155">
        <ele>147</ele>
        <time>2017-11-07T17:00:15Z</time>
      </trkpt>
      <trkpt lat="49.41152" lon="1.1516">
        <ele>147</ele>
        <time>2017-11-07T17:00:31Z</time>
      </trkpt>
      <trkpt lat="49.4115" lon="1.15165">
        <ele>147</ele>
        <time>2017-11-07T17:00:31Z</time>
      </trkpt>
      <trkpt lat="49.41149" lon="1.15171">
        <ele>147</ele>
        <time>2017-11-07T17:00:31Z</time>
      </trkpt>
      <trkpt lat="49.41147" lon="1.15177">
        <ele>147</ele>
        <time>2017-11-07T17:00:31Z</time>
      </trkpt>
      <trkpt lat="49.41145" lon="1.15183">
        <ele>147</ele>
        <time>2017-11-07T17:00:47Z</time>
      </trkpt>
      <trkpt lat="49.41143" lon="1.1519">
        <ele>147</ele>
        <time>2017-11-07T17:00:47Z</time>
      </trkpt>
      <trkpt lat="49.41141" lon="1.15198">
        <ele>147</ele>
        <time>2017-11-07T17:00:47Z</time>
      </trkpt>
      <trkpt lat="49.41139" lon="1.15205">
        <ele>147</ele>
        <time>2017-11-07T17:00:47Z</time>
      </trkpt>
      <trkpt lat="49.41137" lon="1.15211">
        <ele>146</ele>
        <time>2017-11-07T17:01:03Z</time>
      </trkpt>
      <trkpt lat="49.41135" lon="1.15218">
        <ele>146</ele>
        <time>2017-11-07T17:01:03Z</time>
      </trkpt>
      <trkpt lat="49.41133" lon="1.15224">
        <ele>146</ele>
        <time>2017-11-07T17:01:03Z</time>
      </trkpt>
      <trkpt lat="49.41132" lon="1.1523">
        <ele>146</ele>
        <time>2017-11-07T17:01:03Z</time>
      </trkpt>
      <trkpt lat="49.4113" lon="1.15236">
        <ele>146</ele>
        <time>2017-11-07T17:01:19Z</time>
      </trkpt>
      <trkpt lat="49.4113" lon="1.15242">
        <ele>146</ele>
        <time>2017-11-07T17:01:19Z</time>
      </trkpt>
      <trkpt lat="49.41132" lon="1.15246">
        <ele>146</ele>
        <time>2017-11-07T17:01:19Z</time>
      </trkpt>
      <trkpt lat="49.41135" lon="1.1525">
        <ele>146</ele>
        <time>2017-11-07T17:01:19Z</time>
      </trkpt>
      <trkpt lat="49.41137" lon="1.15253">
        <ele>146</ele>
        <time>2017-11-07T17:01:35Z</time>
      </trkpt>
      <trkpt lat="49.41139" lon="1.15257">
        <ele>146</ele>
        <time>2017-11-07T17:01:35Z</time>
      </trkpt>
      <trkpt lat="49.41142" lon="1.15262">
        <ele>146</ele>
        <time>2017-11-07T17:01:35Z</time>
      </trkpt>
      <trkpt lat="49.41144" lon="1.15268">
        <ele>146</ele>
        <time>2017-11-07T17:01:35Z</time>
      </trkpt>
      <trkpt lat="49.41144" lon="1.15275">
        <ele>146</ele>
        <time>2017-11-07T17:01:51Z</time>
      </trkpt>
      <trkpt lat="49.41145" lon="1.15282">
        <ele>146</ele>
        <time>2017-11-07T17:01:51Z</time>
      </trkpt>
      <trkpt lat="49.41148" lon="1.15288">
        <ele>146</ele>
        <time>2017-11-07T17:01:51Z</time>
      </trkpt>
      <trkpt lat="49.41152" lon="1.15294">
        <ele>146</ele>
        <time>2017-11-07T17:01:51Z</time>
      </trkpt>
      <trkpt lat="49.41155" lon="1.15299">
        <ele>146</ele>
        <time>2017-11-07T17:02:07Z</time>
      </trkpt>
      <trkpt lat="49.41159" lon="1.15305">
        <ele>146</ele>
        <time>2017-11-07T17:02:07Z</time>
      </trkpt>
      <trkpt lat="49.41162" lon="1.1531">
        <ele>146</ele>
        <time>2017-11-07T17:02:07Z</time>
      </trkpt>
      <trkpt lat="49.41165" lon="1.15316">
        <ele>146</ele>
        <time>2017-11-07T17:02:07Z</time>
      </trkpt>
      <trkpt lat="49.41168" lon="1.15322">
        <ele>146</ele>
        <time>2017-11-07T17:02:23Z</time>
      </trkpt>
      <trkpt lat="49.41171" lon="1.15327">
        <ele>146</ele>
        <time>2017-11-07T17:02:23Z</time>
      </trkpt>
      <trkpt lat="49.41174" lon="1.15332">
        <ele>146</ele>
        <time>2017-11-07T17:02:23Z</time>
      </trkpt>
      <trkpt lat="49.41177" lon="1.15337">
        <ele>146</ele>
        <time>2017-11-07T17:02:23Z</time>
      </trkpt>
      <trkpt lat="49.41177" lon="1.15344">
        <ele>146</ele>
        <time>2017-11-07T17:02:39Z</time>
      </trkpt>
      <trkpt lat="49.41174" lon="1.1535">
        <ele>146</ele>
        <time>2017-11-07T17:02:39Z</time>
      </trkpt>
      <trkpt lat="49.41171" lon="1.15355">
        <ele>146</ele>
        <time>2017-11-07T17:02:39Z</time>
      </trkpt>
      <trkpt lat="49.41167" lon="1.15363">
        <ele>146</ele>
        <time>2017-11-07T17:02:39Z</time>
      </trkpt>
      <trkpt lat="49.41164" lon="1.15369">
        <ele>146</ele>
        <time>2017-11-07T17:02:55Z</time>
      </trkpt>
      <trkpt lat="49.4116" lon="1.15375">
        <ele>146</ele>
        <time>2017-11-07T17:02:55Z</time>
      </trkpt>
      <trkpt lat="49.41158" lon="1.15381">
        <ele>146</ele>
        <time>2017-11-07T17:02:55Z</time>
      </trkpt>
      <trkpt lat="49.41155" lon="1.15387">
        <ele>146</ele>
        <time>2017-11-07T17:02:55Z</time>
      </trkpt>
      <trkpt lat="49.41152" lon="1.15392">
        <ele>146</ele>
        <time>2017-11-07T17:03:11Z</time>
      </trkpt>
      <trkpt lat="49.41149" lon="1.15398">
        <ele>146</ele>
        <time>2017-11-07T17:03:11Z</time>
      </trkpt>
      <trkpt lat="49.41146" lon="1.15404">
        <ele>146</ele>
        <time>2017-11-07T17:03:11Z</time>
      </trkpt>
      <trkpt lat="49.41143" lon="1.1541">
        <ele>146</ele>
        <time>2017-11-07T17:03:11Z</time>
      </trkpt>
      <trkpt lat="49.4114" lon="1.15416">
        <ele>146</ele>
        <time>2017-11-07T17:03:27Z</time>
      </trkpt>
      <trkpt lat="49.41137" lon="1.15422">
        <ele>146</ele>
        <time>2017-11-07T17:03:27Z</time>
      </trkpt>
      <trkpt lat="49.41134" lon="1.15427">
        <ele>146</ele>
        <time>2017-11-07T17:03:27Z</time>
      </trkpt>
      <trkpt lat="49.41131" lon="1.15434">
        <ele>146</ele>
        <time>2017-11-07T17:03:27Z</time>
      </trkpt>
      <trkpt lat="49.41129" lon="1.1544">
        <ele>146</ele>
        <time>2017-11-07T17:03:43Z</time>
      </trkpt>
      <trkpt lat="49.41126" lon="1.15445">
        <ele>146</ele>
        <time>2017-11-07T17:03:43Z</time>
      </trkpt>
      <trkpt lat="49.41123" lon="1.15451">
        <ele>146</ele>
        <time>2017-11-07T17:03:43Z</time>
      </trkpt>
      <trkpt lat="49.41119" lon="1.15457">
        <ele>146</ele>
        <time>2017-11-07T17:03:43Z</time>
      </trkpt>
      <trkpt lat="49.41116" lon="1.15462">
        <ele>145</ele>
        <time>2017-11-07T17:03:59Z</time>
      </trkpt>
      <trkpt lat="49.41114" lon="1.15467">
        <ele>145</ele>
        <time>2017-11-07T17:03:59Z</time>
      </trkpt>
      <trkpt lat="49.4111" lon="1.15472">
        <ele>145</ele>
        <time>2017-11-07T17:03:59Z</time>
      </trkpt>
      <trkpt lat="49.41107" lon="1.15477">
        <ele>145</ele>
        <time>2017-11-07T17:03:59Z</time>
      </trkpt>
      <trkpt lat="49.41103" lon="1.15482">
        <ele>145</ele>
        <time>2017-11-07T17:04:15Z</time>
      </trkpt>
      <trkpt lat="49.41098" lon="1.15486">
        <ele>145</ele>
        <time>2017-11-07T17:04:15Z</time>
      </trkpt>
      <trkpt lat="49.41095" lon="1.1549">
        <ele>145</ele>
        <time>2017-11-07T17:04:15Z</time>
      </trkpt>
      <trkpt lat="49.41091" lon="1.15494">
        <ele>145</ele>
        <time>2017-11-07T17:04:15Z</time>
      </trkpt>
      <trkpt lat="49.41087" lon="1.15498">
        <ele>145</ele>
        <time>2017-11-07T17:04:31Z</time>
      </trkpt>
      <trkpt lat="49.41082" lon="1.15501">
        <ele>145</ele>
        <time>2017-11-07T17:04:31Z</time>
      </trkpt>
      <trkpt lat="49.41078" lon="1.15504">
        <ele>145</ele>
        <time>2017-11-07T17:04:31Z</time>
      </trkpt>
      <trkpt lat="49.41074" lon="1.15506">
        <ele>145</ele>
        <time>2017-11-07T17:04:31Z</time>
      </trkpt>
      <trkpt lat="49.4107" lon="1.15508">
        <ele>145</ele>
        <time>2017-11-07T17:04:47Z</time>
      </trkpt>
      <trkpt lat="49.4107" lon="1.15514">
        <ele>145</ele>
        <time>2017-11-07T17:04:47Z</time>
      </trkpt>
      <trkpt lat="49.41069" lon="1.15519">
        <ele>145</ele>
        <time>2017-11-07T17:04:47Z</time>
      </trkpt>
      <trkpt lat="49.41067" lon="1.15527">
        <ele>145</ele>
        <time>2017-11-07T17:04:47Z</time>
      </trkpt>
      <trkpt lat="49.41066" lon="1.15534">
        <ele>145</ele>
        <time>2017-11-07T17:05:03Z</time>
      </trkpt>
      <trkpt lat="49.41065" lon="1.15541">
        <ele>145</ele>
        <time>2017-11-07T17:05:03Z</time>
      </trkpt>
      <trkpt lat="49.41065" lon="1.15548">
        <ele>145</ele>
        <time>2017-11-07T17:05:03Z</time>
      </trkpt>
      <trkpt lat="49.41064" lon="1.15554">
        <ele>145</ele>
        <time>2017-11-07T17:05:03Z</time>
      </trkpt>
      <trkpt lat="49.41064" lon="1.15561">
        <ele>145</ele>
        <time>2017-11-07T17:05:19Z</time>
      </trkpt>
      <trkpt lat="49.41063" lon="1.15567">
        <ele>145</ele>
        <time>2017-11-07T17:05:19Z</time>
      </trkpt>
      <trkpt lat="49.41062" lon="1.15574">
        <ele>145</ele>
        <time>2017-11-07T17:05:19Z</time>
      </trkpt>
      <trkpt lat="49.41061" lon="1.15581">
        <ele>145</ele>
        <time>2017-11-07T17:05:19Z</time>
      </trkpt>
      <trkpt lat="49.41061" lon="1.15589">
        <ele>145</ele>
        <time>2017-11-07T17:05:35Z</time>
      </trkpt>
      <trkpt lat="49.4106" lon="1.15596">
        <ele>145</ele>
        <time>2017-11-07T17:05:35Z</time>
      </trkpt>
      <trkpt lat="49.41059" lon="1.15604">
        <ele>145</ele>
        <time>2017-11-07T17:05:35Z</time>
      </trkpt>
      <trkpt lat="49.41058" lon="1.15611">
        <ele>145</ele>
        <time>2017-11-07T17:05:35Z</time>
      </trkpt>
      <trkpt lat="49.41058" lon="1.15619">
        <ele>145</ele>
        <time>2017-11-07T17:05:51Z</time>
      </trkpt>
      <trkpt lat="49.41059" lon="1.15626">
        <ele>145</ele>
        <time>2017-11-07T17:05:51Z</time>
      </trkpt>
      <trkpt lat="49.41059" lon="1.15633">
        <ele>145</ele>
        <time>2017-11-07T17:05:51Z</time>
      </trkpt>
      <trkpt lat="49.41057" lon="1.15639">
        <ele>145</ele>
        <time>2017-11-07T17:05:51Z</time>
      </trkpt>
      <trkpt lat="49.41055" lon="1.15643">
        <ele>145</ele>
        <time>2017-11-07T17:06:07Z</time>
      </trkpt>
      <trkpt lat="49.41052" lon="1.15647">
        <ele>145</ele>
        <time>2017-11-07T17:06:07Z</time>
      </trkpt>
      <trkpt lat="49.41048" lon="1.15651">
        <ele>145</ele>
        <time>2017-11-07T17:06:07Z</time>
      </trkpt>
      <trkpt lat="49.41045" lon="1.15655">
        <ele>145</ele>
        <time>2017-11-07T17:06:07Z</time>
      </trkpt>
      <trkpt lat="49.41042" lon="1.1566">
        <ele>145</ele>
        <time>2017-11-07T17:06:23Z</time>
      </trkpt>
      <trkpt lat="49.41041" lon="1.15667">
        <ele>149</ele>
        <time>2017-11-07T17:06:23Z</time>
      </trkpt>
      <trkpt lat="49.4104" lon="1.15674">
        <ele>149</ele>
        <time>2017-11-07T17:06:23Z</time>
      </trkpt>
      <trkpt lat="49.41038" lon="1.1568">
        <ele>149</ele>
        <time>2017-11-07T17:06:23Z</time>
      </trkpt>
      <trkpt lat="49.41037" lon="1.15686">
        <ele>149</ele>
        <time>2017-11-07T17:06:39Z</time>
      </trkpt>
      <trkpt lat="49.41035" lon="1.15692">
        <ele>149</ele>
        <time>2017-11-07T17:06:39Z</time>
      </trkpt>
      <trkpt lat="49.41033" lon="1.15698">
        <ele>149</ele>
        <time>2017-11-07T17:06:39Z</time>
      </trkpt>
      <trkpt lat="49.41031" lon="1.15704">
        <ele>149</ele>
        <time>2017-11-07T17:06:39Z</time>
      </trkpt>
      <trkpt lat="49.41029" lon="1.1571">
        <ele>151</ele>
        <time>2017-11-07T17:06:55Z</time>
      </trkpt>
      <trkpt lat="49.41026" lon="1.15716">
        <ele>151</ele>
        <time>2017-11-07T17:06:55Z</time>
      </trkpt>
      <trkpt lat="49.41024" lon="1.15722">
        <ele>151</ele>
        <time>2017-11-07T17:06:55Z</time>
      </trkpt>
      <trkpt lat="49.41022" lon="1.15727">
        <ele>151</ele>
        <time>2017-11-07T17:06:55Z</time>
      </trkpt>
      <trkpt lat="49.4102" lon="1.15734">
        <ele>151</ele>
        <time>2017-11-07T17:07:11Z</time>
      </trkpt>
      <trkpt lat="49.41018" lon="1.1574">
        <ele>151</ele>
        <time>2017-11-07T17:07:11Z</time>
      </trkpt>
      <trkpt lat="49.41015" lon="1.15746">
        <ele>151</ele>
        <time>2017-11-07T17:07:11Z</time>
      </trkpt>
      <trkpt lat="49.41013" lon="1.15751">
        <ele>151</ele>
        <time>2017-11-07T17:07:11Z</time>
      </trkpt>
      <trkpt lat="49.4101" lon="1.15757">
        <ele>151</ele>
        <time>2017-11-07T17:07:27Z</time>
      </trkpt>
      <trkpt lat="49.41008" lon="1.15763">
        <ele>151</ele>
        <time>2017-11-07T17:07:27Z</time>
      </trkpt>
      <trkpt lat="49.41005" lon="1.15769">
        <ele>151</ele>
        <time>2017-11-07T17:07:27Z</time>
      </trkpt>
      <trkpt lat="49.41002" lon="1.15775">
        <ele>151</ele>
        <time>2017-11-07T17:07:27Z</time>
      </trkpt>
      <trkpt lat="49.40999" lon="1.1578">
        <ele>151</ele>
        <time>2017-11-07T17:07:43Z</time>
      </trkpt>
      <trkpt lat="49.40996" lon="1.15785">
        <ele>151</ele>
        <time>2017-11-07T17:07:43Z</time>
      </trkpt>
      <trkpt lat="49.40992" lon="1.1579">
        <ele>151</ele>
        <time>2017-11-07T17:07:43Z</time>
      </trkpt>
      <trkpt lat="49.40988" lon="1.15795">
        <ele>152</ele>
        <time>2017-11-07T17:07:43Z</time>
      </trkpt>
      <trkpt lat="49.40985" lon="1.15799">
        <ele>152</ele>
        <time>2017-11-07T17:07:59Z</time>
      </trkpt>
      <trkpt lat="49.4098" lon="1.15804">
        <ele>152</ele>
        <time>2017-11-07T17:07:59Z</time>
      </trkpt>
      <trkpt lat="49.40977" lon="1.15807">
        <ele>152</ele>
        <time>2017-11-07T17:07:59Z</time>
      </trkpt>
      <trkpt lat="49.40973" lon="1.15811">
        <ele>152</ele>
        <time>2017-11-07T17:07:59Z</time>
      </trkpt>
      <trkpt lat="49.4097" lon="1.15815">
        <ele>152</ele>
        <time>2017-11-07T17:08:15Z</time>
      </trkpt>
      <trkpt lat="49.4097" lon="1.15821">
        <ele>152</ele>
        <time>2017-11-07T17:08:15Z</time>
      </trkpt>
      <trkpt lat="49.40972" lon="1.15827">
        <ele>152</ele>
        <time>2017-11-07T17:08:15Z</time>
      </trkpt>
      <trkpt lat="49.40974" lon="1.15834">
        <ele>152</ele>
        <time>2017-11-07T17:08:15Z</time>
      </trkpt>
      <trkpt lat="49.40971" lon="1.15849">
        <ele>152</ele>
        <time>2017-11-07T17:09:19Z</time>
      </trkpt>
      <trkpt lat="49.4097" lon="1.15848">
        <ele>152</ele>
        <time>2017-11-07T17:09:19Z</time>
      </trkpt>
      <trkpt lat="49.40971" lon="1.15851">
        <ele>152</ele>
        <time>2017-11-07T17:09:19Z</time>
      </trkpt>
      <trkpt lat="49.40973" lon="1.15857">
        <ele>152</ele>
        <time>2017-11-07T17:09:19Z</time>
      </trkpt>
      <trkpt lat="49.40974" lon="1.15864">
        <ele>152</ele>
        <time>2017-11-07T17:09:19Z</time>
      </trkpt>
      <trkpt lat="49.40977" lon="1.15871">
        <ele>152</ele>
        <time>2017-11-07T17:09:35Z</time>
      </trkpt>
      <trkpt lat="49.40981" lon="1.15874">
        <ele>152</ele>
        <time>2017-11-07T17:09:35Z</time>
      </trkpt>
      <trkpt lat="49.40984" lon="1.1588">
        <ele>152</ele>
        <time>2017-11-07T17:09:35Z</time>
      </trkpt>
      <trkpt lat="49.40987" lon="1.15885">
        <ele>152</ele>
        <time>2017-11-07T17:09:35Z</time>
      </trkpt>
      <trkpt lat="49.4099" lon="1.15891">
        <ele>152</ele>
        <time>2017-11-07T17:09:51Z</time>
      </trkpt>
      <trkpt lat="49.40992" lon="1.15897">
        <ele>152</ele>
        <time>2017-11-07T17:09:51Z</time>
      </trkpt>
      <trkpt lat="49.40994" lon="1.15904">
        <ele>152</ele>
        <time>2017-11-07T17:09:51Z</time>
      </trkpt>
      <trkpt lat="49.40995" lon="1.15912">
        <ele>152</ele>
        <time>2017-11-07T17:09:51Z</time>
      </trkpt>
      <trkpt lat="49.40994" lon="1.1592">
        <ele>152</ele>
        <time>2017-11-07T17:10:07Z</time>
      </trkpt>
      <trkpt lat="49.40992" lon="1.15927">
        <ele>152</ele>
        <time>2017-11-07T17:10:07Z</time>
      </trkpt>
      <trkpt lat="49.40988" lon="1.15934">
        <ele>152</ele>
        <time>2017-11-07T17:10:07Z</time>
      </trkpt>
      <trkpt lat="49.40984" lon="1.1594">
        <ele>152</ele>
        <time>2017-11-07T17:10:07Z</time>
      </trkpt>
      <trkpt lat="49.40981" lon="1.15946">
        <ele>152</ele>
        <time>2017-11-07T17:10:23Z</time>
      </trkpt>
      <trkpt lat="49.40979" lon="1.15952">
        <ele>152</ele>
        <time>2017-11-07T17:10:23Z</time>
      </trkpt>
      <trkpt lat="49.40976" lon="1.15958">
        <ele>152</ele>
        <time>2017-11-07T17:10:23Z</time>
      </trkpt>
      <trkpt lat="49.40973" lon="1.15964">
        <ele>154</ele>
        <time>2017-11-07T17:10:23Z</time>
      </trkpt>
      <trkpt lat="49.4097" lon="1.1597">
        <ele>154</ele>
        <time>2017-11-07T17:10:39Z</time>
      </trkpt>
      <trkpt lat="49.40967" lon="1.15975">
        <ele>154</ele>
        <time>2017-11-07T17:10:39Z</time>
      </trkpt>
      <trkpt lat="49.40964" lon="1.15981">
        <ele>154</ele>
        <time>2017-11-07T17:10:39Z</time>
      </trkpt>
      <trkpt lat="49.40961" lon="1.15987">
        <ele>154</ele>
        <time>2017-11-07T17:10:39Z</time>
      </trkpt>
      <trkpt lat="49.40958" lon="1.15992">
        <ele>157</ele>
        <time>2017-11-07T17:10:55Z</time>
      </trkpt>
      <trkpt lat="49.40953" lon="1.15993">
        <ele>157</ele>
        <time>2017-11-07T17:10:55Z</time>
      </trkpt>
      <trkpt lat="49.40948" lon="1.1599">
        <ele>157</ele>
        <time>2017-11-07T17:10:55Z</time>
      </trkpt>
      <trkpt lat="49.40945" lon="1.15984">
        <ele>157</ele>
        <time>2017-11-07T17:10:55Z</time>
      </trkpt>
      <trkpt lat="49.40941" lon="1.1598">
        <ele>157</ele>
        <time>2017-11-07T17:11:11Z</time>
      </trkpt>
      <trkpt lat="49.40936" lon="1.15978">
        <ele>157</ele>
        <time>2017-11-07T17:11:11Z</time>
      </trkpt>
      <trkpt lat="49.40931" lon="1.15975">
        <ele>157</ele>
        <time>2017-11-07T17:11:11Z</time>
      </trkpt>
      <trkpt lat="49.40927" lon="1.15971">
        <ele>157</ele>
        <time>2017-11-07T17:11:11Z</time>
      </trkpt>
      <trkpt lat="49.40922" lon="1.15968">
        <ele>157</ele>
        <time>2017-11-07T17:11:27Z</time>
      </trkpt>
      <trkpt lat="49.40918" lon="1.15966">
        <ele>157</ele>
        <time>2017-11-07T17:11:27Z</time>
      </trkpt>
      <trkpt lat="49.40913" lon="1.15966">
        <ele>157</ele>
        <time>2017-11-07T17:11:27Z</time>
      </trkpt>
      <trkpt lat="49.4091" lon="1.15966">
        <ele>157</ele>
        <time>2017-11-07T17:11:27Z</time>
      </trkpt>
      <trkpt lat="49.40907" lon="1.15971">
        <ele>157</ele>
        <time>2017-11-07T17:11:43Z</time>
      </trkpt>
      <trkpt lat="49.40903" lon="1.15977">
        <ele>157</ele>
        <time>2017-11-07T17:11:43Z</time>
      </trkpt>
      <trkpt lat="49.409" lon="1.15984">
        <ele>157</ele>
        <time>2017-11-07T17:11:43Z</time>
      </trkpt>
      <trkpt lat="49.40897" lon="1.1599">
        <ele>157</ele>
        <time>2017-11-07T17:11:43Z</time>
      </trkpt>
      <trkpt lat="49.40894" lon="1.15996">
        <ele>157</ele>
        <time>2017-11-07T17:11:59Z</time>
      </trkpt>
      <trkpt lat="49.40891" lon="1.16002">
        <ele>157</ele>
        <time>2017-11-07T17:11:59Z</time>
      </trkpt>
      <trkpt lat="49.40888" lon="1.16009">
        <ele>157</ele>
        <time>2017-11-07T17:11:59Z</time>
      </trkpt>
      <trkpt lat="49.40885" lon="1.16015">
        <ele>157</ele>
        <time>2017-11-07T17:11:59Z</time>
      </trkpt>
      <trkpt lat="49.40881" lon="1.1602">
        <ele>157</ele>
        <time>2017-11-07T17:12:15Z</time>
      </trkpt>
      <trkpt lat="49.40878" lon="1.16025">
        <ele>157</ele>
        <time>2017-11-07T17:12:15Z</time>
      </trkpt>
      <trkpt lat="49.40875" lon="1.1603">
        <ele>158</ele>
        <time>2017-11-07T17:12:15Z</time>
      </trkpt>
      <trkpt lat="49.40872" lon="1.16035">
        <ele>158</ele>
        <time>2017-11-07T17:12:15Z</time>
      </trkpt>
      <trkpt lat="49.40869" lon="1.16038">
        <ele>158</ele>
        <time>2017-11-07T17:12:31Z</time>
      </trkpt>
      <trkpt lat="49.40865" lon="1.16042">
        <ele>159</ele>
        <time>2017-11-07T17:12:31Z</time>
      </trkpt>
      <trkpt lat="49.40861" lon="1.16048">
        <ele>159</ele>
        <time>2017-11-07T17:12:31Z</time>
      </trkpt>
      <trkpt lat="49.40857" lon="1.16053">
        <ele>159</ele>
        <time>2017-11-07T17:12:31Z</time>
      </trkpt>
      <trkpt lat="49.40853" lon="1.16058">
        <ele>159</ele>
        <time>2017-11-07T17:12:47Z</time>
      </trkpt>
      <trkpt lat="49.40849" lon="1.16062">
        <ele>159</ele>
        <time>2017-11-07T17:12:47Z</time>
      </trkpt>
      <trkpt lat="49.40846" lon="1.16066">
        <ele>159</ele>
        <time>2017-11-07T17:12:47Z</time>
      </trkpt>
      <trkpt lat="49.40841" lon="1.16071">
        <ele>159</ele>
        <time>2017-11-07T17:12:47Z</time>
      </trkpt>
      <trkpt lat="49.40837" lon="1.16076">
        <ele>159</ele>
        <time>2017-11-07T17:13:03Z</time>
      </trkpt>
      <trkpt lat="49.40834" lon="1.16081">
        <ele>159</ele>
        <time>2017-11-07T17:13:03Z</time>
      </trkpt>
      <trkpt lat="49.4083" lon="1.16086">
        <ele>159</ele>
        <time>2017-11-07T17:13:03Z</time>
      </trkpt>
      <trkpt lat="49.40826" lon="1.16092">
        <ele>159</ele>
        <time>2017-11-07T17:13:03Z</time>
      </trkpt>
      <trkpt lat="49.40822" lon="1.16097">
        <ele>159</ele>
        <time>2017-11-07T17:13:19Z</time>
      </trkpt>
      <trkpt lat="49.40818" lon="1.16102">
        <ele>159</ele>
        <time>2017-11-07T17:13:19Z</time>
      </trkpt>
      <trkpt lat="49.40814" lon="1.16106">
        <ele>159</ele>
        <time>2017-11-07T17:13:19Z</time>
      </trkpt>
      <trkpt lat="49.4081" lon="1.16111">
        <ele>159</ele>
        <time>2017-11-07T17:13:19Z</time>
      </trkpt>
      <trkpt lat="49.40806" lon="1.16116">
        <ele>159</ele>
        <time>2017-11-07T17:13:35Z</time>
      </trkpt>
      <trkpt lat="49.40802" lon="1.16121">
        <ele>159</ele>
        <time>2017-11-07T17:13:35Z</time>
      </trkpt>
      <trkpt lat="49.40799" lon="1.16127">
        <ele>159</ele>
        <time>2017-11-07T17:13:35Z</time>
      </trkpt>
      <trkpt lat="49.40796" lon="1.16132">
        <ele>159</ele>
        <time>2017-11-07T17:13:35Z</time>
      </trkpt>
      <trkpt lat="49.40793" lon="1.16138">
        <ele>159</ele>
        <time>2017-11-07T17:13:51Z</time>
      </trkpt>
      <trkpt lat="49.4079" lon="1.16144">
        <ele>158</ele>
        <time>2017-11-07T17:13:51Z</time>
      </trkpt>
      <trkpt lat="49.40788" lon="1.1615">
        <ele>158</ele>
        <time>2017-11-07T17:13:51Z</time>
      </trkpt>
      <trkpt lat="49.40785" lon="1.16155">
        <ele>158</ele>
        <time>2017-11-07T17:13:51Z</time>
      </trkpt>
      <trkpt lat="49.40782" lon="1.16161">
        <ele>158</ele>
        <time>2017-11-07T17:14:07Z</time>
      </trkpt>
      <trkpt lat="49.4078" lon="1.16168">
        <ele>158</ele>
        <time>2017-11-07T17:14:07Z</time>
      </trkpt>
      <trkpt lat="49.40778" lon="1.16175">
        <ele>158</ele>
        <time>2017-11-07T17:14:07Z</time>
      </trkpt>
      <trkpt lat="49.40776" lon="1.16182">
        <ele>158</ele>
        <time>2017-11-07T17:14:07Z</time>
      </trkpt>
      <trkpt lat="49.40775" lon="1.16189">
        <ele>158</ele>
        <time>2017-11-07T17:14:23Z</time>
      </trkpt>
      <trkpt lat="49.40773" lon="1.16197">
        <ele>158</ele>
        <time>2017-11-07T17:14:23Z</time>
      </trkpt>
      <trkpt lat="49.40771" lon="1.16204">
        <ele>158</ele>
        <time>2017-11-07T17:14:23Z</time>
      </trkpt>
      <trkpt lat="49.40768" lon="1.1621">
        <ele>158</ele>
        <time>2017-11-07T17:14:23Z</time>
      </trkpt>
      <trkpt lat="49.40765" lon="1.16216">
        <ele>158</ele>
        <time>2017-11-07T17:14:39Z</time>
      </trkpt>
      <trkpt lat="49.40761" lon="1.16221">
        <ele>158</ele>
        <time>2017-11-07T17:14:39Z</time>
      </trkpt>
      <trkpt lat="49.40758" lon="1.16227">
        <ele>158</ele>
        <time>2017-11-07T17:14:39Z</time>
      </trkpt>
      <trkpt lat="49.40755" lon="1.16233">
        <ele>158</ele>
        <time>2017-11-07T17:14:39Z</time>
      </trkpt>
      <trkpt lat="49.40752" lon="1.16239">
        <ele>158</ele>
        <time>2017-11-07T17:14:55Z</time>
      </trkpt>
      <trkpt lat="49.40748" lon="1.16245">
        <ele>158</ele>
        <time>2017-11-07T17:14:55Z</time>
      </trkpt>
      <trkpt lat="49.40745" lon="1.16247">
        <ele>158</ele>
        <time>2017-11-07T17:14:55Z</time>
      </trkpt>
      <trkpt lat="49.40743" lon="1.16251">
        <ele>158</ele>
        <time>2017-11-07T17:14:55Z</time>
      </trkpt>
      <trkpt lat="49.4074" lon="1.16256">
        <ele>158</ele>
        <time>2017-11-07T17:15:11Z</time>
      </trkpt>
      <trkpt lat="49.40737" lon="1.16262">
        <ele>158</ele>
        <time>2017-11-07T17:15:11Z</time>
      </trkpt>
      <trkpt lat="49.40733" lon="1.16268">
        <ele>158</ele>
        <time>2017-11-07T17:15:11Z</time>
      </trkpt>
      <trkpt lat="49.4073" lon="1.16274">
        <ele>158</ele>
        <time>2017-11-07T17:15:11Z</time>
      </trkpt>
      <trkpt lat="49.40727" lon="1.1628">
        <ele>158</ele>
        <time>2017-11-07T17:15:27Z</time>
      </trkpt>
      <trkpt lat="49.40724" lon="1.16286">
        <ele>158</ele>
        <time>2017-11-07T17:15:27Z</time>
      </trkpt>
      <trkpt lat="49.40721" lon="1.16291">
        <ele>158</ele>
        <time>2017-11-07T17:15:27Z</time>
      </trkpt>
      <trkpt lat="49.40719" lon="1.16296">
        <ele>158</ele>
        <time>2017-11-07T17:15:27Z</time>
      </trkpt>
      <trkpt lat="49.40717" lon="1.16301">
        <ele>158</ele>
        <time>2017-11-07T17:15:43Z</time>
      </trkpt>
      <trkpt lat="49.40714" lon="1.16307">
        <ele>158</ele>
        <time>2017-11-07T17:15:43Z</time>
      </trkpt>
      <trkpt lat="49.40711" lon="1.16312">
        <ele>158</ele>
        <time>2017-11-07T17:15:43Z</time>
      </trkpt>
      <trkpt lat="49.40709" lon="1.16317">
        <ele>158</ele>
        <time>2017-11-07T17:15:43Z</time>
      </trkpt>
      <trkpt lat="49.40706" lon="1.16322">
        <ele>157</ele>
        <time>2017-11-07T17:15:59Z</time>
      </trkpt>
      <trkpt lat="49.40703" lon="1.16325">
        <ele>157</ele>
        <time>2017-11-07T17:15:59Z</time>
      </trkpt>
      <trkpt lat="49.407" lon="1.16331">
        <ele>157</ele>
        <time>2017-11-07T17:15:59Z</time>
      </trkpt>
      <trkpt lat="49.40697" lon="1.16336">
        <ele>157</ele>
        <time>2017-11-07T17:15:59Z</time>
      </trkpt>
      <trkpt lat="49.40693" lon="1.16341">
        <ele>157</ele>
        <time>2017-11-07T17:16:15Z</time>
      </trkpt>
      <trkpt lat="49.40689" lon="1.16346">
        <ele>157</ele>
        <time>2017-11-07T17:16:15Z</time>
      </trkpt>
      <trkpt lat="49.40686" lon="1.16352">
        <ele>157</ele>
        <time>2017-11-07T17:16:15Z</time>
      </trkpt>
      <trkpt lat="49.40683" lon="1.16358">
        <ele>157</ele>
        <time>2017-11-07T17:16:15Z</time>
      </trkpt>
      <trkpt lat="49.40681" lon="1.16361">
        <ele>157</ele>
        <time>2017-11-07T17:16:31Z</time>
      </trkpt>
      <trkpt lat="49.40679" lon="1.16363">
        <ele>157</ele>
        <time>2017-11-07T17:16:31Z</time>
      </trkpt>
      <trkpt lat="49.40675" lon="1.16369">
        <ele>157</ele>
        <time>2017-11-07T17:16:31Z</time>
      </trkpt>
      <trkpt lat="49.40671" lon="1.16376">
        <ele>158</ele>
        <time>2017-11-07T17:16:31Z</time>
      </trkpt>
      <trkpt lat="49.40668" lon="1.16382">
        <ele>158</ele>
        <time>2017-11-07T17:16:47Z</time>
      </trkpt>
      <trkpt lat="49.40665" lon="1.16388">
        <ele>158</ele>
        <time>2017-11-07T17:16:47Z</time>
      </trkpt>
      <trkpt lat="49.40661" lon="1.16393">
        <ele>158</ele>
        <time>2017-11-07T17:16:47Z</time>
      </trkpt>
      <trkpt lat="49.40658" lon="1.16398">
        <ele>158</ele>
        <time>2017-11-07T17:16:47Z</time>
      </trkpt>
      <trkpt lat="49.40655" lon="1.16404">
        <ele>158</ele>
        <time>2017-11-07T17:17:03Z</time>
      </trkpt>
      <trkpt lat="49.40653" lon="1.16409">
        <ele>158</ele>
        <time>2017-11-07T17:17:03Z</time>
      </trkpt>
      <trkpt lat="49.4065" lon="1.16415">
        <ele>158</ele>
        <time>2017-11-07T17:17:03Z</time>
      </trkpt>
      <trkpt lat="49.40647" lon="1.1642">
        <ele>158</ele>
        <time>2017-11-07T17:17:03Z</time>
      </trkpt>
      <trkpt lat="49.40643" lon="1.16426">
        <ele>158</ele>
        <time>2017-11-07T17:17:19Z</time>
      </trkpt>
      <trkpt lat="49.4064" lon="1.16432">
        <ele>158</ele>
        <time>2017-11-07T17:17:19Z</time>
      </trkpt>
      <trkpt lat="49.40637" lon="1.16437">
        <ele>158</ele>
        <time>2017-11-07T17:17:19Z</time>
      </trkpt>
      <trkpt lat="49.40634" lon="1.16443">
        <ele>158</ele>
        <time>2017-11-07T17:17:19Z</time>
      </trkpt>
      <trkpt lat="49.40631" lon="1.16449">
        <ele>158</ele>
        <time>2017-11-07T17:17:35Z</time>
      </trkpt>
      <trkpt lat="49.40629" lon="1.16456">
        <ele>158</ele>
        <time>2017-11-07T17:17:35Z</time>
      </trkpt>
      <trkpt lat="49.40626" lon="1.16463">
        <ele>158</ele>
        <time>2017-11-07T17:17:35Z</time>
      </trkpt>
      <trkpt lat="49.40623" lon="1.16469">
        <ele>156</ele>
        <time>2017-11-07T17:17:35Z</time>
      </trkpt>
      <trkpt lat="49.40621" lon="1.16475">
        <ele>156</ele>
        <time>2017-11-07T17:17:51Z</time>
      </trkpt>
      <trkpt lat="49.4062" lon="1.1648">
        <ele>156</ele>
        <time>2017-11-07T17:17:51Z</time>
      </trkpt>
      <trkpt lat="49.40618" lon="1.16485">
        <ele>156</ele>
        <time>2017-11-07T17:17:51Z</time>
      </trkpt>
      <trkpt lat="49.40617" lon="1.1649">
        <ele>156</ele>
        <time>2017-11-07T17:17:51Z</time>
      </trkpt>
      <trkpt lat="49.40616" lon="1.16495">
        <ele>156</ele>
        <time>2017-11-07T17:18:07Z</time>
      </trkpt>
      <trkpt lat="49.40613" lon="1.16501">
        <ele>156</ele>
        <time>2017-11-07T17:18:07Z</time>
      </trkpt>
      <trkpt lat="49.4061" lon="1.16508">
        <ele>156</ele>
        <time>2017-11-07T17:18:07Z</time>
      </trkpt>
      <trkpt lat="49.40607" lon="1.16514">
        <ele>156</ele>
        <time>2017-11-07T17:18:07Z</time>
      </trkpt>
      <trkpt lat="49.40607" lon="1.16515">
        <ele>156</ele>
        <time>2017-11-07T17:18:23Z</time>
      </trkpt>
      <trkpt lat="49.40605" lon="1.16519">
        <ele>156</ele>
        <time>2017-11-07T17:18:23Z</time>
      </trkpt>
      <trkpt lat="49.40603" lon="1.16524">
        <ele>156</ele>
        <time>2017-11-07T17:18:23Z</time>
      </trkpt>
      <trkpt lat="49.40598" lon="1.16533">
        <ele>156</ele>
        <time>2017-11-07T17:18:23Z</time>
      </trkpt>
      <trkpt lat="49.40593" lon="1.16541">
        <ele>156</ele>
        <time>2017-11-07T17:18:39Z</time>
      </trkpt>
      <trkpt lat="49.4059" lon="1.16549">
        <ele>157</ele>
        <time>2017-11-07T17:18:39Z</time>
      </trkpt>
      <trkpt lat="49.40588" lon="1.16557">
        <ele>157</ele>
        <time>2017-11-07T17:18:39Z</time>
      </trkpt>
      <trkpt lat="49.40585" lon="1.16563">
        <ele>157</ele>
        <time>2017-11-07T17:18:39Z</time>
      </trkpt>
      <trkpt lat="49.40582" lon="1.16569">
        <ele>157</ele>
        <time>2017-11-07T17:18:55Z</time>
      </trkpt>
      <trkpt lat="49.4058" lon="1.16573">
        <ele>157</ele>
        <time>2017-11-07T17:18:55Z</time>
      </trkpt>
      <trkpt lat="49.40577" lon="1.16579">
        <ele>157</ele>
        <time>2017-11-07T17:18:55Z</time>
      </trkpt>
      <trkpt lat="49.40573" lon="1.16584">
        <ele>157</ele>
        <time>2017-11-07T17:18:55Z</time>
      </trkpt>
      <trkpt lat="49.40569" lon="1.1659">
        <ele>157</ele>
        <time>2017-11-07T17:19:11Z</time>
      </trkpt>
      <trkpt lat="49.40565" lon="1.16596">
        <ele>157</ele>
        <time>2017-11-07T17:19:11Z</time>
      </trkpt>
      <trkpt lat="49.40561" lon="1.16602">
        <ele>157</ele>
        <time>2017-11-07T17:19:11Z</time>
      </trkpt>
      <trkpt lat="49.40557" lon="1.16607">
        <ele>157</ele>
        <time>2017-11-07T17:19:11Z</time>
      </trkpt>
      <trkpt lat="49.40554" lon="1.16615">
        <ele>157</ele>
        <time>2017-11-07T17:19:27Z</time>
      </trkpt>
      <trkpt lat="49.40553" lon="1.16622">
        <ele>157</ele>
        <time>2017-11-07T17:19:27Z</time>
      </trkpt>
      <trkpt lat="49.4055" lon="1.16629">
        <ele>156</ele>
        <time>2017-11-07T17:19:27Z</time>
      </trkpt>
      <trkpt lat="49.40547" lon="1.16636">
        <ele>156</ele>
        <time>2017-11-07T17:19:27Z</time>
      </trkpt>
      <trkpt lat="49.40544" lon="1.16643">
        <ele>156</ele>
        <time>2017-11-07T17:19:43Z</time>
      </trkpt>
      <trkpt lat="49.40542" lon="1.1665">
        <ele>156</ele>
        <time>2017-11-07T17:19:43Z</time>
      </trkpt>
      <trkpt lat="49.40539" lon="1.16656">
        <ele>154</ele>
        <time>2017-11-07T17:19:43Z</time>
      </trkpt>
      <trkpt lat="49.40538" lon="1.1666">
        <ele>154</ele>
        <time>2017-11-07T17:19:43Z</time>
      </trkpt>
      <trkpt lat="49.40536" lon="1.16665">
        <ele>154</ele>
        <time>2017-11-07T17:19:59Z</time>
      </trkpt>
      <trkpt lat="49.40533" lon="1.16671">
        <ele>154</ele>
        <time>2017-11-07T17:19:59Z</time>
      </trkpt>
      <trkpt lat="49.4053" lon="1.16677">
        <ele>154</ele>
        <time>2017-11-07T17:19:59Z</time>
      </trkpt>
      <trkpt lat="49.40525" lon="1.16682">
        <ele>154</ele>
        <time>2017-11-07T17:19:59Z</time>
      </trkpt>
      <trkpt lat="49.40522" lon="1.16688">
        <ele>154</ele>
        <time>2017-11-07T17:20:15Z</time>
      </trkpt>
      <trkpt lat="49.40518" lon="1.16694">
        <ele>154</ele>
        <time>2017-11-07T17:20:15Z</time>
      </trkpt>
      <trkpt lat="49.40516" lon="1.167">
        <ele>154</ele>
        <time>2017-11-07T17:20:15Z</time>
      </trkpt>
      <trkpt lat="49.40513" lon="1.16705">
        <ele>154</ele>
        <time>2017-11-07T17:20:15Z</time>
      </trkpt>
      <trkpt lat="49.40511" lon="1.1671">
        <ele>154</ele>
        <time>2017-11-07T17:20:31Z</time>
      </trkpt>
      <trkpt lat="49.40507" lon="1.16713">
        <ele>154</ele>
        <time>2017-11-07T17:20:31Z</time>
      </trkpt>
      <trkpt lat="49.40504" lon="1.16717">
        <ele>154</ele>
        <time>2017-11-07T17:20:31Z</time>
      </trkpt>
      <trkpt lat="49.40502" lon="1.16723">
        <ele>154</ele>
        <time>2017-11-07T17:20:31Z</time>
      </trkpt>
      <trkpt lat="49.405" lon="1.1673">
        <ele>154</ele>
        <time>2017-11-07T17:20:47Z</time>
      </trkpt>
      <trkpt lat="49.40497" lon="1.16737">
        <ele>154</ele>
        <time>2017-11-07T17:20:47Z</time>
      </trkpt>
      <trkpt lat="49.40494" lon="1.16742">
        <ele>154</ele>
        <time>2017-11-07T17:20:47Z</time>
      </trkpt>
      <trkpt lat="49.4049" lon="1.16746">
        <ele>154</ele>
        <time>2017-11-07T17:20:47Z</time>
      </trkpt>
      <trkpt lat="49.40487" lon="1.16752">
        <ele>154</ele>
        <time>2017-11-07T17:21:03Z</time>
      </trkpt>
      <trkpt lat="49.40484" lon="1.16758">
        <ele>154</ele>
        <time>2017-11-07T17:21:03Z</time>
      </trkpt>
      <trkpt lat="49.40481" lon="1.16765">
        <ele>154</ele>
        <time>2017-11-07T17:21:03Z</time>
      </trkpt>
      <trkpt lat="49.40478" lon="1.16771">
        <ele>154</ele>
        <time>2017-11-07T17:21:03Z</time>
      </trkpt>
      <trkpt lat="49.40475" lon="1.16778">
        <ele>154</ele>
        <time>2017-11-07T17:21:19Z</time>
      </trkpt>
      <trkpt lat="49.40472" lon="1.16785">
        <ele>154</ele>
        <time>2017-11-07T17:21:19Z</time>
      </trkpt>
      <trkpt lat="49.40469" lon="1.16791">
        <ele>154</ele>
        <time>2017-11-07T17:21:19Z</time>
      </trkpt>
      <trkpt lat="49.40465" lon="1.16797">
        <ele>155</ele>
        <time>2017-11-07T17:21:19Z</time>
      </trkpt>
      <trkpt lat="49.40462" lon="1.16802">
        <ele>155</ele>
        <time>2017-11-07T17:21:35Z</time>
      </trkpt>
      <trkpt lat="49.40458" lon="1.16807">
        <ele>153</ele>
        <time>2017-11-07T17:21:35Z</time>
      </trkpt>
      <trkpt lat="49.40455" lon="1.16812">
        <ele>153</ele>
        <time>2017-11-07T17:21:35Z</time>
      </trkpt>
      <trkpt lat="49.40451" lon="1.16816">
        <ele>153</ele>
        <time>2017-11-07T17:21:35Z</time>
      </trkpt>
      <trkpt lat="49.40447" lon="1.1682">
        <ele>153</ele>
        <time>2017-11-07T17:21:51Z</time>
      </trkpt>
      <trkpt lat="49.40443" lon="1.16825">
        <ele>153</ele>
        <time>2017-11-07T17:21:51Z</time>
      </trkpt>
      <trkpt lat="49.40438" lon="1.16828">
        <ele>153</ele>
        <time>2017-11-07T17:21:51Z</time>
      </trkpt>
      <trkpt lat="49.40434" lon="1.16832">
        <ele>153</ele>
        <time>2017-11-07T17:21:51Z</time>
      </trkpt>
      <trkpt lat="49.4043" lon="1.16835">
        <ele>153</ele>
        <time>2017-11-07T17:22:07Z</time>
      </trkpt>
      <trkpt lat="49.40426" lon="1.16838">
        <ele>153</ele>
        <time>2017-11-07T17:22:07Z</time>
      </trkpt>
      <trkpt lat="49.40422" lon="1.16839">
        <ele>153</ele>
        <time>2017-11-07T17:22:07Z</time>
      </trkpt>
      <trkpt lat="49.40418" lon="1.16841">
        <ele>153</ele>
        <time>2017-11-07T17:22:07Z</time>
      </trkpt>
      <trkpt lat="49.40413" lon="1.16843">
        <ele>153</ele>
        <time>2017-11-07T17:22:23Z</time>
      </trkpt>
      <trkpt lat="49.40408" lon="1.16845">
        <ele>153</ele>
        <time>2017-11-07T17:22:23Z</time>
      </trkpt>
      <trkpt lat="49.40403" lon="1.16846">
        <ele>153</ele>
        <time>2017-11-07T17:22:23Z</time>
      </trkpt>
      <trkpt lat="49.40398" lon="1.16848">
        <ele>153</ele>
        <time>2017-11-07T17:22:23Z</time>
      </trkpt>
      <trkpt lat="49.40393" lon="1.1685">
        <ele>153</ele>
        <time>2017-11-07T17:22:39Z</time>
      </trkpt>
      <trkpt lat="49.40388" lon="1.16852">
        <ele>153</ele>
        <time>2017-11-07T17:22:39Z</time>
      </trkpt>
      <trkpt lat="49.40383" lon="1.16853">
        <ele>153</ele>
        <time>2017-11-07T17:22:39Z</time>
      </trkpt>
      <trkpt lat="49.40378" lon="1.16855">
        <ele>153</ele>
        <time>2017-11-07T17:22:39Z</time>
      </trkpt>
      <trkpt lat="49.40374" lon="1.16857">
        <ele>151</ele>
        <time>2017-11-07T17:22:55Z</time>
      </trkpt>
      <trkpt lat="49.4037" lon="1.16859">
        <ele>151</ele>
        <time>2017-11-07T17:22:55Z</time>
      </trkpt>
      <trkpt lat="49.40367" lon="1.16861">
        <ele>151</ele>
        <time>2017-11-07T17:22:55Z</time>
      </trkpt>
      <trkpt lat="49.40365" lon="1.16863">
        <ele>151</ele>
        <time>2017-11-07T17:22:55Z</time>
      </trkpt>
      <trkpt lat="49.40363" lon="1.16863">
        <ele>151</ele>
        <time>2017-11-07T17:23:11Z</time>
      </trkpt>
      <trkpt lat="49.4036" lon="1.16866">
        <ele>151</ele>
        <time>2017-11-07T17:23:11Z</time>
      </trkpt>
      <trkpt lat="49.40355" lon="1.16869">
        <ele>151</ele>
        <time>2017-11-07T17:23:11Z</time>
      </trkpt>
      <trkpt lat="49.40352" lon="1.16872">
        <ele>151</ele>
        <time>2017-11-07T17:23:11Z</time>
      </trkpt>
      <trkpt lat="49.40348" lon="1.16873">
        <ele>151</ele>
        <time>2017-11-07T17:23:27Z</time>
      </trkpt>
      <trkpt lat="49.40344" lon="1.16876">
        <ele>151</ele>
        <time>2017-11-07T17:23:27Z</time>
      </trkpt>
      <trkpt lat="49.4034" lon="1.16878">
        <ele>151</ele>
        <time>2017-11-07T17:23:27Z</time>
      </trkpt>
      <trkpt lat="49.40336" lon="1.1688">
        <ele>151</ele>
        <time>2017-11-07T17:23:27Z</time>
      </trkpt>
      <trkpt lat="49.40332" lon="1.16883">
        <ele>151</ele>
        <time>2017-11-07T17:23:43Z</time>
      </trkpt>
      <trkpt lat="49.40329" lon="1.16885">
        <ele>151</ele>
        <time>2017-11-07T17:23:43Z</time>
      </trkpt>
      <trkpt lat="49.40327" lon="1.16887">
        <ele>151</ele>
        <time>2017-11-07T17:23:43Z</time>
      </trkpt>
      <trkpt lat="49.40323" lon="1.16889">
        <ele>151</ele>
        <time>2017-11-07T17:23:43Z</time>
      </trkpt>
      <trkpt lat="49.4032" lon="1.16891">
        <ele>151</ele>
        <time>2017-11-07T17:23:59Z</time>
      </trkpt>
      <trkpt lat="49.40316" lon="1.16894">
        <ele>151</ele>
        <time>2017-11-07T17:23:59Z</time>
      </trkpt>
      <trkpt lat="49.40311" lon="1.16897">
        <ele>151</ele>
        <time>2017-11-07T17:23:59Z</time>
      </trkpt>
      <trkpt lat="49.40306" lon="1.16899">
        <ele>151</ele>
        <time>2017-11-07T17:23:59Z</time>
      </trkpt>
      <trkpt lat="49.40302" lon="1.16903">
        <ele>151</ele>
        <time>2017-11-07T17:24:15Z</time>
      </trkpt>
      <trkpt lat="49.40297" lon="1.16908">
        <ele>151</ele>
        <time>2017-11-07T17:24:15Z</time>
      </trkpt>
      <trkpt lat="49.40291" lon="1.16912">
        <ele>148</ele>
        <time>2017-11-07T17:24:15Z</time>
      </trkpt>
      <trkpt lat="49.40285" lon="1.16917">
        <ele>148</ele>
        <time>2017-11-07T17:24:15Z</time>
      </trkpt>
      <trkpt lat="49.4028" lon="1.16923">
        <ele>148</ele>
        <time>2017-11-07T17:24:31Z</time>
      </trkpt>
      <trkpt lat="49.40275" lon="1.16929">
        <ele>148</ele>
        <time>2017-11-07T17:24:31Z</time>
      </trkpt>
      <trkpt lat="49.4027" lon="1.16932">
        <ele>148</ele>
        <time>2017-11-07T17:24:31Z</time>
      </trkpt>
      <trkpt lat="49.40265" lon="1.16937">
        <ele>148</ele>
        <time>2017-11-07T17:24:31Z</time>
      </trkpt>
      <trkpt lat="49.40261" lon="1.1694">
        <ele>148</ele>
        <time>2017-11-07T17:24:47Z</time>
      </trkpt>
      <trkpt lat="49.40256" lon="1.16944">
        <ele>148</ele>
        <time>2017-11-07T17:24:47Z</time>
      </trkpt>
      <trkpt lat="49.40252" lon="1.16947">
        <ele>148</ele>
        <time>2017-11-07T17:24:47Z</time>
      </trkpt>
      <trkpt lat="49.40247" lon="1.16951">
        <ele>148</ele>
        <time>2017-11-07T17:24:47Z</time>
      </trkpt>
      <trkpt lat="49.40243" lon="1.16956">
        <ele>148</ele>
        <time>2017-11-07T17:25:03Z</time>
      </trkpt>
      <trkpt lat="49.40241" lon="1.16961">
        <ele>149</ele>
        <time>2017-11-07T17:25:03Z</time>
      </trkpt>
      <trkpt lat="49.40238" lon="1.16966">
        <ele>149</ele>
        <time>2017-11-07T17:25:03Z</time>
      </trkpt>
      <trkpt lat="49.40236" lon="1.16972">
        <ele>149</ele>
        <time>2017-11-07T17:25:03Z</time>
      </trkpt>
      <trkpt lat="49.40234" lon="1.16977">
        <ele>149</ele>
        <time>2017-11-07T17:25:19Z</time>
      </trkpt>
      <trkpt lat="49.40232" lon="1.16983">
        <ele>149</ele>
        <time>2017-11-07T17:25:19Z</time>
      </trkpt>
      <trkpt lat="49.40229" lon="1.16989">
        <ele>149</ele>
        <time>2017-11-07T17:25:19Z</time>
      </trkpt>
      <trkpt lat="49.40227" lon="1.16996">
        <ele>149</ele>
        <time>2017-11-07T17:25:19Z</time>
      </trkpt>
      <trkpt lat="49.40224" lon="1.17001">
        <ele>149</ele>
        <time>2017-11-07T17:25:35Z</time>
      </trkpt>
      <trkpt lat="49.40221" lon="1.17008">
        <ele>149</ele>
        <time>2017-11-07T17:25:35Z</time>
      </trkpt>
      <trkpt lat="49.40218" lon="1.17014">
        <ele>149</ele>
        <time>2017-11-07T17:25:35Z</time>
      </trkpt>
      <trkpt lat="49.40215" lon="1.17021">
        <ele>149</ele>
        <time>2017-11-07T17:25:35Z</time>
      </trkpt>
      <trkpt lat="49.40213" lon="1.17026">
        <ele>149</ele>
        <time>2017-11-07T17:25:51Z</time>
      </trkpt>
      <trkpt lat="49.4021" lon="1.17032">
        <ele>149</ele>
        <time>2017-11-07T17:25:51Z</time>
      </trkpt>
      <trkpt lat="49.40208" lon="1.17038">
        <ele>147</ele>
        <time>2017-11-07T17:25:51Z</time>
      </trkpt>
      <trkpt lat="49.40205" lon="1.17043">
        <ele>147</ele>
        <time>2017-11-07T17:25:51Z</time>
      </trkpt>
      <trkpt lat="49.40204" lon="1.17046">
        <ele>147</ele>
        <time>2017-11-07T17:26:07Z</time>
      </trkpt>
      <trkpt lat="49.40201" lon="1.17055">
        <ele>147</ele>
        <time>2017-11-07T17:26:07Z</time>
      </trkpt>
      <trkpt lat="49.40199" lon="1.17061">
        <ele>147</ele>
        <time>2017-11-07T17:26:07Z</time>
      </trkpt>
      <trkpt lat="49.40196" lon="1.17066">
        <ele>147</ele>
        <time>2017-11-07T17:26:07Z</time>
      </trkpt>
      <trkpt lat="49.40193" lon="1.17072">
        <ele>147</ele>
        <time>2017-11-07T17:26:23Z</time>
      </trkpt>
      <trkpt lat="49.40191" lon="1.17078">
        <ele>147</ele>
        <time>2017-11-07T17:26:23Z</time>
      </trkpt>
      <trkpt lat="49.4019" lon="1.17084">
        <ele>147</ele>
        <time>2017-11-07T17:26:23Z</time>
      </trkpt>
      <trkpt lat="49.40188" lon="1.17091">
        <ele>147</ele>
        <time>2017-11-07T17:26:23Z</time>
      </trkpt>
      <trkpt lat="49.40187" lon="1.17097">
        <ele>147</ele>
        <time>2017-11-07T17:26:39Z</time>
      </trkpt>
      <trkpt lat="49.40187" lon="1.17106">
        <ele>147</ele>
        <time>2017-11-07T17:26:39Z</time>
      </trkpt>
      <trkpt lat="49.4019" lon="1.17111">
        <ele>147</ele>
        <time>2017-11-07T17:26:39Z</time>
      </trkpt>
      <trkpt lat="49.40194" lon="1.17116">
        <ele>147</ele>
        <time>2017-11-07T17:26:39Z</time>
      </trkpt>
      <trkpt lat="49.40197" lon="1.17121">
        <ele>147</ele>
        <time>2017-11-07T17:26:55Z</time>
      </trkpt>
      <trkpt lat="49.40199" lon="1.17126">
        <ele>147</ele>
        <time>2017-11-07T17:26:55Z</time>
      </trkpt>
      <trkpt lat="49.40201" lon="1.17132">
        <ele>147</ele>
        <time>2017-11-07T17:26:55Z</time>
      </trkpt>
      <trkpt lat="49.40201" lon="1.17138">
        <ele>147</ele>
        <time>2017-11-07T17:26:55Z</time>
      </trkpt>
      <trkpt lat="49.40202" lon="1.17143">
        <ele>147</ele>
        <time>2017-11-07T17:27:11Z</time>
      </trkpt>
      <trkpt lat="49.40207" lon="1.17143">
        <ele>147</ele>
        <time>2017-11-07T17:27:11Z</time>
      </trkpt>
      <trkpt lat="49.4021" lon="1.17145">
        <ele>150</ele>
        <time>2017-11-07T17:27:11Z</time>
      </trkpt>
      <trkpt lat="49.40214" lon="1.17148">
        <ele>150</ele>
        <time>2017-11-07T17:27:11Z</time>
      </trkpt>
      <trkpt lat="49.40219" lon="1.17152">
        <ele>150</ele>
        <time>2017-11-07T17:27:27Z</time>
      </trkpt>
      <trkpt lat="49.40223" lon="1.17156">
        <ele>150</ele>
        <time>2017-11-07T17:27:27Z</time>
      </trkpt>
      <trkpt lat="49.40228" lon="1.1716">
        <ele>150</ele>
        <time>2017-11-07T17:27:27Z</time>
      </trkpt>
      <trkpt lat="49.40233" lon="1.17164">
        <ele>150</ele>
        <time>2017-11-07T17:27:27Z</time>
      </trkpt>
      <trkpt lat="49.40238" lon="1.17167">
        <ele>150</ele>
        <time>2017-11-07T17:27:43Z</time>
      </trkpt>
      <trkpt lat="49.40242" lon="1.17169">
        <ele>150</ele>
        <time>2017-11-07T17:27:43Z</time>
      </trkpt>
      <trkpt lat="49.40247" lon="1.17171">
        <ele>150</ele>
        <time>2017-11-07T17:27:43Z</time>
      </trkpt>
      <trkpt lat="49.40252" lon="1.17173">
        <ele>150</ele>
        <time>2017-11-07T17:27:43Z</time>
      </trkpt>
      <trkpt lat="49.40256" lon="1.17176">
        <ele>150</ele>
        <time>2017-11-07T17:27:59Z</time>
      </trkpt>
      <trkpt lat="49.4026" lon="1.17178">
        <ele>150</ele>
        <time>2017-11-07T17:27:59Z</time>
      </trkpt>
      <trkpt lat="49.40263" lon="1.1718">
        <ele>150</ele>
        <time>2017-11-07T17:27:59Z</time>
      </trkpt>
      <trkpt lat="49.40266" lon="1.17183">
        <ele>150</ele>
        <time>2017-11-07T17:27:59Z</time>
      </trkpt>
      <trkpt lat="49.40269" lon="1.17185">
        <ele>150</ele>
        <time>2017-11-07T17:28:15Z</time>
      </trkpt>
      <trkpt lat="49.40273" lon="1.17188">
        <ele>150</ele>
        <time>2017-11-07T17:28:15Z</time>
      </trkpt>
      <trkpt lat="49.40276" lon="1.17192">
        <ele>150</ele>
        <time>2017-11-07T17:28:15Z</time>
      </trkpt>
      <trkpt lat="49.4028" lon="1.17195">
        <ele>150</ele>
        <time>2017-11-07T17:28:15Z</time>
      </trkpt>
      <trkpt lat="49.40284" lon="1.17198">
        <ele>150</ele>
        <time>2017-11-07T17:28:31Z</time>
      </trkpt>
      <trkpt lat="49.40288" lon="1.17201">
        <ele>150</ele>
        <time>2017-11-07T17:28:31Z</time>
      </trkpt>
      <trkpt lat="49.40292" lon="1.17203">
        <ele>151</ele>
        <time>2017-11-07T17:28:31Z</time>
      </trkpt>
      <trkpt lat="49.40296" lon="1.17206">
        <ele>151</ele>
        <time>2017-11-07T17:28:31Z</time>
      </trkpt>
      <trkpt lat="49.40299" lon="1.17209">
        <ele>151</ele>
        <time>2017-11-07T17:28:47Z</time>
      </trkpt>
      <trkpt lat="49.40301" lon="1.1721">
        <ele>151</ele>
        <time>2017-11-07T17:28:47Z</time>
      </trkpt>
      <trkpt lat="49.40305" lon="1.17213">
        <ele>151</ele>
        <time>2017-11-07T17:28:47Z</time>
      </trkpt>
      <trkpt lat="49.40309" lon="1.17216">
        <ele>151</ele>
        <time>2017-11-07T17:28:47Z</time>
      </trkpt>
      <trkpt lat="49.40313" lon="1.17218">
        <ele>151</ele>
        <time>2017-11-07T17:29:07Z</time>
      </trkpt>
      <trkpt lat="49.40316" lon="1.17221">
        <ele>151</ele>
        <time>2017-11-07T17:29:07Z</time>
      </trkpt>
      <trkpt lat="49.40319" lon="1.1722">
        <ele>151</ele>
        <time>2017-11-07T17:29:07Z</time>
      </trkpt>
      <trkpt lat="49.4032" lon="1.17214">
        <ele>151</ele>
        <time>2017-11-07T17:29:07Z</time>
      </trkpt>
      <trkpt lat="49.40321" lon="1.1721">
        <ele>151</ele>
        <time>2017-11-07T17:29:07Z</time>
      </trkpt>
    </trkseg>
  </trk>
</gpx>